<?xml version="1.0" encoding="UTF-8" standalone="no" ?>
<gpx xmlns="http://www.topografix.com/GPX/1/1" xmlns:xsi="http://www.w3.org/2001/XMLSchema-instance" xsi:schemaLocation="http://www.topografix.com/GPX/1/1 http://www.topografix.com/GPX/1/1/gpx.xsd" version="1.1" creator="VisuGPX - https://www.visugpx.com">
  <metadata>
    <name>2022-07-12 08:25 Landevennec - Lanveoc</name>
    <desc><![CDATA[File with points/tracks from LocusWorld/]]></desc>
  </metadata>
  <trk>
    <name><![CDATA[2022-07-12 08:25 Landevennec - Lanveoc]]></name>
    <extensions>
      <line xmlns="http://www.topografix.com/GPX/gpx_style/0/2">
        <color>FF0000</color>
        <opacity>0.78</opacity>
        <width>3.0</width>
      </line>
    </extensions>
    <trkseg>
      <trkpt lat="48.29221" lon="-4.26804">
        <ele>17.67</ele>
        <time>2022-07-12T06:25:51.793Z</time>
      </trkpt>
      <trkpt lat="48.29221" lon="-4.26791">
        <ele>19.17</ele>
        <time>2022-07-12T06:26:01.000Z</time>
      </trkpt>
      <trkpt lat="48.29218" lon="-4.26784">
        <ele>19.16</ele>
        <time>2022-07-12T06:26:10.412Z</time>
      </trkpt>
      <trkpt lat="48.29217" lon="-4.26769">
        <ele>19.73</ele>
        <time>2022-07-12T06:26:19.919Z</time>
      </trkpt>
      <trkpt lat="48.29223" lon="-4.26762">
        <ele>19.77</ele>
        <time>2022-07-12T06:26:29.699Z</time>
      </trkpt>
      <trkpt lat="48.29233" lon="-4.26758">
        <ele>17.37</ele>
        <time>2022-07-12T06:26:38.915Z</time>
      </trkpt>
      <trkpt lat="48.29242" lon="-4.26756">
        <ele>18.79</ele>
        <time>2022-07-12T06:26:48.675Z</time>
      </trkpt>
      <trkpt lat="48.29241" lon="-4.26756">
        <ele>17.67</ele>
        <time>2022-07-12T06:27:06.695Z</time>
      </trkpt>
      <trkpt lat="48.29246" lon="-4.26756">
        <ele>17.7</ele>
        <time>2022-07-12T06:27:15.756Z</time>
      </trkpt>
      <trkpt lat="48.29257" lon="-4.26758">
        <ele>17.27</ele>
        <time>2022-07-12T06:27:25.000Z</time>
      </trkpt>
      <trkpt lat="48.29266" lon="-4.26761">
        <ele>16.67</ele>
        <time>2022-07-12T06:27:34.232Z</time>
      </trkpt>
      <trkpt lat="48.29276" lon="-4.26761">
        <ele>16.77</ele>
        <time>2022-07-12T06:27:43.732Z</time>
      </trkpt>
      <trkpt lat="48.29284" lon="-4.26765">
        <ele>15.37</ele>
        <time>2022-07-12T06:27:53.415Z</time>
      </trkpt>
      <trkpt lat="48.29293" lon="-4.26765">
        <ele>15.37</ele>
        <time>2022-07-12T06:28:02.477Z</time>
      </trkpt>
      <trkpt lat="48.293" lon="-4.26764">
        <ele>15.37</ele>
        <time>2022-07-12T06:28:11.654Z</time>
      </trkpt>
      <trkpt lat="48.29312" lon="-4.26764">
        <ele>15.37</ele>
        <time>2022-07-12T06:28:21.658Z</time>
      </trkpt>
      <trkpt lat="48.2932" lon="-4.26764">
        <ele>13.28</ele>
        <time>2022-07-12T06:28:30.798Z</time>
      </trkpt>
      <trkpt lat="48.29333" lon="-4.26764">
        <ele>13.62</ele>
        <time>2022-07-12T06:28:40.375Z</time>
      </trkpt>
      <trkpt lat="48.29337" lon="-4.26768">
        <ele>13.67</ele>
        <time>2022-07-12T06:28:49.516Z</time>
      </trkpt>
      <trkpt lat="48.29346" lon="-4.26774">
        <ele>12.87</ele>
        <time>2022-07-12T06:28:58.814Z</time>
      </trkpt>
      <trkpt lat="48.29354" lon="-4.26779">
        <ele>12.87</ele>
        <time>2022-07-12T06:29:08.359Z</time>
      </trkpt>
      <trkpt lat="48.29362" lon="-4.26784">
        <ele>8.38</ele>
        <time>2022-07-12T06:29:17.615Z</time>
      </trkpt>
      <trkpt lat="48.29371" lon="-4.26788">
        <ele>9.77</ele>
        <time>2022-07-12T06:29:26.712Z</time>
      </trkpt>
      <trkpt lat="48.29379" lon="-4.26795">
        <ele>9.02</ele>
        <time>2022-07-12T06:29:36.495Z</time>
      </trkpt>
      <trkpt lat="48.29386" lon="-4.26809">
        <ele>13.27</ele>
        <time>2022-07-12T06:29:45.998Z</time>
      </trkpt>
      <trkpt lat="48.29396" lon="-4.2682">
        <ele>6.77</ele>
        <time>2022-07-12T06:29:55.598Z</time>
      </trkpt>
      <trkpt lat="48.29404" lon="-4.26829">
        <ele>7.76</ele>
        <time>2022-07-12T06:30:05.000Z</time>
      </trkpt>
      <trkpt lat="48.29409" lon="-4.26839">
        <ele>6.78</ele>
        <time>2022-07-12T06:30:14.655Z</time>
      </trkpt>
      <trkpt lat="48.29414" lon="-4.26851">
        <ele>6.76</ele>
        <time>2022-07-12T06:30:24.000Z</time>
      </trkpt>
      <trkpt lat="48.29422" lon="-4.26863">
        <ele>5.76</ele>
        <time>2022-07-12T06:30:33.515Z</time>
      </trkpt>
      <trkpt lat="48.29428" lon="-4.26874">
        <ele>5.76</ele>
        <time>2022-07-12T06:30:42.582Z</time>
      </trkpt>
      <trkpt lat="48.2943" lon="-4.26888">
        <ele>8.76</ele>
        <time>2022-07-12T06:30:51.593Z</time>
      </trkpt>
      <trkpt lat="48.29428" lon="-4.26905">
        <ele>9.76</ele>
        <time>2022-07-12T06:31:01.638Z</time>
      </trkpt>
      <trkpt lat="48.29429" lon="-4.26916">
        <ele>9.76</ele>
        <time>2022-07-12T06:31:10.833Z</time>
      </trkpt>
      <trkpt lat="48.29431" lon="-4.26923">
        <ele>9.76</ele>
        <time>2022-07-12T06:31:19.839Z</time>
      </trkpt>
      <trkpt lat="48.29437" lon="-4.26935">
        <ele>9.76</ele>
        <time>2022-07-12T06:31:29.138Z</time>
      </trkpt>
      <trkpt lat="48.2944" lon="-4.2695">
        <ele>9.76</ele>
        <time>2022-07-12T06:31:38.875Z</time>
      </trkpt>
      <trkpt lat="48.29444" lon="-4.26959">
        <ele>9.76</ele>
        <time>2022-07-12T06:31:49.000Z</time>
      </trkpt>
      <trkpt lat="48.29448" lon="-4.26965">
        <ele>9.76</ele>
        <time>2022-07-12T06:31:58.276Z</time>
      </trkpt>
      <trkpt lat="48.29453" lon="-4.26975">
        <ele>9.76</ele>
        <time>2022-07-12T06:32:07.735Z</time>
      </trkpt>
      <trkpt lat="48.29458" lon="-4.2699">
        <ele>9.76</ele>
        <time>2022-07-12T06:32:18.000Z</time>
      </trkpt>
      <trkpt lat="48.29465" lon="-4.27">
        <ele>7.76</ele>
        <time>2022-07-12T06:32:27.758Z</time>
      </trkpt>
      <trkpt lat="48.29469" lon="-4.27008">
        <ele>6.76</ele>
        <time>2022-07-12T06:32:36.975Z</time>
      </trkpt>
      <trkpt lat="48.29475" lon="-4.27021">
        <ele>6.76</ele>
        <time>2022-07-12T06:32:46.752Z</time>
      </trkpt>
      <trkpt lat="48.29477" lon="-4.27032">
        <ele>7.76</ele>
        <time>2022-07-12T06:32:56.000Z</time>
      </trkpt>
      <trkpt lat="48.29479" lon="-4.27037">
        <ele>7.76</ele>
        <time>2022-07-12T06:33:05.857Z</time>
      </trkpt>
      <trkpt lat="48.29483" lon="-4.27046">
        <ele>8.76</ele>
        <time>2022-07-12T06:33:15.000Z</time>
      </trkpt>
      <trkpt lat="48.29489" lon="-4.27058">
        <ele>8.76</ele>
        <time>2022-07-12T06:33:24.255Z</time>
      </trkpt>
      <trkpt lat="48.29495" lon="-4.27072">
        <ele>15.56</ele>
        <time>2022-07-12T06:33:33.656Z</time>
      </trkpt>
      <trkpt lat="48.295" lon="-4.27086">
        <ele>15.56</ele>
        <time>2022-07-12T06:33:42.898Z</time>
      </trkpt>
      <trkpt lat="48.29501" lon="-4.27097">
        <ele>10.72</ele>
        <time>2022-07-12T06:33:52.000Z</time>
      </trkpt>
      <trkpt lat="48.29507" lon="-4.27105">
        <ele>10.76</ele>
        <time>2022-07-12T06:34:02.000Z</time>
      </trkpt>
      <trkpt lat="48.29513" lon="-4.27113">
        <ele>10.76</ele>
        <time>2022-07-12T06:34:11.498Z</time>
      </trkpt>
      <trkpt lat="48.29518" lon="-4.27123">
        <ele>12.76</ele>
        <time>2022-07-12T06:34:21.257Z</time>
      </trkpt>
      <trkpt lat="48.29521" lon="-4.27131">
        <ele>12.76</ele>
        <time>2022-07-12T06:34:30.676Z</time>
      </trkpt>
      <trkpt lat="48.29524" lon="-4.2714">
        <ele>13.76</ele>
        <time>2022-07-12T06:34:39.697Z</time>
      </trkpt>
      <trkpt lat="48.29526" lon="-4.27145">
        <ele>14.81</ele>
        <time>2022-07-12T06:34:49.437Z</time>
      </trkpt>
      <trkpt lat="48.29528" lon="-4.27152">
        <ele>14.76</ele>
        <time>2022-07-12T06:34:58.590Z</time>
      </trkpt>
      <trkpt lat="48.29531" lon="-4.27163">
        <ele>15.76</ele>
        <time>2022-07-12T06:35:08.000Z</time>
      </trkpt>
      <trkpt lat="48.29533" lon="-4.27173">
        <ele>16.76</ele>
        <time>2022-07-12T06:35:17.720Z</time>
      </trkpt>
      <trkpt lat="48.29534" lon="-4.2718">
        <ele>16.76</ele>
        <time>2022-07-12T06:35:26.772Z</time>
      </trkpt>
      <trkpt lat="48.29536" lon="-4.2719">
        <ele>16.76</ele>
        <time>2022-07-12T06:35:36.456Z</time>
      </trkpt>
      <trkpt lat="48.29539" lon="-4.27201">
        <ele>18.7</ele>
        <time>2022-07-12T06:35:45.732Z</time>
      </trkpt>
      <trkpt lat="48.29539" lon="-4.27207">
        <ele>18.76</ele>
        <time>2022-07-12T06:35:55.000Z</time>
      </trkpt>
      <trkpt lat="48.2954" lon="-4.27217">
        <ele>19.76</ele>
        <time>2022-07-12T06:36:05.000Z</time>
      </trkpt>
      <trkpt lat="48.29539" lon="-4.27228">
        <ele>19.78</ele>
        <time>2022-07-12T06:36:14.236Z</time>
      </trkpt>
      <trkpt lat="48.29538" lon="-4.2724">
        <ele>25.96</ele>
        <time>2022-07-12T06:36:23.337Z</time>
      </trkpt>
      <trkpt lat="48.29539" lon="-4.27248">
        <ele>25.96</ele>
        <time>2022-07-12T06:36:32.612Z</time>
      </trkpt>
      <trkpt lat="48.29539" lon="-4.27258">
        <ele>25.96</ele>
        <time>2022-07-12T06:36:41.777Z</time>
      </trkpt>
      <trkpt lat="48.2954" lon="-4.27269">
        <ele>25.96</ele>
        <time>2022-07-12T06:36:50.856Z</time>
      </trkpt>
      <trkpt lat="48.29539" lon="-4.27277">
        <ele>25.96</ele>
        <time>2022-07-12T06:37:00.396Z</time>
      </trkpt>
      <trkpt lat="48.29535" lon="-4.27286">
        <ele>25.96</ele>
        <time>2022-07-12T06:37:10.000Z</time>
      </trkpt>
      <trkpt lat="48.29533" lon="-4.27292">
        <ele>26.76</ele>
        <time>2022-07-12T06:37:19.656Z</time>
      </trkpt>
      <trkpt lat="48.29527" lon="-4.27309">
        <ele>27.76</ele>
        <time>2022-07-12T06:37:28.753Z</time>
      </trkpt>
      <trkpt lat="48.29522" lon="-4.27323">
        <ele>28.76</ele>
        <time>2022-07-12T06:37:38.236Z</time>
      </trkpt>
      <trkpt lat="48.29518" lon="-4.27332">
        <ele>28.76</ele>
        <time>2022-07-12T06:37:47.317Z</time>
      </trkpt>
      <trkpt lat="48.29515" lon="-4.2734">
        <ele>30.7</ele>
        <time>2022-07-12T06:37:56.598Z</time>
      </trkpt>
      <trkpt lat="48.29511" lon="-4.27347">
        <ele>32.76</ele>
        <time>2022-07-12T06:38:06.000Z</time>
      </trkpt>
      <trkpt lat="48.29505" lon="-4.2736">
        <ele>33.76</ele>
        <time>2022-07-12T06:38:15.355Z</time>
      </trkpt>
      <trkpt lat="48.295" lon="-4.27371">
        <ele>33.81</ele>
        <time>2022-07-12T06:38:24.875Z</time>
      </trkpt>
      <trkpt lat="48.29499" lon="-4.27379">
        <ele>33.76</ele>
        <time>2022-07-12T06:38:34.273Z</time>
      </trkpt>
      <trkpt lat="48.29496" lon="-4.2739">
        <ele>34.7</ele>
        <time>2022-07-12T06:38:44.000Z</time>
      </trkpt>
      <trkpt lat="48.29495" lon="-4.27395">
        <ele>34.76</ele>
        <time>2022-07-12T06:38:53.398Z</time>
      </trkpt>
      <trkpt lat="48.29495" lon="-4.27405">
        <ele>35.7</ele>
        <time>2022-07-12T06:39:02.697Z</time>
      </trkpt>
      <trkpt lat="48.29494" lon="-4.27412">
        <ele>35.76</ele>
        <time>2022-07-12T06:39:11.873Z</time>
      </trkpt>
      <trkpt lat="48.2949" lon="-4.27425">
        <ele>35.76</ele>
        <time>2022-07-12T06:39:21.798Z</time>
      </trkpt>
      <trkpt lat="48.29487" lon="-4.27437">
        <ele>35.76</ele>
        <time>2022-07-12T06:39:30.879Z</time>
      </trkpt>
      <trkpt lat="48.29486" lon="-4.27445">
        <ele>37.51</ele>
        <time>2022-07-12T06:39:40.394Z</time>
      </trkpt>
      <trkpt lat="48.29485" lon="-4.27455">
        <ele>38.76</ele>
        <time>2022-07-12T06:39:49.414Z</time>
      </trkpt>
      <trkpt lat="48.2948" lon="-4.2747">
        <ele>38.76</ele>
        <time>2022-07-12T06:39:59.000Z</time>
      </trkpt>
      <trkpt lat="48.29478" lon="-4.27481">
        <ele>38.76</ele>
        <time>2022-07-12T06:40:08.699Z</time>
      </trkpt>
      <trkpt lat="48.29475" lon="-4.27495">
        <ele>38.76</ele>
        <time>2022-07-12T06:40:17.814Z</time>
      </trkpt>
      <trkpt lat="48.29472" lon="-4.27509">
        <ele>38.76</ele>
        <time>2022-07-12T06:40:27.000Z</time>
      </trkpt>
      <trkpt lat="48.29466" lon="-4.2753">
        <ele>39.76</ele>
        <time>2022-07-12T06:40:36.537Z</time>
      </trkpt>
      <trkpt lat="48.29459" lon="-4.2755">
        <ele>55.26</ele>
        <time>2022-07-12T06:40:46.000Z</time>
      </trkpt>
      <trkpt lat="48.29458" lon="-4.2756">
        <ele>55.26</ele>
        <time>2022-07-12T06:40:55.736Z</time>
      </trkpt>
      <trkpt lat="48.29458" lon="-4.27569">
        <ele>55.26</ele>
        <time>2022-07-12T06:41:05.475Z</time>
      </trkpt>
      <trkpt lat="48.29458" lon="-4.27578">
        <ele>55.26</ele>
        <time>2022-07-12T06:41:14.673Z</time>
      </trkpt>
      <trkpt lat="48.29459" lon="-4.27591">
        <ele>55.06</ele>
        <time>2022-07-12T06:41:24.000Z</time>
      </trkpt>
      <trkpt lat="48.29458" lon="-4.27613">
        <ele>54.41</ele>
        <time>2022-07-12T06:41:33.179Z</time>
      </trkpt>
      <trkpt lat="48.29458" lon="-4.27623">
        <ele>55.06</ele>
        <time>2022-07-12T06:41:43.000Z</time>
      </trkpt>
      <trkpt lat="48.29458" lon="-4.27625">
        <ele>55.06</ele>
        <time>2022-07-12T06:42:05.000Z</time>
      </trkpt>
      <trkpt lat="48.29457" lon="-4.27637">
        <ele>55.06</ele>
        <time>2022-07-12T06:42:14.400Z</time>
      </trkpt>
      <trkpt lat="48.29457" lon="-4.27652">
        <ele>55.06</ele>
        <time>2022-07-12T06:42:23.516Z</time>
      </trkpt>
      <trkpt lat="48.29459" lon="-4.27663">
        <ele>51.76</ele>
        <time>2022-07-12T06:42:32.733Z</time>
      </trkpt>
      <trkpt lat="48.29459" lon="-4.27676">
        <ele>55.26</ele>
        <time>2022-07-12T06:42:42.474Z</time>
      </trkpt>
      <trkpt lat="48.2946" lon="-4.27685">
        <ele>55.06</ele>
        <time>2022-07-12T06:42:51.737Z</time>
      </trkpt>
      <trkpt lat="48.29461" lon="-4.27697">
        <ele>55.06</ele>
        <time>2022-07-12T06:43:01.474Z</time>
      </trkpt>
      <trkpt lat="48.2946" lon="-4.27711">
        <ele>55.06</ele>
        <time>2022-07-12T06:43:11.075Z</time>
      </trkpt>
      <trkpt lat="48.29462" lon="-4.27723">
        <ele>55.06</ele>
        <time>2022-07-12T06:43:20.912Z</time>
      </trkpt>
      <trkpt lat="48.29461" lon="-4.27732">
        <ele>55.06</ele>
        <time>2022-07-12T06:43:30.000Z</time>
      </trkpt>
      <trkpt lat="48.29459" lon="-4.27744">
        <ele>55.06</ele>
        <time>2022-07-12T06:43:39.591Z</time>
      </trkpt>
      <trkpt lat="48.29457" lon="-4.27754">
        <ele>55.06</ele>
        <time>2022-07-12T06:43:49.000Z</time>
      </trkpt>
      <trkpt lat="48.29459" lon="-4.27762">
        <ele>55.06</ele>
        <time>2022-07-12T06:43:58.617Z</time>
      </trkpt>
      <trkpt lat="48.2946" lon="-4.27771">
        <ele>55.06</ele>
        <time>2022-07-12T06:44:08.000Z</time>
      </trkpt>
      <trkpt lat="48.29457" lon="-4.27784">
        <ele>57.76</ele>
        <time>2022-07-12T06:44:17.496Z</time>
      </trkpt>
      <trkpt lat="48.29459" lon="-4.27794">
        <ele>60.74</ele>
        <time>2022-07-12T06:44:26.852Z</time>
      </trkpt>
      <trkpt lat="48.29459" lon="-4.27806">
        <ele>62.74</ele>
        <time>2022-07-12T06:44:37.000Z</time>
      </trkpt>
      <trkpt lat="48.29457" lon="-4.27813">
        <ele>64.7</ele>
        <time>2022-07-12T06:44:46.615Z</time>
      </trkpt>
      <trkpt lat="48.29454" lon="-4.27826">
        <ele>65.76</ele>
        <time>2022-07-12T06:44:56.594Z</time>
      </trkpt>
      <trkpt lat="48.2945" lon="-4.27837">
        <ele>66.76</ele>
        <time>2022-07-12T06:45:05.816Z</time>
      </trkpt>
      <trkpt lat="48.29447" lon="-4.27846">
        <ele>67.76</ele>
        <time>2022-07-12T06:45:15.375Z</time>
      </trkpt>
      <trkpt lat="48.29444" lon="-4.27857">
        <ele>67.76</ele>
        <time>2022-07-12T06:45:24.939Z</time>
      </trkpt>
      <trkpt lat="48.29442" lon="-4.27866">
        <ele>69.74</ele>
        <time>2022-07-12T06:45:34.398Z</time>
      </trkpt>
      <trkpt lat="48.29441" lon="-4.27879">
        <ele>70.76</ele>
        <time>2022-07-12T06:45:43.816Z</time>
      </trkpt>
      <trkpt lat="48.29439" lon="-4.27887">
        <ele>70.76</ele>
        <time>2022-07-12T06:45:53.115Z</time>
      </trkpt>
      <trkpt lat="48.29436" lon="-4.27898">
        <ele>85.36</ele>
        <time>2022-07-12T06:46:02.336Z</time>
      </trkpt>
      <trkpt lat="48.29436" lon="-4.27906">
        <ele>85.36</ele>
        <time>2022-07-12T06:46:11.874Z</time>
      </trkpt>
      <trkpt lat="48.29435" lon="-4.27921">
        <ele>85.36</ele>
        <time>2022-07-12T06:46:21.000Z</time>
      </trkpt>
      <trkpt lat="48.29431" lon="-4.27933">
        <ele>85.36</ele>
        <time>2022-07-12T06:46:30.496Z</time>
      </trkpt>
      <trkpt lat="48.2943" lon="-4.27937">
        <ele>85.36</ele>
        <time>2022-07-12T06:46:40.000Z</time>
      </trkpt>
      <trkpt lat="48.29426" lon="-4.27952">
        <ele>85.36</ele>
        <time>2022-07-12T06:46:49.615Z</time>
      </trkpt>
      <trkpt lat="48.29423" lon="-4.27961">
        <ele>85.36</ele>
        <time>2022-07-12T06:46:59.000Z</time>
      </trkpt>
      <trkpt lat="48.29419" lon="-4.27972">
        <ele>85.36</ele>
        <time>2022-07-12T06:47:08.153Z</time>
      </trkpt>
      <trkpt lat="48.29415" lon="-4.27981">
        <ele>85.36</ele>
        <time>2022-07-12T06:47:17.414Z</time>
      </trkpt>
      <trkpt lat="48.2941" lon="-4.27992">
        <ele>85.36</ele>
        <time>2022-07-12T06:47:26.593Z</time>
      </trkpt>
      <trkpt lat="48.29408" lon="-4.28008">
        <ele>85.36</ele>
        <time>2022-07-12T06:47:35.815Z</time>
      </trkpt>
      <trkpt lat="48.29407" lon="-4.28022">
        <ele>85.36</ele>
        <time>2022-07-12T06:47:45.000Z</time>
      </trkpt>
      <trkpt lat="48.29406" lon="-4.2803">
        <ele>85.36</ele>
        <time>2022-07-12T06:47:55.000Z</time>
      </trkpt>
      <trkpt lat="48.29405" lon="-4.28031">
        <ele>85.36</ele>
        <time>2022-07-12T06:48:09.538Z</time>
      </trkpt>
      <trkpt lat="48.294" lon="-4.28049">
        <ele>85.36</ele>
        <time>2022-07-12T06:48:18.658Z</time>
      </trkpt>
      <trkpt lat="48.29397" lon="-4.28063">
        <ele>85.36</ele>
        <time>2022-07-12T06:48:27.896Z</time>
      </trkpt>
      <trkpt lat="48.29394" lon="-4.28077">
        <ele>85.36</ele>
        <time>2022-07-12T06:48:37.278Z</time>
      </trkpt>
      <trkpt lat="48.29394" lon="-4.28088">
        <ele>85.36</ele>
        <time>2022-07-12T06:48:47.000Z</time>
      </trkpt>
      <trkpt lat="48.29395" lon="-4.2809">
        <ele>75.76</ele>
        <time>2022-07-12T06:49:11.493Z</time>
      </trkpt>
      <trkpt lat="48.29393" lon="-4.28105">
        <ele>76.76</ele>
        <time>2022-07-12T06:49:20.554Z</time>
      </trkpt>
      <trkpt lat="48.29395" lon="-4.28119">
        <ele>75.77</ele>
        <time>2022-07-12T06:49:29.878Z</time>
      </trkpt>
      <trkpt lat="48.29397" lon="-4.2813">
        <ele>74.76</ele>
        <time>2022-07-12T06:49:39.312Z</time>
      </trkpt>
      <trkpt lat="48.29395" lon="-4.28139">
        <ele>66.76</ele>
        <time>2022-07-12T06:49:48.551Z</time>
      </trkpt>
      <trkpt lat="48.29395" lon="-4.28149">
        <ele>65.76</ele>
        <time>2022-07-12T06:49:57.695Z</time>
      </trkpt>
      <trkpt lat="48.29396" lon="-4.28157">
        <ele>67.74</ele>
        <time>2022-07-12T06:50:06.771Z</time>
      </trkpt>
      <trkpt lat="48.29397" lon="-4.28165">
        <ele>66.76</ele>
        <time>2022-07-12T06:50:15.898Z</time>
      </trkpt>
      <trkpt lat="48.29403" lon="-4.28175">
        <ele>66.76</ele>
        <time>2022-07-12T06:50:25.000Z</time>
      </trkpt>
      <trkpt lat="48.29408" lon="-4.28182">
        <ele>64.51</ele>
        <time>2022-07-12T06:50:34.374Z</time>
      </trkpt>
      <trkpt lat="48.29416" lon="-4.28187">
        <ele>62.77</ele>
        <time>2022-07-12T06:50:43.714Z</time>
      </trkpt>
      <trkpt lat="48.29426" lon="-4.28195">
        <ele>61.82</ele>
        <time>2022-07-12T06:50:52.769Z</time>
      </trkpt>
      <trkpt lat="48.2943" lon="-4.28202">
        <ele>59.76</ele>
        <time>2022-07-12T06:51:03.000Z</time>
      </trkpt>
      <trkpt lat="48.2944" lon="-4.28217">
        <ele>60.75</ele>
        <time>2022-07-12T06:51:12.493Z</time>
      </trkpt>
      <trkpt lat="48.29446" lon="-4.28226">
        <ele>59.75</ele>
        <time>2022-07-12T06:51:21.554Z</time>
      </trkpt>
      <trkpt lat="48.29452" lon="-4.28234">
        <ele>60.69</ele>
        <time>2022-07-12T06:51:31.000Z</time>
      </trkpt>
      <trkpt lat="48.29459" lon="-4.28243">
        <ele>60.77</ele>
        <time>2022-07-12T06:51:40.255Z</time>
      </trkpt>
      <trkpt lat="48.29463" lon="-4.28253">
        <ele>61.5</ele>
        <time>2022-07-12T06:51:49.379Z</time>
      </trkpt>
      <trkpt lat="48.29466" lon="-4.28262">
        <ele>59.76</ele>
        <time>2022-07-12T06:51:58.596Z</time>
      </trkpt>
      <trkpt lat="48.29469" lon="-4.28267">
        <ele>57.77</ele>
        <time>2022-07-12T06:52:07.736Z</time>
      </trkpt>
      <trkpt lat="48.29477" lon="-4.28276">
        <ele>56.75</ele>
        <time>2022-07-12T06:52:17.000Z</time>
      </trkpt>
      <trkpt lat="48.29486" lon="-4.28285">
        <ele>56.51</ele>
        <time>2022-07-12T06:52:27.000Z</time>
      </trkpt>
      <trkpt lat="48.29493" lon="-4.28296">
        <ele>55.75</ele>
        <time>2022-07-12T06:52:36.457Z</time>
      </trkpt>
      <trkpt lat="48.29501" lon="-4.28305">
        <ele>55.52</ele>
        <time>2022-07-12T06:52:45.837Z</time>
      </trkpt>
      <trkpt lat="48.29502" lon="-4.28314">
        <ele>55.75</ele>
        <time>2022-07-12T06:52:55.000Z</time>
      </trkpt>
      <trkpt lat="48.29497" lon="-4.28327">
        <ele>50.75</ele>
        <time>2022-07-12T06:53:04.373Z</time>
      </trkpt>
      <trkpt lat="48.29497" lon="-4.28342">
        <ele>48.76</ele>
        <time>2022-07-12T06:53:13.695Z</time>
      </trkpt>
      <trkpt lat="48.29507" lon="-4.28353">
        <ele>45.89</ele>
        <time>2022-07-12T06:53:22.795Z</time>
      </trkpt>
      <trkpt lat="48.29513" lon="-4.28358">
        <ele>44.82</ele>
        <time>2022-07-12T06:53:32.000Z</time>
      </trkpt>
      <trkpt lat="48.29511" lon="-4.2834">
        <ele>45.75</ele>
        <time>2022-07-12T06:53:41.533Z</time>
      </trkpt>
      <trkpt lat="48.29508" lon="-4.28329">
        <ele>42.07</ele>
        <time>2022-07-12T06:53:50.594Z</time>
      </trkpt>
      <trkpt lat="48.29508" lon="-4.28318">
        <ele>41.75</ele>
        <time>2022-07-12T06:54:00.000Z</time>
      </trkpt>
      <trkpt lat="48.29507" lon="-4.28306">
        <ele>41.74</ele>
        <time>2022-07-12T06:54:09.552Z</time>
      </trkpt>
      <trkpt lat="48.29509" lon="-4.28298">
        <ele>43.75</ele>
        <time>2022-07-12T06:54:18.892Z</time>
      </trkpt>
      <trkpt lat="48.2951" lon="-4.2829">
        <ele>37.32</ele>
        <time>2022-07-12T06:54:28.154Z</time>
      </trkpt>
      <trkpt lat="48.29516" lon="-4.28284">
        <ele>32.75</ele>
        <time>2022-07-12T06:54:37.694Z</time>
      </trkpt>
      <trkpt lat="48.29528" lon="-4.28276">
        <ele>33.75</ele>
        <time>2022-07-12T06:54:47.856Z</time>
      </trkpt>
      <trkpt lat="48.29529" lon="-4.28268">
        <ele>36.69</ele>
        <time>2022-07-12T06:54:56.995Z</time>
      </trkpt>
      <trkpt lat="48.29533" lon="-4.28256">
        <ele>37.8</ele>
        <time>2022-07-12T06:55:07.000Z</time>
      </trkpt>
      <trkpt lat="48.29536" lon="-4.28241">
        <ele>38.75</ele>
        <time>2022-07-12T06:55:16.394Z</time>
      </trkpt>
      <trkpt lat="48.29537" lon="-4.28231">
        <ele>39.75</ele>
        <time>2022-07-12T06:55:25.675Z</time>
      </trkpt>
      <trkpt lat="48.29537" lon="-4.28217">
        <ele>32.57</ele>
        <time>2022-07-12T06:55:35.000Z</time>
      </trkpt>
      <trkpt lat="48.29536" lon="-4.28204">
        <ele>35.5</ele>
        <time>2022-07-12T06:55:44.679Z</time>
      </trkpt>
      <trkpt lat="48.2954" lon="-4.28189">
        <ele>36.75</ele>
        <time>2022-07-12T06:55:54.000Z</time>
      </trkpt>
      <trkpt lat="48.29544" lon="-4.28179">
        <ele>35.76</ele>
        <time>2022-07-12T06:56:03.312Z</time>
      </trkpt>
      <trkpt lat="48.29551" lon="-4.28169">
        <ele>31.2</ele>
        <time>2022-07-12T06:56:13.178Z</time>
      </trkpt>
      <trkpt lat="48.29559" lon="-4.28162">
        <ele>31.51</ele>
        <time>2022-07-12T06:56:22.412Z</time>
      </trkpt>
      <trkpt lat="48.29565" lon="-4.28149">
        <ele>31.76</ele>
        <time>2022-07-12T06:56:31.753Z</time>
      </trkpt>
      <trkpt lat="48.29567" lon="-4.28138">
        <ele>26.83</ele>
        <time>2022-07-12T06:56:41.000Z</time>
      </trkpt>
      <trkpt lat="48.29569" lon="-4.28124">
        <ele>27.75</ele>
        <time>2022-07-12T06:56:50.457Z</time>
      </trkpt>
      <trkpt lat="48.29574" lon="-4.28111">
        <ele>26.76</ele>
        <time>2022-07-12T06:56:59.798Z</time>
      </trkpt>
      <trkpt lat="48.29579" lon="-4.28107">
        <ele>15.79</ele>
        <time>2022-07-12T06:57:09.000Z</time>
      </trkpt>
      <trkpt lat="48.29585" lon="-4.28099">
        <ele>15.75</ele>
        <time>2022-07-12T06:57:19.472Z</time>
      </trkpt>
      <trkpt lat="48.29592" lon="-4.28084">
        <ele>15.26</ele>
        <time>2022-07-12T06:57:29.000Z</time>
      </trkpt>
      <trkpt lat="48.29601" lon="-4.28073">
        <ele>16.44</ele>
        <time>2022-07-12T06:57:39.613Z</time>
      </trkpt>
      <trkpt lat="48.29604" lon="-4.28086">
        <ele>15.82</ele>
        <time>2022-07-12T06:57:49.000Z</time>
      </trkpt>
      <trkpt lat="48.29603" lon="-4.28097">
        <ele>15.51</ele>
        <time>2022-07-12T06:57:58.718Z</time>
      </trkpt>
      <trkpt lat="48.29606" lon="-4.28113">
        <ele>17.76</ele>
        <time>2022-07-12T06:58:08.616Z</time>
      </trkpt>
      <trkpt lat="48.29612" lon="-4.28124">
        <ele>19.51</ele>
        <time>2022-07-12T06:58:18.000Z</time>
      </trkpt>
      <trkpt lat="48.29617" lon="-4.28133">
        <ele>18.82</ele>
        <time>2022-07-12T06:58:27.433Z</time>
      </trkpt>
      <trkpt lat="48.29625" lon="-4.28141">
        <ele>19.76</ele>
        <time>2022-07-12T06:58:36.835Z</time>
      </trkpt>
      <trkpt lat="48.29625" lon="-4.28153">
        <ele>15.75</ele>
        <time>2022-07-12T06:58:46.000Z</time>
      </trkpt>
      <trkpt lat="48.29629" lon="-4.28168">
        <ele>14.27</ele>
        <time>2022-07-12T06:58:55.536Z</time>
      </trkpt>
      <trkpt lat="48.29628" lon="-4.28182">
        <ele>14.68</ele>
        <time>2022-07-12T06:59:04.592Z</time>
      </trkpt>
      <trkpt lat="48.2963" lon="-4.28197">
        <ele>17.69</ele>
        <time>2022-07-12T06:59:13.671Z</time>
      </trkpt>
      <trkpt lat="48.29633" lon="-4.28207">
        <ele>18.76</ele>
        <time>2022-07-12T06:59:22.877Z</time>
      </trkpt>
      <trkpt lat="48.29635" lon="-4.28207">
        <ele>18.76</ele>
        <time>2022-07-12T06:59:32.798Z</time>
      </trkpt>
      <trkpt lat="48.29644" lon="-4.28212">
        <ele>19</ele>
        <time>2022-07-12T06:59:42.791Z</time>
      </trkpt>
      <trkpt lat="48.29648" lon="-4.28217">
        <ele>12.71</ele>
        <time>2022-07-12T06:59:52.000Z</time>
      </trkpt>
      <trkpt lat="48.29653" lon="-4.28228">
        <ele>11.51</ele>
        <time>2022-07-12T07:00:01.255Z</time>
      </trkpt>
      <trkpt lat="48.2966" lon="-4.28242">
        <ele>13.68</ele>
        <time>2022-07-12T07:00:10.436Z</time>
      </trkpt>
      <trkpt lat="48.29664" lon="-4.28252">
        <ele>13.75</ele>
        <time>2022-07-12T07:00:19.930Z</time>
      </trkpt>
      <trkpt lat="48.29666" lon="-4.28261">
        <ele>13.69</ele>
        <time>2022-07-12T07:00:29.264Z</time>
      </trkpt>
      <trkpt lat="48.2967" lon="-4.28273">
        <ele>13.75</ele>
        <time>2022-07-12T07:00:38.814Z</time>
      </trkpt>
      <trkpt lat="48.29672" lon="-4.28283">
        <ele>14.75</ele>
        <time>2022-07-12T07:00:48.000Z</time>
      </trkpt>
      <trkpt lat="48.29676" lon="-4.28298">
        <ele>13.75</ele>
        <time>2022-07-12T07:00:57.474Z</time>
      </trkpt>
      <trkpt lat="48.29677" lon="-4.28309">
        <ele>12.75</ele>
        <time>2022-07-12T07:01:06.634Z</time>
      </trkpt>
      <trkpt lat="48.29677" lon="-4.28323">
        <ele>12.75</ele>
        <time>2022-07-12T07:01:15.997Z</time>
      </trkpt>
      <trkpt lat="48.29678" lon="-4.28333">
        <ele>12.75</ele>
        <time>2022-07-12T07:01:25.437Z</time>
      </trkpt>
      <trkpt lat="48.29675" lon="-4.28346">
        <ele>12.82</ele>
        <time>2022-07-12T07:01:34.631Z</time>
      </trkpt>
      <trkpt lat="48.29675" lon="-4.28352">
        <ele>13.75</ele>
        <time>2022-07-12T07:01:44.594Z</time>
      </trkpt>
      <trkpt lat="48.29675" lon="-4.28361">
        <ele>12.77</ele>
        <time>2022-07-12T07:01:53.691Z</time>
      </trkpt>
      <trkpt lat="48.29676" lon="-4.2837">
        <ele>12.75</ele>
        <time>2022-07-12T07:02:03.000Z</time>
      </trkpt>
      <trkpt lat="48.29677" lon="-4.28386">
        <ele>11.99</ele>
        <time>2022-07-12T07:02:12.353Z</time>
      </trkpt>
      <trkpt lat="48.29676" lon="-4.28391">
        <ele>12.75</ele>
        <time>2022-07-12T07:02:21.779Z</time>
      </trkpt>
      <trkpt lat="48.29678" lon="-4.28399">
        <ele>12.75</ele>
        <time>2022-07-12T07:02:31.253Z</time>
      </trkpt>
      <trkpt lat="48.29676" lon="-4.28413">
        <ele>13.75</ele>
        <time>2022-07-12T07:02:40.456Z</time>
      </trkpt>
      <trkpt lat="48.29679" lon="-4.28422">
        <ele>11.02</ele>
        <time>2022-07-12T07:02:50.000Z</time>
      </trkpt>
      <trkpt lat="48.29684" lon="-4.28441">
        <ele>11.76</ele>
        <time>2022-07-12T07:03:00.000Z</time>
      </trkpt>
      <trkpt lat="48.29689" lon="-4.28454">
        <ele>12.75</ele>
        <time>2022-07-12T07:03:09.712Z</time>
      </trkpt>
      <trkpt lat="48.29691" lon="-4.28466">
        <ele>11.75</ele>
        <time>2022-07-12T07:03:19.000Z</time>
      </trkpt>
      <trkpt lat="48.2969" lon="-4.28485">
        <ele>12.75</ele>
        <time>2022-07-12T07:03:29.000Z</time>
      </trkpt>
      <trkpt lat="48.2969" lon="-4.285">
        <ele>13.5</ele>
        <time>2022-07-12T07:03:39.000Z</time>
      </trkpt>
      <trkpt lat="48.29694" lon="-4.28513">
        <ele>13.77</ele>
        <time>2022-07-12T07:03:48.472Z</time>
      </trkpt>
      <trkpt lat="48.29693" lon="-4.28519">
        <ele>13.75</ele>
        <time>2022-07-12T07:03:57.917Z</time>
      </trkpt>
      <trkpt lat="48.29692" lon="-4.28531">
        <ele>15.75</ele>
        <time>2022-07-12T07:04:07.416Z</time>
      </trkpt>
      <trkpt lat="48.29691" lon="-4.28547">
        <ele>15.75</ele>
        <time>2022-07-12T07:04:16.898Z</time>
      </trkpt>
      <trkpt lat="48.29693" lon="-4.28557">
        <ele>14.77</ele>
        <time>2022-07-12T07:04:26.340Z</time>
      </trkpt>
      <trkpt lat="48.29695" lon="-4.28565">
        <ele>15.75</ele>
        <time>2022-07-12T07:04:35.877Z</time>
      </trkpt>
      <trkpt lat="48.29698" lon="-4.28577">
        <ele>15.76</ele>
        <time>2022-07-12T07:04:44.898Z</time>
      </trkpt>
      <trkpt lat="48.29697" lon="-4.28585">
        <ele>16.75</ele>
        <time>2022-07-12T07:04:54.000Z</time>
      </trkpt>
      <trkpt lat="48.29699" lon="-4.28599">
        <ele>17.75</ele>
        <time>2022-07-12T07:05:03.452Z</time>
      </trkpt>
      <trkpt lat="48.297" lon="-4.28606">
        <ele>17.75</ele>
        <time>2022-07-12T07:05:12.593Z</time>
      </trkpt>
      <trkpt lat="48.29703" lon="-4.28618">
        <ele>16.75</ele>
        <time>2022-07-12T07:05:21.853Z</time>
      </trkpt>
      <trkpt lat="48.29707" lon="-4.28627">
        <ele>15.75</ele>
        <time>2022-07-12T07:05:31.000Z</time>
      </trkpt>
      <trkpt lat="48.29711" lon="-4.28635">
        <ele>14</ele>
        <time>2022-07-12T07:05:40.499Z</time>
      </trkpt>
      <trkpt lat="48.29712" lon="-4.2865">
        <ele>13.75</ele>
        <time>2022-07-12T07:05:49.774Z</time>
      </trkpt>
      <trkpt lat="48.29715" lon="-4.28659">
        <ele>13.75</ele>
        <time>2022-07-12T07:05:59.353Z</time>
      </trkpt>
      <trkpt lat="48.29718" lon="-4.28669">
        <ele>12.75</ele>
        <time>2022-07-12T07:06:08.515Z</time>
      </trkpt>
      <trkpt lat="48.29724" lon="-4.28682">
        <ele>10.81</ele>
        <time>2022-07-12T07:06:17.934Z</time>
      </trkpt>
      <trkpt lat="48.2973" lon="-4.28698">
        <ele>9.75</ele>
        <time>2022-07-12T07:06:27.000Z</time>
      </trkpt>
      <trkpt lat="48.29732" lon="-4.28709">
        <ele>8.75</ele>
        <time>2022-07-12T07:06:36.519Z</time>
      </trkpt>
      <trkpt lat="48.29733" lon="-4.28722">
        <ele>8.75</ele>
        <time>2022-07-12T07:06:45.752Z</time>
      </trkpt>
      <trkpt lat="48.29732" lon="-4.28736">
        <ele>8.75</ele>
        <time>2022-07-12T07:06:55.538Z</time>
      </trkpt>
      <trkpt lat="48.29733" lon="-4.28748">
        <ele>6.75</ele>
        <time>2022-07-12T07:07:05.000Z</time>
      </trkpt>
      <trkpt lat="48.29734" lon="-4.28759">
        <ele>6.75</ele>
        <time>2022-07-12T07:07:14.340Z</time>
      </trkpt>
      <trkpt lat="48.2973" lon="-4.28772">
        <ele>6.75</ele>
        <time>2022-07-12T07:07:23.679Z</time>
      </trkpt>
      <trkpt lat="48.29726" lon="-4.28782">
        <ele>5</ele>
        <time>2022-07-12T07:07:33.000Z</time>
      </trkpt>
      <trkpt lat="48.29723" lon="-4.28788">
        <ele>5.75</ele>
        <time>2022-07-12T07:07:42.395Z</time>
      </trkpt>
      <trkpt lat="48.2972" lon="-4.28799">
        <ele>5.75</ele>
        <time>2022-07-12T07:07:51.495Z</time>
      </trkpt>
      <trkpt lat="48.2972" lon="-4.2881">
        <ele>4.75</ele>
        <time>2022-07-12T07:08:00.655Z</time>
      </trkpt>
      <trkpt lat="48.29714" lon="-4.28822">
        <ele>5</ele>
        <time>2022-07-12T07:08:10.158Z</time>
      </trkpt>
      <trkpt lat="48.2971" lon="-4.28834">
        <ele>6.75</ele>
        <time>2022-07-12T07:08:19.692Z</time>
      </trkpt>
      <trkpt lat="48.29708" lon="-4.28843">
        <ele>8.73</ele>
        <time>2022-07-12T07:08:29.339Z</time>
      </trkpt>
      <trkpt lat="48.29705" lon="-4.2886">
        <ele>8.75</ele>
        <time>2022-07-12T07:08:38.799Z</time>
      </trkpt>
      <trkpt lat="48.29705" lon="-4.28872">
        <ele>8.75</ele>
        <time>2022-07-12T07:08:48.396Z</time>
      </trkpt>
      <trkpt lat="48.29707" lon="-4.28883">
        <ele>8.75</ele>
        <time>2022-07-12T07:08:57.657Z</time>
      </trkpt>
      <trkpt lat="48.29708" lon="-4.28894">
        <ele>9.75</ele>
        <time>2022-07-12T07:09:06.672Z</time>
      </trkpt>
      <trkpt lat="48.29709" lon="-4.28905">
        <ele>10.75</ele>
        <time>2022-07-12T07:09:16.000Z</time>
      </trkpt>
      <trkpt lat="48.2971" lon="-4.28917">
        <ele>10.75</ele>
        <time>2022-07-12T07:09:25.317Z</time>
      </trkpt>
      <trkpt lat="48.2971" lon="-4.28928">
        <ele>10.75</ele>
        <time>2022-07-12T07:09:34.457Z</time>
      </trkpt>
      <trkpt lat="48.29711" lon="-4.28946">
        <ele>11.75</ele>
        <time>2022-07-12T07:09:43.598Z</time>
      </trkpt>
      <trkpt lat="48.29713" lon="-4.28953">
        <ele>9.75</ele>
        <time>2022-07-12T07:09:52.755Z</time>
      </trkpt>
      <trkpt lat="48.29713" lon="-4.28961">
        <ele>9.75</ele>
        <time>2022-07-12T07:10:02.000Z</time>
      </trkpt>
      <trkpt lat="48.29711" lon="-4.28975">
        <ele>7.75</ele>
        <time>2022-07-12T07:10:11.493Z</time>
      </trkpt>
      <trkpt lat="48.2971" lon="-4.28988">
        <ele>6.76</ele>
        <time>2022-07-12T07:10:20.611Z</time>
      </trkpt>
      <trkpt lat="48.29712" lon="-4.29006">
        <ele>6.81</ele>
        <time>2022-07-12T07:10:29.615Z</time>
      </trkpt>
      <trkpt lat="48.29713" lon="-4.29015">
        <ele>6.75</ele>
        <time>2022-07-12T07:10:38.638Z</time>
      </trkpt>
      <trkpt lat="48.29714" lon="-4.29023">
        <ele>7.75</ele>
        <time>2022-07-12T07:10:47.698Z</time>
      </trkpt>
      <trkpt lat="48.29713" lon="-4.29037">
        <ele>6.75</ele>
        <time>2022-07-12T07:10:57.814Z</time>
      </trkpt>
      <trkpt lat="48.29711" lon="-4.2905">
        <ele>5</ele>
        <time>2022-07-12T07:11:07.238Z</time>
      </trkpt>
      <trkpt lat="48.29709" lon="-4.29064">
        <ele>4.76</ele>
        <time>2022-07-12T07:11:16.278Z</time>
      </trkpt>
      <trkpt lat="48.2971" lon="-4.29083">
        <ele>2.75</ele>
        <time>2022-07-12T07:11:25.656Z</time>
      </trkpt>
      <trkpt lat="48.2971" lon="-4.29094">
        <ele>2.75</ele>
        <time>2022-07-12T07:11:34.712Z</time>
      </trkpt>
      <trkpt lat="48.2971" lon="-4.29107">
        <ele>3.5</ele>
        <time>2022-07-12T07:11:44.292Z</time>
      </trkpt>
      <trkpt lat="48.2971" lon="-4.2912">
        <ele>3.75</ele>
        <time>2022-07-12T07:11:53.756Z</time>
      </trkpt>
      <trkpt lat="48.2971" lon="-4.29136">
        <ele>2.75</ele>
        <time>2022-07-12T07:12:03.354Z</time>
      </trkpt>
      <trkpt lat="48.29709" lon="-4.2915">
        <ele>3.73</ele>
        <time>2022-07-12T07:12:12.792Z</time>
      </trkpt>
      <trkpt lat="48.29708" lon="-4.29163">
        <ele>3.75</ele>
        <time>2022-07-12T07:12:22.875Z</time>
      </trkpt>
      <trkpt lat="48.29707" lon="-4.29173">
        <ele>3.75</ele>
        <time>2022-07-12T07:12:32.480Z</time>
      </trkpt>
      <trkpt lat="48.29706" lon="-4.29188">
        <ele>3.69</ele>
        <time>2022-07-12T07:12:41.876Z</time>
      </trkpt>
      <trkpt lat="48.29705" lon="-4.29203">
        <ele>3.75</ele>
        <time>2022-07-12T07:12:51.532Z</time>
      </trkpt>
      <trkpt lat="48.29705" lon="-4.29215">
        <ele>3.75</ele>
        <time>2022-07-12T07:13:00.819Z</time>
      </trkpt>
      <trkpt lat="48.29705" lon="-4.2923">
        <ele>2.75</ele>
        <time>2022-07-12T07:13:10.853Z</time>
      </trkpt>
      <trkpt lat="48.29706" lon="-4.29241">
        <ele>2.73</ele>
        <time>2022-07-12T07:13:20.440Z</time>
      </trkpt>
      <trkpt lat="48.29707" lon="-4.29254">
        <ele>2.75</ele>
        <time>2022-07-12T07:13:29.812Z</time>
      </trkpt>
      <trkpt lat="48.29709" lon="-4.29266">
        <ele>2.73</ele>
        <time>2022-07-12T07:13:39.337Z</time>
      </trkpt>
      <trkpt lat="48.29712" lon="-4.2928">
        <ele>0.76</ele>
        <time>2022-07-12T07:13:48.675Z</time>
      </trkpt>
      <trkpt lat="48.29715" lon="-4.29293">
        <ele>1.5</ele>
        <time>2022-07-12T07:13:57.700Z</time>
      </trkpt>
      <trkpt lat="48.29716" lon="-4.29307">
        <ele>1.75</ele>
        <time>2022-07-12T07:14:06.773Z</time>
      </trkpt>
      <trkpt lat="48.29721" lon="-4.29323">
        <ele>1.75</ele>
        <time>2022-07-12T07:14:16.339Z</time>
      </trkpt>
      <trkpt lat="48.29725" lon="-4.29337">
        <ele>2.75</ele>
        <time>2022-07-12T07:14:25.377Z</time>
      </trkpt>
      <trkpt lat="48.29728" lon="-4.2935">
        <ele>2.75</ele>
        <time>2022-07-12T07:14:34.736Z</time>
      </trkpt>
      <trkpt lat="48.2973" lon="-4.29363">
        <ele>2.51</ele>
        <time>2022-07-12T07:14:44.190Z</time>
      </trkpt>
      <trkpt lat="48.29736" lon="-4.29379">
        <ele>1.55</ele>
        <time>2022-07-12T07:14:53.479Z</time>
      </trkpt>
      <trkpt lat="48.29738" lon="-4.29394">
        <ele>1.74</ele>
        <time>2022-07-12T07:15:03.000Z</time>
      </trkpt>
      <trkpt lat="48.29741" lon="-4.29404">
        <ele>1.75</ele>
        <time>2022-07-12T07:15:12.778Z</time>
      </trkpt>
      <trkpt lat="48.29743" lon="-4.29422">
        <ele>0.76</ele>
        <time>2022-07-12T07:15:21.792Z</time>
      </trkpt>
      <trkpt lat="48.29746" lon="-4.29431">
        <ele>1.75</ele>
        <time>2022-07-12T07:15:31.133Z</time>
      </trkpt>
      <trkpt lat="48.29749" lon="-4.29441">
        <ele>1</ele>
        <time>2022-07-12T07:15:40.457Z</time>
      </trkpt>
      <trkpt lat="48.29753" lon="-4.29454">
        <ele>1.74</ele>
        <time>2022-07-12T07:15:49.591Z</time>
      </trkpt>
      <trkpt lat="48.29756" lon="-4.29467">
        <ele>0.75</ele>
        <time>2022-07-12T07:15:58.812Z</time>
      </trkpt>
      <trkpt lat="48.2976" lon="-4.29483">
        <ele>7.1</ele>
        <time>2022-07-12T07:16:08.000Z</time>
      </trkpt>
      <trkpt lat="48.29763" lon="-4.29494">
        <ele>-0.25</ele>
        <time>2022-07-12T07:16:17.873Z</time>
      </trkpt>
      <trkpt lat="48.29767" lon="-4.29506">
        <ele>0.74</ele>
        <time>2022-07-12T07:16:27.654Z</time>
      </trkpt>
      <trkpt lat="48.29769" lon="-4.29516">
        <ele>-0.02</ele>
        <time>2022-07-12T07:16:37.098Z</time>
      </trkpt>
      <trkpt lat="48.29762" lon="-4.29532">
        <ele>-4.25</ele>
        <time>2022-07-12T07:16:46.837Z</time>
      </trkpt>
      <trkpt lat="48.29764" lon="-4.29546">
        <ele>-4.3</ele>
        <time>2022-07-12T07:16:57.000Z</time>
      </trkpt>
      <trkpt lat="48.29774" lon="-4.29565">
        <ele>-4.02</ele>
        <time>2022-07-12T07:17:06.734Z</time>
      </trkpt>
      <trkpt lat="48.29778" lon="-4.29581">
        <ele>-5.25</ele>
        <time>2022-07-12T07:17:16.700Z</time>
      </trkpt>
      <trkpt lat="48.29778" lon="-4.29592">
        <ele>-6.25</ele>
        <time>2022-07-12T07:17:26.000Z</time>
      </trkpt>
      <trkpt lat="48.29776" lon="-4.29606">
        <ele>-6.26</ele>
        <time>2022-07-12T07:17:35.294Z</time>
      </trkpt>
      <trkpt lat="48.29773" lon="-4.29622">
        <ele>-6.26</ele>
        <time>2022-07-12T07:17:44.337Z</time>
      </trkpt>
      <trkpt lat="48.29774" lon="-4.29637">
        <ele>-6.26</ele>
        <time>2022-07-12T07:17:53.735Z</time>
      </trkpt>
      <trkpt lat="48.29773" lon="-4.29655">
        <ele>-3.51</ele>
        <time>2022-07-12T07:18:03.632Z</time>
      </trkpt>
      <trkpt lat="48.29777" lon="-4.29669">
        <ele>-4.01</ele>
        <time>2022-07-12T07:18:12.695Z</time>
      </trkpt>
      <trkpt lat="48.29774" lon="-4.29682">
        <ele>-3.26</ele>
        <time>2022-07-12T07:18:22.276Z</time>
      </trkpt>
      <trkpt lat="48.2977" lon="-4.29696">
        <ele>-1.51</ele>
        <time>2022-07-12T07:18:31.338Z</time>
      </trkpt>
      <trkpt lat="48.2977" lon="-4.29708">
        <ele>-0.26</ele>
        <time>2022-07-12T07:18:40.671Z</time>
      </trkpt>
      <trkpt lat="48.2977" lon="-4.29723">
        <ele>0.8</ele>
        <time>2022-07-12T07:18:49.894Z</time>
      </trkpt>
      <trkpt lat="48.29768" lon="-4.29737">
        <ele>0.74</ele>
        <time>2022-07-12T07:18:59.635Z</time>
      </trkpt>
      <trkpt lat="48.29769" lon="-4.29747">
        <ele>1.49</ele>
        <time>2022-07-12T07:19:08.795Z</time>
      </trkpt>
      <trkpt lat="48.29769" lon="-4.29759">
        <ele>2.74</ele>
        <time>2022-07-12T07:19:18.738Z</time>
      </trkpt>
      <trkpt lat="48.29766" lon="-4.29777">
        <ele>1.56</ele>
        <time>2022-07-12T07:19:28.773Z</time>
      </trkpt>
      <trkpt lat="48.29766" lon="-4.29786">
        <ele>0.74</ele>
        <time>2022-07-12T07:19:38.858Z</time>
      </trkpt>
      <trkpt lat="48.29767" lon="-4.298">
        <ele>-0.24</ele>
        <time>2022-07-12T07:19:48.374Z</time>
      </trkpt>
      <trkpt lat="48.29768" lon="-4.29817">
        <ele>0.73</ele>
        <time>2022-07-12T07:19:57.477Z</time>
      </trkpt>
      <trkpt lat="48.29768" lon="-4.29828">
        <ele>0.74</ele>
        <time>2022-07-12T07:20:06.536Z</time>
      </trkpt>
      <trkpt lat="48.29768" lon="-4.29838">
        <ele>0.74</ele>
        <time>2022-07-12T07:20:16.000Z</time>
      </trkpt>
      <trkpt lat="48.29768" lon="-4.29847">
        <ele>-0.26</ele>
        <time>2022-07-12T07:20:25.515Z</time>
      </trkpt>
      <trkpt lat="48.29769" lon="-4.29857">
        <ele>-0.26</ele>
        <time>2022-07-12T07:20:34.796Z</time>
      </trkpt>
      <trkpt lat="48.29769" lon="-4.29873">
        <ele>-2.26</ele>
        <time>2022-07-12T07:20:44.836Z</time>
      </trkpt>
      <trkpt lat="48.29761" lon="-4.2989">
        <ele>-3.24</ele>
        <time>2022-07-12T07:20:54.458Z</time>
      </trkpt>
      <trkpt lat="48.29764" lon="-4.29903">
        <ele>-3.24</ele>
        <time>2022-07-12T07:21:03.474Z</time>
      </trkpt>
      <trkpt lat="48.29768" lon="-4.29919">
        <ele>-2.26</ele>
        <time>2022-07-12T07:21:12.798Z</time>
      </trkpt>
      <trkpt lat="48.29767" lon="-4.29932">
        <ele>-3.26</ele>
        <time>2022-07-12T07:21:22.000Z</time>
      </trkpt>
      <trkpt lat="48.29766" lon="-4.29949">
        <ele>-3.26</ele>
        <time>2022-07-12T07:21:31.356Z</time>
      </trkpt>
      <trkpt lat="48.29765" lon="-4.29962">
        <ele>-3.01</ele>
        <time>2022-07-12T07:21:40.496Z</time>
      </trkpt>
      <trkpt lat="48.29767" lon="-4.29977">
        <ele>-2.51</ele>
        <time>2022-07-12T07:21:50.000Z</time>
      </trkpt>
      <trkpt lat="48.29768" lon="-4.29978">
        <ele>-1.76</ele>
        <time>2022-07-12T07:22:02.000Z</time>
      </trkpt>
      <trkpt lat="48.29766" lon="-4.29984">
        <ele>-0.26</ele>
        <time>2022-07-12T07:22:12.000Z</time>
      </trkpt>
      <trkpt lat="48.29759" lon="-4.29994">
        <ele>2.72</ele>
        <time>2022-07-12T07:22:22.000Z</time>
      </trkpt>
      <trkpt lat="48.29758" lon="-4.29996">
        <ele>3.68</ele>
        <time>2022-07-12T07:22:32.000Z</time>
      </trkpt>
      <trkpt lat="48.29759" lon="-4.29997">
        <ele>4.68</ele>
        <time>2022-07-12T07:22:49.000Z</time>
      </trkpt>
      <trkpt lat="48.29762" lon="-4.3">
        <ele>6.49</ele>
        <time>2022-07-12T07:22:59.000Z</time>
      </trkpt>
      <trkpt lat="48.2976" lon="-4.3">
        <ele>6.74</ele>
        <time>2022-07-12T07:23:09.000Z</time>
      </trkpt>
      <trkpt lat="48.2976" lon="-4.30002">
        <ele>7.74</ele>
        <time>2022-07-12T07:23:41.000Z</time>
      </trkpt>
      <trkpt lat="48.29759" lon="-4.30003">
        <ele>7.74</ele>
        <time>2022-07-12T07:24:08.000Z</time>
      </trkpt>
      <trkpt lat="48.29759" lon="-4.30005">
        <ele>6.99</ele>
        <time>2022-07-12T07:24:41.000Z</time>
      </trkpt>
      <trkpt lat="48.29757" lon="-4.30005">
        <ele>5.74</ele>
        <time>2022-07-12T07:24:51.000Z</time>
      </trkpt>
      <trkpt lat="48.29758" lon="-4.30004">
        <ele>9.24</ele>
        <time>2022-07-12T07:26:08.000Z</time>
      </trkpt>
      <trkpt lat="48.29759" lon="-4.30003">
        <ele>10.74</ele>
        <time>2022-07-12T07:26:29.000Z</time>
      </trkpt>
      <trkpt lat="48.2976" lon="-4.30004">
        <ele>12.73</ele>
        <time>2022-07-12T07:27:10.000Z</time>
      </trkpt>
      <trkpt lat="48.2976" lon="-4.30002">
        <ele>12.99</ele>
        <time>2022-07-12T07:27:31.000Z</time>
      </trkpt>
      <trkpt lat="48.29759" lon="-4.30004">
        <ele>12.74</ele>
        <time>2022-07-12T07:27:49.000Z</time>
      </trkpt>
      <trkpt lat="48.2976" lon="-4.30004">
        <ele>7.75</ele>
        <time>2022-07-12T07:28:04.000Z</time>
      </trkpt>
      <trkpt lat="48.29759" lon="-4.30005">
        <ele>13.74</ele>
        <time>2022-07-12T07:29:15.000Z</time>
      </trkpt>
      <trkpt lat="48.29757" lon="-4.30004">
        <ele>12.74</ele>
        <time>2022-07-12T07:29:25.000Z</time>
      </trkpt>
      <trkpt lat="48.29758" lon="-4.30004">
        <ele>14.74</ele>
        <time>2022-07-12T07:30:37.000Z</time>
      </trkpt>
      <trkpt lat="48.29759" lon="-4.30003">
        <ele>14.75</ele>
        <time>2022-07-12T07:30:47.000Z</time>
      </trkpt>
      <trkpt lat="48.2976" lon="-4.30002">
        <ele>14.98</ele>
        <time>2022-07-12T07:31:17.000Z</time>
      </trkpt>
      <trkpt lat="48.2976" lon="-4.30003">
        <ele>13.76</ele>
        <time>2022-07-12T07:31:29.000Z</time>
      </trkpt>
      <trkpt lat="48.29759" lon="-4.30004">
        <ele>11.99</ele>
        <time>2022-07-12T07:31:46.000Z</time>
      </trkpt>
      <trkpt lat="48.29758" lon="-4.3">
        <ele>7.55</ele>
        <time>2022-07-12T07:31:56.000Z</time>
      </trkpt>
      <trkpt lat="48.29758" lon="-4.29997">
        <ele>5.49</ele>
        <time>2022-07-12T07:32:13.000Z</time>
      </trkpt>
      <trkpt lat="48.29758" lon="-4.29994">
        <ele>-3.26</ele>
        <time>2022-07-12T07:32:23.000Z</time>
      </trkpt>
      <trkpt lat="48.29758" lon="-4.29997">
        <ele>-0.26</ele>
        <time>2022-07-12T07:32:33.000Z</time>
      </trkpt>
      <trkpt lat="48.29756" lon="-4.30001">
        <ele>0.99</ele>
        <time>2022-07-12T07:32:43.000Z</time>
      </trkpt>
      <trkpt lat="48.29756" lon="-4.30007">
        <ele>-0.26</ele>
        <time>2022-07-12T07:32:53.000Z</time>
      </trkpt>
      <trkpt lat="48.29755" lon="-4.3001">
        <ele>-1.01</ele>
        <time>2022-07-12T07:33:03.000Z</time>
      </trkpt>
      <trkpt lat="48.29755" lon="-4.30006">
        <ele>0.93</ele>
        <time>2022-07-12T07:33:13.000Z</time>
      </trkpt>
      <trkpt lat="48.29756" lon="-4.30006">
        <ele>1.73</ele>
        <time>2022-07-12T07:33:23.000Z</time>
      </trkpt>
      <trkpt lat="48.29755" lon="-4.30007">
        <ele>3.74</ele>
        <time>2022-07-12T07:33:39.000Z</time>
      </trkpt>
      <trkpt lat="48.29751" lon="-4.30019">
        <ele>4.74</ele>
        <time>2022-07-12T07:33:49.000Z</time>
      </trkpt>
      <trkpt lat="48.29753" lon="-4.30032">
        <ele>5.73</ele>
        <time>2022-07-12T07:33:58.155Z</time>
      </trkpt>
      <trkpt lat="48.29758" lon="-4.30046">
        <ele>5.68</ele>
        <time>2022-07-12T07:34:08.000Z</time>
      </trkpt>
      <trkpt lat="48.29758" lon="-4.30055">
        <ele>6.49</ele>
        <time>2022-07-12T07:34:17.233Z</time>
      </trkpt>
      <trkpt lat="48.29756" lon="-4.30064">
        <ele>6.74</ele>
        <time>2022-07-12T07:34:26.676Z</time>
      </trkpt>
      <trkpt lat="48.29756" lon="-4.30074">
        <ele>5.76</ele>
        <time>2022-07-12T07:34:37.000Z</time>
      </trkpt>
      <trkpt lat="48.29756" lon="-4.30093">
        <ele>4.74</ele>
        <time>2022-07-12T07:34:47.460Z</time>
      </trkpt>
      <trkpt lat="48.29756" lon="-4.30108">
        <ele>2.74</ele>
        <time>2022-07-12T07:34:57.237Z</time>
      </trkpt>
      <trkpt lat="48.29757" lon="-4.30115">
        <ele>0.8</ele>
        <time>2022-07-12T07:35:06.735Z</time>
      </trkpt>
      <trkpt lat="48.29757" lon="-4.30127">
        <ele>0.74</ele>
        <time>2022-07-12T07:35:16.655Z</time>
      </trkpt>
      <trkpt lat="48.29755" lon="-4.30136">
        <ele>-0.26</ele>
        <time>2022-07-12T07:35:26.000Z</time>
      </trkpt>
      <trkpt lat="48.29761" lon="-4.3015">
        <ele>-1.26</ele>
        <time>2022-07-12T07:35:35.413Z</time>
      </trkpt>
      <trkpt lat="48.29761" lon="-4.30161">
        <ele>-2.26</ele>
        <time>2022-07-12T07:35:44.697Z</time>
      </trkpt>
      <trkpt lat="48.29759" lon="-4.30177">
        <ele>-3.26</ele>
        <time>2022-07-12T07:35:54.232Z</time>
      </trkpt>
      <trkpt lat="48.29756" lon="-4.30188">
        <ele>-4.26</ele>
        <time>2022-07-12T07:36:03.411Z</time>
      </trkpt>
      <trkpt lat="48.29752" lon="-4.30201">
        <ele>-4.26</ele>
        <time>2022-07-12T07:36:12.832Z</time>
      </trkpt>
      <trkpt lat="48.29749" lon="-4.30212">
        <ele>-4.26</ele>
        <time>2022-07-12T07:36:23.000Z</time>
      </trkpt>
      <trkpt lat="48.29748" lon="-4.30229">
        <ele>-4.24</ele>
        <time>2022-07-12T07:36:32.432Z</time>
      </trkpt>
      <trkpt lat="48.29749" lon="-4.30245">
        <ele>-5.26</ele>
        <time>2022-07-12T07:36:41.633Z</time>
      </trkpt>
      <trkpt lat="48.2975" lon="-4.30257">
        <ele>-5.26</ele>
        <time>2022-07-12T07:36:50.837Z</time>
      </trkpt>
      <trkpt lat="48.29748" lon="-4.30274">
        <ele>-7.26</ele>
        <time>2022-07-12T07:37:00.239Z</time>
      </trkpt>
      <trkpt lat="48.29745" lon="-4.30288">
        <ele>-6.26</ele>
        <time>2022-07-12T07:37:09.472Z</time>
      </trkpt>
      <trkpt lat="48.29739" lon="-4.30305">
        <ele>-5.32</ele>
        <time>2022-07-12T07:37:19.000Z</time>
      </trkpt>
      <trkpt lat="48.29738" lon="-4.30322">
        <ele>-5.26</ele>
        <time>2022-07-12T07:37:28.719Z</time>
      </trkpt>
      <trkpt lat="48.29738" lon="-4.30338">
        <ele>-3.26</ele>
        <time>2022-07-12T07:37:38.000Z</time>
      </trkpt>
      <trkpt lat="48.29741" lon="-4.30355">
        <ele>-1.26</ele>
        <time>2022-07-12T07:37:47.378Z</time>
      </trkpt>
      <trkpt lat="48.29739" lon="-4.30371">
        <ele>-1.26</ele>
        <time>2022-07-12T07:37:56.734Z</time>
      </trkpt>
      <trkpt lat="48.29739" lon="-4.30384">
        <ele>-0.26</ele>
        <time>2022-07-12T07:38:05.906Z</time>
      </trkpt>
      <trkpt lat="48.29739" lon="-4.30397">
        <ele>-0.26</ele>
        <time>2022-07-12T07:38:15.134Z</time>
      </trkpt>
      <trkpt lat="48.29739" lon="-4.30407">
        <ele>2.68</ele>
        <time>2022-07-12T07:38:24.458Z</time>
      </trkpt>
      <trkpt lat="48.29739" lon="-4.30422">
        <ele>2.73</ele>
        <time>2022-07-12T07:38:33.612Z</time>
      </trkpt>
      <trkpt lat="48.29739" lon="-4.30437">
        <ele>2.74</ele>
        <time>2022-07-12T07:38:43.000Z</time>
      </trkpt>
      <trkpt lat="48.2974" lon="-4.30451">
        <ele>3.74</ele>
        <time>2022-07-12T07:38:52.554Z</time>
      </trkpt>
      <trkpt lat="48.29741" lon="-4.30459">
        <ele>5.68</ele>
        <time>2022-07-12T07:39:01.652Z</time>
      </trkpt>
      <trkpt lat="48.29745" lon="-4.30471">
        <ele>6.68</ele>
        <time>2022-07-12T07:39:10.854Z</time>
      </trkpt>
      <trkpt lat="48.29747" lon="-4.30479">
        <ele>6.74</ele>
        <time>2022-07-12T07:39:20.779Z</time>
      </trkpt>
      <trkpt lat="48.29746" lon="-4.30496">
        <ele>5.74</ele>
        <time>2022-07-12T07:39:30.858Z</time>
      </trkpt>
      <trkpt lat="48.29745" lon="-4.30513">
        <ele>4.75</ele>
        <time>2022-07-12T07:39:40.236Z</time>
      </trkpt>
      <trkpt lat="48.29743" lon="-4.30521">
        <ele>4.74</ele>
        <time>2022-07-12T07:39:49.735Z</time>
      </trkpt>
      <trkpt lat="48.29742" lon="-4.30534">
        <ele>6.73</ele>
        <time>2022-07-12T07:39:59.000Z</time>
      </trkpt>
      <trkpt lat="48.2974" lon="-4.30546">
        <ele>6.98</ele>
        <time>2022-07-12T07:40:08.376Z</time>
      </trkpt>
      <trkpt lat="48.2974" lon="-4.30555">
        <ele>8.74</ele>
        <time>2022-07-12T07:40:17.676Z</time>
      </trkpt>
      <trkpt lat="48.29738" lon="-4.30567">
        <ele>9.74</ele>
        <time>2022-07-12T07:40:27.000Z</time>
      </trkpt>
      <trkpt lat="48.29736" lon="-4.30576">
        <ele>9.68</ele>
        <time>2022-07-12T07:40:36.590Z</time>
      </trkpt>
      <trkpt lat="48.29734" lon="-4.30588">
        <ele>12.67</ele>
        <time>2022-07-12T07:40:45.858Z</time>
      </trkpt>
      <trkpt lat="48.29734" lon="-4.30598">
        <ele>13.74</ele>
        <time>2022-07-12T07:40:55.356Z</time>
      </trkpt>
      <trkpt lat="48.29732" lon="-4.30608">
        <ele>16.74</ele>
        <time>2022-07-12T07:41:04.856Z</time>
      </trkpt>
      <trkpt lat="48.29728" lon="-4.30612">
        <ele>18.74</ele>
        <time>2022-07-12T07:41:14.000Z</time>
      </trkpt>
      <trkpt lat="48.29728" lon="-4.30619">
        <ele>18.75</ele>
        <time>2022-07-12T07:41:23.814Z</time>
      </trkpt>
      <trkpt lat="48.29723" lon="-4.30628">
        <ele>20.74</ele>
        <time>2022-07-12T07:41:33.000Z</time>
      </trkpt>
      <trkpt lat="48.29719" lon="-4.30635">
        <ele>20.99</ele>
        <time>2022-07-12T07:41:42.434Z</time>
      </trkpt>
      <trkpt lat="48.29716" lon="-4.3065">
        <ele>21.74</ele>
        <time>2022-07-12T07:41:51.438Z</time>
      </trkpt>
      <trkpt lat="48.29712" lon="-4.30658">
        <ele>22.74</ele>
        <time>2022-07-12T07:42:00.655Z</time>
      </trkpt>
      <trkpt lat="48.29706" lon="-4.30666">
        <ele>23.74</ele>
        <time>2022-07-12T07:42:10.072Z</time>
      </trkpt>
      <trkpt lat="48.29699" lon="-4.30674">
        <ele>23.74</ele>
        <time>2022-07-12T07:42:19.500Z</time>
      </trkpt>
      <trkpt lat="48.29695" lon="-4.30682">
        <ele>22.74</ele>
        <time>2022-07-12T07:42:28.595Z</time>
      </trkpt>
      <trkpt lat="48.29691" lon="-4.30691">
        <ele>23.72</ele>
        <time>2022-07-12T07:42:38.000Z</time>
      </trkpt>
      <trkpt lat="48.29688" lon="-4.307">
        <ele>21.8</ele>
        <time>2022-07-12T07:42:47.518Z</time>
      </trkpt>
      <trkpt lat="48.29686" lon="-4.30717">
        <ele>21.68</ele>
        <time>2022-07-12T07:42:57.000Z</time>
      </trkpt>
      <trkpt lat="48.29686" lon="-4.30728">
        <ele>22.72</ele>
        <time>2022-07-12T07:43:06.531Z</time>
      </trkpt>
      <trkpt lat="48.29683" lon="-4.30737">
        <ele>21.8</ele>
        <time>2022-07-12T07:43:15.775Z</time>
      </trkpt>
      <trkpt lat="48.2968" lon="-4.30749">
        <ele>20.75</ele>
        <time>2022-07-12T07:43:25.913Z</time>
      </trkpt>
      <trkpt lat="48.29677" lon="-4.30756">
        <ele>19.74</ele>
        <time>2022-07-12T07:43:35.595Z</time>
      </trkpt>
      <trkpt lat="48.29673" lon="-4.30769">
        <ele>16.99</ele>
        <time>2022-07-12T07:43:44.719Z</time>
      </trkpt>
      <trkpt lat="48.29669" lon="-4.3078">
        <ele>13.99</ele>
        <time>2022-07-12T07:43:54.000Z</time>
      </trkpt>
      <trkpt lat="48.29667" lon="-4.30791">
        <ele>12.75</ele>
        <time>2022-07-12T07:44:03.403Z</time>
      </trkpt>
      <trkpt lat="48.29665" lon="-4.30806">
        <ele>11.74</ele>
        <time>2022-07-12T07:44:12.537Z</time>
      </trkpt>
      <trkpt lat="48.29658" lon="-4.30821">
        <ele>10.74</ele>
        <time>2022-07-12T07:44:21.615Z</time>
      </trkpt>
      <trkpt lat="48.29655" lon="-4.30834">
        <ele>8.8</ele>
        <time>2022-07-12T07:44:31.714Z</time>
      </trkpt>
      <trkpt lat="48.29654" lon="-4.3085">
        <ele>8.74</ele>
        <time>2022-07-12T07:44:40.813Z</time>
      </trkpt>
      <trkpt lat="48.2965" lon="-4.30863">
        <ele>8.74</ele>
        <time>2022-07-12T07:44:50.752Z</time>
      </trkpt>
      <trkpt lat="48.29645" lon="-4.30879">
        <ele>6.74</ele>
        <time>2022-07-12T07:45:00.699Z</time>
      </trkpt>
      <trkpt lat="48.2964" lon="-4.30898">
        <ele>5.74</ele>
        <time>2022-07-12T07:45:10.675Z</time>
      </trkpt>
      <trkpt lat="48.29636" lon="-4.30914">
        <ele>4.74</ele>
        <time>2022-07-12T07:45:20.681Z</time>
      </trkpt>
      <trkpt lat="48.29634" lon="-4.30931">
        <ele>3.74</ele>
        <time>2022-07-12T07:45:30.000Z</time>
      </trkpt>
      <trkpt lat="48.29633" lon="-4.30948">
        <ele>3.73</ele>
        <time>2022-07-12T07:45:40.000Z</time>
      </trkpt>
      <trkpt lat="48.29629" lon="-4.30965">
        <ele>3.73</ele>
        <time>2022-07-12T07:45:49.593Z</time>
      </trkpt>
      <trkpt lat="48.2962" lon="-4.30978">
        <ele>1.99</ele>
        <time>2022-07-12T07:45:59.000Z</time>
      </trkpt>
      <trkpt lat="48.29615" lon="-4.30994">
        <ele>2.73</ele>
        <time>2022-07-12T07:46:08.592Z</time>
      </trkpt>
      <trkpt lat="48.2961" lon="-4.31007">
        <ele>2.73</ele>
        <time>2022-07-12T07:46:18.000Z</time>
      </trkpt>
      <trkpt lat="48.29603" lon="-4.31018">
        <ele>1.74</ele>
        <time>2022-07-12T07:46:27.394Z</time>
      </trkpt>
      <trkpt lat="48.29599" lon="-4.3103">
        <ele>-0.2</ele>
        <time>2022-07-12T07:46:36.918Z</time>
      </trkpt>
      <trkpt lat="48.29596" lon="-4.3104">
        <ele>-0.27</ele>
        <time>2022-07-12T07:46:46.299Z</time>
      </trkpt>
      <trkpt lat="48.29592" lon="-4.31051">
        <ele>-1.27</ele>
        <time>2022-07-12T07:46:55.732Z</time>
      </trkpt>
      <trkpt lat="48.29586" lon="-4.31062">
        <ele>-1.27</ele>
        <time>2022-07-12T07:47:04.891Z</time>
      </trkpt>
      <trkpt lat="48.29581" lon="-4.31077">
        <ele>-2.27</ele>
        <time>2022-07-12T07:47:13.939Z</time>
      </trkpt>
      <trkpt lat="48.29577" lon="-4.31092">
        <ele>-3.26</ele>
        <time>2022-07-12T07:47:23.480Z</time>
      </trkpt>
      <trkpt lat="48.29574" lon="-4.31104">
        <ele>-4.2</ele>
        <time>2022-07-12T07:47:32.518Z</time>
      </trkpt>
      <trkpt lat="48.29567" lon="-4.31119">
        <ele>-4.27</ele>
        <time>2022-07-12T07:47:41.538Z</time>
      </trkpt>
      <trkpt lat="48.29563" lon="-4.31134">
        <ele>-5.27</ele>
        <time>2022-07-12T07:47:51.000Z</time>
      </trkpt>
      <trkpt lat="48.29561" lon="-4.31141">
        <ele>-5.27</ele>
        <time>2022-07-12T07:48:01.000Z</time>
      </trkpt>
      <trkpt lat="48.29559" lon="-4.31142">
        <ele>-4.33</ele>
        <time>2022-07-12T07:48:11.000Z</time>
      </trkpt>
      <trkpt lat="48.29555" lon="-4.31144">
        <ele>-0.27</ele>
        <time>2022-07-12T07:48:21.000Z</time>
      </trkpt>
      <trkpt lat="48.29553" lon="-4.3115">
        <ele>3.47</ele>
        <time>2022-07-12T07:48:31.000Z</time>
      </trkpt>
      <trkpt lat="48.2955" lon="-4.31157">
        <ele>6.72</ele>
        <time>2022-07-12T07:48:41.000Z</time>
      </trkpt>
      <trkpt lat="48.29549" lon="-4.3116">
        <ele>7.73</ele>
        <time>2022-07-12T07:48:51.000Z</time>
      </trkpt>
      <trkpt lat="48.29546" lon="-4.31164">
        <ele>7.73</ele>
        <time>2022-07-12T07:49:00.280Z</time>
      </trkpt>
      <trkpt lat="48.29542" lon="-4.3117">
        <ele>7.73</ele>
        <time>2022-07-12T07:49:09.578Z</time>
      </trkpt>
      <trkpt lat="48.29536" lon="-4.31178">
        <ele>6.73</ele>
        <time>2022-07-12T07:49:18.915Z</time>
      </trkpt>
      <trkpt lat="48.29534" lon="-4.31187">
        <ele>6.73</ele>
        <time>2022-07-12T07:49:28.000Z</time>
      </trkpt>
      <trkpt lat="48.29529" lon="-4.31198">
        <ele>5.73</ele>
        <time>2022-07-12T07:49:38.000Z</time>
      </trkpt>
      <trkpt lat="48.29525" lon="-4.3121">
        <ele>4.73</ele>
        <time>2022-07-12T07:49:47.835Z</time>
      </trkpt>
      <trkpt lat="48.29521" lon="-4.31217">
        <ele>3.73</ele>
        <time>2022-07-12T07:49:57.000Z</time>
      </trkpt>
      <trkpt lat="48.29513" lon="-4.31229">
        <ele>3.73</ele>
        <time>2022-07-12T07:50:06.815Z</time>
      </trkpt>
      <trkpt lat="48.29508" lon="-4.31237">
        <ele>2.97</ele>
        <time>2022-07-12T07:50:16.000Z</time>
      </trkpt>
      <trkpt lat="48.29504" lon="-4.31247">
        <ele>3.73</ele>
        <time>2022-07-12T07:50:25.396Z</time>
      </trkpt>
      <trkpt lat="48.29499" lon="-4.31254">
        <ele>4.73</ele>
        <time>2022-07-12T07:50:34.752Z</time>
      </trkpt>
      <trkpt lat="48.29493" lon="-4.31268">
        <ele>4.73</ele>
        <time>2022-07-12T07:50:44.634Z</time>
      </trkpt>
      <trkpt lat="48.29488" lon="-4.31276">
        <ele>5.67</ele>
        <time>2022-07-12T07:50:53.942Z</time>
      </trkpt>
      <trkpt lat="48.29484" lon="-4.31287">
        <ele>6.48</ele>
        <time>2022-07-12T07:51:03.000Z</time>
      </trkpt>
      <trkpt lat="48.29481" lon="-4.31301">
        <ele>7.73</ele>
        <time>2022-07-12T07:51:12.538Z</time>
      </trkpt>
      <trkpt lat="48.29481" lon="-4.31308">
        <ele>8.73</ele>
        <time>2022-07-12T07:51:21.607Z</time>
      </trkpt>
      <trkpt lat="48.29476" lon="-4.31316">
        <ele>8.73</ele>
        <time>2022-07-12T07:51:30.611Z</time>
      </trkpt>
      <trkpt lat="48.29468" lon="-4.31327">
        <ele>7.73</ele>
        <time>2022-07-12T07:51:39.776Z</time>
      </trkpt>
      <trkpt lat="48.29467" lon="-4.31334">
        <ele>8.73</ele>
        <time>2022-07-12T07:51:48.894Z</time>
      </trkpt>
      <trkpt lat="48.29466" lon="-4.31348">
        <ele>9.73</ele>
        <time>2022-07-12T07:51:58.000Z</time>
      </trkpt>
      <trkpt lat="48.29464" lon="-4.31359">
        <ele>8.73</ele>
        <time>2022-07-12T07:52:07.591Z</time>
      </trkpt>
      <trkpt lat="48.29459" lon="-4.31374">
        <ele>7.74</ele>
        <time>2022-07-12T07:52:17.000Z</time>
      </trkpt>
      <trkpt lat="48.29457" lon="-4.31385">
        <ele>8.73</ele>
        <time>2022-07-12T07:52:26.298Z</time>
      </trkpt>
      <trkpt lat="48.29453" lon="-4.31395">
        <ele>8.73</ele>
        <time>2022-07-12T07:52:35.586Z</time>
      </trkpt>
      <trkpt lat="48.2945" lon="-4.31403">
        <ele>8.73</ele>
        <time>2022-07-12T07:52:44.654Z</time>
      </trkpt>
      <trkpt lat="48.29447" lon="-4.31415">
        <ele>7.75</ele>
        <time>2022-07-12T07:52:54.000Z</time>
      </trkpt>
      <trkpt lat="48.29443" lon="-4.31428">
        <ele>9.67</ele>
        <time>2022-07-12T07:53:03.493Z</time>
      </trkpt>
      <trkpt lat="48.29436" lon="-4.31444">
        <ele>8.75</ele>
        <time>2022-07-12T07:53:12.893Z</time>
      </trkpt>
      <trkpt lat="48.29433" lon="-4.31452">
        <ele>10.73</ele>
        <time>2022-07-12T07:53:22.000Z</time>
      </trkpt>
      <trkpt lat="48.29432" lon="-4.31465">
        <ele>11.73</ele>
        <time>2022-07-12T07:53:31.477Z</time>
      </trkpt>
      <trkpt lat="48.29429" lon="-4.31476">
        <ele>12.73</ele>
        <time>2022-07-12T07:53:41.000Z</time>
      </trkpt>
      <trkpt lat="48.29423" lon="-4.31488">
        <ele>12.73</ele>
        <time>2022-07-12T07:53:50.833Z</time>
      </trkpt>
      <trkpt lat="48.2942" lon="-4.31496">
        <ele>13.73</ele>
        <time>2022-07-12T07:54:00.296Z</time>
      </trkpt>
      <trkpt lat="48.29417" lon="-4.31506">
        <ele>12.74</ele>
        <time>2022-07-12T07:54:09.618Z</time>
      </trkpt>
      <trkpt lat="48.29415" lon="-4.31517">
        <ele>12.73</ele>
        <time>2022-07-12T07:54:18.837Z</time>
      </trkpt>
      <trkpt lat="48.29413" lon="-4.31525">
        <ele>14.72</ele>
        <time>2022-07-12T07:54:28.254Z</time>
      </trkpt>
      <trkpt lat="48.29409" lon="-4.31534">
        <ele>14.73</ele>
        <time>2022-07-12T07:54:37.394Z</time>
      </trkpt>
      <trkpt lat="48.29403" lon="-4.31542">
        <ele>15.73</ele>
        <time>2022-07-12T07:54:47.000Z</time>
      </trkpt>
      <trkpt lat="48.294" lon="-4.31555">
        <ele>15.73</ele>
        <time>2022-07-12T07:54:57.000Z</time>
      </trkpt>
      <trkpt lat="48.29396" lon="-4.31567">
        <ele>16.71</ele>
        <time>2022-07-12T07:55:06.490Z</time>
      </trkpt>
      <trkpt lat="48.29394" lon="-4.31574">
        <ele>16.73</ele>
        <time>2022-07-12T07:55:15.594Z</time>
      </trkpt>
      <trkpt lat="48.29392" lon="-4.31583">
        <ele>16.97</ele>
        <time>2022-07-12T07:55:25.000Z</time>
      </trkpt>
      <trkpt lat="48.29389" lon="-4.31594">
        <ele>15.73</ele>
        <time>2022-07-12T07:55:34.393Z</time>
      </trkpt>
      <trkpt lat="48.29388" lon="-4.31602">
        <ele>16.67</ele>
        <time>2022-07-12T07:55:44.000Z</time>
      </trkpt>
      <trkpt lat="48.29383" lon="-4.31615">
        <ele>16.73</ele>
        <time>2022-07-12T07:55:53.519Z</time>
      </trkpt>
      <trkpt lat="48.29379" lon="-4.31623">
        <ele>17.73</ele>
        <time>2022-07-12T07:56:02.733Z</time>
      </trkpt>
      <trkpt lat="48.29375" lon="-4.31632">
        <ele>16.73</ele>
        <time>2022-07-12T07:56:12.793Z</time>
      </trkpt>
      <trkpt lat="48.29372" lon="-4.31642">
        <ele>18.48</ele>
        <time>2022-07-12T07:56:22.000Z</time>
      </trkpt>
      <trkpt lat="48.29368" lon="-4.31649">
        <ele>18.73</ele>
        <time>2022-07-12T07:56:31.657Z</time>
      </trkpt>
      <trkpt lat="48.29365" lon="-4.31661">
        <ele>19.73</ele>
        <time>2022-07-12T07:56:40.799Z</time>
      </trkpt>
      <trkpt lat="48.29363" lon="-4.31671">
        <ele>21.67</ele>
        <time>2022-07-12T07:56:50.000Z</time>
      </trkpt>
      <trkpt lat="48.29359" lon="-4.31678">
        <ele>21.73</ele>
        <time>2022-07-12T07:56:59.332Z</time>
      </trkpt>
      <trkpt lat="48.29357" lon="-4.31686">
        <ele>20.79</ele>
        <time>2022-07-12T07:57:08.455Z</time>
      </trkpt>
      <trkpt lat="48.29352" lon="-4.31695">
        <ele>20.73</ele>
        <time>2022-07-12T07:57:17.738Z</time>
      </trkpt>
      <trkpt lat="48.29348" lon="-4.31703">
        <ele>18.79</ele>
        <time>2022-07-12T07:57:27.000Z</time>
      </trkpt>
      <trkpt lat="48.2934" lon="-4.31716">
        <ele>18.74</ele>
        <time>2022-07-12T07:57:36.793Z</time>
      </trkpt>
      <trkpt lat="48.29334" lon="-4.31729">
        <ele>19.73</ele>
        <time>2022-07-12T07:57:45.910Z</time>
      </trkpt>
      <trkpt lat="48.29325" lon="-4.3174">
        <ele>21.73</ele>
        <time>2022-07-12T07:57:55.675Z</time>
      </trkpt>
      <trkpt lat="48.29322" lon="-4.31745">
        <ele>21.73</ele>
        <time>2022-07-12T07:58:05.000Z</time>
      </trkpt>
      <trkpt lat="48.29315" lon="-4.31757">
        <ele>20.73</ele>
        <time>2022-07-12T07:58:14.693Z</time>
      </trkpt>
      <trkpt lat="48.2931" lon="-4.31765">
        <ele>21.73</ele>
        <time>2022-07-12T07:58:24.000Z</time>
      </trkpt>
      <trkpt lat="48.29303" lon="-4.31775">
        <ele>22.92</ele>
        <time>2022-07-12T07:58:33.933Z</time>
      </trkpt>
      <trkpt lat="48.29295" lon="-4.31784">
        <ele>22.73</ele>
        <time>2022-07-12T07:58:43.618Z</time>
      </trkpt>
      <trkpt lat="48.2929" lon="-4.31793">
        <ele>23.73</ele>
        <time>2022-07-12T07:58:52.794Z</time>
      </trkpt>
      <trkpt lat="48.29285" lon="-4.31799">
        <ele>23.73</ele>
        <time>2022-07-12T07:59:01.876Z</time>
      </trkpt>
      <trkpt lat="48.29279" lon="-4.31806">
        <ele>23.73</ele>
        <time>2022-07-12T07:59:11.000Z</time>
      </trkpt>
      <trkpt lat="48.29271" lon="-4.31811">
        <ele>23.73</ele>
        <time>2022-07-12T07:59:20.931Z</time>
      </trkpt>
      <trkpt lat="48.29265" lon="-4.3182">
        <ele>22.73</ele>
        <time>2022-07-12T07:59:30.138Z</time>
      </trkpt>
      <trkpt lat="48.29259" lon="-4.31829">
        <ele>21.73</ele>
        <time>2022-07-12T07:59:39.653Z</time>
      </trkpt>
      <trkpt lat="48.29252" lon="-4.31834">
        <ele>20.73</ele>
        <time>2022-07-12T07:59:49.000Z</time>
      </trkpt>
      <trkpt lat="48.29245" lon="-4.31844">
        <ele>19.73</ele>
        <time>2022-07-12T07:59:58.518Z</time>
      </trkpt>
      <trkpt lat="48.2924" lon="-4.31853">
        <ele>20.73</ele>
        <time>2022-07-12T08:00:07.875Z</time>
      </trkpt>
      <trkpt lat="48.29234" lon="-4.31865">
        <ele>20.73</ele>
        <time>2022-07-12T08:00:16.933Z</time>
      </trkpt>
      <trkpt lat="48.29226" lon="-4.31874">
        <ele>21.73</ele>
        <time>2022-07-12T08:00:26.000Z</time>
      </trkpt>
      <trkpt lat="48.29217" lon="-4.31881">
        <ele>21.73</ele>
        <time>2022-07-12T08:00:35.853Z</time>
      </trkpt>
      <trkpt lat="48.29207" lon="-4.31892">
        <ele>22.73</ele>
        <time>2022-07-12T08:00:45.254Z</time>
      </trkpt>
      <trkpt lat="48.29204" lon="-4.31898">
        <ele>22.73</ele>
        <time>2022-07-12T08:00:54.321Z</time>
      </trkpt>
      <trkpt lat="48.29199" lon="-4.31905">
        <ele>21.67</ele>
        <time>2022-07-12T08:01:03.877Z</time>
      </trkpt>
      <trkpt lat="48.29196" lon="-4.31911">
        <ele>21.73</ele>
        <time>2022-07-12T08:01:13.414Z</time>
      </trkpt>
      <trkpt lat="48.29189" lon="-4.31923">
        <ele>22.67</ele>
        <time>2022-07-12T08:01:22.512Z</time>
      </trkpt>
      <trkpt lat="48.29185" lon="-4.31933">
        <ele>21.73</ele>
        <time>2022-07-12T08:01:32.000Z</time>
      </trkpt>
      <trkpt lat="48.29179" lon="-4.31945">
        <ele>21.73</ele>
        <time>2022-07-12T08:01:41.419Z</time>
      </trkpt>
      <trkpt lat="48.29172" lon="-4.31959">
        <ele>20.79</ele>
        <time>2022-07-12T08:01:50.933Z</time>
      </trkpt>
      <trkpt lat="48.29168" lon="-4.31972">
        <ele>22.73</ele>
        <time>2022-07-12T08:02:00.579Z</time>
      </trkpt>
      <trkpt lat="48.29163" lon="-4.31979">
        <ele>22.73</ele>
        <time>2022-07-12T08:02:10.775Z</time>
      </trkpt>
      <trkpt lat="48.29161" lon="-4.31995">
        <ele>24.73</ele>
        <time>2022-07-12T08:02:20.275Z</time>
      </trkpt>
      <trkpt lat="48.29157" lon="-4.32002">
        <ele>25.73</ele>
        <time>2022-07-12T08:02:29.773Z</time>
      </trkpt>
      <trkpt lat="48.29151" lon="-4.32011">
        <ele>25.73</ele>
        <time>2022-07-12T08:02:39.000Z</time>
      </trkpt>
      <trkpt lat="48.29146" lon="-4.32022">
        <ele>25.73</ele>
        <time>2022-07-12T08:02:48.659Z</time>
      </trkpt>
      <trkpt lat="48.29141" lon="-4.32032">
        <ele>25.98</ele>
        <time>2022-07-12T08:02:58.000Z</time>
      </trkpt>
      <trkpt lat="48.29133" lon="-4.32042">
        <ele>25.73</ele>
        <time>2022-07-12T08:03:07.595Z</time>
      </trkpt>
      <trkpt lat="48.2913" lon="-4.32051">
        <ele>25.73</ele>
        <time>2022-07-12T08:03:17.000Z</time>
      </trkpt>
      <trkpt lat="48.29128" lon="-4.32059">
        <ele>25.73</ele>
        <time>2022-07-12T08:03:26.454Z</time>
      </trkpt>
      <trkpt lat="48.29125" lon="-4.32073">
        <ele>24.73</ele>
        <time>2022-07-12T08:03:35.874Z</time>
      </trkpt>
      <trkpt lat="48.29121" lon="-4.32086">
        <ele>25.73</ele>
        <time>2022-07-12T08:03:45.477Z</time>
      </trkpt>
      <trkpt lat="48.29121" lon="-4.32093">
        <ele>24.98</ele>
        <time>2022-07-12T08:03:55.000Z</time>
      </trkpt>
      <trkpt lat="48.2912" lon="-4.32104">
        <ele>24.73</ele>
        <time>2022-07-12T08:04:04.318Z</time>
      </trkpt>
      <trkpt lat="48.2912" lon="-4.32118">
        <ele>25.73</ele>
        <time>2022-07-12T08:04:13.737Z</time>
      </trkpt>
      <trkpt lat="48.29119" lon="-4.32132">
        <ele>25.73</ele>
        <time>2022-07-12T08:04:23.000Z</time>
      </trkpt>
      <trkpt lat="48.29115" lon="-4.32139">
        <ele>24.48</ele>
        <time>2022-07-12T08:04:32.416Z</time>
      </trkpt>
      <trkpt lat="48.29112" lon="-4.32148">
        <ele>23.98</ele>
        <time>2022-07-12T08:04:42.000Z</time>
      </trkpt>
      <trkpt lat="48.29109" lon="-4.32162">
        <ele>23.73</ele>
        <time>2022-07-12T08:04:51.495Z</time>
      </trkpt>
      <trkpt lat="48.29108" lon="-4.32171">
        <ele>23.72</ele>
        <time>2022-07-12T08:05:01.432Z</time>
      </trkpt>
      <trkpt lat="48.29105" lon="-4.32184">
        <ele>24.72</ele>
        <time>2022-07-12T08:05:10.739Z</time>
      </trkpt>
      <trkpt lat="48.29102" lon="-4.32193">
        <ele>23.99</ele>
        <time>2022-07-12T08:05:19.957Z</time>
      </trkpt>
      <trkpt lat="48.29099" lon="-4.32208">
        <ele>22.73</ele>
        <time>2022-07-12T08:05:29.000Z</time>
      </trkpt>
      <trkpt lat="48.29097" lon="-4.32224">
        <ele>22.73</ele>
        <time>2022-07-12T08:05:38.758Z</time>
      </trkpt>
      <trkpt lat="48.29094" lon="-4.32241">
        <ele>24.73</ele>
        <time>2022-07-12T08:05:48.000Z</time>
      </trkpt>
      <trkpt lat="48.29093" lon="-4.32253">
        <ele>24.73</ele>
        <time>2022-07-12T08:05:57.617Z</time>
      </trkpt>
      <trkpt lat="48.29091" lon="-4.32269">
        <ele>24.73</ele>
        <time>2022-07-12T08:06:06.959Z</time>
      </trkpt>
      <trkpt lat="48.29091" lon="-4.32279">
        <ele>25.72</ele>
        <time>2022-07-12T08:06:16.000Z</time>
      </trkpt>
      <trkpt lat="48.29088" lon="-4.32293">
        <ele>25.73</ele>
        <time>2022-07-12T08:06:25.637Z</time>
      </trkpt>
      <trkpt lat="48.29086" lon="-4.32304">
        <ele>25.73</ele>
        <time>2022-07-12T08:06:35.000Z</time>
      </trkpt>
      <trkpt lat="48.29085" lon="-4.32317">
        <ele>25.73</ele>
        <time>2022-07-12T08:06:45.000Z</time>
      </trkpt>
      <trkpt lat="48.29084" lon="-4.32333">
        <ele>25.73</ele>
        <time>2022-07-12T08:06:54.357Z</time>
      </trkpt>
      <trkpt lat="48.29082" lon="-4.32343">
        <ele>26.73</ele>
        <time>2022-07-12T08:07:03.673Z</time>
      </trkpt>
      <trkpt lat="48.2908" lon="-4.32353">
        <ele>26.72</ele>
        <time>2022-07-12T08:07:12.851Z</time>
      </trkpt>
      <trkpt lat="48.29077" lon="-4.32365">
        <ele>25.73</ele>
        <time>2022-07-12T08:07:22.198Z</time>
      </trkpt>
      <trkpt lat="48.29075" lon="-4.32378">
        <ele>25.73</ele>
        <time>2022-07-12T08:07:31.695Z</time>
      </trkpt>
      <trkpt lat="48.29073" lon="-4.32393">
        <ele>26.47</ele>
        <time>2022-07-12T08:07:40.875Z</time>
      </trkpt>
      <trkpt lat="48.29069" lon="-4.32409">
        <ele>24.73</ele>
        <time>2022-07-12T08:07:50.852Z</time>
      </trkpt>
      <trkpt lat="48.29069" lon="-4.32422">
        <ele>24.73</ele>
        <time>2022-07-12T08:08:00.094Z</time>
      </trkpt>
      <trkpt lat="48.29069" lon="-4.32435">
        <ele>25.72</ele>
        <time>2022-07-12T08:08:09.911Z</time>
      </trkpt>
      <trkpt lat="48.29069" lon="-4.32444">
        <ele>25.72</ele>
        <time>2022-07-12T08:08:19.000Z</time>
      </trkpt>
      <trkpt lat="48.2907" lon="-4.32461">
        <ele>26.72</ele>
        <time>2022-07-12T08:08:28.696Z</time>
      </trkpt>
      <trkpt lat="48.29069" lon="-4.32476">
        <ele>26.72</ele>
        <time>2022-07-12T08:08:38.000Z</time>
      </trkpt>
      <trkpt lat="48.29068" lon="-4.32488">
        <ele>27.72</ele>
        <time>2022-07-12T08:08:47.517Z</time>
      </trkpt>
      <trkpt lat="48.29068" lon="-4.32499">
        <ele>27.97</ele>
        <time>2022-07-12T08:08:57.000Z</time>
      </trkpt>
      <trkpt lat="48.29067" lon="-4.32512">
        <ele>29.71</ele>
        <time>2022-07-12T08:09:06.333Z</time>
      </trkpt>
      <trkpt lat="48.29064" lon="-4.32527">
        <ele>29.72</ele>
        <time>2022-07-12T08:09:15.432Z</time>
      </trkpt>
      <trkpt lat="48.29061" lon="-4.32538">
        <ele>29.72</ele>
        <time>2022-07-12T08:09:24.690Z</time>
      </trkpt>
      <trkpt lat="48.29057" lon="-4.32551">
        <ele>30.71</ele>
        <time>2022-07-12T08:09:33.695Z</time>
      </trkpt>
      <trkpt lat="48.29055" lon="-4.32562">
        <ele>30.72</ele>
        <time>2022-07-12T08:09:42.715Z</time>
      </trkpt>
      <trkpt lat="48.29053" lon="-4.32577">
        <ele>30.72</ele>
        <time>2022-07-12T08:09:52.000Z</time>
      </trkpt>
      <trkpt lat="48.2905" lon="-4.32587">
        <ele>30.72</ele>
        <time>2022-07-12T08:10:01.214Z</time>
      </trkpt>
      <trkpt lat="48.29048" lon="-4.32598">
        <ele>31.72</ele>
        <time>2022-07-12T08:10:11.000Z</time>
      </trkpt>
      <trkpt lat="48.29047" lon="-4.32607">
        <ele>29.74</ele>
        <time>2022-07-12T08:10:20.635Z</time>
      </trkpt>
      <trkpt lat="48.29047" lon="-4.32621">
        <ele>29.72</ele>
        <time>2022-07-12T08:10:30.036Z</time>
      </trkpt>
      <trkpt lat="48.29047" lon="-4.3263">
        <ele>29.74</ele>
        <time>2022-07-12T08:10:39.534Z</time>
      </trkpt>
      <trkpt lat="48.29045" lon="-4.32639">
        <ele>29.72</ele>
        <time>2022-07-12T08:10:49.458Z</time>
      </trkpt>
      <trkpt lat="48.29041" lon="-4.32654">
        <ele>28.72</ele>
        <time>2022-07-12T08:10:58.831Z</time>
      </trkpt>
      <trkpt lat="48.29038" lon="-4.32667">
        <ele>27.72</ele>
        <time>2022-07-12T08:11:07.836Z</time>
      </trkpt>
      <trkpt lat="48.29036" lon="-4.32678">
        <ele>26.72</ele>
        <time>2022-07-12T08:11:17.000Z</time>
      </trkpt>
      <trkpt lat="48.29032" lon="-4.32694">
        <ele>25.72</ele>
        <time>2022-07-12T08:11:26.755Z</time>
      </trkpt>
      <trkpt lat="48.29031" lon="-4.32708">
        <ele>24.72</ele>
        <time>2022-07-12T08:11:35.852Z</time>
      </trkpt>
      <trkpt lat="48.29029" lon="-4.32721">
        <ele>24.72</ele>
        <time>2022-07-12T08:11:44.870Z</time>
      </trkpt>
      <trkpt lat="48.29025" lon="-4.32731">
        <ele>23.78</ele>
        <time>2022-07-12T08:11:54.000Z</time>
      </trkpt>
      <trkpt lat="48.29021" lon="-4.32737">
        <ele>23.72</ele>
        <time>2022-07-12T08:12:03.455Z</time>
      </trkpt>
      <trkpt lat="48.29017" lon="-4.32747">
        <ele>22.72</ele>
        <time>2022-07-12T08:12:12.676Z</time>
      </trkpt>
      <trkpt lat="48.29016" lon="-4.3276">
        <ele>23.72</ele>
        <time>2022-07-12T08:12:22.000Z</time>
      </trkpt>
      <trkpt lat="48.29011" lon="-4.32773">
        <ele>21.72</ele>
        <time>2022-07-12T08:12:31.313Z</time>
      </trkpt>
      <trkpt lat="48.2901" lon="-4.32787">
        <ele>20.72</ele>
        <time>2022-07-12T08:12:40.436Z</time>
      </trkpt>
      <trkpt lat="48.29007" lon="-4.328">
        <ele>20.72</ele>
        <time>2022-07-12T08:12:49.695Z</time>
      </trkpt>
      <trkpt lat="48.29006" lon="-4.32817">
        <ele>21.47</ele>
        <time>2022-07-12T08:12:59.657Z</time>
      </trkpt>
      <trkpt lat="48.29005" lon="-4.32832">
        <ele>20.72</ele>
        <time>2022-07-12T08:13:08.757Z</time>
      </trkpt>
      <trkpt lat="48.29004" lon="-4.3284">
        <ele>22.72</ele>
        <time>2022-07-12T08:13:18.000Z</time>
      </trkpt>
      <trkpt lat="48.29003" lon="-4.32851">
        <ele>26.47</ele>
        <time>2022-07-12T08:13:27.475Z</time>
      </trkpt>
      <trkpt lat="48.29003" lon="-4.32865">
        <ele>25.73</ele>
        <time>2022-07-12T08:13:37.000Z</time>
      </trkpt>
      <trkpt lat="48.29006" lon="-4.32878">
        <ele>23.74</ele>
        <time>2022-07-12T08:13:46.275Z</time>
      </trkpt>
      <trkpt lat="48.29008" lon="-4.32885">
        <ele>24.71</ele>
        <time>2022-07-12T08:13:56.000Z</time>
      </trkpt>
      <trkpt lat="48.29008" lon="-4.32895">
        <ele>25.72</ele>
        <time>2022-07-12T08:14:05.653Z</time>
      </trkpt>
      <trkpt lat="48.29006" lon="-4.32909">
        <ele>24.72</ele>
        <time>2022-07-12T08:14:14.832Z</time>
      </trkpt>
      <trkpt lat="48.29005" lon="-4.32915">
        <ele>23.72</ele>
        <time>2022-07-12T08:14:24.900Z</time>
      </trkpt>
      <trkpt lat="48.29004" lon="-4.32924">
        <ele>22.71</ele>
        <time>2022-07-12T08:14:34.000Z</time>
      </trkpt>
      <trkpt lat="48.29001" lon="-4.32937">
        <ele>20.74</ele>
        <time>2022-07-12T08:14:44.000Z</time>
      </trkpt>
      <trkpt lat="48.29" lon="-4.32948">
        <ele>20.72</ele>
        <time>2022-07-12T08:14:53.536Z</time>
      </trkpt>
      <trkpt lat="48.29" lon="-4.32961">
        <ele>19.72</ele>
        <time>2022-07-12T08:15:02.817Z</time>
      </trkpt>
      <trkpt lat="48.29" lon="-4.32973">
        <ele>21.72</ele>
        <time>2022-07-12T08:15:12.000Z</time>
      </trkpt>
      <trkpt lat="48.28997" lon="-4.32984">
        <ele>23.72</ele>
        <time>2022-07-12T08:15:21.794Z</time>
      </trkpt>
      <trkpt lat="48.28995" lon="-4.32996">
        <ele>23.47</ele>
        <time>2022-07-12T08:15:31.533Z</time>
      </trkpt>
      <trkpt lat="48.28996" lon="-4.33001">
        <ele>22.72</ele>
        <time>2022-07-12T08:15:40.859Z</time>
      </trkpt>
      <trkpt lat="48.28996" lon="-4.33007">
        <ele>22.72</ele>
        <time>2022-07-12T08:15:50.000Z</time>
      </trkpt>
      <trkpt lat="48.28997" lon="-4.33017">
        <ele>21.72</ele>
        <time>2022-07-12T08:15:59.412Z</time>
      </trkpt>
      <trkpt lat="48.28999" lon="-4.3303">
        <ele>21.72</ele>
        <time>2022-07-12T08:16:08.633Z</time>
      </trkpt>
      <trkpt lat="48.28998" lon="-4.33038">
        <ele>19.72</ele>
        <time>2022-07-12T08:16:17.921Z</time>
      </trkpt>
      <trkpt lat="48.28994" lon="-4.33049">
        <ele>18.72</ele>
        <time>2022-07-12T08:16:28.000Z</time>
      </trkpt>
      <trkpt lat="48.28991" lon="-4.33058">
        <ele>15.72</ele>
        <time>2022-07-12T08:16:37.755Z</time>
      </trkpt>
      <trkpt lat="48.28987" lon="-4.33069">
        <ele>15.72</ele>
        <time>2022-07-12T08:16:47.734Z</time>
      </trkpt>
      <trkpt lat="48.28985" lon="-4.33077">
        <ele>15.72</ele>
        <time>2022-07-12T08:16:56.796Z</time>
      </trkpt>
      <trkpt lat="48.28981" lon="-4.33083">
        <ele>13.03</ele>
        <time>2022-07-12T08:17:06.000Z</time>
      </trkpt>
      <trkpt lat="48.28976" lon="-4.33084">
        <ele>14.7</ele>
        <time>2022-07-12T08:17:16.000Z</time>
      </trkpt>
      <trkpt lat="48.28974" lon="-4.33086">
        <ele>14.47</ele>
        <time>2022-07-12T08:17:26.000Z</time>
      </trkpt>
      <trkpt lat="48.28974" lon="-4.33088">
        <ele>14.72</ele>
        <time>2022-07-12T08:17:35.614Z</time>
      </trkpt>
      <trkpt lat="48.28973" lon="-4.33091">
        <ele>17.7</ele>
        <time>2022-07-12T08:17:45.000Z</time>
      </trkpt>
      <trkpt lat="48.28973" lon="-4.33094">
        <ele>18.72</ele>
        <time>2022-07-12T08:17:55.000Z</time>
      </trkpt>
      <trkpt lat="48.28972" lon="-4.33095">
        <ele>23.22</ele>
        <time>2022-07-12T08:18:05.000Z</time>
      </trkpt>
      <trkpt lat="48.2897" lon="-4.33096">
        <ele>25.72</ele>
        <time>2022-07-12T08:18:15.000Z</time>
      </trkpt>
      <trkpt lat="48.28969" lon="-4.33097">
        <ele>26.72</ele>
        <time>2022-07-12T08:18:45.000Z</time>
      </trkpt>
      <trkpt lat="48.28968" lon="-4.33098">
        <ele>25.72</ele>
        <time>2022-07-12T08:18:55.000Z</time>
      </trkpt>
      <trkpt lat="48.28968" lon="-4.33097">
        <ele>26.47</ele>
        <time>2022-07-12T08:19:06.000Z</time>
      </trkpt>
      <trkpt lat="48.28967" lon="-4.33098">
        <ele>27.52</ele>
        <time>2022-07-12T08:19:25.000Z</time>
      </trkpt>
      <trkpt lat="48.28967" lon="-4.33099">
        <ele>25.72</ele>
        <time>2022-07-12T08:19:42.000Z</time>
      </trkpt>
      <trkpt lat="48.28967" lon="-4.33101">
        <ele>23.97</ele>
        <time>2022-07-12T08:19:54.000Z</time>
      </trkpt>
      <trkpt lat="48.28968" lon="-4.33102">
        <ele>22.72</ele>
        <time>2022-07-12T08:20:04.000Z</time>
      </trkpt>
      <trkpt lat="48.28969" lon="-4.33104">
        <ele>21.74</ele>
        <time>2022-07-12T08:20:17.000Z</time>
      </trkpt>
      <trkpt lat="48.28968" lon="-4.33106">
        <ele>21.72</ele>
        <time>2022-07-12T08:20:28.000Z</time>
      </trkpt>
      <trkpt lat="48.28967" lon="-4.33101">
        <ele>21.72</ele>
        <time>2022-07-12T08:20:38.000Z</time>
      </trkpt>
      <trkpt lat="48.28969" lon="-4.33103">
        <ele>21.72</ele>
        <time>2022-07-12T08:20:47.893Z</time>
      </trkpt>
      <trkpt lat="48.28968" lon="-4.33104">
        <ele>21.72</ele>
        <time>2022-07-12T08:20:57.000Z</time>
      </trkpt>
      <trkpt lat="48.28964" lon="-4.33107">
        <ele>23.47</ele>
        <time>2022-07-12T08:21:07.000Z</time>
      </trkpt>
      <trkpt lat="48.28962" lon="-4.33113">
        <ele>24.66</ele>
        <time>2022-07-12T08:21:17.000Z</time>
      </trkpt>
      <trkpt lat="48.28957" lon="-4.33118">
        <ele>25.72</ele>
        <time>2022-07-12T08:21:26.533Z</time>
      </trkpt>
      <trkpt lat="48.28954" lon="-4.33123">
        <ele>25.91</ele>
        <time>2022-07-12T08:21:36.000Z</time>
      </trkpt>
      <trkpt lat="48.28952" lon="-4.33129">
        <ele>28.72</ele>
        <time>2022-07-12T08:21:45.583Z</time>
      </trkpt>
      <trkpt lat="48.28951" lon="-4.33133">
        <ele>28.72</ele>
        <time>2022-07-12T08:21:54.586Z</time>
      </trkpt>
      <trkpt lat="48.28949" lon="-4.33138">
        <ele>30.77</ele>
        <time>2022-07-12T08:22:04.000Z</time>
      </trkpt>
      <trkpt lat="48.28945" lon="-4.33144">
        <ele>32.72</ele>
        <time>2022-07-12T08:22:13.455Z</time>
      </trkpt>
      <trkpt lat="48.28941" lon="-4.33148">
        <ele>33.72</ele>
        <time>2022-07-12T08:22:22.874Z</time>
      </trkpt>
      <trkpt lat="48.28936" lon="-4.33154">
        <ele>32.72</ele>
        <time>2022-07-12T08:22:32.582Z</time>
      </trkpt>
      <trkpt lat="48.28931" lon="-4.3316">
        <ele>32.72</ele>
        <time>2022-07-12T08:22:41.912Z</time>
      </trkpt>
      <trkpt lat="48.28925" lon="-4.33165">
        <ele>32.72</ele>
        <time>2022-07-12T08:22:52.000Z</time>
      </trkpt>
      <trkpt lat="48.2892" lon="-4.3317">
        <ele>32.72</ele>
        <time>2022-07-12T08:23:01.597Z</time>
      </trkpt>
      <trkpt lat="48.28913" lon="-4.33175">
        <ele>31.78</ele>
        <time>2022-07-12T08:23:11.135Z</time>
      </trkpt>
      <trkpt lat="48.28905" lon="-4.33173">
        <ele>31.72</ele>
        <time>2022-07-12T08:23:21.000Z</time>
      </trkpt>
      <trkpt lat="48.28901" lon="-4.3318">
        <ele>32.47</ele>
        <time>2022-07-12T08:23:31.000Z</time>
      </trkpt>
      <trkpt lat="48.28895" lon="-4.33185">
        <ele>32.67</ele>
        <time>2022-07-12T08:23:40.438Z</time>
      </trkpt>
      <trkpt lat="48.28888" lon="-4.33196">
        <ele>33.72</ele>
        <time>2022-07-12T08:23:50.000Z</time>
      </trkpt>
      <trkpt lat="48.28882" lon="-4.33201">
        <ele>35.46</ele>
        <time>2022-07-12T08:23:59.498Z</time>
      </trkpt>
      <trkpt lat="48.28876" lon="-4.33206">
        <ele>36.71</ele>
        <time>2022-07-12T08:24:08.819Z</time>
      </trkpt>
      <trkpt lat="48.28869" lon="-4.33214">
        <ele>37.72</ele>
        <time>2022-07-12T08:24:18.237Z</time>
      </trkpt>
      <trkpt lat="48.28862" lon="-4.33224">
        <ele>38.72</ele>
        <time>2022-07-12T08:24:27.454Z</time>
      </trkpt>
      <trkpt lat="48.28858" lon="-4.33232">
        <ele>38.72</ele>
        <time>2022-07-12T08:24:37.000Z</time>
      </trkpt>
      <trkpt lat="48.28853" lon="-4.33235">
        <ele>39.72</ele>
        <time>2022-07-12T08:24:46.539Z</time>
      </trkpt>
      <trkpt lat="48.28849" lon="-4.3324">
        <ele>40.72</ele>
        <time>2022-07-12T08:24:55.917Z</time>
      </trkpt>
      <trkpt lat="48.28844" lon="-4.33244">
        <ele>41.47</ele>
        <time>2022-07-12T08:25:05.000Z</time>
      </trkpt>
      <trkpt lat="48.28836" lon="-4.33247">
        <ele>42.67</ele>
        <time>2022-07-12T08:25:15.000Z</time>
      </trkpt>
      <trkpt lat="48.28831" lon="-4.33251">
        <ele>42.72</ele>
        <time>2022-07-12T08:25:24.795Z</time>
      </trkpt>
      <trkpt lat="48.28826" lon="-4.33256">
        <ele>42.72</ele>
        <time>2022-07-12T08:25:34.930Z</time>
      </trkpt>
      <trkpt lat="48.28823" lon="-4.33259">
        <ele>44.7</ele>
        <time>2022-07-12T08:25:43.934Z</time>
      </trkpt>
      <trkpt lat="48.28819" lon="-4.33262">
        <ele>45.66</ele>
        <time>2022-07-12T08:25:53.000Z</time>
      </trkpt>
      <trkpt lat="48.28813" lon="-4.33266">
        <ele>46.72</ele>
        <time>2022-07-12T08:26:02.398Z</time>
      </trkpt>
      <trkpt lat="48.28805" lon="-4.33269">
        <ele>47.72</ele>
        <time>2022-07-12T08:26:12.000Z</time>
      </trkpt>
      <trkpt lat="48.288" lon="-4.33271">
        <ele>49.66</ele>
        <time>2022-07-12T08:26:21.477Z</time>
      </trkpt>
      <trkpt lat="48.28796" lon="-4.33273">
        <ele>50.77</ele>
        <time>2022-07-12T08:26:31.000Z</time>
      </trkpt>
      <trkpt lat="48.28792" lon="-4.33277">
        <ele>51.71</ele>
        <time>2022-07-12T08:26:41.178Z</time>
      </trkpt>
      <trkpt lat="48.28788" lon="-4.33281">
        <ele>52.72</ele>
        <time>2022-07-12T08:26:51.117Z</time>
      </trkpt>
      <trkpt lat="48.28783" lon="-4.33281">
        <ele>54.66</ele>
        <time>2022-07-12T08:27:00.736Z</time>
      </trkpt>
      <trkpt lat="48.28778" lon="-4.33282">
        <ele>55.66</ele>
        <time>2022-07-12T08:27:09.773Z</time>
      </trkpt>
      <trkpt lat="48.28773" lon="-4.33284">
        <ele>55.72</ele>
        <time>2022-07-12T08:27:19.257Z</time>
      </trkpt>
      <trkpt lat="48.28767" lon="-4.33288">
        <ele>55.72</ele>
        <time>2022-07-12T08:27:28.316Z</time>
      </trkpt>
      <trkpt lat="48.28764" lon="-4.33292">
        <ele>55.72</ele>
        <time>2022-07-12T08:27:37.920Z</time>
      </trkpt>
      <trkpt lat="48.28761" lon="-4.33295">
        <ele>54.72</ele>
        <time>2022-07-12T08:27:47.000Z</time>
      </trkpt>
      <trkpt lat="48.28756" lon="-4.33299">
        <ele>55.7</ele>
        <time>2022-07-12T08:27:56.732Z</time>
      </trkpt>
      <trkpt lat="48.28748" lon="-4.33299">
        <ele>55.72</ele>
        <time>2022-07-12T08:28:06.000Z</time>
      </trkpt>
      <trkpt lat="48.28741" lon="-4.33303">
        <ele>54.72</ele>
        <time>2022-07-12T08:28:15.637Z</time>
      </trkpt>
      <trkpt lat="48.28733" lon="-4.33302">
        <ele>53.72</ele>
        <time>2022-07-12T08:28:25.152Z</time>
      </trkpt>
      <trkpt lat="48.28731" lon="-4.33313">
        <ele>53.67</ele>
        <time>2022-07-12T08:28:34.597Z</time>
      </trkpt>
      <trkpt lat="48.28726" lon="-4.33326">
        <ele>54.72</ele>
        <time>2022-07-12T08:28:43.618Z</time>
      </trkpt>
      <trkpt lat="48.28723" lon="-4.33331">
        <ele>54.47</ele>
        <time>2022-07-12T08:28:53.000Z</time>
      </trkpt>
      <trkpt lat="48.28719" lon="-4.33336">
        <ele>54.72</ele>
        <time>2022-07-12T08:29:02.656Z</time>
      </trkpt>
      <trkpt lat="48.28717" lon="-4.33339">
        <ele>52.78</ele>
        <time>2022-07-12T08:29:12.000Z</time>
      </trkpt>
      <trkpt lat="48.28718" lon="-4.33339">
        <ele>52.91</ele>
        <time>2022-07-12T08:29:49.000Z</time>
      </trkpt>
      <trkpt lat="48.28718" lon="-4.33341">
        <ele>52.72</ele>
        <time>2022-07-12T08:29:59.000Z</time>
      </trkpt>
      <trkpt lat="48.28717" lon="-4.33343">
        <ele>52.72</ele>
        <time>2022-07-12T08:30:08.733Z</time>
      </trkpt>
      <trkpt lat="48.28717" lon="-4.33354">
        <ele>52.47</ele>
        <time>2022-07-12T08:30:18.000Z</time>
      </trkpt>
      <trkpt lat="48.28721" lon="-4.33367">
        <ele>52.72</ele>
        <time>2022-07-12T08:30:27.475Z</time>
      </trkpt>
      <trkpt lat="48.2872" lon="-4.33377">
        <ele>52.66</ele>
        <time>2022-07-12T08:30:36.757Z</time>
      </trkpt>
      <trkpt lat="48.28722" lon="-4.33385">
        <ele>50.72</ele>
        <time>2022-07-12T08:30:46.000Z</time>
      </trkpt>
      <trkpt lat="48.28723" lon="-4.33388">
        <ele>49.72</ele>
        <time>2022-07-12T08:30:55.275Z</time>
      </trkpt>
      <trkpt lat="48.28722" lon="-4.33395">
        <ele>47.72</ele>
        <time>2022-07-12T08:31:04.592Z</time>
      </trkpt>
      <trkpt lat="48.28715" lon="-4.334">
        <ele>45.97</ele>
        <time>2022-07-12T08:31:13.833Z</time>
      </trkpt>
      <trkpt lat="48.28709" lon="-4.33404">
        <ele>45.7</ele>
        <time>2022-07-12T08:31:23.697Z</time>
      </trkpt>
      <trkpt lat="48.28703" lon="-4.33414">
        <ele>43.97</ele>
        <time>2022-07-12T08:31:33.035Z</time>
      </trkpt>
      <trkpt lat="48.28703" lon="-4.33422">
        <ele>42.72</ele>
        <time>2022-07-12T08:31:42.583Z</time>
      </trkpt>
      <trkpt lat="48.287" lon="-4.33433">
        <ele>41.73</ele>
        <time>2022-07-12T08:31:52.000Z</time>
      </trkpt>
      <trkpt lat="48.28699" lon="-4.3344">
        <ele>40.72</ele>
        <time>2022-07-12T08:32:01.852Z</time>
      </trkpt>
      <trkpt lat="48.28694" lon="-4.3345">
        <ele>37.97</ele>
        <time>2022-07-12T08:32:12.000Z</time>
      </trkpt>
      <trkpt lat="48.28691" lon="-4.33452">
        <ele>35.78</ele>
        <time>2022-07-12T08:32:22.000Z</time>
      </trkpt>
      <trkpt lat="48.2869" lon="-4.33453">
        <ele>35.72</ele>
        <time>2022-07-12T08:32:40.000Z</time>
      </trkpt>
      <trkpt lat="48.28689" lon="-4.33455">
        <ele>35.72</ele>
        <time>2022-07-12T08:32:50.000Z</time>
      </trkpt>
      <trkpt lat="48.28688" lon="-4.33455">
        <ele>34.72</ele>
        <time>2022-07-12T08:32:59.815Z</time>
      </trkpt>
      <trkpt lat="48.28688" lon="-4.33457">
        <ele>34.72</ele>
        <time>2022-07-12T08:33:21.000Z</time>
      </trkpt>
      <trkpt lat="48.28687" lon="-4.33457">
        <ele>33.78</ele>
        <time>2022-07-12T08:33:30.553Z</time>
      </trkpt>
      <trkpt lat="48.28686" lon="-4.33458">
        <ele>34.72</ele>
        <time>2022-07-12T08:33:39.954Z</time>
      </trkpt>
      <trkpt lat="48.28686" lon="-4.3346">
        <ele>33.72</ele>
        <time>2022-07-12T08:33:49.852Z</time>
      </trkpt>
      <trkpt lat="48.28684" lon="-4.33463">
        <ele>33.72</ele>
        <time>2022-07-12T08:33:59.000Z</time>
      </trkpt>
      <trkpt lat="48.28683" lon="-4.33464">
        <ele>32.97</ele>
        <time>2022-07-12T08:34:09.000Z</time>
      </trkpt>
      <trkpt lat="48.2868" lon="-4.33466">
        <ele>32.72</ele>
        <time>2022-07-12T08:34:18.457Z</time>
      </trkpt>
      <trkpt lat="48.28677" lon="-4.33471">
        <ele>31.76</ele>
        <time>2022-07-12T08:34:28.000Z</time>
      </trkpt>
      <trkpt lat="48.28674" lon="-4.33474">
        <ele>29.72</ele>
        <time>2022-07-12T08:34:37.477Z</time>
      </trkpt>
      <trkpt lat="48.28671" lon="-4.33473">
        <ele>26.97</ele>
        <time>2022-07-12T08:34:46.752Z</time>
      </trkpt>
      <trkpt lat="48.28666" lon="-4.33482">
        <ele>25.73</ele>
        <time>2022-07-12T08:34:55.851Z</time>
      </trkpt>
      <trkpt lat="48.28666" lon="-4.33489">
        <ele>24.72</ele>
        <time>2022-07-12T08:35:05.917Z</time>
      </trkpt>
      <trkpt lat="48.28662" lon="-4.33493">
        <ele>22.72</ele>
        <time>2022-07-12T08:35:16.000Z</time>
      </trkpt>
      <trkpt lat="48.2866" lon="-4.33494">
        <ele>19.72</ele>
        <time>2022-07-12T08:35:25.416Z</time>
      </trkpt>
      <trkpt lat="48.28655" lon="-4.33496">
        <ele>16.78</ele>
        <time>2022-07-12T08:35:34.834Z</time>
      </trkpt>
      <trkpt lat="48.28648" lon="-4.33493">
        <ele>3.19</ele>
        <time>2022-07-12T08:35:44.000Z</time>
      </trkpt>
      <trkpt lat="48.2865" lon="-4.33491">
        <ele>2.72</ele>
        <time>2022-07-12T08:35:53.374Z</time>
      </trkpt>
      <trkpt lat="48.28643" lon="-4.33495">
        <ele>3.7</ele>
        <time>2022-07-12T08:36:02.632Z</time>
      </trkpt>
      <trkpt lat="48.28642" lon="-4.3351">
        <ele>5.48</ele>
        <time>2022-07-12T08:36:11.793Z</time>
      </trkpt>
      <trkpt lat="48.28647" lon="-4.33523">
        <ele>4.72</ele>
        <time>2022-07-12T08:36:21.000Z</time>
      </trkpt>
      <trkpt lat="48.28647" lon="-4.33536">
        <ele>4.65</ele>
        <time>2022-07-12T08:36:30.739Z</time>
      </trkpt>
      <trkpt lat="48.28654" lon="-4.33551">
        <ele>3.72</ele>
        <time>2022-07-12T08:36:40.692Z</time>
      </trkpt>
      <trkpt lat="48.28656" lon="-4.33564">
        <ele>3.76</ele>
        <time>2022-07-12T08:36:49.736Z</time>
      </trkpt>
      <trkpt lat="48.28657" lon="-4.33578">
        <ele>3.72</ele>
        <time>2022-07-12T08:36:59.673Z</time>
      </trkpt>
      <trkpt lat="48.28657" lon="-4.33594">
        <ele>4.7</ele>
        <time>2022-07-12T08:37:09.837Z</time>
      </trkpt>
      <trkpt lat="48.28653" lon="-4.33604">
        <ele>4.72</ele>
        <time>2022-07-12T08:37:19.395Z</time>
      </trkpt>
      <trkpt lat="48.28646" lon="-4.33612">
        <ele>5.72</ele>
        <time>2022-07-12T08:37:28.874Z</time>
      </trkpt>
      <trkpt lat="48.28639" lon="-4.3362">
        <ele>5.72</ele>
        <time>2022-07-12T08:37:38.234Z</time>
      </trkpt>
      <trkpt lat="48.28631" lon="-4.33629">
        <ele>5.72</ele>
        <time>2022-07-12T08:37:47.614Z</time>
      </trkpt>
      <trkpt lat="48.28626" lon="-4.33634">
        <ele>5.47</ele>
        <time>2022-07-12T08:37:57.077Z</time>
      </trkpt>
      <trkpt lat="48.2862" lon="-4.3364">
        <ele>4.72</ele>
        <time>2022-07-12T08:38:06.416Z</time>
      </trkpt>
      <trkpt lat="48.28611" lon="-4.33645">
        <ele>2.97</ele>
        <time>2022-07-12T08:38:15.914Z</time>
      </trkpt>
      <trkpt lat="48.28604" lon="-4.33655">
        <ele>2.72</ele>
        <time>2022-07-12T08:38:26.000Z</time>
      </trkpt>
      <trkpt lat="48.28604" lon="-4.33653">
        <ele>2.72</ele>
        <time>2022-07-12T08:38:45.000Z</time>
      </trkpt>
      <trkpt lat="48.28601" lon="-4.33653">
        <ele>1.72</ele>
        <time>2022-07-12T08:38:54.413Z</time>
      </trkpt>
      <trkpt lat="48.28589" lon="-4.33648">
        <ele>1.72</ele>
        <time>2022-07-12T08:39:04.000Z</time>
      </trkpt>
      <trkpt lat="48.28579" lon="-4.33647">
        <ele>2.7</ele>
        <time>2022-07-12T08:39:13.199Z</time>
      </trkpt>
      <trkpt lat="48.2857" lon="-4.33649">
        <ele>1.72</ele>
        <time>2022-07-12T08:39:22.472Z</time>
      </trkpt>
      <trkpt lat="48.2856" lon="-4.33649">
        <ele>2.72</ele>
        <time>2022-07-12T08:39:31.817Z</time>
      </trkpt>
      <trkpt lat="48.28554" lon="-4.33653">
        <ele>2.72</ele>
        <time>2022-07-12T08:39:41.536Z</time>
      </trkpt>
      <trkpt lat="48.28547" lon="-4.33654">
        <ele>2.72</ele>
        <time>2022-07-12T08:39:50.924Z</time>
      </trkpt>
      <trkpt lat="48.28541" lon="-4.33662">
        <ele>1.95</ele>
        <time>2022-07-12T08:40:00.654Z</time>
      </trkpt>
      <trkpt lat="48.28535" lon="-4.33668">
        <ele>2.72</ele>
        <time>2022-07-12T08:40:09.671Z</time>
      </trkpt>
      <trkpt lat="48.28528" lon="-4.33679">
        <ele>3.7</ele>
        <time>2022-07-12T08:40:19.111Z</time>
      </trkpt>
      <trkpt lat="48.28521" lon="-4.33688">
        <ele>2.72</ele>
        <time>2022-07-12T08:40:28.400Z</time>
      </trkpt>
      <trkpt lat="48.28514" lon="-4.33697">
        <ele>2.72</ele>
        <time>2022-07-12T08:40:38.000Z</time>
      </trkpt>
      <trkpt lat="48.2851" lon="-4.33706">
        <ele>2.72</ele>
        <time>2022-07-12T08:40:47.255Z</time>
      </trkpt>
      <trkpt lat="48.28502" lon="-4.33716">
        <ele>3.72</ele>
        <time>2022-07-12T08:40:56.537Z</time>
      </trkpt>
      <trkpt lat="48.28494" lon="-4.33724">
        <ele>3.72</ele>
        <time>2022-07-12T08:41:05.738Z</time>
      </trkpt>
      <trkpt lat="48.28485" lon="-4.33728">
        <ele>2.72</ele>
        <time>2022-07-12T08:41:14.754Z</time>
      </trkpt>
      <trkpt lat="48.2848" lon="-4.3373">
        <ele>1.73</ele>
        <time>2022-07-12T08:41:24.055Z</time>
      </trkpt>
      <trkpt lat="48.2847" lon="-4.3373">
        <ele>1.72</ele>
        <time>2022-07-12T08:41:33.591Z</time>
      </trkpt>
      <trkpt lat="48.28461" lon="-4.33732">
        <ele>0.72</ele>
        <time>2022-07-12T08:41:43.000Z</time>
      </trkpt>
      <trkpt lat="48.28451" lon="-4.33732">
        <ele>1.71</ele>
        <time>2022-07-12T08:41:52.373Z</time>
      </trkpt>
      <trkpt lat="48.28443" lon="-4.33728">
        <ele>1.73</ele>
        <time>2022-07-12T08:42:01.376Z</time>
      </trkpt>
      <trkpt lat="48.28437" lon="-4.33727">
        <ele>1.72</ele>
        <time>2022-07-12T08:42:10.477Z</time>
      </trkpt>
      <trkpt lat="48.28427" lon="-4.33728">
        <ele>2.72</ele>
        <time>2022-07-12T08:42:20.000Z</time>
      </trkpt>
      <trkpt lat="48.2842" lon="-4.33726">
        <ele>2.96</ele>
        <time>2022-07-12T08:42:29.496Z</time>
      </trkpt>
      <trkpt lat="48.28411" lon="-4.33722">
        <ele>4.72</ele>
        <time>2022-07-12T08:42:38.586Z</time>
      </trkpt>
      <trkpt lat="48.28402" lon="-4.33724">
        <ele>5.72</ele>
        <time>2022-07-12T08:42:47.918Z</time>
      </trkpt>
      <trkpt lat="48.28397" lon="-4.33724">
        <ele>5.72</ele>
        <time>2022-07-12T08:42:57.472Z</time>
      </trkpt>
      <trkpt lat="48.28387" lon="-4.33726">
        <ele>6.72</ele>
        <time>2022-07-12T08:43:06.794Z</time>
      </trkpt>
      <trkpt lat="48.2838" lon="-4.33726">
        <ele>7.47</ele>
        <time>2022-07-12T08:43:16.000Z</time>
      </trkpt>
      <trkpt lat="48.28373" lon="-4.33728">
        <ele>7.47</ele>
        <time>2022-07-12T08:43:25.138Z</time>
      </trkpt>
      <trkpt lat="48.2837" lon="-4.3373">
        <ele>8.72</ele>
        <time>2022-07-12T08:43:34.370Z</time>
      </trkpt>
      <trkpt lat="48.2836" lon="-4.33729">
        <ele>7.72</ele>
        <time>2022-07-12T08:43:43.479Z</time>
      </trkpt>
      <trkpt lat="48.28352" lon="-4.33734">
        <ele>8.72</ele>
        <time>2022-07-12T08:43:52.911Z</time>
      </trkpt>
      <trkpt lat="48.28344" lon="-4.33743">
        <ele>9.72</ele>
        <time>2022-07-12T08:44:01.913Z</time>
      </trkpt>
      <trkpt lat="48.28339" lon="-4.33749">
        <ele>10.72</ele>
        <time>2022-07-12T08:44:11.515Z</time>
      </trkpt>
      <trkpt lat="48.28331" lon="-4.33753">
        <ele>11.65</ele>
        <time>2022-07-12T08:44:21.000Z</time>
      </trkpt>
      <trkpt lat="48.28322" lon="-4.33761">
        <ele>13.65</ele>
        <time>2022-07-12T08:44:30.315Z</time>
      </trkpt>
      <trkpt lat="48.28315" lon="-4.33769">
        <ele>13.71</ele>
        <time>2022-07-12T08:44:39.474Z</time>
      </trkpt>
      <trkpt lat="48.28312" lon="-4.33772">
        <ele>13.72</ele>
        <time>2022-07-12T08:44:48.718Z</time>
      </trkpt>
      <trkpt lat="48.28306" lon="-4.33781">
        <ele>15.72</ele>
        <time>2022-07-12T08:44:58.736Z</time>
      </trkpt>
      <trkpt lat="48.28297" lon="-4.33796">
        <ele>17.46</ele>
        <time>2022-07-12T08:45:08.718Z</time>
      </trkpt>
      <trkpt lat="48.28289" lon="-4.33805">
        <ele>16.71</ele>
        <time>2022-07-12T08:45:18.657Z</time>
      </trkpt>
      <trkpt lat="48.28283" lon="-4.33815">
        <ele>16.71</ele>
        <time>2022-07-12T08:45:28.000Z</time>
      </trkpt>
      <trkpt lat="48.28278" lon="-4.33831">
        <ele>16.66</ele>
        <time>2022-07-12T08:45:37.696Z</time>
      </trkpt>
      <trkpt lat="48.28274" lon="-4.33838">
        <ele>14.72</ele>
        <time>2022-07-12T08:45:46.845Z</time>
      </trkpt>
      <trkpt lat="48.2827" lon="-4.33846">
        <ele>13.22</ele>
        <time>2022-07-12T08:45:56.057Z</time>
      </trkpt>
      <trkpt lat="48.28264" lon="-4.33856">
        <ele>13.21</ele>
        <time>2022-07-12T08:46:05.776Z</time>
      </trkpt>
      <trkpt lat="48.2826" lon="-4.33867">
        <ele>13.21</ele>
        <time>2022-07-12T08:46:15.000Z</time>
      </trkpt>
      <trkpt lat="48.28254" lon="-4.33881">
        <ele>13.21</ele>
        <time>2022-07-12T08:46:24.672Z</time>
      </trkpt>
      <trkpt lat="48.28249" lon="-4.33893">
        <ele>13.21</ele>
        <time>2022-07-12T08:46:33.853Z</time>
      </trkpt>
      <trkpt lat="48.28246" lon="-4.33904">
        <ele>13.21</ele>
        <time>2022-07-12T08:46:43.497Z</time>
      </trkpt>
      <trkpt lat="48.28242" lon="-4.33915">
        <ele>11.73</ele>
        <time>2022-07-12T08:46:52.583Z</time>
      </trkpt>
      <trkpt lat="48.28236" lon="-4.33923">
        <ele>10.96</ele>
        <time>2022-07-12T08:47:02.000Z</time>
      </trkpt>
      <trkpt lat="48.28229" lon="-4.33934">
        <ele>10.71</ele>
        <time>2022-07-12T08:47:11.582Z</time>
      </trkpt>
      <trkpt lat="48.28227" lon="-4.33942">
        <ele>7.78</ele>
        <time>2022-07-12T08:47:20.815Z</time>
      </trkpt>
      <trkpt lat="48.28222" lon="-4.33953">
        <ele>5.72</ele>
        <time>2022-07-12T08:47:30.000Z</time>
      </trkpt>
      <trkpt lat="48.28221" lon="-4.33964">
        <ele>7.46</ele>
        <time>2022-07-12T08:47:39.241Z</time>
      </trkpt>
      <trkpt lat="48.28219" lon="-4.33983">
        <ele>8.7</ele>
        <time>2022-07-12T08:47:48.587Z</time>
      </trkpt>
      <trkpt lat="48.28216" lon="-4.34003">
        <ele>9.95</ele>
        <time>2022-07-12T08:47:58.015Z</time>
      </trkpt>
      <trkpt lat="48.28219" lon="-4.34017">
        <ele>10.67</ele>
        <time>2022-07-12T08:48:08.000Z</time>
      </trkpt>
      <trkpt lat="48.2822" lon="-4.34017">
        <ele>10.71</ele>
        <time>2022-07-12T08:48:24.000Z</time>
      </trkpt>
      <trkpt lat="48.28228" lon="-4.34014">
        <ele>10.41</ele>
        <time>2022-07-12T08:48:33.237Z</time>
      </trkpt>
      <trkpt lat="48.28238" lon="-4.34008">
        <ele>10.41</ele>
        <time>2022-07-12T08:48:43.000Z</time>
      </trkpt>
      <trkpt lat="48.28247" lon="-4.34003">
        <ele>10.41</ele>
        <time>2022-07-12T08:48:52.074Z</time>
      </trkpt>
      <trkpt lat="48.28255" lon="-4.33997">
        <ele>10.41</ele>
        <time>2022-07-12T08:49:01.159Z</time>
      </trkpt>
      <trkpt lat="48.28262" lon="-4.33991">
        <ele>10.41</ele>
        <time>2022-07-12T08:49:10.817Z</time>
      </trkpt>
      <trkpt lat="48.28268" lon="-4.33984">
        <ele>10.41</ele>
        <time>2022-07-12T08:49:20.000Z</time>
      </trkpt>
      <trkpt lat="48.28275" lon="-4.33975">
        <ele>10.41</ele>
        <time>2022-07-12T08:49:30.000Z</time>
      </trkpt>
      <trkpt lat="48.28282" lon="-4.33967">
        <ele>10.41</ele>
        <time>2022-07-12T08:49:39.591Z</time>
      </trkpt>
      <trkpt lat="48.2829" lon="-4.33959">
        <ele>10.41</ele>
        <time>2022-07-12T08:49:49.060Z</time>
      </trkpt>
      <trkpt lat="48.28297" lon="-4.33952">
        <ele>10.41</ele>
        <time>2022-07-12T08:49:58.156Z</time>
      </trkpt>
      <trkpt lat="48.28306" lon="-4.33943">
        <ele>10.41</ele>
        <time>2022-07-12T08:50:07.797Z</time>
      </trkpt>
      <trkpt lat="48.28309" lon="-4.3394">
        <ele>8.71</ele>
        <time>2022-07-12T08:50:16.951Z</time>
      </trkpt>
      <trkpt lat="48.28318" lon="-4.33932">
        <ele>8.71</ele>
        <time>2022-07-12T08:50:26.539Z</time>
      </trkpt>
      <trkpt lat="48.28327" lon="-4.33923">
        <ele>6.71</ele>
        <time>2022-07-12T08:50:36.000Z</time>
      </trkpt>
      <trkpt lat="48.28337" lon="-4.33916">
        <ele>6.71</ele>
        <time>2022-07-12T08:50:45.674Z</time>
      </trkpt>
      <trkpt lat="48.28344" lon="-4.33912">
        <ele>4.71</ele>
        <time>2022-07-12T08:50:55.614Z</time>
      </trkpt>
      <trkpt lat="48.28348" lon="-4.33905">
        <ele>3.78</ele>
        <time>2022-07-12T08:51:04.756Z</time>
      </trkpt>
      <trkpt lat="48.28358" lon="-4.33893">
        <ele>3.71</ele>
        <time>2022-07-12T08:51:14.000Z</time>
      </trkpt>
      <trkpt lat="48.28368" lon="-4.33886">
        <ele>4.46</ele>
        <time>2022-07-12T08:51:23.195Z</time>
      </trkpt>
      <trkpt lat="48.28377" lon="-4.33878">
        <ele>2.73</ele>
        <time>2022-07-12T08:51:32.253Z</time>
      </trkpt>
      <trkpt lat="48.28385" lon="-4.33872">
        <ele>2.71</ele>
        <time>2022-07-12T08:51:41.777Z</time>
      </trkpt>
      <trkpt lat="48.28395" lon="-4.33865">
        <ele>2.71</ele>
        <time>2022-07-12T08:51:50.780Z</time>
      </trkpt>
      <trkpt lat="48.28404" lon="-4.33864">
        <ele>2.72</ele>
        <time>2022-07-12T08:52:00.000Z</time>
      </trkpt>
      <trkpt lat="48.28411" lon="-4.33862">
        <ele>3.71</ele>
        <time>2022-07-12T08:52:09.558Z</time>
      </trkpt>
      <trkpt lat="48.28421" lon="-4.33864">
        <ele>3.71</ele>
        <time>2022-07-12T08:52:18.833Z</time>
      </trkpt>
      <trkpt lat="48.2843" lon="-4.33866">
        <ele>3.9</ele>
        <time>2022-07-12T08:52:28.000Z</time>
      </trkpt>
      <trkpt lat="48.28434" lon="-4.33866">
        <ele>2.96</ele>
        <time>2022-07-12T08:52:37.339Z</time>
      </trkpt>
      <trkpt lat="48.28444" lon="-4.3387">
        <ele>1.73</ele>
        <time>2022-07-12T08:52:46.771Z</time>
      </trkpt>
      <trkpt lat="48.28453" lon="-4.33876">
        <ele>2.71</ele>
        <time>2022-07-12T08:52:56.096Z</time>
      </trkpt>
      <trkpt lat="48.28463" lon="-4.33884">
        <ele>3.47</ele>
        <time>2022-07-12T08:53:05.395Z</time>
      </trkpt>
      <trkpt lat="48.28472" lon="-4.33893">
        <ele>4.71</ele>
        <time>2022-07-12T08:53:15.000Z</time>
      </trkpt>
      <trkpt lat="48.28481" lon="-4.33899">
        <ele>4.71</ele>
        <time>2022-07-12T08:53:25.000Z</time>
      </trkpt>
      <trkpt lat="48.2849" lon="-4.33902">
        <ele>4.71</ele>
        <time>2022-07-12T08:53:34.796Z</time>
      </trkpt>
      <trkpt lat="48.285" lon="-4.33911">
        <ele>4.71</ele>
        <time>2022-07-12T08:53:43.910Z</time>
      </trkpt>
      <trkpt lat="48.28509" lon="-4.33919">
        <ele>4.71</ele>
        <time>2022-07-12T08:53:53.589Z</time>
      </trkpt>
      <trkpt lat="48.28517" lon="-4.3393">
        <ele>3.71</ele>
        <time>2022-07-12T08:54:02.636Z</time>
      </trkpt>
      <trkpt lat="48.28524" lon="-4.33939">
        <ele>5.71</ele>
        <time>2022-07-12T08:54:11.756Z</time>
      </trkpt>
      <trkpt lat="48.2853" lon="-4.33953">
        <ele>4.72</ele>
        <time>2022-07-12T08:54:20.917Z</time>
      </trkpt>
      <trkpt lat="48.28536" lon="-4.33962">
        <ele>3.72</ele>
        <time>2022-07-12T08:54:30.000Z</time>
      </trkpt>
      <trkpt lat="48.28545" lon="-4.3397">
        <ele>3.96</ele>
        <time>2022-07-12T08:54:39.075Z</time>
      </trkpt>
      <trkpt lat="48.28554" lon="-4.33979">
        <ele>3.71</ele>
        <time>2022-07-12T08:54:48.578Z</time>
      </trkpt>
      <trkpt lat="48.28563" lon="-4.33986">
        <ele>2.71</ele>
        <time>2022-07-12T08:54:57.932Z</time>
      </trkpt>
      <trkpt lat="48.28573" lon="-4.33994">
        <ele>2.72</ele>
        <time>2022-07-12T08:55:07.493Z</time>
      </trkpt>
      <trkpt lat="48.28581" lon="-4.34002">
        <ele>3.7</ele>
        <time>2022-07-12T08:55:17.056Z</time>
      </trkpt>
      <trkpt lat="48.28588" lon="-4.34005">
        <ele>4.7</ele>
        <time>2022-07-12T08:55:26.518Z</time>
      </trkpt>
      <trkpt lat="48.28587" lon="-4.34007">
        <ele>3.71</ele>
        <time>2022-07-12T08:55:36.000Z</time>
      </trkpt>
      <trkpt lat="48.28588" lon="-4.34006">
        <ele>5.21</ele>
        <time>2022-07-12T08:55:52.000Z</time>
      </trkpt>
      <trkpt lat="48.28589" lon="-4.34004">
        <ele>6.46</ele>
        <time>2022-07-12T08:56:16.000Z</time>
      </trkpt>
      <trkpt lat="48.28589" lon="-4.34005">
        <ele>3.71</ele>
        <time>2022-07-12T08:56:35.000Z</time>
      </trkpt>
      <trkpt lat="48.28588" lon="-4.34007">
        <ele>3.71</ele>
        <time>2022-07-12T08:56:46.000Z</time>
      </trkpt>
      <trkpt lat="48.28589" lon="-4.34007">
        <ele>4.71</ele>
        <time>2022-07-12T09:00:40.000Z</time>
      </trkpt>
      <trkpt lat="48.28589" lon="-4.34006">
        <ele>3.71</ele>
        <time>2022-07-12T09:01:30.000Z</time>
      </trkpt>
      <trkpt lat="48.2859" lon="-4.34008">
        <ele>2.96</ele>
        <time>2022-07-12T09:05:31.000Z</time>
      </trkpt>
      <trkpt lat="48.28589" lon="-4.34007">
        <ele>3.7</ele>
        <time>2022-07-12T09:06:11.000Z</time>
      </trkpt>
      <trkpt lat="48.28589" lon="-4.34005">
        <ele>1.71</ele>
        <time>2022-07-12T09:08:41.000Z</time>
      </trkpt>
      <trkpt lat="48.28587" lon="-4.34005">
        <ele>0.78</ele>
        <time>2022-07-12T09:08:51.000Z</time>
      </trkpt>
      <trkpt lat="48.28587" lon="-4.34003">
        <ele>0.71</ele>
        <time>2022-07-12T09:09:50.000Z</time>
      </trkpt>
      <trkpt lat="48.28586" lon="-4.34004">
        <ele>0.71</ele>
        <time>2022-07-12T09:10:27.000Z</time>
      </trkpt>
      <trkpt lat="48.28587" lon="-4.34006">
        <ele>0.71</ele>
        <time>2022-07-12T09:10:46.000Z</time>
      </trkpt>
      <trkpt lat="48.28585" lon="-4.34018">
        <ele>1.71</ele>
        <time>2022-07-12T09:10:56.000Z</time>
      </trkpt>
      <trkpt lat="48.28583" lon="-4.34024">
        <ele>2.66</ele>
        <time>2022-07-12T09:11:06.000Z</time>
      </trkpt>
      <trkpt lat="48.28582" lon="-4.34026">
        <ele>3.65</ele>
        <time>2022-07-12T09:11:19.000Z</time>
      </trkpt>
      <trkpt lat="48.28579" lon="-4.34035">
        <ele>5.7</ele>
        <time>2022-07-12T09:11:29.000Z</time>
      </trkpt>
      <trkpt lat="48.28579" lon="-4.34044">
        <ele>4.71</ele>
        <time>2022-07-12T09:11:39.000Z</time>
      </trkpt>
      <trkpt lat="48.28578" lon="-4.34052">
        <ele>6.47</ele>
        <time>2022-07-12T09:11:49.000Z</time>
      </trkpt>
      <trkpt lat="48.28579" lon="-4.34059">
        <ele>6.71</ele>
        <time>2022-07-12T09:11:59.000Z</time>
      </trkpt>
      <trkpt lat="48.2858" lon="-4.34069">
        <ele>7.71</ele>
        <time>2022-07-12T09:12:09.000Z</time>
      </trkpt>
      <trkpt lat="48.2858" lon="-4.34072">
        <ele>7.71</ele>
        <time>2022-07-12T09:12:19.000Z</time>
      </trkpt>
      <trkpt lat="48.28582" lon="-4.34079">
        <ele>8.71</ele>
        <time>2022-07-12T09:12:29.000Z</time>
      </trkpt>
      <trkpt lat="48.28583" lon="-4.34087">
        <ele>10.71</ele>
        <time>2022-07-12T09:12:39.000Z</time>
      </trkpt>
      <trkpt lat="48.28585" lon="-4.34096">
        <ele>12.65</ele>
        <time>2022-07-12T09:12:49.000Z</time>
      </trkpt>
      <trkpt lat="48.28585" lon="-4.34101">
        <ele>13.72</ele>
        <time>2022-07-12T09:12:59.000Z</time>
      </trkpt>
      <trkpt lat="48.28587" lon="-4.34108">
        <ele>13.71</ele>
        <time>2022-07-12T09:13:09.000Z</time>
      </trkpt>
      <trkpt lat="48.28588" lon="-4.34114">
        <ele>15.71</ele>
        <time>2022-07-12T09:13:19.000Z</time>
      </trkpt>
      <trkpt lat="48.28588" lon="-4.34121">
        <ele>16.71</ele>
        <time>2022-07-12T09:13:29.000Z</time>
      </trkpt>
      <trkpt lat="48.28588" lon="-4.3413">
        <ele>16.71</ele>
        <time>2022-07-12T09:13:39.000Z</time>
      </trkpt>
      <trkpt lat="48.28588" lon="-4.34134">
        <ele>15.72</ele>
        <time>2022-07-12T09:13:48.785Z</time>
      </trkpt>
      <trkpt lat="48.28588" lon="-4.34142">
        <ele>18.65</ele>
        <time>2022-07-12T09:13:58.000Z</time>
      </trkpt>
      <trkpt lat="48.28588" lon="-4.34145">
        <ele>19.71</ele>
        <time>2022-07-12T09:14:08.000Z</time>
      </trkpt>
      <trkpt lat="48.28587" lon="-4.34155">
        <ele>19.96</ele>
        <time>2022-07-12T09:14:18.000Z</time>
      </trkpt>
      <trkpt lat="48.28585" lon="-4.34162">
        <ele>21.71</ele>
        <time>2022-07-12T09:14:28.000Z</time>
      </trkpt>
      <trkpt lat="48.28583" lon="-4.34171">
        <ele>23.71</ele>
        <time>2022-07-12T09:14:38.000Z</time>
      </trkpt>
      <trkpt lat="48.2858" lon="-4.34178">
        <ele>26.7</ele>
        <time>2022-07-12T09:14:48.000Z</time>
      </trkpt>
      <trkpt lat="48.28577" lon="-4.34183">
        <ele>27.71</ele>
        <time>2022-07-12T09:14:58.000Z</time>
      </trkpt>
      <trkpt lat="48.28573" lon="-4.3419">
        <ele>27.46</ele>
        <time>2022-07-12T09:15:08.000Z</time>
      </trkpt>
      <trkpt lat="48.28571" lon="-4.34197">
        <ele>29.71</ele>
        <time>2022-07-12T09:15:18.000Z</time>
      </trkpt>
      <trkpt lat="48.28565" lon="-4.34203">
        <ele>30.72</ele>
        <time>2022-07-12T09:15:28.000Z</time>
      </trkpt>
      <trkpt lat="48.28561" lon="-4.34205">
        <ele>30.71</ele>
        <time>2022-07-12T09:15:38.000Z</time>
      </trkpt>
      <trkpt lat="48.28555" lon="-4.3421">
        <ele>30.9</ele>
        <time>2022-07-12T09:15:48.000Z</time>
      </trkpt>
      <trkpt lat="48.28549" lon="-4.34214">
        <ele>32.71</ele>
        <time>2022-07-12T09:15:58.000Z</time>
      </trkpt>
      <trkpt lat="48.28543" lon="-4.34218">
        <ele>33.65</ele>
        <time>2022-07-12T09:16:08.000Z</time>
      </trkpt>
      <trkpt lat="48.28538" lon="-4.34216">
        <ele>34.7</ele>
        <time>2022-07-12T09:16:17.931Z</time>
      </trkpt>
      <trkpt lat="48.28535" lon="-4.34213">
        <ele>34.71</ele>
        <time>2022-07-12T09:16:27.480Z</time>
      </trkpt>
      <trkpt lat="48.28533" lon="-4.34208">
        <ele>33.71</ele>
        <time>2022-07-12T09:16:37.000Z</time>
      </trkpt>
      <trkpt lat="48.28529" lon="-4.34203">
        <ele>33.71</ele>
        <time>2022-07-12T09:16:46.538Z</time>
      </trkpt>
      <trkpt lat="48.28525" lon="-4.34194">
        <ele>35.65</ele>
        <time>2022-07-12T09:16:55.793Z</time>
      </trkpt>
      <trkpt lat="48.28521" lon="-4.3419">
        <ele>37.46</ele>
        <time>2022-07-12T09:17:05.000Z</time>
      </trkpt>
      <trkpt lat="48.28517" lon="-4.34191">
        <ele>38.71</ele>
        <time>2022-07-12T09:17:14.554Z</time>
      </trkpt>
      <trkpt lat="48.28513" lon="-4.34193">
        <ele>38.71</ele>
        <time>2022-07-12T09:17:23.878Z</time>
      </trkpt>
      <trkpt lat="48.28508" lon="-4.342">
        <ele>40.65</ele>
        <time>2022-07-12T09:17:33.416Z</time>
      </trkpt>
      <trkpt lat="48.28505" lon="-4.34205">
        <ele>40.71</ele>
        <time>2022-07-12T09:17:43.000Z</time>
      </trkpt>
      <trkpt lat="48.28503" lon="-4.3421">
        <ele>41.7</ele>
        <time>2022-07-12T09:17:52.777Z</time>
      </trkpt>
      <trkpt lat="48.28497" lon="-4.34218">
        <ele>42.71</ele>
        <time>2022-07-12T09:18:02.619Z</time>
      </trkpt>
      <trkpt lat="48.28493" lon="-4.34222">
        <ele>43.71</ele>
        <time>2022-07-12T09:18:12.356Z</time>
      </trkpt>
      <trkpt lat="48.28489" lon="-4.34229">
        <ele>44.71</ele>
        <time>2022-07-12T09:18:22.000Z</time>
      </trkpt>
      <trkpt lat="48.28483" lon="-4.34239">
        <ele>45.71</ele>
        <time>2022-07-12T09:18:31.735Z</time>
      </trkpt>
      <trkpt lat="48.28478" lon="-4.34246">
        <ele>47.71</ele>
        <time>2022-07-12T09:18:41.298Z</time>
      </trkpt>
      <trkpt lat="48.28474" lon="-4.34252">
        <ele>47.71</ele>
        <time>2022-07-12T09:18:50.816Z</time>
      </trkpt>
      <trkpt lat="48.28468" lon="-4.34258">
        <ele>47.71</ele>
        <time>2022-07-12T09:19:00.000Z</time>
      </trkpt>
      <trkpt lat="48.28464" lon="-4.34267">
        <ele>48.71</ele>
        <time>2022-07-12T09:19:09.252Z</time>
      </trkpt>
      <trkpt lat="48.28461" lon="-4.34276">
        <ele>49.71</ele>
        <time>2022-07-12T09:19:19.000Z</time>
      </trkpt>
      <trkpt lat="48.28456" lon="-4.34282">
        <ele>50.71</ele>
        <time>2022-07-12T09:19:28.352Z</time>
      </trkpt>
      <trkpt lat="48.28452" lon="-4.34287">
        <ele>52.71</ele>
        <time>2022-07-12T09:19:37.598Z</time>
      </trkpt>
      <trkpt lat="48.28448" lon="-4.34296">
        <ele>52.71</ele>
        <time>2022-07-12T09:19:46.656Z</time>
      </trkpt>
      <trkpt lat="48.28444" lon="-4.34304">
        <ele>54.71</ele>
        <time>2022-07-12T09:19:56.000Z</time>
      </trkpt>
      <trkpt lat="48.28439" lon="-4.34315">
        <ele>56.63</ele>
        <time>2022-07-12T09:20:06.000Z</time>
      </trkpt>
      <trkpt lat="48.28434" lon="-4.34323">
        <ele>56.71</ele>
        <time>2022-07-12T09:20:15.852Z</time>
      </trkpt>
      <trkpt lat="48.28431" lon="-4.3433">
        <ele>57.46</ele>
        <time>2022-07-12T09:20:25.016Z</time>
      </trkpt>
      <trkpt lat="48.28427" lon="-4.34335">
        <ele>56.66</ele>
        <time>2022-07-12T09:20:34.455Z</time>
      </trkpt>
      <trkpt lat="48.28421" lon="-4.34345">
        <ele>57.71</ele>
        <time>2022-07-12T09:20:43.950Z</time>
      </trkpt>
      <trkpt lat="48.28414" lon="-4.34356">
        <ele>58.71</ele>
        <time>2022-07-12T09:20:53.512Z</time>
      </trkpt>
      <trkpt lat="48.28409" lon="-4.34366">
        <ele>59.65</ele>
        <time>2022-07-12T09:21:03.000Z</time>
      </trkpt>
      <trkpt lat="48.28405" lon="-4.34379">
        <ele>61.65</ele>
        <time>2022-07-12T09:21:12.739Z</time>
      </trkpt>
      <trkpt lat="48.28399" lon="-4.34394">
        <ele>62.65</ele>
        <time>2022-07-12T09:21:22.814Z</time>
      </trkpt>
      <trkpt lat="48.28393" lon="-4.34405">
        <ele>63.71</ele>
        <time>2022-07-12T09:21:32.000Z</time>
      </trkpt>
      <trkpt lat="48.28387" lon="-4.34418">
        <ele>64.77</ele>
        <time>2022-07-12T09:21:41.899Z</time>
      </trkpt>
      <trkpt lat="48.28383" lon="-4.34428">
        <ele>66.71</ele>
        <time>2022-07-12T09:21:51.000Z</time>
      </trkpt>
      <trkpt lat="48.28376" lon="-4.34441">
        <ele>67.65</ele>
        <time>2022-07-12T09:22:00.897Z</time>
      </trkpt>
      <trkpt lat="48.28372" lon="-4.34448">
        <ele>68.71</ele>
        <time>2022-07-12T09:22:10.454Z</time>
      </trkpt>
      <trkpt lat="48.28369" lon="-4.34455">
        <ele>69.71</ele>
        <time>2022-07-12T09:22:20.000Z</time>
      </trkpt>
      <trkpt lat="48.28366" lon="-4.34462">
        <ele>68.71</ele>
        <time>2022-07-12T09:22:30.000Z</time>
      </trkpt>
      <trkpt lat="48.28365" lon="-4.34464">
        <ele>68.71</ele>
        <time>2022-07-12T09:24:17.000Z</time>
      </trkpt>
      <trkpt lat="48.28359" lon="-4.34474">
        <ele>66.73</ele>
        <time>2022-07-12T09:24:27.000Z</time>
      </trkpt>
      <trkpt lat="48.28353" lon="-4.34482">
        <ele>65.71</ele>
        <time>2022-07-12T09:24:36.411Z</time>
      </trkpt>
      <trkpt lat="48.28346" lon="-4.34494">
        <ele>65.71</ele>
        <time>2022-07-12T09:24:45.813Z</time>
      </trkpt>
      <trkpt lat="48.2834" lon="-4.34509">
        <ele>66.52</ele>
        <time>2022-07-12T09:24:55.616Z</time>
      </trkpt>
      <trkpt lat="48.28333" lon="-4.3452">
        <ele>66.71</ele>
        <time>2022-07-12T09:25:05.175Z</time>
      </trkpt>
      <trkpt lat="48.28327" lon="-4.34532">
        <ele>65.71</ele>
        <time>2022-07-12T09:25:14.217Z</time>
      </trkpt>
      <trkpt lat="48.28321" lon="-4.34546">
        <ele>66.71</ele>
        <time>2022-07-12T09:25:23.636Z</time>
      </trkpt>
      <trkpt lat="48.28316" lon="-4.34558">
        <ele>67.47</ele>
        <time>2022-07-12T09:25:33.476Z</time>
      </trkpt>
      <trkpt lat="48.2831" lon="-4.34567">
        <ele>67.71</ele>
        <time>2022-07-12T09:25:42.639Z</time>
      </trkpt>
      <trkpt lat="48.28299" lon="-4.34567">
        <ele>68.71</ele>
        <time>2022-07-12T09:25:52.000Z</time>
      </trkpt>
      <trkpt lat="48.28288" lon="-4.34563">
        <ele>67.71</ele>
        <time>2022-07-12T09:26:01.680Z</time>
      </trkpt>
      <trkpt lat="48.2828" lon="-4.34561">
        <ele>67.71</ele>
        <time>2022-07-12T09:26:10.856Z</time>
      </trkpt>
      <trkpt lat="48.28271" lon="-4.34558">
        <ele>68.69</ele>
        <time>2022-07-12T09:26:20.339Z</time>
      </trkpt>
      <trkpt lat="48.28262" lon="-4.34556">
        <ele>68.71</ele>
        <time>2022-07-12T09:26:29.679Z</time>
      </trkpt>
      <trkpt lat="48.28253" lon="-4.34554">
        <ele>70.46</ele>
        <time>2022-07-12T09:26:39.000Z</time>
      </trkpt>
      <trkpt lat="48.28255" lon="-4.34555">
        <ele>70.71</ele>
        <time>2022-07-12T09:26:48.794Z</time>
      </trkpt>
      <trkpt lat="48.28247" lon="-4.34551">
        <ele>70.71</ele>
        <time>2022-07-12T09:26:58.000Z</time>
      </trkpt>
      <trkpt lat="48.28237" lon="-4.34545">
        <ele>69.96</ele>
        <time>2022-07-12T09:27:08.000Z</time>
      </trkpt>
      <trkpt lat="48.2823" lon="-4.34542">
        <ele>69.71</ele>
        <time>2022-07-12T09:27:17.455Z</time>
      </trkpt>
      <trkpt lat="48.28221" lon="-4.34537">
        <ele>70.71</ele>
        <time>2022-07-12T09:27:26.618Z</time>
      </trkpt>
      <trkpt lat="48.28211" lon="-4.34539">
        <ele>70.72</ele>
        <time>2022-07-12T09:27:35.927Z</time>
      </trkpt>
      <trkpt lat="48.28208" lon="-4.34552">
        <ele>72.71</ele>
        <time>2022-07-12T09:27:46.000Z</time>
      </trkpt>
      <trkpt lat="48.28202" lon="-4.34565">
        <ele>72.71</ele>
        <time>2022-07-12T09:27:55.455Z</time>
      </trkpt>
      <trkpt lat="48.28194" lon="-4.34576">
        <ele>72.71</ele>
        <time>2022-07-12T09:28:04.874Z</time>
      </trkpt>
      <trkpt lat="48.28189" lon="-4.34586">
        <ele>71.71</ele>
        <time>2022-07-12T09:28:13.877Z</time>
      </trkpt>
      <trkpt lat="48.28184" lon="-4.34596">
        <ele>70.96</ele>
        <time>2022-07-12T09:28:23.216Z</time>
      </trkpt>
      <trkpt lat="48.28177" lon="-4.34606">
        <ele>72.71</ele>
        <time>2022-07-12T09:28:32.730Z</time>
      </trkpt>
      <trkpt lat="48.2817" lon="-4.34616">
        <ele>73.69</ele>
        <time>2022-07-12T09:28:42.000Z</time>
      </trkpt>
      <trkpt lat="48.28163" lon="-4.34627">
        <ele>72.71</ele>
        <time>2022-07-12T09:28:51.594Z</time>
      </trkpt>
      <trkpt lat="48.28155" lon="-4.34637">
        <ele>73.69</ele>
        <time>2022-07-12T09:29:01.157Z</time>
      </trkpt>
      <trkpt lat="48.28149" lon="-4.34649">
        <ele>72.71</ele>
        <time>2022-07-12T09:29:10.655Z</time>
      </trkpt>
      <trkpt lat="48.28139" lon="-4.34656">
        <ele>73.71</ele>
        <time>2022-07-12T09:29:20.115Z</time>
      </trkpt>
      <trkpt lat="48.28132" lon="-4.34664">
        <ele>73.7</ele>
        <time>2022-07-12T09:29:29.374Z</time>
      </trkpt>
      <trkpt lat="48.28123" lon="-4.34671">
        <ele>71.71</ele>
        <time>2022-07-12T09:29:38.776Z</time>
      </trkpt>
      <trkpt lat="48.28116" lon="-4.3468">
        <ele>72.46</ele>
        <time>2022-07-12T09:29:47.798Z</time>
      </trkpt>
      <trkpt lat="48.28106" lon="-4.34691">
        <ele>73.71</ele>
        <time>2022-07-12T09:29:58.120Z</time>
      </trkpt>
      <trkpt lat="48.28098" lon="-4.347">
        <ele>73.71</ele>
        <time>2022-07-12T09:30:07.776Z</time>
      </trkpt>
      <trkpt lat="48.28091" lon="-4.34707">
        <ele>73.71</ele>
        <time>2022-07-12T09:30:17.200Z</time>
      </trkpt>
      <trkpt lat="48.28084" lon="-4.34717">
        <ele>73.71</ele>
        <time>2022-07-12T09:30:26.678Z</time>
      </trkpt>
      <trkpt lat="48.28076" lon="-4.34725">
        <ele>72.96</ele>
        <time>2022-07-12T09:30:36.000Z</time>
      </trkpt>
      <trkpt lat="48.28067" lon="-4.34735">
        <ele>73.71</ele>
        <time>2022-07-12T09:30:45.297Z</time>
      </trkpt>
      <trkpt lat="48.2806" lon="-4.34746">
        <ele>71.77</ele>
        <time>2022-07-12T09:30:54.338Z</time>
      </trkpt>
      <trkpt lat="48.2805" lon="-4.34749">
        <ele>70.71</ele>
        <time>2022-07-12T09:31:03.715Z</time>
      </trkpt>
      <trkpt lat="48.28043" lon="-4.34762">
        <ele>71.69</ele>
        <time>2022-07-12T09:31:12.916Z</time>
      </trkpt>
      <trkpt lat="48.28036" lon="-4.34775">
        <ele>73.46</ele>
        <time>2022-07-12T09:31:22.055Z</time>
      </trkpt>
      <trkpt lat="48.28031" lon="-4.34787">
        <ele>73.71</ele>
        <time>2022-07-12T09:31:32.000Z</time>
      </trkpt>
      <trkpt lat="48.28025" lon="-4.34799">
        <ele>73.71</ele>
        <time>2022-07-12T09:31:41.498Z</time>
      </trkpt>
      <trkpt lat="48.28019" lon="-4.34811">
        <ele>72.72</ele>
        <time>2022-07-12T09:31:50.719Z</time>
      </trkpt>
      <trkpt lat="48.28014" lon="-4.34826">
        <ele>73.65</ele>
        <time>2022-07-12T09:32:00.000Z</time>
      </trkpt>
      <trkpt lat="48.28007" lon="-4.34838">
        <ele>72.71</ele>
        <time>2022-07-12T09:32:09.475Z</time>
      </trkpt>
      <trkpt lat="48.28004" lon="-4.34853">
        <ele>72.71</ele>
        <time>2022-07-12T09:32:18.596Z</time>
      </trkpt>
      <trkpt lat="48.28" lon="-4.34869">
        <ele>72.71</ele>
        <time>2022-07-12T09:32:28.000Z</time>
      </trkpt>
      <trkpt lat="48.27996" lon="-4.34882">
        <ele>73.71</ele>
        <time>2022-07-12T09:32:37.432Z</time>
      </trkpt>
      <trkpt lat="48.27994" lon="-4.34894">
        <ele>73.71</ele>
        <time>2022-07-12T09:32:46.578Z</time>
      </trkpt>
      <trkpt lat="48.27988" lon="-4.34906">
        <ele>73.71</ele>
        <time>2022-07-12T09:32:55.720Z</time>
      </trkpt>
      <trkpt lat="48.27988" lon="-4.34908">
        <ele>71.97</ele>
        <time>2022-07-12T09:33:05.898Z</time>
      </trkpt>
      <trkpt lat="48.27984" lon="-4.34923">
        <ele>72.71</ele>
        <time>2022-07-12T09:33:15.000Z</time>
      </trkpt>
      <trkpt lat="48.27981" lon="-4.34937">
        <ele>71.71</ele>
        <time>2022-07-12T09:33:24.537Z</time>
      </trkpt>
      <trkpt lat="48.27977" lon="-4.34951">
        <ele>72.7</ele>
        <time>2022-07-12T09:33:33.837Z</time>
      </trkpt>
      <trkpt lat="48.27973" lon="-4.34964">
        <ele>72.71</ele>
        <time>2022-07-12T09:33:43.000Z</time>
      </trkpt>
      <trkpt lat="48.27969" lon="-4.34977">
        <ele>72.47</ele>
        <time>2022-07-12T09:33:52.135Z</time>
      </trkpt>
      <trkpt lat="48.27966" lon="-4.3499">
        <ele>71.71</ele>
        <time>2022-07-12T09:34:01.394Z</time>
      </trkpt>
      <trkpt lat="48.27961" lon="-4.35004">
        <ele>71.71</ele>
        <time>2022-07-12T09:34:10.599Z</time>
      </trkpt>
      <trkpt lat="48.27959" lon="-4.35018">
        <ele>72.69</ele>
        <time>2022-07-12T09:34:19.873Z</time>
      </trkpt>
      <trkpt lat="48.27954" lon="-4.35032">
        <ele>71.77</ele>
        <time>2022-07-12T09:34:29.595Z</time>
      </trkpt>
      <trkpt lat="48.27951" lon="-4.35047">
        <ele>72.71</ele>
        <time>2022-07-12T09:34:38.673Z</time>
      </trkpt>
      <trkpt lat="48.27948" lon="-4.35058">
        <ele>72.71</ele>
        <time>2022-07-12T09:34:48.000Z</time>
      </trkpt>
      <trkpt lat="48.27945" lon="-4.35074">
        <ele>72.71</ele>
        <time>2022-07-12T09:34:57.318Z</time>
      </trkpt>
      <trkpt lat="48.2794" lon="-4.3509">
        <ele>71.71</ele>
        <time>2022-07-12T09:35:06.354Z</time>
      </trkpt>
      <trkpt lat="48.27938" lon="-4.35102">
        <ele>70.72</ele>
        <time>2022-07-12T09:35:15.454Z</time>
      </trkpt>
      <trkpt lat="48.27937" lon="-4.35115">
        <ele>70.96</ele>
        <time>2022-07-12T09:35:24.530Z</time>
      </trkpt>
      <trkpt lat="48.27935" lon="-4.35126">
        <ele>71.71</ele>
        <time>2022-07-12T09:35:33.718Z</time>
      </trkpt>
      <trkpt lat="48.27934" lon="-4.35138">
        <ele>72.71</ele>
        <time>2022-07-12T09:35:43.798Z</time>
      </trkpt>
      <trkpt lat="48.27931" lon="-4.35153">
        <ele>71.71</ele>
        <time>2022-07-12T09:35:53.192Z</time>
      </trkpt>
      <trkpt lat="48.27928" lon="-4.35166">
        <ele>72.71</ele>
        <time>2022-07-12T09:36:02.410Z</time>
      </trkpt>
      <trkpt lat="48.27925" lon="-4.35179">
        <ele>71.71</ele>
        <time>2022-07-12T09:36:11.600Z</time>
      </trkpt>
      <trkpt lat="48.27923" lon="-4.3519">
        <ele>72.69</ele>
        <time>2022-07-12T09:36:20.655Z</time>
      </trkpt>
      <trkpt lat="48.2792" lon="-4.35207">
        <ele>72.77</ele>
        <time>2022-07-12T09:36:29.900Z</time>
      </trkpt>
      <trkpt lat="48.2792" lon="-4.35217">
        <ele>73.69</ele>
        <time>2022-07-12T09:36:39.073Z</time>
      </trkpt>
      <trkpt lat="48.27921" lon="-4.35234">
        <ele>73.7</ele>
        <time>2022-07-12T09:36:48.915Z</time>
      </trkpt>
      <trkpt lat="48.27929" lon="-4.35242">
        <ele>72.7</ele>
        <time>2022-07-12T09:36:58.817Z</time>
      </trkpt>
      <trkpt lat="48.27937" lon="-4.35251">
        <ele>72.7</ele>
        <time>2022-07-12T09:37:08.000Z</time>
      </trkpt>
      <trkpt lat="48.27945" lon="-4.3526">
        <ele>71.76</ele>
        <time>2022-07-12T09:37:17.417Z</time>
      </trkpt>
      <trkpt lat="48.27948" lon="-4.35265">
        <ele>72.7</ele>
        <time>2022-07-12T09:37:27.000Z</time>
      </trkpt>
      <trkpt lat="48.2795" lon="-4.35266">
        <ele>71.71</ele>
        <time>2022-07-12T09:37:36.372Z</time>
      </trkpt>
      <trkpt lat="48.27956" lon="-4.35281">
        <ele>71.7</ele>
        <time>2022-07-12T09:37:45.735Z</time>
      </trkpt>
      <trkpt lat="48.2796" lon="-4.35288">
        <ele>67.7</ele>
        <time>2022-07-12T09:37:54.818Z</time>
      </trkpt>
      <trkpt lat="48.27969" lon="-4.35298">
        <ele>68.7</ele>
        <time>2022-07-12T09:38:04.000Z</time>
      </trkpt>
      <trkpt lat="48.27977" lon="-4.35309">
        <ele>67.71</ele>
        <time>2022-07-12T09:38:13.813Z</time>
      </trkpt>
      <trkpt lat="48.27981" lon="-4.35318">
        <ele>65.72</ele>
        <time>2022-07-12T09:38:23.892Z</time>
      </trkpt>
      <trkpt lat="48.27989" lon="-4.35327">
        <ele>65.52</ele>
        <time>2022-07-12T09:38:33.000Z</time>
      </trkpt>
      <trkpt lat="48.27997" lon="-4.35334">
        <ele>63.95</ele>
        <time>2022-07-12T09:38:42.216Z</time>
      </trkpt>
      <trkpt lat="48.28002" lon="-4.35343">
        <ele>63.7</ele>
        <time>2022-07-12T09:38:51.340Z</time>
      </trkpt>
      <trkpt lat="48.28009" lon="-4.35354">
        <ele>63.7</ele>
        <time>2022-07-12T09:39:01.000Z</time>
      </trkpt>
      <trkpt lat="48.28016" lon="-4.35367">
        <ele>62.71</ele>
        <time>2022-07-12T09:39:10.635Z</time>
      </trkpt>
      <trkpt lat="48.28019" lon="-4.35378">
        <ele>61.71</ele>
        <time>2022-07-12T09:39:20.000Z</time>
      </trkpt>
      <trkpt lat="48.28024" lon="-4.35391">
        <ele>60.7</ele>
        <time>2022-07-12T09:39:29.493Z</time>
      </trkpt>
      <trkpt lat="48.28029" lon="-4.35402">
        <ele>59.7</ele>
        <time>2022-07-12T09:39:39.000Z</time>
      </trkpt>
      <trkpt lat="48.28036" lon="-4.35415">
        <ele>57.95</ele>
        <time>2022-07-12T09:39:48.493Z</time>
      </trkpt>
      <trkpt lat="48.28042" lon="-4.35425">
        <ele>56.7</ele>
        <time>2022-07-12T09:39:58.000Z</time>
      </trkpt>
      <trkpt lat="48.28051" lon="-4.35432">
        <ele>54.72</ele>
        <time>2022-07-12T09:40:07.798Z</time>
      </trkpt>
      <trkpt lat="48.2806" lon="-4.35438">
        <ele>52.77</ele>
        <time>2022-07-12T09:40:16.839Z</time>
      </trkpt>
      <trkpt lat="48.28067" lon="-4.35444">
        <ele>51.72</ele>
        <time>2022-07-12T09:40:26.000Z</time>
      </trkpt>
      <trkpt lat="48.28077" lon="-4.35452">
        <ele>51.7</ele>
        <time>2022-07-12T09:40:35.773Z</time>
      </trkpt>
      <trkpt lat="48.28084" lon="-4.35461">
        <ele>49.77</ele>
        <time>2022-07-12T09:40:45.000Z</time>
      </trkpt>
      <trkpt lat="48.28086" lon="-4.35475">
        <ele>50.7</ele>
        <time>2022-07-12T09:40:54.113Z</time>
      </trkpt>
      <trkpt lat="48.28083" lon="-4.35484">
        <ele>49.47</ele>
        <time>2022-07-12T09:41:03.416Z</time>
      </trkpt>
      <trkpt lat="48.28081" lon="-4.35496">
        <ele>48.7</ele>
        <time>2022-07-12T09:41:12.634Z</time>
      </trkpt>
      <trkpt lat="48.28077" lon="-4.35508">
        <ele>48.45</ele>
        <time>2022-07-12T09:41:22.000Z</time>
      </trkpt>
      <trkpt lat="48.28075" lon="-4.3552">
        <ele>47.7</ele>
        <time>2022-07-12T09:41:31.214Z</time>
      </trkpt>
      <trkpt lat="48.28071" lon="-4.35533">
        <ele>46.72</ele>
        <time>2022-07-12T09:41:40.432Z</time>
      </trkpt>
      <trkpt lat="48.28068" lon="-4.35549">
        <ele>46.7</ele>
        <time>2022-07-12T09:41:50.152Z</time>
      </trkpt>
      <trkpt lat="48.28064" lon="-4.35561">
        <ele>46.7</ele>
        <time>2022-07-12T09:41:59.455Z</time>
      </trkpt>
      <trkpt lat="48.28061" lon="-4.35571">
        <ele>46.7</ele>
        <time>2022-07-12T09:42:08.496Z</time>
      </trkpt>
      <trkpt lat="48.28058" lon="-4.35585">
        <ele>46.7</ele>
        <time>2022-07-12T09:42:17.818Z</time>
      </trkpt>
      <trkpt lat="48.28058" lon="-4.35596">
        <ele>44.71</ele>
        <time>2022-07-12T09:42:27.000Z</time>
      </trkpt>
      <trkpt lat="48.28058" lon="-4.35597">
        <ele>44.7</ele>
        <time>2022-07-12T09:42:36.855Z</time>
      </trkpt>
      <trkpt lat="48.28058" lon="-4.35611">
        <ele>45.69</ele>
        <time>2022-07-12T09:42:46.000Z</time>
      </trkpt>
      <trkpt lat="48.28057" lon="-4.35621">
        <ele>45.7</ele>
        <time>2022-07-12T09:42:55.355Z</time>
      </trkpt>
      <trkpt lat="48.28058" lon="-4.35633">
        <ele>45.7</ele>
        <time>2022-07-12T09:43:04.619Z</time>
      </trkpt>
      <trkpt lat="48.28059" lon="-4.35647">
        <ele>45.7</ele>
        <time>2022-07-12T09:43:13.794Z</time>
      </trkpt>
      <trkpt lat="48.28059" lon="-4.35663">
        <ele>46.7</ele>
        <time>2022-07-12T09:43:23.091Z</time>
      </trkpt>
      <trkpt lat="48.28057" lon="-4.35678">
        <ele>46.7</ele>
        <time>2022-07-12T09:43:32.454Z</time>
      </trkpt>
      <trkpt lat="48.28058" lon="-4.35694">
        <ele>47.7</ele>
        <time>2022-07-12T09:43:42.000Z</time>
      </trkpt>
      <trkpt lat="48.28055" lon="-4.35706">
        <ele>46.7</ele>
        <time>2022-07-12T09:43:52.000Z</time>
      </trkpt>
      <trkpt lat="48.28054" lon="-4.3572">
        <ele>47.45</ele>
        <time>2022-07-12T09:44:01.752Z</time>
      </trkpt>
      <trkpt lat="48.28052" lon="-4.35733">
        <ele>47.7</ele>
        <time>2022-07-12T09:44:11.000Z</time>
      </trkpt>
      <trkpt lat="48.28051" lon="-4.35746">
        <ele>48.64</ele>
        <time>2022-07-12T09:44:20.633Z</time>
      </trkpt>
      <trkpt lat="48.28051" lon="-4.35758">
        <ele>48.45</ele>
        <time>2022-07-12T09:44:30.000Z</time>
      </trkpt>
      <trkpt lat="48.28051" lon="-4.3577">
        <ele>48.7</ele>
        <time>2022-07-12T09:44:39.379Z</time>
      </trkpt>
      <trkpt lat="48.28049" lon="-4.35782">
        <ele>49.7</ele>
        <time>2022-07-12T09:44:48.617Z</time>
      </trkpt>
      <trkpt lat="48.28049" lon="-4.35791">
        <ele>49.7</ele>
        <time>2022-07-12T09:44:57.783Z</time>
      </trkpt>
      <trkpt lat="48.28046" lon="-4.35803">
        <ele>50.7</ele>
        <time>2022-07-12T09:45:07.000Z</time>
      </trkpt>
      <trkpt lat="48.28043" lon="-4.35815">
        <ele>52.7</ele>
        <time>2022-07-12T09:45:16.316Z</time>
      </trkpt>
      <trkpt lat="48.28041" lon="-4.35828">
        <ele>50.7</ele>
        <time>2022-07-12T09:45:25.733Z</time>
      </trkpt>
      <trkpt lat="48.28039" lon="-4.3584">
        <ele>51.7</ele>
        <time>2022-07-12T09:45:34.933Z</time>
      </trkpt>
      <trkpt lat="48.28036" lon="-4.35852">
        <ele>52.68</ele>
        <time>2022-07-12T09:45:44.158Z</time>
      </trkpt>
      <trkpt lat="48.28032" lon="-4.35864">
        <ele>51.76</ele>
        <time>2022-07-12T09:45:53.337Z</time>
      </trkpt>
      <trkpt lat="48.28027" lon="-4.35878">
        <ele>51.7</ele>
        <time>2022-07-12T09:46:02.500Z</time>
      </trkpt>
      <trkpt lat="48.28025" lon="-4.35887">
        <ele>52.45</ele>
        <time>2022-07-12T09:46:11.693Z</time>
      </trkpt>
      <trkpt lat="48.28023" lon="-4.35897">
        <ele>52.7</ele>
        <time>2022-07-12T09:46:20.913Z</time>
      </trkpt>
      <trkpt lat="48.28022" lon="-4.35914">
        <ele>51.7</ele>
        <time>2022-07-12T09:46:30.000Z</time>
      </trkpt>
      <trkpt lat="48.28016" lon="-4.35928">
        <ele>51.7</ele>
        <time>2022-07-12T09:46:39.478Z</time>
      </trkpt>
      <trkpt lat="48.28011" lon="-4.35942">
        <ele>51.7</ele>
        <time>2022-07-12T09:46:49.000Z</time>
      </trkpt>
      <trkpt lat="48.28003" lon="-4.35952">
        <ele>51.7</ele>
        <time>2022-07-12T09:46:58.259Z</time>
      </trkpt>
      <trkpt lat="48.27995" lon="-4.35961">
        <ele>52.7</ele>
        <time>2022-07-12T09:47:07.935Z</time>
      </trkpt>
      <trkpt lat="48.27989" lon="-4.3597">
        <ele>52.7</ele>
        <time>2022-07-12T09:47:17.000Z</time>
      </trkpt>
      <trkpt lat="48.27983" lon="-4.35981">
        <ele>52.7</ele>
        <time>2022-07-12T09:47:26.136Z</time>
      </trkpt>
      <trkpt lat="48.27977" lon="-4.35992">
        <ele>51.95</ele>
        <time>2022-07-12T09:47:35.618Z</time>
      </trkpt>
      <trkpt lat="48.27969" lon="-4.36002">
        <ele>52.64</ele>
        <time>2022-07-12T09:47:45.000Z</time>
      </trkpt>
      <trkpt lat="48.27963" lon="-4.36011">
        <ele>53.7</ele>
        <time>2022-07-12T09:47:54.398Z</time>
      </trkpt>
      <trkpt lat="48.27955" lon="-4.36019">
        <ele>54.7</ele>
        <time>2022-07-12T09:48:04.000Z</time>
      </trkpt>
      <trkpt lat="48.27946" lon="-4.36029">
        <ele>53.7</ele>
        <time>2022-07-12T09:48:14.000Z</time>
      </trkpt>
      <trkpt lat="48.27939" lon="-4.36038">
        <ele>53.7</ele>
        <time>2022-07-12T09:48:23.173Z</time>
      </trkpt>
      <trkpt lat="48.27933" lon="-4.36044">
        <ele>53.7</ele>
        <time>2022-07-12T09:48:32.854Z</time>
      </trkpt>
      <trkpt lat="48.27927" lon="-4.36054">
        <ele>52.76</ele>
        <time>2022-07-12T09:48:41.934Z</time>
      </trkpt>
      <trkpt lat="48.27921" lon="-4.36061">
        <ele>52.7</ele>
        <time>2022-07-12T09:48:51.000Z</time>
      </trkpt>
      <trkpt lat="48.2792" lon="-4.36063">
        <ele>52.7</ele>
        <time>2022-07-12T09:49:01.000Z</time>
      </trkpt>
      <trkpt lat="48.27912" lon="-4.36069">
        <ele>52.7</ele>
        <time>2022-07-12T09:49:10.256Z</time>
      </trkpt>
      <trkpt lat="48.27908" lon="-4.36079">
        <ele>52.7</ele>
        <time>2022-07-12T09:49:19.498Z</time>
      </trkpt>
      <trkpt lat="48.27907" lon="-4.3608">
        <ele>52.7</ele>
        <time>2022-07-12T09:49:29.000Z</time>
      </trkpt>
      <trkpt lat="48.27908" lon="-4.36082">
        <ele>51.95</ele>
        <time>2022-07-12T09:50:32.000Z</time>
      </trkpt>
      <trkpt lat="48.27907" lon="-4.36083">
        <ele>53.2</ele>
        <time>2022-07-12T09:51:15.000Z</time>
      </trkpt>
      <trkpt lat="48.27906" lon="-4.36084">
        <ele>53.7</ele>
        <time>2022-07-12T09:52:52.000Z</time>
      </trkpt>
      <trkpt lat="48.27905" lon="-4.36085">
        <ele>53.75</ele>
        <time>2022-07-12T09:53:02.000Z</time>
      </trkpt>
      <trkpt lat="48.27904" lon="-4.36088">
        <ele>53.7</ele>
        <time>2022-07-12T09:53:12.000Z</time>
      </trkpt>
      <trkpt lat="48.27903" lon="-4.36088">
        <ele>53.7</ele>
        <time>2022-07-12T09:53:33.000Z</time>
      </trkpt>
      <trkpt lat="48.27898" lon="-4.36093">
        <ele>52.76</ele>
        <time>2022-07-12T09:53:43.000Z</time>
      </trkpt>
      <trkpt lat="48.27894" lon="-4.361">
        <ele>51.95</ele>
        <time>2022-07-12T09:53:53.000Z</time>
      </trkpt>
      <trkpt lat="48.27885" lon="-4.3611">
        <ele>51.75</ele>
        <time>2022-07-12T09:54:03.000Z</time>
      </trkpt>
      <trkpt lat="48.27881" lon="-4.36116">
        <ele>51.7</ele>
        <time>2022-07-12T09:54:12.432Z</time>
      </trkpt>
      <trkpt lat="48.27877" lon="-4.3612">
        <ele>50.7</ele>
        <time>2022-07-12T09:54:21.436Z</time>
      </trkpt>
      <trkpt lat="48.27872" lon="-4.36127">
        <ele>50.7</ele>
        <time>2022-07-12T09:54:30.495Z</time>
      </trkpt>
      <trkpt lat="48.27865" lon="-4.36134">
        <ele>49.7</ele>
        <time>2022-07-12T09:54:40.000Z</time>
      </trkpt>
      <trkpt lat="48.27857" lon="-4.36143">
        <ele>49.7</ele>
        <time>2022-07-12T09:54:49.577Z</time>
      </trkpt>
      <trkpt lat="48.27849" lon="-4.36153">
        <ele>49.7</ele>
        <time>2022-07-12T09:54:59.000Z</time>
      </trkpt>
      <trkpt lat="48.27842" lon="-4.36164">
        <ele>48.7</ele>
        <time>2022-07-12T09:55:08.775Z</time>
      </trkpt>
      <trkpt lat="48.27834" lon="-4.36173">
        <ele>50.45</ele>
        <time>2022-07-12T09:55:18.000Z</time>
      </trkpt>
      <trkpt lat="48.27825" lon="-4.3618">
        <ele>51.69</ele>
        <time>2022-07-12T09:55:28.000Z</time>
      </trkpt>
      <trkpt lat="48.27816" lon="-4.36184">
        <ele>51.7</ele>
        <time>2022-07-12T09:55:37.672Z</time>
      </trkpt>
      <trkpt lat="48.27809" lon="-4.36187">
        <ele>52.7</ele>
        <time>2022-07-12T09:55:46.720Z</time>
      </trkpt>
      <trkpt lat="48.27804" lon="-4.36197">
        <ele>54.68</ele>
        <time>2022-07-12T09:55:56.583Z</time>
      </trkpt>
      <trkpt lat="48.27799" lon="-4.36202">
        <ele>54.68</ele>
        <time>2022-07-12T09:56:06.000Z</time>
      </trkpt>
      <trkpt lat="48.2779" lon="-4.3621">
        <ele>54.7</ele>
        <time>2022-07-12T09:56:15.554Z</time>
      </trkpt>
      <trkpt lat="48.27784" lon="-4.36219">
        <ele>56.7</ele>
        <time>2022-07-12T09:56:24.934Z</time>
      </trkpt>
      <trkpt lat="48.27777" lon="-4.36227">
        <ele>57.7</ele>
        <time>2022-07-12T09:56:34.359Z</time>
      </trkpt>
      <trkpt lat="48.27771" lon="-4.36238">
        <ele>59.7</ele>
        <time>2022-07-12T09:56:43.792Z</time>
      </trkpt>
      <trkpt lat="48.27763" lon="-4.36246">
        <ele>60.7</ele>
        <time>2022-07-12T09:56:53.115Z</time>
      </trkpt>
      <trkpt lat="48.27757" lon="-4.36256">
        <ele>60.7</ele>
        <time>2022-07-12T09:57:02.937Z</time>
      </trkpt>
      <trkpt lat="48.2775" lon="-4.36267">
        <ele>61.7</ele>
        <time>2022-07-12T09:57:12.851Z</time>
      </trkpt>
      <trkpt lat="48.27744" lon="-4.36279">
        <ele>62.7</ele>
        <time>2022-07-12T09:57:22.675Z</time>
      </trkpt>
      <trkpt lat="48.2774" lon="-4.36285">
        <ele>62.7</ele>
        <time>2022-07-12T09:57:31.876Z</time>
      </trkpt>
      <trkpt lat="48.27735" lon="-4.36295">
        <ele>62.7</ele>
        <time>2022-07-12T09:57:41.000Z</time>
      </trkpt>
      <trkpt lat="48.27732" lon="-4.36308">
        <ele>62.7</ele>
        <time>2022-07-12T09:57:50.394Z</time>
      </trkpt>
      <trkpt lat="48.27728" lon="-4.36318">
        <ele>62.7</ele>
        <time>2022-07-12T09:57:59.635Z</time>
      </trkpt>
      <trkpt lat="48.27725" lon="-4.3633">
        <ele>62.7</ele>
        <time>2022-07-12T09:58:08.796Z</time>
      </trkpt>
      <trkpt lat="48.27723" lon="-4.36343">
        <ele>63.7</ele>
        <time>2022-07-12T09:58:17.896Z</time>
      </trkpt>
      <trkpt lat="48.27719" lon="-4.36354">
        <ele>64.7</ele>
        <time>2022-07-12T09:58:27.000Z</time>
      </trkpt>
      <trkpt lat="48.27712" lon="-4.36366">
        <ele>63.7</ele>
        <time>2022-07-12T09:58:36.604Z</time>
      </trkpt>
      <trkpt lat="48.27709" lon="-4.36379">
        <ele>63.7</ele>
        <time>2022-07-12T09:58:46.000Z</time>
      </trkpt>
      <trkpt lat="48.27703" lon="-4.3639">
        <ele>63.7</ele>
        <time>2022-07-12T09:58:55.631Z</time>
      </trkpt>
      <trkpt lat="48.27699" lon="-4.36401">
        <ele>63.7</ele>
        <time>2022-07-12T09:59:05.000Z</time>
      </trkpt>
      <trkpt lat="48.27694" lon="-4.36413">
        <ele>63.7</ele>
        <time>2022-07-12T09:59:14.437Z</time>
      </trkpt>
      <trkpt lat="48.2769" lon="-4.3642">
        <ele>62.7</ele>
        <time>2022-07-12T09:59:23.774Z</time>
      </trkpt>
      <trkpt lat="48.27683" lon="-4.36433">
        <ele>63.7</ele>
        <time>2022-07-12T09:59:33.200Z</time>
      </trkpt>
      <trkpt lat="48.27678" lon="-4.36444">
        <ele>63.7</ele>
        <time>2022-07-12T09:59:42.679Z</time>
      </trkpt>
      <trkpt lat="48.27672" lon="-4.36454">
        <ele>63.7</ele>
        <time>2022-07-12T09:59:51.990Z</time>
      </trkpt>
      <trkpt lat="48.27664" lon="-4.36465">
        <ele>63.7</ele>
        <time>2022-07-12T10:00:01.592Z</time>
      </trkpt>
      <trkpt lat="48.27658" lon="-4.36473">
        <ele>63.7</ele>
        <time>2022-07-12T10:00:11.018Z</time>
      </trkpt>
      <trkpt lat="48.27652" lon="-4.36485">
        <ele>63.7</ele>
        <time>2022-07-12T10:00:21.000Z</time>
      </trkpt>
      <trkpt lat="48.27647" lon="-4.36494">
        <ele>63.7</ele>
        <time>2022-07-12T10:00:30.411Z</time>
      </trkpt>
      <trkpt lat="48.2764" lon="-4.36503">
        <ele>63.63</ele>
        <time>2022-07-12T10:00:39.676Z</time>
      </trkpt>
      <trkpt lat="48.27632" lon="-4.36514">
        <ele>62.7</ele>
        <time>2022-07-12T10:00:48.937Z</time>
      </trkpt>
      <trkpt lat="48.27627" lon="-4.36527">
        <ele>62.7</ele>
        <time>2022-07-12T10:00:58.237Z</time>
      </trkpt>
      <trkpt lat="48.27621" lon="-4.36534">
        <ele>64.63</ele>
        <time>2022-07-12T10:01:07.433Z</time>
      </trkpt>
      <trkpt lat="48.27617" lon="-4.36543">
        <ele>64.7</ele>
        <time>2022-07-12T10:01:16.795Z</time>
      </trkpt>
      <trkpt lat="48.27612" lon="-4.36556">
        <ele>64.7</ele>
        <time>2022-07-12T10:01:26.000Z</time>
      </trkpt>
      <trkpt lat="48.27608" lon="-4.36568">
        <ele>63.7</ele>
        <time>2022-07-12T10:01:35.237Z</time>
      </trkpt>
      <trkpt lat="48.27603" lon="-4.36579">
        <ele>65.7</ele>
        <time>2022-07-12T10:01:44.518Z</time>
      </trkpt>
      <trkpt lat="48.27599" lon="-4.36589">
        <ele>65.7</ele>
        <time>2022-07-12T10:01:53.923Z</time>
      </trkpt>
      <trkpt lat="48.27594" lon="-4.36602">
        <ele>64.94</ele>
        <time>2022-07-12T10:02:03.276Z</time>
      </trkpt>
      <trkpt lat="48.2759" lon="-4.36615">
        <ele>65.74</ele>
        <time>2022-07-12T10:02:12.619Z</time>
      </trkpt>
      <trkpt lat="48.27583" lon="-4.36627">
        <ele>66.44</ele>
        <time>2022-07-12T10:02:22.000Z</time>
      </trkpt>
      <trkpt lat="48.27576" lon="-4.36634">
        <ele>65.69</ele>
        <time>2022-07-12T10:02:31.892Z</time>
      </trkpt>
      <trkpt lat="48.27569" lon="-4.36643">
        <ele>64.69</ele>
        <time>2022-07-12T10:02:41.000Z</time>
      </trkpt>
      <trkpt lat="48.27564" lon="-4.36656">
        <ele>64.69</ele>
        <time>2022-07-12T10:02:50.394Z</time>
      </trkpt>
      <trkpt lat="48.27567" lon="-4.36669">
        <ele>64.69</ele>
        <time>2022-07-12T10:02:59.756Z</time>
      </trkpt>
      <trkpt lat="48.27569" lon="-4.36673">
        <ele>65.68</ele>
        <time>2022-07-12T10:03:09.081Z</time>
      </trkpt>
      <trkpt lat="48.27576" lon="-4.36674">
        <ele>65.63</ele>
        <time>2022-07-12T10:03:19.000Z</time>
      </trkpt>
      <trkpt lat="48.27581" lon="-4.36674">
        <ele>65.7</ele>
        <time>2022-07-12T10:03:28.592Z</time>
      </trkpt>
      <trkpt lat="48.27585" lon="-4.36674">
        <ele>65.69</ele>
        <time>2022-07-12T10:03:38.000Z</time>
      </trkpt>
      <trkpt lat="48.27592" lon="-4.36675">
        <ele>64.94</ele>
        <time>2022-07-12T10:03:47.455Z</time>
      </trkpt>
      <trkpt lat="48.276" lon="-4.36673">
        <ele>63.69</ele>
        <time>2022-07-12T10:03:57.000Z</time>
      </trkpt>
      <trkpt lat="48.27609" lon="-4.36672">
        <ele>63.69</ele>
        <time>2022-07-12T10:04:06.554Z</time>
      </trkpt>
      <trkpt lat="48.27619" lon="-4.36672">
        <ele>59.94</ele>
        <time>2022-07-12T10:04:16.332Z</time>
      </trkpt>
      <trkpt lat="48.27627" lon="-4.36674">
        <ele>59.69</ele>
        <time>2022-07-12T10:04:25.415Z</time>
      </trkpt>
      <trkpt lat="48.27632" lon="-4.36675">
        <ele>59.71</ele>
        <time>2022-07-12T10:04:34.831Z</time>
      </trkpt>
      <trkpt lat="48.27639" lon="-4.36678">
        <ele>58.7</ele>
        <time>2022-07-12T10:04:43.874Z</time>
      </trkpt>
      <trkpt lat="48.27642" lon="-4.36684">
        <ele>56.7</ele>
        <time>2022-07-12T10:04:53.000Z</time>
      </trkpt>
      <trkpt lat="48.27648" lon="-4.367">
        <ele>53.7</ele>
        <time>2022-07-12T10:05:02.595Z</time>
      </trkpt>
      <trkpt lat="48.27653" lon="-4.36715">
        <ele>53.69</ele>
        <time>2022-07-12T10:05:11.695Z</time>
      </trkpt>
      <trkpt lat="48.27654" lon="-4.36723">
        <ele>52.69</ele>
        <time>2022-07-12T10:05:20.734Z</time>
      </trkpt>
      <trkpt lat="48.27656" lon="-4.36733">
        <ele>52.69</ele>
        <time>2022-07-12T10:05:29.855Z</time>
      </trkpt>
      <trkpt lat="48.27657" lon="-4.36747">
        <ele>51.69</ele>
        <time>2022-07-12T10:05:39.293Z</time>
      </trkpt>
      <trkpt lat="48.27657" lon="-4.36757">
        <ele>51.69</ele>
        <time>2022-07-12T10:05:48.551Z</time>
      </trkpt>
      <trkpt lat="48.27659" lon="-4.36774">
        <ele>52.69</ele>
        <time>2022-07-12T10:05:57.596Z</time>
      </trkpt>
      <trkpt lat="48.27662" lon="-4.36789">
        <ele>52.69</ele>
        <time>2022-07-12T10:06:07.000Z</time>
      </trkpt>
      <trkpt lat="48.27662" lon="-4.36798">
        <ele>52.69</ele>
        <time>2022-07-12T10:06:16.782Z</time>
      </trkpt>
      <trkpt lat="48.27662" lon="-4.36807">
        <ele>52.63</ele>
        <time>2022-07-12T10:06:26.000Z</time>
      </trkpt>
      <trkpt lat="48.27663" lon="-4.36819">
        <ele>53.69</ele>
        <time>2022-07-12T10:06:35.331Z</time>
      </trkpt>
      <trkpt lat="48.27664" lon="-4.36838">
        <ele>52.76</ele>
        <time>2022-07-12T10:06:45.000Z</time>
      </trkpt>
      <trkpt lat="48.27661" lon="-4.36851">
        <ele>52.69</ele>
        <time>2022-07-12T10:06:54.218Z</time>
      </trkpt>
      <trkpt lat="48.2766" lon="-4.36858">
        <ele>53.68</ele>
        <time>2022-07-12T10:07:03.873Z</time>
      </trkpt>
      <trkpt lat="48.27659" lon="-4.36868">
        <ele>53.69</ele>
        <time>2022-07-12T10:07:13.435Z</time>
      </trkpt>
      <trkpt lat="48.2766" lon="-4.36882">
        <ele>52.69</ele>
        <time>2022-07-12T10:07:22.778Z</time>
      </trkpt>
      <trkpt lat="48.27659" lon="-4.36892">
        <ele>54.44</ele>
        <time>2022-07-12T10:07:32.000Z</time>
      </trkpt>
      <trkpt lat="48.27659" lon="-4.36894">
        <ele>54.69</ele>
        <time>2022-07-12T10:07:41.219Z</time>
      </trkpt>
      <trkpt lat="48.2766" lon="-4.36892">
        <ele>55.44</ele>
        <time>2022-07-12T10:07:53.378Z</time>
      </trkpt>
      <trkpt lat="48.27664" lon="-4.36886">
        <ele>53.94</ele>
        <time>2022-07-12T10:08:03.000Z</time>
      </trkpt>
      <trkpt lat="48.27666" lon="-4.36875">
        <ele>53.69</ele>
        <time>2022-07-12T10:08:12.820Z</time>
      </trkpt>
      <trkpt lat="48.27666" lon="-4.36868">
        <ele>54.63</ele>
        <time>2022-07-12T10:08:22.000Z</time>
      </trkpt>
      <trkpt lat="48.27673" lon="-4.36854">
        <ele>52.71</ele>
        <time>2022-07-12T10:08:31.015Z</time>
      </trkpt>
      <trkpt lat="48.27672" lon="-4.36846">
        <ele>51.69</ele>
        <time>2022-07-12T10:08:40.352Z</time>
      </trkpt>
      <trkpt lat="48.27672" lon="-4.36835">
        <ele>49.71</ele>
        <time>2022-07-12T10:08:49.631Z</time>
      </trkpt>
      <trkpt lat="48.27675" lon="-4.36824">
        <ele>47.7</ele>
        <time>2022-07-12T10:08:58.872Z</time>
      </trkpt>
      <trkpt lat="48.2768" lon="-4.36815">
        <ele>44.77</ele>
        <time>2022-07-12T10:09:08.833Z</time>
      </trkpt>
      <trkpt lat="48.27687" lon="-4.36804">
        <ele>41.94</ele>
        <time>2022-07-12T10:09:18.098Z</time>
      </trkpt>
      <trkpt lat="48.27692" lon="-4.36796">
        <ele>40.69</ele>
        <time>2022-07-12T10:09:27.594Z</time>
      </trkpt>
      <trkpt lat="48.27696" lon="-4.36783">
        <ele>38.69</ele>
        <time>2022-07-12T10:09:36.915Z</time>
      </trkpt>
      <trkpt lat="48.27698" lon="-4.36774">
        <ele>38.69</ele>
        <time>2022-07-12T10:09:46.433Z</time>
      </trkpt>
      <trkpt lat="48.277" lon="-4.36764">
        <ele>37.69</ele>
        <time>2022-07-12T10:09:55.475Z</time>
      </trkpt>
      <trkpt lat="48.27706" lon="-4.36749">
        <ele>35.7</ele>
        <time>2022-07-12T10:10:04.916Z</time>
      </trkpt>
      <trkpt lat="48.27713" lon="-4.36731">
        <ele>32.76</ele>
        <time>2022-07-12T10:10:14.436Z</time>
      </trkpt>
      <trkpt lat="48.27717" lon="-4.36717">
        <ele>32.69</ele>
        <time>2022-07-12T10:10:23.820Z</time>
      </trkpt>
      <trkpt lat="48.27723" lon="-4.36713">
        <ele>32.69</ele>
        <time>2022-07-12T10:10:32.872Z</time>
      </trkpt>
      <trkpt lat="48.27724" lon="-4.36716">
        <ele>30.71</ele>
        <time>2022-07-12T10:10:42.473Z</time>
      </trkpt>
      <trkpt lat="48.27728" lon="-4.36729">
        <ele>28.7</ele>
        <time>2022-07-12T10:10:51.475Z</time>
      </trkpt>
      <trkpt lat="48.27731" lon="-4.36741">
        <ele>28.68</ele>
        <time>2022-07-12T10:11:00.795Z</time>
      </trkpt>
      <trkpt lat="48.27733" lon="-4.36754">
        <ele>27.69</ele>
        <time>2022-07-12T10:11:10.471Z</time>
      </trkpt>
      <trkpt lat="48.27734" lon="-4.36767">
        <ele>26.69</ele>
        <time>2022-07-12T10:11:19.500Z</time>
      </trkpt>
      <trkpt lat="48.27736" lon="-4.36775">
        <ele>26.69</ele>
        <time>2022-07-12T10:11:29.000Z</time>
      </trkpt>
      <trkpt lat="48.27736" lon="-4.36787">
        <ele>26.69</ele>
        <time>2022-07-12T10:11:38.585Z</time>
      </trkpt>
      <trkpt lat="48.27739" lon="-4.36802">
        <ele>25.51</ele>
        <time>2022-07-12T10:11:48.594Z</time>
      </trkpt>
      <trkpt lat="48.2774" lon="-4.36814">
        <ele>23.94</ele>
        <time>2022-07-12T10:11:58.000Z</time>
      </trkpt>
      <trkpt lat="48.27738" lon="-4.36828">
        <ele>22.94</ele>
        <time>2022-07-12T10:12:07.056Z</time>
      </trkpt>
      <trkpt lat="48.27741" lon="-4.36839">
        <ele>23.69</ele>
        <time>2022-07-12T10:12:16.115Z</time>
      </trkpt>
      <trkpt lat="48.27737" lon="-4.36858">
        <ele>23.71</ele>
        <time>2022-07-12T10:12:25.754Z</time>
      </trkpt>
      <trkpt lat="48.27735" lon="-4.36866">
        <ele>25.44</ele>
        <time>2022-07-12T10:12:35.000Z</time>
      </trkpt>
      <trkpt lat="48.27734" lon="-4.36879">
        <ele>24.69</ele>
        <time>2022-07-12T10:12:44.831Z</time>
      </trkpt>
      <trkpt lat="48.27734" lon="-4.36889">
        <ele>24.69</ele>
        <time>2022-07-12T10:12:55.000Z</time>
      </trkpt>
      <trkpt lat="48.27737" lon="-4.369">
        <ele>24.69</ele>
        <time>2022-07-12T10:13:04.539Z</time>
      </trkpt>
      <trkpt lat="48.27739" lon="-4.36912">
        <ele>24.69</ele>
        <time>2022-07-12T10:13:14.000Z</time>
      </trkpt>
      <trkpt lat="48.27741" lon="-4.36922">
        <ele>24.69</ele>
        <time>2022-07-12T10:13:23.617Z</time>
      </trkpt>
      <trkpt lat="48.27741" lon="-4.36932">
        <ele>24.74</ele>
        <time>2022-07-12T10:13:32.878Z</time>
      </trkpt>
      <trkpt lat="48.27741" lon="-4.36945">
        <ele>23.69</ele>
        <time>2022-07-12T10:13:42.134Z</time>
      </trkpt>
      <trkpt lat="48.27742" lon="-4.36963">
        <ele>22.94</ele>
        <time>2022-07-12T10:13:51.775Z</time>
      </trkpt>
      <trkpt lat="48.27743" lon="-4.36977">
        <ele>23.69</ele>
        <time>2022-07-12T10:14:01.790Z</time>
      </trkpt>
      <trkpt lat="48.27743" lon="-4.36992">
        <ele>24.69</ele>
        <time>2022-07-12T10:14:11.773Z</time>
      </trkpt>
      <trkpt lat="48.27747" lon="-4.37004">
        <ele>25.69</ele>
        <time>2022-07-12T10:14:21.430Z</time>
      </trkpt>
      <trkpt lat="48.27746" lon="-4.37011">
        <ele>25.69</ele>
        <time>2022-07-12T10:14:30.776Z</time>
      </trkpt>
      <trkpt lat="48.27745" lon="-4.37024">
        <ele>25.46</ele>
        <time>2022-07-12T10:14:40.435Z</time>
      </trkpt>
      <trkpt lat="48.27747" lon="-4.37035">
        <ele>25.69</ele>
        <time>2022-07-12T10:14:49.653Z</time>
      </trkpt>
      <trkpt lat="48.2775" lon="-4.37048">
        <ele>25.94</ele>
        <time>2022-07-12T10:14:58.752Z</time>
      </trkpt>
      <trkpt lat="48.27752" lon="-4.37058">
        <ele>25.69</ele>
        <time>2022-07-12T10:15:08.000Z</time>
      </trkpt>
      <trkpt lat="48.27754" lon="-4.37075">
        <ele>25.63</ele>
        <time>2022-07-12T10:15:17.395Z</time>
      </trkpt>
      <trkpt lat="48.27754" lon="-4.37088">
        <ele>23.75</ele>
        <time>2022-07-12T10:15:27.472Z</time>
      </trkpt>
      <trkpt lat="48.27756" lon="-4.37103">
        <ele>21.71</ele>
        <time>2022-07-12T10:15:37.419Z</time>
      </trkpt>
      <trkpt lat="48.27757" lon="-4.37112">
        <ele>20.69</ele>
        <time>2022-07-12T10:15:46.619Z</time>
      </trkpt>
      <trkpt lat="48.27759" lon="-4.3713">
        <ele>20.63</ele>
        <time>2022-07-12T10:15:55.676Z</time>
      </trkpt>
      <trkpt lat="48.27761" lon="-4.37143">
        <ele>18.44</ele>
        <time>2022-07-12T10:16:05.000Z</time>
      </trkpt>
      <trkpt lat="48.27762" lon="-4.37158">
        <ele>17.69</ele>
        <time>2022-07-12T10:16:14.653Z</time>
      </trkpt>
      <trkpt lat="48.27765" lon="-4.37173">
        <ele>18.44</ele>
        <time>2022-07-12T10:16:23.655Z</time>
      </trkpt>
      <trkpt lat="48.27765" lon="-4.37184">
        <ele>16.75</ele>
        <time>2022-07-12T10:16:32.935Z</time>
      </trkpt>
      <trkpt lat="48.27762" lon="-4.37193">
        <ele>16.94</ele>
        <time>2022-07-12T10:16:42.235Z</time>
      </trkpt>
      <trkpt lat="48.27762" lon="-4.37199">
        <ele>16.69</ele>
        <time>2022-07-12T10:16:51.633Z</time>
      </trkpt>
      <trkpt lat="48.27763" lon="-4.37208">
        <ele>15.69</ele>
        <time>2022-07-12T10:17:00.853Z</time>
      </trkpt>
      <trkpt lat="48.27762" lon="-4.37221">
        <ele>13.94</ele>
        <time>2022-07-12T10:17:10.437Z</time>
      </trkpt>
      <trkpt lat="48.27754" lon="-4.37231">
        <ele>13.69</ele>
        <time>2022-07-12T10:17:20.000Z</time>
      </trkpt>
      <trkpt lat="48.27752" lon="-4.37236">
        <ele>11.96</ele>
        <time>2022-07-12T10:17:29.463Z</time>
      </trkpt>
      <trkpt lat="48.27749" lon="-4.37243">
        <ele>9.71</ele>
        <time>2022-07-12T10:17:38.613Z</time>
      </trkpt>
      <trkpt lat="48.27747" lon="-4.37252">
        <ele>9.69</ele>
        <time>2022-07-12T10:17:47.777Z</time>
      </trkpt>
      <trkpt lat="48.27748" lon="-4.37259">
        <ele>9.63</ele>
        <time>2022-07-12T10:17:57.000Z</time>
      </trkpt>
      <trkpt lat="48.27747" lon="-4.37263">
        <ele>8.69</ele>
        <time>2022-07-12T10:18:07.000Z</time>
      </trkpt>
      <trkpt lat="48.27748" lon="-4.37267">
        <ele>8.69</ele>
        <time>2022-07-12T10:18:16.276Z</time>
      </trkpt>
      <trkpt lat="48.27748" lon="-4.37278">
        <ele>7.69</ele>
        <time>2022-07-12T10:18:25.414Z</time>
      </trkpt>
      <trkpt lat="48.27745" lon="-4.37289">
        <ele>6.69</ele>
        <time>2022-07-12T10:18:34.711Z</time>
      </trkpt>
      <trkpt lat="48.27743" lon="-4.37299">
        <ele>6.69</ele>
        <time>2022-07-12T10:18:44.514Z</time>
      </trkpt>
      <trkpt lat="48.27738" lon="-4.37309">
        <ele>6.69</ele>
        <time>2022-07-12T10:18:53.634Z</time>
      </trkpt>
      <trkpt lat="48.27736" lon="-4.37314">
        <ele>5.69</ele>
        <time>2022-07-12T10:19:03.000Z</time>
      </trkpt>
      <trkpt lat="48.27729" lon="-4.37325">
        <ele>4.69</ele>
        <time>2022-07-12T10:19:12.416Z</time>
      </trkpt>
      <trkpt lat="48.27726" lon="-4.37335">
        <ele>4.63</ele>
        <time>2022-07-12T10:19:22.000Z</time>
      </trkpt>
      <trkpt lat="48.27726" lon="-4.37344">
        <ele>5.69</ele>
        <time>2022-07-12T10:19:32.000Z</time>
      </trkpt>
      <trkpt lat="48.27723" lon="-4.37352">
        <ele>5.68</ele>
        <time>2022-07-12T10:19:41.395Z</time>
      </trkpt>
      <trkpt lat="48.27722" lon="-4.37363">
        <ele>5.69</ele>
        <time>2022-07-12T10:19:50.836Z</time>
      </trkpt>
      <trkpt lat="48.27719" lon="-4.37372">
        <ele>5.69</ele>
        <time>2022-07-12T10:20:00.000Z</time>
      </trkpt>
      <trkpt lat="48.27718" lon="-4.37384">
        <ele>5.69</ele>
        <time>2022-07-12T10:20:09.557Z</time>
      </trkpt>
      <trkpt lat="48.27712" lon="-4.37398">
        <ele>5.69</ele>
        <time>2022-07-12T10:20:19.000Z</time>
      </trkpt>
      <trkpt lat="48.27711" lon="-4.37407">
        <ele>6.69</ele>
        <time>2022-07-12T10:20:28.276Z</time>
      </trkpt>
      <trkpt lat="48.27713" lon="-4.3741">
        <ele>6.69</ele>
        <time>2022-07-12T10:20:38.000Z</time>
      </trkpt>
      <trkpt lat="48.27712" lon="-4.37412">
        <ele>6.69</ele>
        <time>2022-07-12T10:20:48.000Z</time>
      </trkpt>
      <trkpt lat="48.27712" lon="-4.37414">
        <ele>6.69</ele>
        <time>2022-07-12T10:20:58.000Z</time>
      </trkpt>
      <trkpt lat="48.27709" lon="-4.37419">
        <ele>7.88</ele>
        <time>2022-07-12T10:21:08.000Z</time>
      </trkpt>
      <trkpt lat="48.27709" lon="-4.3742">
        <ele>9.5</ele>
        <time>2022-07-12T10:21:27.000Z</time>
      </trkpt>
      <trkpt lat="48.27708" lon="-4.37422">
        <ele>10.69</ele>
        <time>2022-07-12T10:21:36.194Z</time>
      </trkpt>
      <trkpt lat="48.27708" lon="-4.37424">
        <ele>11.69</ele>
        <time>2022-07-12T10:21:59.000Z</time>
      </trkpt>
      <trkpt lat="48.27708" lon="-4.37425">
        <ele>11.69</ele>
        <time>2022-07-12T10:22:17.000Z</time>
      </trkpt>
      <trkpt lat="48.27709" lon="-4.37425">
        <ele>11.69</ele>
        <time>2022-07-12T10:22:27.000Z</time>
      </trkpt>
      <trkpt lat="48.2771" lon="-4.37426">
        <ele>13.63</ele>
        <time>2022-07-12T10:22:54.000Z</time>
      </trkpt>
      <trkpt lat="48.27711" lon="-4.37427">
        <ele>15.69</ele>
        <time>2022-07-12T10:23:06.000Z</time>
      </trkpt>
      <trkpt lat="48.27712" lon="-4.37427">
        <ele>16.69</ele>
        <time>2022-07-12T10:23:16.000Z</time>
      </trkpt>
      <trkpt lat="48.27711" lon="-4.37428">
        <ele>18.44</ele>
        <time>2022-07-12T10:23:45.000Z</time>
      </trkpt>
      <trkpt lat="48.2771" lon="-4.3743">
        <ele>18.69</ele>
        <time>2022-07-12T10:23:54.627Z</time>
      </trkpt>
      <trkpt lat="48.27711" lon="-4.37431">
        <ele>19.69</ele>
        <time>2022-07-12T10:25:54.000Z</time>
      </trkpt>
      <trkpt lat="48.27713" lon="-4.37431">
        <ele>19.68</ele>
        <time>2022-07-12T10:26:04.000Z</time>
      </trkpt>
      <trkpt lat="48.27713" lon="-4.37433">
        <ele>19.69</ele>
        <time>2022-07-12T10:26:34.000Z</time>
      </trkpt>
      <trkpt lat="48.27712" lon="-4.3743">
        <ele>19.69</ele>
        <time>2022-07-12T10:26:44.000Z</time>
      </trkpt>
      <trkpt lat="48.27713" lon="-4.37429">
        <ele>19.69</ele>
        <time>2022-07-12T10:27:04.000Z</time>
      </trkpt>
      <trkpt lat="48.27714" lon="-4.3743">
        <ele>18.69</ele>
        <time>2022-07-12T10:27:37.000Z</time>
      </trkpt>
      <trkpt lat="48.27715" lon="-4.37429">
        <ele>17.69</ele>
        <time>2022-07-12T10:27:47.000Z</time>
      </trkpt>
      <trkpt lat="48.27715" lon="-4.3743">
        <ele>17.69</ele>
        <time>2022-07-12T10:28:06.000Z</time>
      </trkpt>
      <trkpt lat="48.27714" lon="-4.37428">
        <ele>17.69</ele>
        <time>2022-07-12T10:30:42.000Z</time>
      </trkpt>
      <trkpt lat="48.27709" lon="-4.37425">
        <ele>15.69</ele>
        <time>2022-07-12T10:30:52.000Z</time>
      </trkpt>
      <trkpt lat="48.27706" lon="-4.37429">
        <ele>14.75</ele>
        <time>2022-07-12T10:31:10.952Z</time>
      </trkpt>
      <trkpt lat="48.27507" lon="-4.3831">
        <ele>12.02</ele>
        <time>2022-07-12T10:46:18.000Z</time>
      </trkpt>
      <trkpt lat="48.2751" lon="-4.38322">
        <ele>15.43</ele>
        <time>2022-07-12T10:46:27.714Z</time>
      </trkpt>
      <trkpt lat="48.27513" lon="-4.38334">
        <ele>18.67</ele>
        <time>2022-07-12T10:46:36.727Z</time>
      </trkpt>
      <trkpt lat="48.27512" lon="-4.38341">
        <ele>16.49</ele>
        <time>2022-07-12T10:46:46.000Z</time>
      </trkpt>
      <trkpt lat="48.27509" lon="-4.38353">
        <ele>15.68</ele>
        <time>2022-07-12T10:46:55.609Z</time>
      </trkpt>
      <trkpt lat="48.27509" lon="-4.38366">
        <ele>14.74</ele>
        <time>2022-07-12T10:47:04.765Z</time>
      </trkpt>
      <trkpt lat="48.27509" lon="-4.38379">
        <ele>14.68</ele>
        <time>2022-07-12T10:47:14.000Z</time>
      </trkpt>
      <trkpt lat="48.27507" lon="-4.3839">
        <ele>14.43</ele>
        <time>2022-07-12T10:47:23.392Z</time>
      </trkpt>
      <trkpt lat="48.27501" lon="-4.38401">
        <ele>14.68</ele>
        <time>2022-07-12T10:47:33.000Z</time>
      </trkpt>
      <trkpt lat="48.27501" lon="-4.38408">
        <ele>15.7</ele>
        <time>2022-07-12T10:47:42.426Z</time>
      </trkpt>
      <trkpt lat="48.27498" lon="-4.38421">
        <ele>14.69</ele>
        <time>2022-07-12T10:47:51.910Z</time>
      </trkpt>
      <trkpt lat="48.27495" lon="-4.38433">
        <ele>13.68</ele>
        <time>2022-07-12T10:48:00.914Z</time>
      </trkpt>
      <trkpt lat="48.27488" lon="-4.38441">
        <ele>13.68</ele>
        <time>2022-07-12T10:48:10.371Z</time>
      </trkpt>
      <trkpt lat="48.27483" lon="-4.38447">
        <ele>18.37</ele>
        <time>2022-07-12T10:48:20.000Z</time>
      </trkpt>
      <trkpt lat="48.27476" lon="-4.38449">
        <ele>17.68</ele>
        <time>2022-07-12T10:48:29.632Z</time>
      </trkpt>
      <trkpt lat="48.27473" lon="-4.38448">
        <ele>21.42</ele>
        <time>2022-07-12T10:48:39.000Z</time>
      </trkpt>
      <trkpt lat="48.27472" lon="-4.38451">
        <ele>22.8</ele>
        <time>2022-07-12T10:48:49.000Z</time>
      </trkpt>
      <trkpt lat="48.27471" lon="-4.38454">
        <ele>22.68</ele>
        <time>2022-07-12T10:48:58.790Z</time>
      </trkpt>
      <trkpt lat="48.27467" lon="-4.38453">
        <ele>24.59</ele>
        <time>2022-07-12T10:49:08.000Z</time>
      </trkpt>
      <trkpt lat="48.2746" lon="-4.38458">
        <ele>26.43</ele>
        <time>2022-07-12T10:49:18.000Z</time>
      </trkpt>
      <trkpt lat="48.27461" lon="-4.38463">
        <ele>26.68</ele>
        <time>2022-07-12T10:49:27.711Z</time>
      </trkpt>
      <trkpt lat="48.2746" lon="-4.38472">
        <ele>26.68</ele>
        <time>2022-07-12T10:49:36.806Z</time>
      </trkpt>
      <trkpt lat="48.27456" lon="-4.38475">
        <ele>26.68</ele>
        <time>2022-07-12T10:49:46.000Z</time>
      </trkpt>
      <trkpt lat="48.2746" lon="-4.38485">
        <ele>25.68</ele>
        <time>2022-07-12T10:49:55.771Z</time>
      </trkpt>
      <trkpt lat="48.27462" lon="-4.38493">
        <ele>25.68</ele>
        <time>2022-07-12T10:50:04.848Z</time>
      </trkpt>
      <trkpt lat="48.27464" lon="-4.38506">
        <ele>24.68</ele>
        <time>2022-07-12T10:50:14.628Z</time>
      </trkpt>
      <trkpt lat="48.2747" lon="-4.38512">
        <ele>22.68</ele>
        <time>2022-07-12T10:50:24.000Z</time>
      </trkpt>
      <trkpt lat="48.27476" lon="-4.38518">
        <ele>21.68</ele>
        <time>2022-07-12T10:50:33.710Z</time>
      </trkpt>
      <trkpt lat="48.2748" lon="-4.38524">
        <ele>20.67</ele>
        <time>2022-07-12T10:50:42.809Z</time>
      </trkpt>
      <trkpt lat="48.27483" lon="-4.38537">
        <ele>19.43</ele>
        <time>2022-07-12T10:50:53.000Z</time>
      </trkpt>
      <trkpt lat="48.27484" lon="-4.3855">
        <ele>19.68</ele>
        <time>2022-07-12T10:51:02.330Z</time>
      </trkpt>
      <trkpt lat="48.27483" lon="-4.3856">
        <ele>17.68</ele>
        <time>2022-07-12T10:51:11.610Z</time>
      </trkpt>
      <trkpt lat="48.2748" lon="-4.38566">
        <ele>14.7</ele>
        <time>2022-07-12T10:51:20.728Z</time>
      </trkpt>
      <trkpt lat="48.27481" lon="-4.38578">
        <ele>12.68</ele>
        <time>2022-07-12T10:51:30.000Z</time>
      </trkpt>
      <trkpt lat="48.27485" lon="-4.38594">
        <ele>11.68</ele>
        <time>2022-07-12T10:51:39.131Z</time>
      </trkpt>
      <trkpt lat="48.27488" lon="-4.38605">
        <ele>11.67</ele>
        <time>2022-07-12T10:51:48.750Z</time>
      </trkpt>
      <trkpt lat="48.2749" lon="-4.38615">
        <ele>11.62</ele>
        <time>2022-07-12T10:51:57.788Z</time>
      </trkpt>
      <trkpt lat="48.27491" lon="-4.38627">
        <ele>10.91</ele>
        <time>2022-07-12T10:52:07.000Z</time>
      </trkpt>
      <trkpt lat="48.27489" lon="-4.38638">
        <ele>9.5</ele>
        <time>2022-07-12T10:52:16.346Z</time>
      </trkpt>
      <trkpt lat="48.27483" lon="-4.38645">
        <ele>8.73</ele>
        <time>2022-07-12T10:52:25.813Z</time>
      </trkpt>
      <trkpt lat="48.27485" lon="-4.38655">
        <ele>8.68</ele>
        <time>2022-07-12T10:52:35.494Z</time>
      </trkpt>
      <trkpt lat="48.27487" lon="-4.38666">
        <ele>8.68</ele>
        <time>2022-07-12T10:52:45.000Z</time>
      </trkpt>
      <trkpt lat="48.27487" lon="-4.38677">
        <ele>8.68</ele>
        <time>2022-07-12T10:52:54.209Z</time>
      </trkpt>
      <trkpt lat="48.27488" lon="-4.38686">
        <ele>7.68</ele>
        <time>2022-07-12T10:53:03.412Z</time>
      </trkpt>
      <trkpt lat="48.27484" lon="-4.38698">
        <ele>7.68</ele>
        <time>2022-07-12T10:53:12.646Z</time>
      </trkpt>
      <trkpt lat="48.27482" lon="-4.38706">
        <ele>6.93</ele>
        <time>2022-07-12T10:53:22.000Z</time>
      </trkpt>
      <trkpt lat="48.27485" lon="-4.38717">
        <ele>5.74</ele>
        <time>2022-07-12T10:53:31.688Z</time>
      </trkpt>
      <trkpt lat="48.27489" lon="-4.38727">
        <ele>4.68</ele>
        <time>2022-07-12T10:53:41.730Z</time>
      </trkpt>
      <trkpt lat="48.27491" lon="-4.38741">
        <ele>4.68</ele>
        <time>2022-07-12T10:53:51.833Z</time>
      </trkpt>
      <trkpt lat="48.2749" lon="-4.38752">
        <ele>3.68</ele>
        <time>2022-07-12T10:54:01.000Z</time>
      </trkpt>
      <trkpt lat="48.27492" lon="-4.38764">
        <ele>2.93</ele>
        <time>2022-07-12T10:54:10.352Z</time>
      </trkpt>
      <trkpt lat="48.27493" lon="-4.3878">
        <ele>1.68</ele>
        <time>2022-07-12T10:54:19.831Z</time>
      </trkpt>
      <trkpt lat="48.27494" lon="-4.38792">
        <ele>2.43</ele>
        <time>2022-07-12T10:54:29.405Z</time>
      </trkpt>
      <trkpt lat="48.27491" lon="-4.38802">
        <ele>2.43</ele>
        <time>2022-07-12T10:54:38.472Z</time>
      </trkpt>
      <trkpt lat="48.27491" lon="-4.38812">
        <ele>3.68</ele>
        <time>2022-07-12T10:54:48.000Z</time>
      </trkpt>
      <trkpt lat="48.2749" lon="-4.38827">
        <ele>3.68</ele>
        <time>2022-07-12T10:54:57.408Z</time>
      </trkpt>
      <trkpt lat="48.27492" lon="-4.38835">
        <ele>3.68</ele>
        <time>2022-07-12T10:55:07.000Z</time>
      </trkpt>
      <trkpt lat="48.27492" lon="-4.38848">
        <ele>3.68</ele>
        <time>2022-07-12T10:55:16.629Z</time>
      </trkpt>
      <trkpt lat="48.27492" lon="-4.38865">
        <ele>2.92</ele>
        <time>2022-07-12T10:55:26.733Z</time>
      </trkpt>
      <trkpt lat="48.2749" lon="-4.38873">
        <ele>1.68</ele>
        <time>2022-07-12T10:55:36.286Z</time>
      </trkpt>
      <trkpt lat="48.2749" lon="-4.38884">
        <ele>0.68</ele>
        <time>2022-07-12T10:55:45.846Z</time>
      </trkpt>
      <trkpt lat="48.2749" lon="-4.38894">
        <ele>0.68</ele>
        <time>2022-07-12T10:55:54.908Z</time>
      </trkpt>
      <trkpt lat="48.2749" lon="-4.38901">
        <ele>-2.26</ele>
        <time>2022-07-12T10:56:04.000Z</time>
      </trkpt>
      <trkpt lat="48.27489" lon="-4.3891">
        <ele>-2.56</ele>
        <time>2022-07-12T10:56:13.207Z</time>
      </trkpt>
      <trkpt lat="48.27485" lon="-4.38924">
        <ele>-2.32</ele>
        <time>2022-07-12T10:56:23.000Z</time>
      </trkpt>
      <trkpt lat="48.27486" lon="-4.38936">
        <ele>-2.32</ele>
        <time>2022-07-12T10:56:33.000Z</time>
      </trkpt>
      <trkpt lat="48.27488" lon="-4.38946">
        <ele>-3.32</ele>
        <time>2022-07-12T10:56:42.167Z</time>
      </trkpt>
      <trkpt lat="48.27485" lon="-4.38958">
        <ele>-5.07</ele>
        <time>2022-07-12T10:56:51.265Z</time>
      </trkpt>
      <trkpt lat="48.27485" lon="-4.38969">
        <ele>-4.32</ele>
        <time>2022-07-12T10:57:00.788Z</time>
      </trkpt>
      <trkpt lat="48.27485" lon="-4.3898">
        <ele>-2.34</ele>
        <time>2022-07-12T10:57:10.000Z</time>
      </trkpt>
      <trkpt lat="48.27489" lon="-4.38994">
        <ele>-0.57</ele>
        <time>2022-07-12T10:57:19.472Z</time>
      </trkpt>
      <trkpt lat="48.27491" lon="-4.39012">
        <ele>2.42</ele>
        <time>2022-07-12T10:57:28.832Z</time>
      </trkpt>
      <trkpt lat="48.2749" lon="-4.39022">
        <ele>1.93</ele>
        <time>2022-07-12T10:57:38.000Z</time>
      </trkpt>
      <trkpt lat="48.2749" lon="-4.3903">
        <ele>3.67</ele>
        <time>2022-07-12T10:57:47.473Z</time>
      </trkpt>
      <trkpt lat="48.27491" lon="-4.3904">
        <ele>4.68</ele>
        <time>2022-07-12T10:57:56.787Z</time>
      </trkpt>
      <trkpt lat="48.27487" lon="-4.3905">
        <ele>5.68</ele>
        <time>2022-07-12T10:58:05.867Z</time>
      </trkpt>
      <trkpt lat="48.27487" lon="-4.39061">
        <ele>7.68</ele>
        <time>2022-07-12T10:58:15.000Z</time>
      </trkpt>
      <trkpt lat="48.27488" lon="-4.39073">
        <ele>10.68</ele>
        <time>2022-07-12T10:58:24.027Z</time>
      </trkpt>
      <trkpt lat="48.27487" lon="-4.39082">
        <ele>10.68</ele>
        <time>2022-07-12T10:58:33.691Z</time>
      </trkpt>
      <trkpt lat="48.27487" lon="-4.39091">
        <ele>10.68</ele>
        <time>2022-07-12T10:58:42.926Z</time>
      </trkpt>
      <trkpt lat="48.27487" lon="-4.39101">
        <ele>9.68</ele>
        <time>2022-07-12T10:58:52.792Z</time>
      </trkpt>
      <trkpt lat="48.27484" lon="-4.39111">
        <ele>9.68</ele>
        <time>2022-07-12T10:59:01.912Z</time>
      </trkpt>
      <trkpt lat="48.27481" lon="-4.39121">
        <ele>9.68</ele>
        <time>2022-07-12T10:59:11.000Z</time>
      </trkpt>
      <trkpt lat="48.2748" lon="-4.39128">
        <ele>9.68</ele>
        <time>2022-07-12T10:59:20.450Z</time>
      </trkpt>
      <trkpt lat="48.2748" lon="-4.39138">
        <ele>10.67</ele>
        <time>2022-07-12T10:59:29.852Z</time>
      </trkpt>
      <trkpt lat="48.27477" lon="-4.39152">
        <ele>9.68</ele>
        <time>2022-07-12T10:59:39.689Z</time>
      </trkpt>
      <trkpt lat="48.27474" lon="-4.39162">
        <ele>10.66</ele>
        <time>2022-07-12T10:59:49.913Z</time>
      </trkpt>
      <trkpt lat="48.27475" lon="-4.39177">
        <ele>11.68</ele>
        <time>2022-07-12T10:59:59.849Z</time>
      </trkpt>
      <trkpt lat="48.27474" lon="-4.39188">
        <ele>14.43</ele>
        <time>2022-07-12T11:00:10.000Z</time>
      </trkpt>
      <trkpt lat="48.27474" lon="-4.392">
        <ele>15.68</ele>
        <time>2022-07-12T11:00:20.000Z</time>
      </trkpt>
      <trkpt lat="48.27473" lon="-4.39202">
        <ele>15.68</ele>
        <time>2022-07-12T11:00:31.000Z</time>
      </trkpt>
      <trkpt lat="48.27473" lon="-4.39205">
        <ele>16.61</ele>
        <time>2022-07-12T11:00:52.000Z</time>
      </trkpt>
      <trkpt lat="48.27473" lon="-4.3921">
        <ele>16.67</ele>
        <time>2022-07-12T11:01:02.000Z</time>
      </trkpt>
      <trkpt lat="48.27473" lon="-4.39212">
        <ele>16.68</ele>
        <time>2022-07-12T11:01:11.426Z</time>
      </trkpt>
      <trkpt lat="48.27472" lon="-4.39213">
        <ele>16.68</ele>
        <time>2022-07-12T11:01:22.447Z</time>
      </trkpt>
      <trkpt lat="48.27469" lon="-4.39218">
        <ele>16.67</ele>
        <time>2022-07-12T11:01:31.928Z</time>
      </trkpt>
      <trkpt lat="48.27469" lon="-4.39232">
        <ele>16.68</ele>
        <time>2022-07-12T11:01:41.000Z</time>
      </trkpt>
      <trkpt lat="48.27469" lon="-4.39242">
        <ele>16.68</ele>
        <time>2022-07-12T11:01:50.707Z</time>
      </trkpt>
      <trkpt lat="48.27468" lon="-4.39254">
        <ele>16.68</ele>
        <time>2022-07-12T11:02:00.253Z</time>
      </trkpt>
      <trkpt lat="48.27466" lon="-4.39265">
        <ele>15.69</ele>
        <time>2022-07-12T11:02:09.809Z</time>
      </trkpt>
      <trkpt lat="48.27466" lon="-4.39276">
        <ele>18.41</ele>
        <time>2022-07-12T11:02:20.000Z</time>
      </trkpt>
      <trkpt lat="48.27466" lon="-4.39285">
        <ele>17.68</ele>
        <time>2022-07-12T11:02:29.512Z</time>
      </trkpt>
      <trkpt lat="48.27462" lon="-4.39295">
        <ele>15.93</ele>
        <time>2022-07-12T11:02:39.249Z</time>
      </trkpt>
      <trkpt lat="48.27462" lon="-4.39308">
        <ele>15.69</ele>
        <time>2022-07-12T11:02:48.409Z</time>
      </trkpt>
      <trkpt lat="48.27458" lon="-4.39319">
        <ele>12.33</ele>
        <time>2022-07-12T11:02:58.000Z</time>
      </trkpt>
      <trkpt lat="48.27462" lon="-4.3933">
        <ele>17.68</ele>
        <time>2022-07-12T11:03:07.513Z</time>
      </trkpt>
      <trkpt lat="48.27455" lon="-4.39338">
        <ele>14.74</ele>
        <time>2022-07-12T11:03:17.000Z</time>
      </trkpt>
      <trkpt lat="48.27451" lon="-4.39353">
        <ele>14.68</ele>
        <time>2022-07-12T11:03:26.811Z</time>
      </trkpt>
      <trkpt lat="48.27456" lon="-4.39368">
        <ele>13.74</ele>
        <time>2022-07-12T11:03:36.207Z</time>
      </trkpt>
      <trkpt lat="48.27458" lon="-4.3938">
        <ele>15.42</ele>
        <time>2022-07-12T11:03:46.000Z</time>
      </trkpt>
      <trkpt lat="48.27457" lon="-4.39386">
        <ele>15.68</ele>
        <time>2022-07-12T11:03:56.000Z</time>
      </trkpt>
      <trkpt lat="48.27456" lon="-4.39391">
        <ele>16.66</ele>
        <time>2022-07-12T11:04:05.610Z</time>
      </trkpt>
      <trkpt lat="48.27457" lon="-4.394">
        <ele>16.74</ele>
        <time>2022-07-12T11:04:14.848Z</time>
      </trkpt>
      <trkpt lat="48.27454" lon="-4.39408">
        <ele>16.74</ele>
        <time>2022-07-12T11:04:23.908Z</time>
      </trkpt>
      <trkpt lat="48.2745" lon="-4.39416">
        <ele>14.92</ele>
        <time>2022-07-12T11:04:33.051Z</time>
      </trkpt>
      <trkpt lat="48.27452" lon="-4.3943">
        <ele>14.61</ele>
        <time>2022-07-12T11:04:42.708Z</time>
      </trkpt>
      <trkpt lat="48.27452" lon="-4.39439">
        <ele>14.67</ele>
        <time>2022-07-12T11:04:52.468Z</time>
      </trkpt>
      <trkpt lat="48.27453" lon="-4.39453">
        <ele>14.67</ele>
        <time>2022-07-12T11:05:01.788Z</time>
      </trkpt>
      <trkpt lat="48.27454" lon="-4.39468">
        <ele>14.67</ele>
        <time>2022-07-12T11:05:10.869Z</time>
      </trkpt>
      <trkpt lat="48.27455" lon="-4.39484">
        <ele>14.67</ele>
        <time>2022-07-12T11:05:20.339Z</time>
      </trkpt>
      <trkpt lat="48.27457" lon="-4.39497">
        <ele>14.67</ele>
        <time>2022-07-12T11:05:29.904Z</time>
      </trkpt>
      <trkpt lat="48.27459" lon="-4.3951">
        <ele>14.67</ele>
        <time>2022-07-12T11:05:39.004Z</time>
      </trkpt>
      <trkpt lat="48.27459" lon="-4.395">
        <ele>14.67</ele>
        <time>2022-07-12T11:05:48.156Z</time>
      </trkpt>
      <trkpt lat="48.27455" lon="-4.39752">
        <ele>25.65</ele>
        <time>2022-07-12T11:09:17.000Z</time>
      </trkpt>
      <trkpt lat="48.27458" lon="-4.39752">
        <ele>25.43</ele>
        <time>2022-07-12T11:09:26.756Z</time>
      </trkpt>
      <trkpt lat="48.27461" lon="-4.39759">
        <ele>17.7</ele>
        <time>2022-07-12T11:09:36.000Z</time>
      </trkpt>
      <trkpt lat="48.27458" lon="-4.39765">
        <ele>15.69</ele>
        <time>2022-07-12T11:09:45.481Z</time>
      </trkpt>
      <trkpt lat="48.27455" lon="-4.39777">
        <ele>11.73</ele>
        <time>2022-07-12T11:09:55.000Z</time>
      </trkpt>
      <trkpt lat="48.27454" lon="-4.39787">
        <ele>11.44</ele>
        <time>2022-07-12T11:10:04.098Z</time>
      </trkpt>
      <trkpt lat="48.27455" lon="-4.39801">
        <ele>10.67</ele>
        <time>2022-07-12T11:10:13.457Z</time>
      </trkpt>
      <trkpt lat="48.27457" lon="-4.3981">
        <ele>9.67</ele>
        <time>2022-07-12T11:10:23.000Z</time>
      </trkpt>
      <trkpt lat="48.27459" lon="-4.39815">
        <ele>10.61</ele>
        <time>2022-07-12T11:10:32.653Z</time>
      </trkpt>
      <trkpt lat="48.27459" lon="-4.39822">
        <ele>9.67</ele>
        <time>2022-07-12T11:10:42.414Z</time>
      </trkpt>
      <trkpt lat="48.27455" lon="-4.39836">
        <ele>5.92</ele>
        <time>2022-07-12T11:10:52.000Z</time>
      </trkpt>
      <trkpt lat="48.27459" lon="-4.3985">
        <ele>5.41</ele>
        <time>2022-07-12T11:11:01.598Z</time>
      </trkpt>
      <trkpt lat="48.27468" lon="-4.39854">
        <ele>7.67</ele>
        <time>2022-07-12T11:11:10.937Z</time>
      </trkpt>
      <trkpt lat="48.27469" lon="-4.39868">
        <ele>9.31</ele>
        <time>2022-07-12T11:11:20.000Z</time>
      </trkpt>
      <trkpt lat="48.27469" lon="-4.39888">
        <ele>9.44</ele>
        <time>2022-07-12T11:11:29.355Z</time>
      </trkpt>
      <trkpt lat="48.27467" lon="-4.39901">
        <ele>9.66</ele>
        <time>2022-07-12T11:11:38.655Z</time>
      </trkpt>
      <trkpt lat="48.27471" lon="-4.39908">
        <ele>10.66</ele>
        <time>2022-07-12T11:11:47.753Z</time>
      </trkpt>
      <trkpt lat="48.27473" lon="-4.39918">
        <ele>9.67</ele>
        <time>2022-07-12T11:11:56.773Z</time>
      </trkpt>
      <trkpt lat="48.27475" lon="-4.39929">
        <ele>10.67</ele>
        <time>2022-07-12T11:12:06.855Z</time>
      </trkpt>
      <trkpt lat="48.27474" lon="-4.39943">
        <ele>10.67</ele>
        <time>2022-07-12T11:12:16.634Z</time>
      </trkpt>
      <trkpt lat="48.27475" lon="-4.39955">
        <ele>10.67</ele>
        <time>2022-07-12T11:12:26.818Z</time>
      </trkpt>
      <trkpt lat="48.27479" lon="-4.39967">
        <ele>10.73</ele>
        <time>2022-07-12T11:12:36.000Z</time>
      </trkpt>
      <trkpt lat="48.27481" lon="-4.39979">
        <ele>9.67</ele>
        <time>2022-07-12T11:12:45.773Z</time>
      </trkpt>
      <trkpt lat="48.2748" lon="-4.39994">
        <ele>8.92</ele>
        <time>2022-07-12T11:12:55.854Z</time>
      </trkpt>
      <trkpt lat="48.27483" lon="-4.40007">
        <ele>8.67</ele>
        <time>2022-07-12T11:13:05.799Z</time>
      </trkpt>
      <trkpt lat="48.27482" lon="-4.40019">
        <ele>8.67</ele>
        <time>2022-07-12T11:13:15.000Z</time>
      </trkpt>
      <trkpt lat="48.27483" lon="-4.40025">
        <ele>8.67</ele>
        <time>2022-07-12T11:13:24.819Z</time>
      </trkpt>
      <trkpt lat="48.27486" lon="-4.40034">
        <ele>9.67</ele>
        <time>2022-07-12T11:13:33.879Z</time>
      </trkpt>
      <trkpt lat="48.2749" lon="-4.40046">
        <ele>11.61</ele>
        <time>2022-07-12T11:13:43.000Z</time>
      </trkpt>
      <trkpt lat="48.27488" lon="-4.4006">
        <ele>5.95</ele>
        <time>2022-07-12T11:13:52.257Z</time>
      </trkpt>
      <trkpt lat="48.27489" lon="-4.40075">
        <ele>5.92</ele>
        <time>2022-07-12T11:14:02.000Z</time>
      </trkpt>
      <trkpt lat="48.27489" lon="-4.40085">
        <ele>3.67</ele>
        <time>2022-07-12T11:14:11.473Z</time>
      </trkpt>
      <trkpt lat="48.27486" lon="-4.40094">
        <ele>4.67</ele>
        <time>2022-07-12T11:14:21.000Z</time>
      </trkpt>
      <trkpt lat="48.27483" lon="-4.40099">
        <ele>5.67</ele>
        <time>2022-07-12T11:14:30.874Z</time>
      </trkpt>
      <trkpt lat="48.27483" lon="-4.40105">
        <ele>6.42</ele>
        <time>2022-07-12T11:14:40.000Z</time>
      </trkpt>
      <trkpt lat="48.27482" lon="-4.40113">
        <ele>6.67</ele>
        <time>2022-07-12T11:14:50.396Z</time>
      </trkpt>
      <trkpt lat="48.27483" lon="-4.40119">
        <ele>6.67</ele>
        <time>2022-07-12T11:14:59.452Z</time>
      </trkpt>
      <trkpt lat="48.27486" lon="-4.40127">
        <ele>7.67</ele>
        <time>2022-07-12T11:15:08.757Z</time>
      </trkpt>
      <trkpt lat="48.27488" lon="-4.40141">
        <ele>7.67</ele>
        <time>2022-07-12T11:15:18.476Z</time>
      </trkpt>
      <trkpt lat="48.27491" lon="-4.40153">
        <ele>7.67</ele>
        <time>2022-07-12T11:15:28.000Z</time>
      </trkpt>
      <trkpt lat="48.27494" lon="-4.40162">
        <ele>6.67</ele>
        <time>2022-07-12T11:15:38.000Z</time>
      </trkpt>
      <trkpt lat="48.27498" lon="-4.40165">
        <ele>6.67</ele>
        <time>2022-07-12T11:15:47.320Z</time>
      </trkpt>
      <trkpt lat="48.275" lon="-4.40175">
        <ele>5.68</ele>
        <time>2022-07-12T11:15:57.000Z</time>
      </trkpt>
      <trkpt lat="48.27503" lon="-4.40182">
        <ele>4.67</ele>
        <time>2022-07-12T11:16:06.776Z</time>
      </trkpt>
      <trkpt lat="48.275" lon="-4.40195">
        <ele>2.92</ele>
        <time>2022-07-12T11:16:16.434Z</time>
      </trkpt>
      <trkpt lat="48.27502" lon="-4.402">
        <ele>2.67</ele>
        <time>2022-07-12T11:16:26.000Z</time>
      </trkpt>
      <trkpt lat="48.27502" lon="-4.40202">
        <ele>0.79</ele>
        <time>2022-07-12T11:16:38.557Z</time>
      </trkpt>
      <trkpt lat="48.27505" lon="-4.40216">
        <ele>0.67</ele>
        <time>2022-07-12T11:16:47.933Z</time>
      </trkpt>
      <trkpt lat="48.27505" lon="-4.40229">
        <ele>0.48</ele>
        <time>2022-07-12T11:16:57.515Z</time>
      </trkpt>
      <trkpt lat="48.27505" lon="-4.40241">
        <ele>1.67</ele>
        <time>2022-07-12T11:17:07.000Z</time>
      </trkpt>
      <trkpt lat="48.27507" lon="-4.40252">
        <ele>2.66</ele>
        <time>2022-07-12T11:17:16.877Z</time>
      </trkpt>
      <trkpt lat="48.2751" lon="-4.40261">
        <ele>3.67</ele>
        <time>2022-07-12T11:17:25.895Z</time>
      </trkpt>
      <trkpt lat="48.2751" lon="-4.40275">
        <ele>3.86</ele>
        <time>2022-07-12T11:17:35.000Z</time>
      </trkpt>
      <trkpt lat="48.27511" lon="-4.40291">
        <ele>3.67</ele>
        <time>2022-07-12T11:17:44.276Z</time>
      </trkpt>
      <trkpt lat="48.27513" lon="-4.403">
        <ele>4.67</ele>
        <time>2022-07-12T11:17:53.634Z</time>
      </trkpt>
      <trkpt lat="48.27514" lon="-4.4031">
        <ele>5.67</ele>
        <time>2022-07-12T11:18:03.893Z</time>
      </trkpt>
      <trkpt lat="48.27518" lon="-4.4032">
        <ele>6.67</ele>
        <time>2022-07-12T11:18:13.000Z</time>
      </trkpt>
      <trkpt lat="48.27519" lon="-4.40331">
        <ele>6.67</ele>
        <time>2022-07-12T11:18:22.556Z</time>
      </trkpt>
      <trkpt lat="48.27518" lon="-4.40339">
        <ele>7.42</ele>
        <time>2022-07-12T11:18:32.420Z</time>
      </trkpt>
      <trkpt lat="48.27518" lon="-4.40352">
        <ele>8.65</ele>
        <time>2022-07-12T11:18:41.438Z</time>
      </trkpt>
      <trkpt lat="48.27517" lon="-4.40362">
        <ele>8.67</ele>
        <time>2022-07-12T11:18:50.554Z</time>
      </trkpt>
      <trkpt lat="48.27518" lon="-4.40369">
        <ele>8.67</ele>
        <time>2022-07-12T11:19:00.100Z</time>
      </trkpt>
      <trkpt lat="48.27517" lon="-4.40381">
        <ele>8.67</ele>
        <time>2022-07-12T11:19:09.582Z</time>
      </trkpt>
      <trkpt lat="48.27511" lon="-4.40394">
        <ele>6.67</ele>
        <time>2022-07-12T11:19:19.000Z</time>
      </trkpt>
      <trkpt lat="48.27514" lon="-4.40403">
        <ele>6.67</ele>
        <time>2022-07-12T11:19:28.837Z</time>
      </trkpt>
      <trkpt lat="48.2752" lon="-4.40416">
        <ele>7.67</ele>
        <time>2022-07-12T11:19:37.878Z</time>
      </trkpt>
      <trkpt lat="48.27525" lon="-4.40423">
        <ele>9.66</ele>
        <time>2022-07-12T11:19:47.297Z</time>
      </trkpt>
      <trkpt lat="48.27527" lon="-4.40436">
        <ele>8.67</ele>
        <time>2022-07-12T11:19:56.436Z</time>
      </trkpt>
      <trkpt lat="48.27532" lon="-4.40448">
        <ele>9.35</ele>
        <time>2022-07-12T11:20:06.053Z</time>
      </trkpt>
      <trkpt lat="48.27531" lon="-4.40461">
        <ele>8.67</ele>
        <time>2022-07-12T11:20:15.137Z</time>
      </trkpt>
      <trkpt lat="48.2753" lon="-4.4047">
        <ele>9.67</ele>
        <time>2022-07-12T11:20:25.000Z</time>
      </trkpt>
      <trkpt lat="48.2753" lon="-4.40479">
        <ele>8.67</ele>
        <time>2022-07-12T11:20:34.136Z</time>
      </trkpt>
      <trkpt lat="48.27529" lon="-4.40491">
        <ele>7.67</ele>
        <time>2022-07-12T11:20:43.553Z</time>
      </trkpt>
      <trkpt lat="48.27528" lon="-4.40502">
        <ele>7.67</ele>
        <time>2022-07-12T11:20:53.000Z</time>
      </trkpt>
      <trkpt lat="48.2753" lon="-4.40514">
        <ele>7.65</ele>
        <time>2022-07-12T11:21:02.598Z</time>
      </trkpt>
      <trkpt lat="48.2753" lon="-4.40527">
        <ele>9.66</ele>
        <time>2022-07-12T11:21:11.607Z</time>
      </trkpt>
      <trkpt lat="48.27528" lon="-4.40534">
        <ele>9.67</ele>
        <time>2022-07-12T11:21:21.000Z</time>
      </trkpt>
      <trkpt lat="48.27529" lon="-4.40542">
        <ele>10.42</ele>
        <time>2022-07-12T11:21:31.000Z</time>
      </trkpt>
      <trkpt lat="48.27528" lon="-4.4055">
        <ele>11.67</ele>
        <time>2022-07-12T11:21:40.837Z</time>
      </trkpt>
      <trkpt lat="48.27526" lon="-4.40557">
        <ele>12.67</ele>
        <time>2022-07-12T11:21:51.000Z</time>
      </trkpt>
      <trkpt lat="48.27524" lon="-4.40567">
        <ele>15.65</ele>
        <time>2022-07-12T11:22:00.432Z</time>
      </trkpt>
      <trkpt lat="48.27523" lon="-4.40574">
        <ele>16.66</ele>
        <time>2022-07-12T11:22:09.476Z</time>
      </trkpt>
      <trkpt lat="48.27521" lon="-4.4058">
        <ele>17.42</ele>
        <time>2022-07-12T11:22:18.655Z</time>
      </trkpt>
      <trkpt lat="48.2752" lon="-4.40587">
        <ele>16.67</ele>
        <time>2022-07-12T11:22:27.856Z</time>
      </trkpt>
      <trkpt lat="48.2752" lon="-4.40594">
        <ele>16.67</ele>
        <time>2022-07-12T11:22:37.236Z</time>
      </trkpt>
      <trkpt lat="48.27524" lon="-4.40609">
        <ele>17.66</ele>
        <time>2022-07-12T11:22:46.514Z</time>
      </trkpt>
      <trkpt lat="48.27529" lon="-4.40622">
        <ele>18.67</ele>
        <time>2022-07-12T11:22:56.000Z</time>
      </trkpt>
      <trkpt lat="48.27531" lon="-4.40627">
        <ele>20.65</ele>
        <time>2022-07-12T11:23:05.539Z</time>
      </trkpt>
      <trkpt lat="48.27533" lon="-4.40632">
        <ele>20.67</ele>
        <time>2022-07-12T11:23:14.702Z</time>
      </trkpt>
      <trkpt lat="48.27534" lon="-4.40642">
        <ele>20.67</ele>
        <time>2022-07-12T11:23:24.014Z</time>
      </trkpt>
      <trkpt lat="48.27532" lon="-4.40653">
        <ele>18.67</ele>
        <time>2022-07-12T11:23:33.801Z</time>
      </trkpt>
      <trkpt lat="48.27531" lon="-4.40669">
        <ele>17.67</ele>
        <time>2022-07-12T11:23:43.615Z</time>
      </trkpt>
      <trkpt lat="48.27534" lon="-4.40679">
        <ele>17.66</ele>
        <time>2022-07-12T11:23:52.657Z</time>
      </trkpt>
      <trkpt lat="48.27535" lon="-4.40691">
        <ele>16.68</ele>
        <time>2022-07-12T11:24:01.739Z</time>
      </trkpt>
      <trkpt lat="48.27535" lon="-4.40702">
        <ele>16.68</ele>
        <time>2022-07-12T11:24:11.054Z</time>
      </trkpt>
      <trkpt lat="48.27537" lon="-4.40715">
        <ele>15.73</ele>
        <time>2022-07-12T11:24:20.432Z</time>
      </trkpt>
      <trkpt lat="48.27536" lon="-4.40728">
        <ele>14.68</ele>
        <time>2022-07-12T11:24:29.473Z</time>
      </trkpt>
      <trkpt lat="48.27535" lon="-4.40739">
        <ele>14.73</ele>
        <time>2022-07-12T11:24:39.000Z</time>
      </trkpt>
      <trkpt lat="48.27535" lon="-4.40742">
        <ele>14.65</ele>
        <time>2022-07-12T11:24:49.000Z</time>
      </trkpt>
      <trkpt lat="48.27535" lon="-4.40755">
        <ele>12.61</ele>
        <time>2022-07-12T11:24:59.000Z</time>
      </trkpt>
      <trkpt lat="48.27533" lon="-4.40765">
        <ele>11.66</ele>
        <time>2022-07-12T11:25:09.000Z</time>
      </trkpt>
      <trkpt lat="48.27532" lon="-4.40776">
        <ele>10.67</ele>
        <time>2022-07-12T11:25:18.736Z</time>
      </trkpt>
      <trkpt lat="48.27532" lon="-4.40784">
        <ele>9.68</ele>
        <time>2022-07-12T11:25:27.832Z</time>
      </trkpt>
      <trkpt lat="48.27532" lon="-4.40792">
        <ele>9.66</ele>
        <time>2022-07-12T11:25:37.535Z</time>
      </trkpt>
      <trkpt lat="48.27534" lon="-4.40808">
        <ele>9.66</ele>
        <time>2022-07-12T11:25:46.679Z</time>
      </trkpt>
      <trkpt lat="48.27534" lon="-4.40821">
        <ele>8.91</ele>
        <time>2022-07-12T11:25:56.000Z</time>
      </trkpt>
      <trkpt lat="48.27533" lon="-4.40832">
        <ele>8.67</ele>
        <time>2022-07-12T11:26:05.351Z</time>
      </trkpt>
      <trkpt lat="48.27533" lon="-4.40851">
        <ele>7.68</ele>
        <time>2022-07-12T11:26:14.657Z</time>
      </trkpt>
      <trkpt lat="48.27535" lon="-4.40863">
        <ele>7.66</ele>
        <time>2022-07-12T11:26:23.793Z</time>
      </trkpt>
      <trkpt lat="48.27537" lon="-4.40876">
        <ele>6.72</ele>
        <time>2022-07-12T11:26:33.000Z</time>
      </trkpt>
      <trkpt lat="48.27538" lon="-4.4089">
        <ele>7.6</ele>
        <time>2022-07-12T11:26:43.000Z</time>
      </trkpt>
      <trkpt lat="48.27539" lon="-4.409">
        <ele>5.73</ele>
        <time>2022-07-12T11:26:52.716Z</time>
      </trkpt>
      <trkpt lat="48.2754" lon="-4.40914">
        <ele>4.66</ele>
        <time>2022-07-12T11:27:01.758Z</time>
      </trkpt>
      <trkpt lat="48.27541" lon="-4.4092">
        <ele>5.66</ele>
        <time>2022-07-12T11:27:11.000Z</time>
      </trkpt>
      <trkpt lat="48.27545" lon="-4.40928">
        <ele>5.66</ele>
        <time>2022-07-12T11:27:20.417Z</time>
      </trkpt>
      <trkpt lat="48.27551" lon="-4.40936">
        <ele>3.66</ele>
        <time>2022-07-12T11:27:30.639Z</time>
      </trkpt>
      <trkpt lat="48.27554" lon="-4.40952">
        <ele>2.48</ele>
        <time>2022-07-12T11:27:39.716Z</time>
      </trkpt>
      <trkpt lat="48.27555" lon="-4.40965">
        <ele>1.66</ele>
        <time>2022-07-12T11:27:49.437Z</time>
      </trkpt>
      <trkpt lat="48.27559" lon="-4.40974">
        <ele>-0.09</ele>
        <time>2022-07-12T11:27:59.000Z</time>
      </trkpt>
      <trkpt lat="48.2756" lon="-4.40977">
        <ele>1.66</ele>
        <time>2022-07-12T11:28:09.000Z</time>
      </trkpt>
      <trkpt lat="48.27562" lon="-4.4098">
        <ele>0.91</ele>
        <time>2022-07-12T11:28:19.000Z</time>
      </trkpt>
      <trkpt lat="48.27569" lon="-4.40985">
        <ele>2.41</ele>
        <time>2022-07-12T11:28:28.394Z</time>
      </trkpt>
      <trkpt lat="48.2758" lon="-4.4099">
        <ele>3.65</ele>
        <time>2022-07-12T11:28:37.898Z</time>
      </trkpt>
      <trkpt lat="48.27587" lon="-4.40995">
        <ele>2.66</ele>
        <time>2022-07-12T11:28:46.940Z</time>
      </trkpt>
      <trkpt lat="48.27595" lon="-4.41002">
        <ele>1.66</ele>
        <time>2022-07-12T11:28:56.000Z</time>
      </trkpt>
      <trkpt lat="48.27602" lon="-4.41002">
        <ele>1.66</ele>
        <time>2022-07-12T11:29:06.331Z</time>
      </trkpt>
      <trkpt lat="48.276" lon="-4.40996">
        <ele>2.66</ele>
        <time>2022-07-12T11:29:15.776Z</time>
      </trkpt>
      <trkpt lat="48.276" lon="-4.40989">
        <ele>3.6</ele>
        <time>2022-07-12T11:29:24.939Z</time>
      </trkpt>
      <trkpt lat="48.276" lon="-4.40985">
        <ele>2.67</ele>
        <time>2022-07-12T11:29:34.000Z</time>
      </trkpt>
      <trkpt lat="48.27599" lon="-4.40983">
        <ele>1.68</ele>
        <time>2022-07-12T11:29:51.775Z</time>
      </trkpt>
      <trkpt lat="48.27596" lon="-4.40977">
        <ele>-0.27</ele>
        <time>2022-07-12T11:30:00.897Z</time>
      </trkpt>
      <trkpt lat="48.27591" lon="-4.40971">
        <ele>-0.34</ele>
        <time>2022-07-12T11:30:10.000Z</time>
      </trkpt>
      <trkpt lat="48.2759" lon="-4.40973">
        <ele>0.6</ele>
        <time>2022-07-12T11:30:20.000Z</time>
      </trkpt>
      <trkpt lat="48.27589" lon="-4.40974">
        <ele>1.66</ele>
        <time>2022-07-12T11:30:30.000Z</time>
      </trkpt>
      <trkpt lat="48.27589" lon="-4.40972">
        <ele>0.66</ele>
        <time>2022-07-12T11:30:39.461Z</time>
      </trkpt>
      <trkpt lat="48.27589" lon="-4.4097">
        <ele>-0.09</ele>
        <time>2022-07-12T11:31:50.000Z</time>
      </trkpt>
      <trkpt lat="48.27587" lon="-4.4097">
        <ele>-0.34</ele>
        <time>2022-07-12T11:33:57.000Z</time>
      </trkpt>
      <trkpt lat="48.27586" lon="-4.40971">
        <ele>-0.34</ele>
        <time>2022-07-12T11:34:07.000Z</time>
      </trkpt>
      <trkpt lat="48.27585" lon="-4.40971">
        <ele>-0.34</ele>
        <time>2022-07-12T11:36:05.000Z</time>
      </trkpt>
      <trkpt lat="48.27583" lon="-4.40971">
        <ele>-0.34</ele>
        <time>2022-07-12T11:36:15.000Z</time>
      </trkpt>
      <trkpt lat="48.27582" lon="-4.40971">
        <ele>-0.34</ele>
        <time>2022-07-12T11:36:45.000Z</time>
      </trkpt>
      <trkpt lat="48.27583" lon="-4.4097">
        <ele>0.16</ele>
        <time>2022-07-12T11:43:28.000Z</time>
      </trkpt>
      <trkpt lat="48.27583" lon="-4.40971">
        <ele>0.66</ele>
        <time>2022-07-12T11:43:46.000Z</time>
      </trkpt>
      <trkpt lat="48.27582" lon="-4.40972">
        <ele>-0.34</ele>
        <time>2022-07-12T11:43:56.000Z</time>
      </trkpt>
      <trkpt lat="48.27582" lon="-4.4097">
        <ele>-0.34</ele>
        <time>2022-07-12T11:48:06.000Z</time>
      </trkpt>
      <trkpt lat="48.27583" lon="-4.40968">
        <ele>-0.34</ele>
        <time>2022-07-12T11:48:33.000Z</time>
      </trkpt>
      <trkpt lat="48.27584" lon="-4.40971">
        <ele>-1.34</ele>
        <time>2022-07-12T11:48:43.000Z</time>
      </trkpt>
      <trkpt lat="48.27585" lon="-4.40971">
        <ele>-0.59</ele>
        <time>2022-07-12T11:53:40.000Z</time>
      </trkpt>
      <trkpt lat="48.27587" lon="-4.40971">
        <ele>-0.34</ele>
        <time>2022-07-12T11:53:50.000Z</time>
      </trkpt>
      <trkpt lat="48.27587" lon="-4.4097">
        <ele>-2.34</ele>
        <time>2022-07-12T11:54:00.000Z</time>
      </trkpt>
      <trkpt lat="48.27589" lon="-4.40969">
        <ele>-2.34</ele>
        <time>2022-07-12T11:57:23.000Z</time>
      </trkpt>
      <trkpt lat="48.27591" lon="-4.40967">
        <ele>-2.1</ele>
        <time>2022-07-12T11:57:32.919Z</time>
      </trkpt>
      <trkpt lat="48.27594" lon="-4.40967">
        <ele>-1.34</ele>
        <time>2022-07-12T11:57:43.000Z</time>
      </trkpt>
      <trkpt lat="48.27595" lon="-4.40966">
        <ele>0.6</ele>
        <time>2022-07-12T11:58:00.000Z</time>
      </trkpt>
      <trkpt lat="48.27593" lon="-4.4097">
        <ele>0.99</ele>
        <time>2022-07-12T11:58:10.000Z</time>
      </trkpt>
      <trkpt lat="48.27587" lon="-4.40971">
        <ele>0.66</ele>
        <time>2022-07-12T11:58:19.680Z</time>
      </trkpt>
      <trkpt lat="48.27587" lon="-4.40969">
        <ele>0.66</ele>
        <time>2022-07-12T11:58:32.000Z</time>
      </trkpt>
      <trkpt lat="48.27587" lon="-4.40967">
        <ele>0.66</ele>
        <time>2022-07-12T11:58:42.000Z</time>
      </trkpt>
      <trkpt lat="48.27587" lon="-4.40969">
        <ele>0.66</ele>
        <time>2022-07-12T12:00:54.000Z</time>
      </trkpt>
      <trkpt lat="48.27586" lon="-4.4097">
        <ele>0.85</ele>
        <time>2022-07-12T12:03:54.000Z</time>
      </trkpt>
      <trkpt lat="48.27586" lon="-4.40971">
        <ele>1.66</ele>
        <time>2022-07-12T12:04:04.000Z</time>
      </trkpt>
      <trkpt lat="48.27586" lon="-4.4097">
        <ele>0.72</ele>
        <time>2022-07-12T12:05:06.893Z</time>
      </trkpt>
      <trkpt lat="48.27582" lon="-4.4097">
        <ele>-1.09</ele>
        <time>2022-07-12T12:05:16.000Z</time>
      </trkpt>
      <trkpt lat="48.27577" lon="-4.4097">
        <ele>-3.34</ele>
        <time>2022-07-12T12:05:25.501Z</time>
      </trkpt>
      <trkpt lat="48.27574" lon="-4.40973">
        <ele>-3.34</ele>
        <time>2022-07-12T12:05:34.856Z</time>
      </trkpt>
      <trkpt lat="48.27564" lon="-4.40981">
        <ele>-3.34</ele>
        <time>2022-07-12T12:05:45.255Z</time>
      </trkpt>
      <trkpt lat="48.27558" lon="-4.40988">
        <ele>-3.34</ele>
        <time>2022-07-12T12:05:59.020Z</time>
      </trkpt>
      <trkpt lat="48.27394" lon="-4.41251">
        <ele>28.69</ele>
        <time>2022-07-12T12:13:45.000Z</time>
      </trkpt>
      <trkpt lat="48.27392" lon="-4.41256">
        <ele>35.97</ele>
        <time>2022-07-12T12:13:55.000Z</time>
      </trkpt>
      <trkpt lat="48.27393" lon="-4.41255">
        <ele>37.35</ele>
        <time>2022-07-12T12:14:05.000Z</time>
      </trkpt>
      <trkpt lat="48.27397" lon="-4.41257">
        <ele>36.66</ele>
        <time>2022-07-12T12:14:15.000Z</time>
      </trkpt>
      <trkpt lat="48.27396" lon="-4.41267">
        <ele>35.66</ele>
        <time>2022-07-12T12:14:24.318Z</time>
      </trkpt>
      <trkpt lat="48.27396" lon="-4.41276">
        <ele>36.66</ele>
        <time>2022-07-12T12:14:33.720Z</time>
      </trkpt>
      <trkpt lat="48.27395" lon="-4.41283">
        <ele>35.91</ele>
        <time>2022-07-12T12:14:43.000Z</time>
      </trkpt>
      <trkpt lat="48.27395" lon="-4.41292">
        <ele>34.67</ele>
        <time>2022-07-12T12:14:53.000Z</time>
      </trkpt>
      <trkpt lat="48.27391" lon="-4.41305">
        <ele>35.66</ele>
        <time>2022-07-12T12:15:03.000Z</time>
      </trkpt>
      <trkpt lat="48.27389" lon="-4.41318">
        <ele>36.66</ele>
        <time>2022-07-12T12:15:12.816Z</time>
      </trkpt>
      <trkpt lat="48.27389" lon="-4.41329">
        <ele>37.66</ele>
        <time>2022-07-12T12:15:22.000Z</time>
      </trkpt>
      <trkpt lat="48.2739" lon="-4.4134">
        <ele>35.66</ele>
        <time>2022-07-12T12:15:31.374Z</time>
      </trkpt>
      <trkpt lat="48.27392" lon="-4.41349">
        <ele>36.41</ele>
        <time>2022-07-12T12:15:40.417Z</time>
      </trkpt>
      <trkpt lat="48.27393" lon="-4.41357">
        <ele>36.66</ele>
        <time>2022-07-12T12:15:49.481Z</time>
      </trkpt>
      <trkpt lat="48.27394" lon="-4.41367">
        <ele>37.66</ele>
        <time>2022-07-12T12:15:59.000Z</time>
      </trkpt>
      <trkpt lat="48.27393" lon="-4.41378">
        <ele>38.41</ele>
        <time>2022-07-12T12:16:08.099Z</time>
      </trkpt>
      <trkpt lat="48.27394" lon="-4.41389">
        <ele>38.91</ele>
        <time>2022-07-12T12:16:17.277Z</time>
      </trkpt>
      <trkpt lat="48.27391" lon="-4.414">
        <ele>39.66</ele>
        <time>2022-07-12T12:16:27.000Z</time>
      </trkpt>
      <trkpt lat="48.27389" lon="-4.41412">
        <ele>37.85</ele>
        <time>2022-07-12T12:16:36.261Z</time>
      </trkpt>
      <trkpt lat="48.27388" lon="-4.4142">
        <ele>38.66</ele>
        <time>2022-07-12T12:16:46.000Z</time>
      </trkpt>
      <trkpt lat="48.27386" lon="-4.4143">
        <ele>37.72</ele>
        <time>2022-07-12T12:16:55.801Z</time>
      </trkpt>
      <trkpt lat="48.27385" lon="-4.41436">
        <ele>38.65</ele>
        <time>2022-07-12T12:17:04.858Z</time>
      </trkpt>
      <trkpt lat="48.27384" lon="-4.41445">
        <ele>39.66</ele>
        <time>2022-07-12T12:17:14.000Z</time>
      </trkpt>
      <trkpt lat="48.27387" lon="-4.41451">
        <ele>39.66</ele>
        <time>2022-07-12T12:17:24.000Z</time>
      </trkpt>
      <trkpt lat="48.27389" lon="-4.41463">
        <ele>39.66</ele>
        <time>2022-07-12T12:17:33.423Z</time>
      </trkpt>
      <trkpt lat="48.27392" lon="-4.41473">
        <ele>39.66</ele>
        <time>2022-07-12T12:17:43.000Z</time>
      </trkpt>
      <trkpt lat="48.27392" lon="-4.41483">
        <ele>39.66</ele>
        <time>2022-07-12T12:17:52.535Z</time>
      </trkpt>
      <trkpt lat="48.27393" lon="-4.41494">
        <ele>38.68</ele>
        <time>2022-07-12T12:18:02.361Z</time>
      </trkpt>
      <trkpt lat="48.27395" lon="-4.41504">
        <ele>37.66</ele>
        <time>2022-07-12T12:18:11.679Z</time>
      </trkpt>
      <trkpt lat="48.27397" lon="-4.41514">
        <ele>36.66</ele>
        <time>2022-07-12T12:18:21.819Z</time>
      </trkpt>
      <trkpt lat="48.27397" lon="-4.41521">
        <ele>34.91</ele>
        <time>2022-07-12T12:18:31.361Z</time>
      </trkpt>
      <trkpt lat="48.27399" lon="-4.41531">
        <ele>34.66</ele>
        <time>2022-07-12T12:18:40.800Z</time>
      </trkpt>
      <trkpt lat="48.27399" lon="-4.4154">
        <ele>32.66</ele>
        <time>2022-07-12T12:18:50.598Z</time>
      </trkpt>
      <trkpt lat="48.27402" lon="-4.41548">
        <ele>32.66</ele>
        <time>2022-07-12T12:19:00.000Z</time>
      </trkpt>
      <trkpt lat="48.27404" lon="-4.41556">
        <ele>32.66</ele>
        <time>2022-07-12T12:19:09.896Z</time>
      </trkpt>
      <trkpt lat="48.27405" lon="-4.41565">
        <ele>31.66</ele>
        <time>2022-07-12T12:19:19.000Z</time>
      </trkpt>
      <trkpt lat="48.27409" lon="-4.41578">
        <ele>33.66</ele>
        <time>2022-07-12T12:19:28.739Z</time>
      </trkpt>
      <trkpt lat="48.27413" lon="-4.41589">
        <ele>33.66</ele>
        <time>2022-07-12T12:19:37.874Z</time>
      </trkpt>
      <trkpt lat="48.27414" lon="-4.41598">
        <ele>32.66</ele>
        <time>2022-07-12T12:19:47.000Z</time>
      </trkpt>
      <trkpt lat="48.27416" lon="-4.41606">
        <ele>29.91</ele>
        <time>2022-07-12T12:19:56.282Z</time>
      </trkpt>
      <trkpt lat="48.27418" lon="-4.41622">
        <ele>30.6</ele>
        <time>2022-07-12T12:20:06.000Z</time>
      </trkpt>
      <trkpt lat="48.2742" lon="-4.41632">
        <ele>29.66</ele>
        <time>2022-07-12T12:20:15.840Z</time>
      </trkpt>
      <trkpt lat="48.27423" lon="-4.41639">
        <ele>30.65</ele>
        <time>2022-07-12T12:20:25.000Z</time>
      </trkpt>
      <trkpt lat="48.27426" lon="-4.41647">
        <ele>29.72</ele>
        <time>2022-07-12T12:20:34.670Z</time>
      </trkpt>
      <trkpt lat="48.27429" lon="-4.41656">
        <ele>28.6</ele>
        <time>2022-07-12T12:20:43.938Z</time>
      </trkpt>
      <trkpt lat="48.27429" lon="-4.4167">
        <ele>27.67</ele>
        <time>2022-07-12T12:20:53.000Z</time>
      </trkpt>
      <trkpt lat="48.2743" lon="-4.41679">
        <ele>28.41</ele>
        <time>2022-07-12T12:21:02.480Z</time>
      </trkpt>
      <trkpt lat="48.27433" lon="-4.41691">
        <ele>26.67</ele>
        <time>2022-07-12T12:21:12.000Z</time>
      </trkpt>
      <trkpt lat="48.27434" lon="-4.417">
        <ele>25.66</ele>
        <time>2022-07-12T12:21:21.480Z</time>
      </trkpt>
      <trkpt lat="48.2744" lon="-4.41707">
        <ele>25.72</ele>
        <time>2022-07-12T12:21:30.703Z</time>
      </trkpt>
      <trkpt lat="48.27442" lon="-4.41715">
        <ele>24.66</ele>
        <time>2022-07-12T12:21:40.858Z</time>
      </trkpt>
      <trkpt lat="48.27442" lon="-4.41723">
        <ele>22.66</ele>
        <time>2022-07-12T12:21:50.000Z</time>
      </trkpt>
      <trkpt lat="48.27443" lon="-4.41733">
        <ele>22.66</ele>
        <time>2022-07-12T12:21:59.918Z</time>
      </trkpt>
      <trkpt lat="48.27444" lon="-4.41738">
        <ele>21.42</ele>
        <time>2022-07-12T12:22:09.000Z</time>
      </trkpt>
      <trkpt lat="48.27443" lon="-4.41744">
        <ele>21.66</ele>
        <time>2022-07-12T12:22:18.560Z</time>
      </trkpt>
      <trkpt lat="48.27445" lon="-4.41753">
        <ele>19.91</ele>
        <time>2022-07-12T12:22:28.000Z</time>
      </trkpt>
      <trkpt lat="48.27449" lon="-4.41762">
        <ele>20.65</ele>
        <time>2022-07-12T12:22:37.338Z</time>
      </trkpt>
      <trkpt lat="48.27453" lon="-4.41777">
        <ele>19.66</ele>
        <time>2022-07-12T12:22:47.516Z</time>
      </trkpt>
      <trkpt lat="48.27455" lon="-4.41784">
        <ele>18.66</ele>
        <time>2022-07-12T12:22:56.559Z</time>
      </trkpt>
      <trkpt lat="48.27458" lon="-4.41793">
        <ele>17.66</ele>
        <time>2022-07-12T12:23:05.844Z</time>
      </trkpt>
      <trkpt lat="48.2746" lon="-4.41802">
        <ele>15.67</ele>
        <time>2022-07-12T12:23:15.199Z</time>
      </trkpt>
      <trkpt lat="48.27463" lon="-4.41812">
        <ele>17.64</ele>
        <time>2022-07-12T12:23:24.478Z</time>
      </trkpt>
      <trkpt lat="48.27467" lon="-4.41825">
        <ele>18.41</ele>
        <time>2022-07-12T12:23:33.818Z</time>
      </trkpt>
      <trkpt lat="48.27466" lon="-4.41844">
        <ele>17.66</ele>
        <time>2022-07-12T12:23:43.300Z</time>
      </trkpt>
      <trkpt lat="48.27467" lon="-4.41854">
        <ele>17.66</ele>
        <time>2022-07-12T12:23:52.695Z</time>
      </trkpt>
      <trkpt lat="48.2747" lon="-4.41864">
        <ele>17.66</ele>
        <time>2022-07-12T12:24:02.000Z</time>
      </trkpt>
      <trkpt lat="48.27472" lon="-4.41875">
        <ele>17.66</ele>
        <time>2022-07-12T12:24:11.678Z</time>
      </trkpt>
      <trkpt lat="48.27475" lon="-4.41885">
        <ele>15.66</ele>
        <time>2022-07-12T12:24:21.140Z</time>
      </trkpt>
      <trkpt lat="48.27475" lon="-4.41899">
        <ele>15.66</ele>
        <time>2022-07-12T12:24:30.679Z</time>
      </trkpt>
      <trkpt lat="48.27477" lon="-4.41914">
        <ele>17.66</ele>
        <time>2022-07-12T12:24:40.737Z</time>
      </trkpt>
      <trkpt lat="48.27482" lon="-4.41922">
        <ele>16.66</ele>
        <time>2022-07-12T12:24:50.180Z</time>
      </trkpt>
      <trkpt lat="48.27484" lon="-4.41928">
        <ele>16.66</ele>
        <time>2022-07-12T12:25:00.000Z</time>
      </trkpt>
      <trkpt lat="48.27484" lon="-4.4194">
        <ele>16.66</ele>
        <time>2022-07-12T12:25:09.596Z</time>
      </trkpt>
      <trkpt lat="48.27484" lon="-4.41948">
        <ele>16.66</ele>
        <time>2022-07-12T12:25:18.935Z</time>
      </trkpt>
      <trkpt lat="48.27483" lon="-4.41956">
        <ele>16.66</ele>
        <time>2022-07-12T12:25:28.083Z</time>
      </trkpt>
      <trkpt lat="48.27481" lon="-4.41971">
        <ele>17.66</ele>
        <time>2022-07-12T12:25:37.461Z</time>
      </trkpt>
      <trkpt lat="48.27479" lon="-4.41975">
        <ele>17.66</ele>
        <time>2022-07-12T12:25:46.677Z</time>
      </trkpt>
      <trkpt lat="48.27479" lon="-4.41981">
        <ele>18.66</ele>
        <time>2022-07-12T12:25:55.841Z</time>
      </trkpt>
      <trkpt lat="48.27477" lon="-4.41994">
        <ele>18.66</ele>
        <time>2022-07-12T12:26:05.880Z</time>
      </trkpt>
      <trkpt lat="48.27475" lon="-4.42002">
        <ele>18.66</ele>
        <time>2022-07-12T12:26:16.000Z</time>
      </trkpt>
      <trkpt lat="48.27475" lon="-4.42005">
        <ele>17.72</ele>
        <time>2022-07-12T12:26:25.895Z</time>
      </trkpt>
      <trkpt lat="48.27472" lon="-4.42017">
        <ele>17.66</ele>
        <time>2022-07-12T12:26:36.000Z</time>
      </trkpt>
      <trkpt lat="48.27467" lon="-4.42029">
        <ele>18.66</ele>
        <time>2022-07-12T12:26:46.000Z</time>
      </trkpt>
      <trkpt lat="48.27465" lon="-4.4204">
        <ele>19.66</ele>
        <time>2022-07-12T12:26:55.361Z</time>
      </trkpt>
      <trkpt lat="48.27459" lon="-4.42055">
        <ele>20.64</ele>
        <time>2022-07-12T12:27:04.560Z</time>
      </trkpt>
      <trkpt lat="48.27457" lon="-4.42061">
        <ele>20.66</ele>
        <time>2022-07-12T12:27:13.782Z</time>
      </trkpt>
      <trkpt lat="48.27452" lon="-4.42071">
        <ele>20.66</ele>
        <time>2022-07-12T12:27:23.436Z</time>
      </trkpt>
      <trkpt lat="48.27444" lon="-4.42083">
        <ele>22.65</ele>
        <time>2022-07-12T12:27:32.754Z</time>
      </trkpt>
      <trkpt lat="48.27436" lon="-4.42093">
        <ele>22.66</ele>
        <time>2022-07-12T12:27:41.900Z</time>
      </trkpt>
      <trkpt lat="48.27433" lon="-4.42101">
        <ele>24.64</ele>
        <time>2022-07-12T12:27:51.378Z</time>
      </trkpt>
      <trkpt lat="48.27428" lon="-4.42112">
        <ele>24.66</ele>
        <time>2022-07-12T12:28:00.679Z</time>
      </trkpt>
      <trkpt lat="48.27424" lon="-4.42126">
        <ele>26.4</ele>
        <time>2022-07-12T12:28:09.919Z</time>
      </trkpt>
      <trkpt lat="48.2742" lon="-4.42137">
        <ele>26.9</ele>
        <time>2022-07-12T12:28:19.000Z</time>
      </trkpt>
      <trkpt lat="48.27417" lon="-4.42142">
        <ele>26.65</ele>
        <time>2022-07-12T12:28:28.300Z</time>
      </trkpt>
      <trkpt lat="48.27411" lon="-4.42153">
        <ele>26.64</ele>
        <time>2022-07-12T12:28:37.514Z</time>
      </trkpt>
      <trkpt lat="48.27408" lon="-4.4216">
        <ele>26.65</ele>
        <time>2022-07-12T12:28:46.843Z</time>
      </trkpt>
      <trkpt lat="48.27402" lon="-4.42169">
        <ele>25.9</ele>
        <time>2022-07-12T12:28:56.000Z</time>
      </trkpt>
      <trkpt lat="48.27394" lon="-4.42183">
        <ele>23.44</ele>
        <time>2022-07-12T12:29:06.000Z</time>
      </trkpt>
      <trkpt lat="48.27388" lon="-4.42197">
        <ele>24.4</ele>
        <time>2022-07-12T12:29:16.000Z</time>
      </trkpt>
      <trkpt lat="48.27386" lon="-4.42208">
        <ele>22.65</ele>
        <time>2022-07-12T12:29:25.519Z</time>
      </trkpt>
      <trkpt lat="48.27383" lon="-4.42221">
        <ele>23.65</ele>
        <time>2022-07-12T12:29:34.802Z</time>
      </trkpt>
      <trkpt lat="48.27375" lon="-4.42231">
        <ele>24.65</ele>
        <time>2022-07-12T12:29:43.843Z</time>
      </trkpt>
      <trkpt lat="48.27364" lon="-4.4223">
        <ele>25.65</ele>
        <time>2022-07-12T12:29:53.000Z</time>
      </trkpt>
      <trkpt lat="48.27357" lon="-4.42228">
        <ele>26.64</ele>
        <time>2022-07-12T12:30:03.000Z</time>
      </trkpt>
      <trkpt lat="48.27351" lon="-4.42228">
        <ele>27.65</ele>
        <time>2022-07-12T12:30:12.279Z</time>
      </trkpt>
      <trkpt lat="48.27344" lon="-4.42224">
        <ele>26.65</ele>
        <time>2022-07-12T12:30:21.677Z</time>
      </trkpt>
      <trkpt lat="48.27338" lon="-4.42218">
        <ele>27.65</ele>
        <time>2022-07-12T12:30:31.000Z</time>
      </trkpt>
      <trkpt lat="48.2733" lon="-4.42208">
        <ele>28.65</ele>
        <time>2022-07-12T12:30:40.600Z</time>
      </trkpt>
      <trkpt lat="48.27326" lon="-4.42203">
        <ele>29.65</ele>
        <time>2022-07-12T12:30:50.000Z</time>
      </trkpt>
      <trkpt lat="48.27321" lon="-4.42197">
        <ele>29.9</ele>
        <time>2022-07-12T12:30:59.600Z</time>
      </trkpt>
      <trkpt lat="48.27314" lon="-4.42192">
        <ele>30.65</ele>
        <time>2022-07-12T12:31:08.798Z</time>
      </trkpt>
      <trkpt lat="48.27307" lon="-4.42194">
        <ele>30.64</ele>
        <time>2022-07-12T12:31:19.000Z</time>
      </trkpt>
      <trkpt lat="48.27303" lon="-4.42197">
        <ele>32.53</ele>
        <time>2022-07-12T12:31:28.520Z</time>
      </trkpt>
      <trkpt lat="48.27295" lon="-4.42203">
        <ele>33.65</ele>
        <time>2022-07-12T12:31:38.000Z</time>
      </trkpt>
      <trkpt lat="48.27292" lon="-4.42208">
        <ele>34.42</ele>
        <time>2022-07-12T12:31:48.000Z</time>
      </trkpt>
      <trkpt lat="48.27288" lon="-4.42215">
        <ele>34.65</ele>
        <time>2022-07-12T12:31:57.821Z</time>
      </trkpt>
      <trkpt lat="48.27283" lon="-4.42223">
        <ele>35.65</ele>
        <time>2022-07-12T12:32:07.000Z</time>
      </trkpt>
      <trkpt lat="48.27279" lon="-4.42229">
        <ele>36.65</ele>
        <time>2022-07-12T12:32:16.037Z</time>
      </trkpt>
      <trkpt lat="48.27272" lon="-4.42233">
        <ele>36.65</ele>
        <time>2022-07-12T12:32:25.802Z</time>
      </trkpt>
      <trkpt lat="48.27267" lon="-4.42237">
        <ele>37.65</ele>
        <time>2022-07-12T12:32:36.000Z</time>
      </trkpt>
      <trkpt lat="48.27259" lon="-4.42243">
        <ele>37.65</ele>
        <time>2022-07-12T12:32:45.597Z</time>
      </trkpt>
      <trkpt lat="48.2725" lon="-4.42248">
        <ele>40.64</ele>
        <time>2022-07-12T12:32:55.000Z</time>
      </trkpt>
      <trkpt lat="48.27245" lon="-4.42249">
        <ele>40.65</ele>
        <time>2022-07-12T12:33:04.558Z</time>
      </trkpt>
      <trkpt lat="48.27236" lon="-4.42255">
        <ele>42.59</ele>
        <time>2022-07-12T12:33:13.601Z</time>
      </trkpt>
      <trkpt lat="48.27232" lon="-4.42257">
        <ele>42.65</ele>
        <time>2022-07-12T12:33:22.619Z</time>
      </trkpt>
      <trkpt lat="48.27228" lon="-4.42262">
        <ele>43.65</ele>
        <time>2022-07-12T12:33:32.217Z</time>
      </trkpt>
      <trkpt lat="48.2722" lon="-4.42266">
        <ele>44.65</ele>
        <time>2022-07-12T12:33:41.457Z</time>
      </trkpt>
      <trkpt lat="48.27211" lon="-4.42265">
        <ele>45.65</ele>
        <time>2022-07-12T12:33:50.595Z</time>
      </trkpt>
      <trkpt lat="48.27206" lon="-4.42263">
        <ele>47.59</ele>
        <time>2022-07-12T12:34:00.000Z</time>
      </trkpt>
      <trkpt lat="48.27199" lon="-4.42261">
        <ele>48.65</ele>
        <time>2022-07-12T12:34:09.719Z</time>
      </trkpt>
      <trkpt lat="48.27195" lon="-4.42261">
        <ele>49.65</ele>
        <time>2022-07-12T12:34:18.817Z</time>
      </trkpt>
      <trkpt lat="48.27188" lon="-4.42261">
        <ele>67.35</ele>
        <time>2022-07-12T12:34:28.315Z</time>
      </trkpt>
      <trkpt lat="48.2718" lon="-4.42257">
        <ele>67.35</ele>
        <time>2022-07-12T12:34:37.399Z</time>
      </trkpt>
      <trkpt lat="48.27171" lon="-4.42257">
        <ele>67.35</ele>
        <time>2022-07-12T12:34:47.000Z</time>
      </trkpt>
      <trkpt lat="48.27168" lon="-4.42262">
        <ele>67.35</ele>
        <time>2022-07-12T12:34:56.540Z</time>
      </trkpt>
      <trkpt lat="48.27167" lon="-4.4227">
        <ele>67.35</ele>
        <time>2022-07-12T12:35:05.821Z</time>
      </trkpt>
      <trkpt lat="48.27169" lon="-4.42278">
        <ele>67.35</ele>
        <time>2022-07-12T12:35:15.000Z</time>
      </trkpt>
      <trkpt lat="48.27168" lon="-4.42284">
        <ele>67.35</ele>
        <time>2022-07-12T12:35:24.537Z</time>
      </trkpt>
      <trkpt lat="48.27168" lon="-4.42287">
        <ele>67.35</ele>
        <time>2022-07-12T12:35:34.000Z</time>
      </trkpt>
      <trkpt lat="48.27168" lon="-4.42288">
        <ele>67.35</ele>
        <time>2022-07-12T12:35:49.000Z</time>
      </trkpt>
      <trkpt lat="48.27169" lon="-4.42288">
        <ele>67.35</ele>
        <time>2022-07-12T12:37:36.278Z</time>
      </trkpt>
      <trkpt lat="48.2717" lon="-4.42291">
        <ele>67.35</ele>
        <time>2022-07-12T12:37:46.000Z</time>
      </trkpt>
      <trkpt lat="48.2717" lon="-4.42292">
        <ele>67.35</ele>
        <time>2022-07-12T12:37:55.399Z</time>
      </trkpt>
      <trkpt lat="48.27169" lon="-4.42293">
        <ele>67.35</ele>
        <time>2022-07-12T12:38:05.000Z</time>
      </trkpt>
      <trkpt lat="48.27169" lon="-4.42295">
        <ele>67.35</ele>
        <time>2022-07-12T12:38:15.000Z</time>
      </trkpt>
      <trkpt lat="48.27168" lon="-4.42297">
        <ele>67.35</ele>
        <time>2022-07-12T12:39:17.000Z</time>
      </trkpt>
      <trkpt lat="48.27167" lon="-4.42297">
        <ele>67.35</ele>
        <time>2022-07-12T12:39:26.353Z</time>
      </trkpt>
      <trkpt lat="48.27167" lon="-4.42299">
        <ele>67.35</ele>
        <time>2022-07-12T12:40:23.725Z</time>
      </trkpt>
      <trkpt lat="48.27168" lon="-4.42299">
        <ele>67.35</ele>
        <time>2022-07-12T12:40:49.000Z</time>
      </trkpt>
      <trkpt lat="48.27167" lon="-4.423">
        <ele>67.35</ele>
        <time>2022-07-12T12:43:11.000Z</time>
      </trkpt>
      <trkpt lat="48.27165" lon="-4.42295">
        <ele>67.35</ele>
        <time>2022-07-12T12:43:20.862Z</time>
      </trkpt>
      <trkpt lat="48.27163" lon="-4.42289">
        <ele>67.35</ele>
        <time>2022-07-12T12:43:29.901Z</time>
      </trkpt>
      <trkpt lat="48.27162" lon="-4.42286">
        <ele>67.35</ele>
        <time>2022-07-12T12:43:40.000Z</time>
      </trkpt>
      <trkpt lat="48.27163" lon="-4.42286">
        <ele>67.35</ele>
        <time>2022-07-12T12:44:00.676Z</time>
      </trkpt>
      <trkpt lat="48.27165" lon="-4.42287">
        <ele>67.35</ele>
        <time>2022-07-12T12:44:09.753Z</time>
      </trkpt>
      <trkpt lat="48.27164" lon="-4.42291">
        <ele>67.35</ele>
        <time>2022-07-12T12:44:19.000Z</time>
      </trkpt>
      <trkpt lat="48.27164" lon="-4.42292">
        <ele>67.35</ele>
        <time>2022-07-12T12:44:29.598Z</time>
      </trkpt>
      <trkpt lat="48.27163" lon="-4.42296">
        <ele>67.35</ele>
        <time>2022-07-12T12:44:39.000Z</time>
      </trkpt>
      <trkpt lat="48.27164" lon="-4.42297">
        <ele>67.35</ele>
        <time>2022-07-12T12:44:49.000Z</time>
      </trkpt>
      <trkpt lat="48.27166" lon="-4.42298">
        <ele>67.35</ele>
        <time>2022-07-12T12:44:59.000Z</time>
      </trkpt>
      <trkpt lat="48.27166" lon="-4.42296">
        <ele>67.35</ele>
        <time>2022-07-12T12:46:48.000Z</time>
      </trkpt>
      <trkpt lat="48.27166" lon="-4.42294">
        <ele>67.35</ele>
        <time>2022-07-12T12:46:58.000Z</time>
      </trkpt>
      <trkpt lat="48.27166" lon="-4.42293">
        <ele>67.35</ele>
        <time>2022-07-12T12:47:08.000Z</time>
      </trkpt>
      <trkpt lat="48.27166" lon="-4.42291">
        <ele>67.35</ele>
        <time>2022-07-12T12:47:18.000Z</time>
      </trkpt>
      <trkpt lat="48.27166" lon="-4.4229">
        <ele>67.35</ele>
        <time>2022-07-12T12:47:28.618Z</time>
      </trkpt>
      <trkpt lat="48.27167" lon="-4.42287">
        <ele>67.35</ele>
        <time>2022-07-12T12:47:37.667Z</time>
      </trkpt>
      <trkpt lat="48.27165" lon="-4.42282">
        <ele>67.35</ele>
        <time>2022-07-12T12:47:47.000Z</time>
      </trkpt>
      <trkpt lat="48.27163" lon="-4.42282">
        <ele>67.35</ele>
        <time>2022-07-12T12:47:56.388Z</time>
      </trkpt>
      <trkpt lat="48.27165" lon="-4.42282">
        <ele>67.35</ele>
        <time>2022-07-12T12:54:42.000Z</time>
      </trkpt>
      <trkpt lat="48.27168" lon="-4.42285">
        <ele>67.35</ele>
        <time>2022-07-12T12:54:51.599Z</time>
      </trkpt>
      <trkpt lat="48.27167" lon="-4.42288">
        <ele>67.35</ele>
        <time>2022-07-12T12:55:00.661Z</time>
      </trkpt>
      <trkpt lat="48.27168" lon="-4.42293">
        <ele>67.35</ele>
        <time>2022-07-12T12:55:10.000Z</time>
      </trkpt>
      <trkpt lat="48.27169" lon="-4.4229">
        <ele>67.35</ele>
        <time>2022-07-12T12:55:19.839Z</time>
      </trkpt>
      <trkpt lat="48.27168" lon="-4.42288">
        <ele>67.35</ele>
        <time>2022-07-12T12:55:29.000Z</time>
      </trkpt>
      <trkpt lat="48.27166" lon="-4.42287">
        <ele>67.35</ele>
        <time>2022-07-12T12:55:39.000Z</time>
      </trkpt>
      <trkpt lat="48.27163" lon="-4.42284">
        <ele>67.35</ele>
        <time>2022-07-12T12:55:49.000Z</time>
      </trkpt>
      <trkpt lat="48.27164" lon="-4.42284">
        <ele>67.35</ele>
        <time>2022-07-12T12:56:10.000Z</time>
      </trkpt>
      <trkpt lat="48.27166" lon="-4.42284">
        <ele>67.35</ele>
        <time>2022-07-12T12:56:20.000Z</time>
      </trkpt>
      <trkpt lat="48.27167" lon="-4.42285">
        <ele>67.35</ele>
        <time>2022-07-12T12:56:40.000Z</time>
      </trkpt>
      <trkpt lat="48.27167" lon="-4.42286">
        <ele>67.35</ele>
        <time>2022-07-12T12:57:43.000Z</time>
      </trkpt>
      <trkpt lat="48.27166" lon="-4.42287">
        <ele>67.35</ele>
        <time>2022-07-12T12:57:56.000Z</time>
      </trkpt>
      <trkpt lat="48.27166" lon="-4.42291">
        <ele>67.35</ele>
        <time>2022-07-12T12:58:06.000Z</time>
      </trkpt>
      <trkpt lat="48.27166" lon="-4.42295">
        <ele>67.35</ele>
        <time>2022-07-12T12:58:16.000Z</time>
      </trkpt>
      <trkpt lat="48.27167" lon="-4.42296">
        <ele>67.35</ele>
        <time>2022-07-12T12:58:26.000Z</time>
      </trkpt>
      <trkpt lat="48.27166" lon="-4.42298">
        <ele>67.35</ele>
        <time>2022-07-12T12:58:44.000Z</time>
      </trkpt>
      <trkpt lat="48.27168" lon="-4.42294">
        <ele>67.35</ele>
        <time>2022-07-12T12:58:53.356Z</time>
      </trkpt>
      <trkpt lat="48.27168" lon="-4.42293">
        <ele>67.35</ele>
        <time>2022-07-12T12:59:23.000Z</time>
      </trkpt>
      <trkpt lat="48.27169" lon="-4.42292">
        <ele>67.35</ele>
        <time>2022-07-12T12:59:35.680Z</time>
      </trkpt>
      <trkpt lat="48.27167" lon="-4.42288">
        <ele>67.35</ele>
        <time>2022-07-12T12:59:44.900Z</time>
      </trkpt>
      <trkpt lat="48.27163" lon="-4.42277">
        <ele>67.35</ele>
        <time>2022-07-12T12:59:54.000Z</time>
      </trkpt>
      <trkpt lat="48.27159" lon="-4.42262">
        <ele>67.35</ele>
        <time>2022-07-12T13:00:03.460Z</time>
      </trkpt>
      <trkpt lat="48.27154" lon="-4.42255">
        <ele>67.35</ele>
        <time>2022-07-12T13:00:12.875Z</time>
      </trkpt>
      <trkpt lat="48.27151" lon="-4.42251">
        <ele>67.35</ele>
        <time>2022-07-12T13:00:22.597Z</time>
      </trkpt>
      <trkpt lat="48.27147" lon="-4.42245">
        <ele>67.35</ele>
        <time>2022-07-12T13:00:31.678Z</time>
      </trkpt>
      <trkpt lat="48.2714" lon="-4.42239">
        <ele>67.35</ele>
        <time>2022-07-12T13:00:40.921Z</time>
      </trkpt>
      <trkpt lat="48.27135" lon="-4.42239">
        <ele>67.35</ele>
        <time>2022-07-12T13:00:50.000Z</time>
      </trkpt>
      <trkpt lat="48.2713" lon="-4.42241">
        <ele>67.35</ele>
        <time>2022-07-12T13:01:00.000Z</time>
      </trkpt>
      <trkpt lat="48.27122" lon="-4.42239">
        <ele>67.35</ele>
        <time>2022-07-12T13:01:09.856Z</time>
      </trkpt>
      <trkpt lat="48.27116" lon="-4.42237">
        <ele>67.35</ele>
        <time>2022-07-12T13:01:19.000Z</time>
      </trkpt>
      <trkpt lat="48.27112" lon="-4.42237">
        <ele>67.35</ele>
        <time>2022-07-12T13:01:28.400Z</time>
      </trkpt>
      <trkpt lat="48.27106" lon="-4.42239">
        <ele>67.35</ele>
        <time>2022-07-12T13:01:37.781Z</time>
      </trkpt>
      <trkpt lat="48.27095" lon="-4.42241">
        <ele>67.35</ele>
        <time>2022-07-12T13:01:47.000Z</time>
      </trkpt>
      <trkpt lat="48.27086" lon="-4.42246">
        <ele>57.69</ele>
        <time>2022-07-12T13:01:56.516Z</time>
      </trkpt>
      <trkpt lat="48.27084" lon="-4.42258">
        <ele>55.65</ele>
        <time>2022-07-12T13:02:05.555Z</time>
      </trkpt>
      <trkpt lat="48.27082" lon="-4.42267">
        <ele>55.65</ele>
        <time>2022-07-12T13:02:15.000Z</time>
      </trkpt>
      <trkpt lat="48.27082" lon="-4.42279">
        <ele>55.65</ele>
        <time>2022-07-12T13:02:24.240Z</time>
      </trkpt>
      <trkpt lat="48.27082" lon="-4.42293">
        <ele>56.64</ele>
        <time>2022-07-12T13:02:34.000Z</time>
      </trkpt>
      <trkpt lat="48.27083" lon="-4.42305">
        <ele>56.65</ele>
        <time>2022-07-12T13:02:43.438Z</time>
      </trkpt>
      <trkpt lat="48.27082" lon="-4.42323">
        <ele>57.65</ele>
        <time>2022-07-12T13:02:52.833Z</time>
      </trkpt>
      <trkpt lat="48.27083" lon="-4.42332">
        <ele>56.65</ele>
        <time>2022-07-12T13:03:02.155Z</time>
      </trkpt>
      <trkpt lat="48.27083" lon="-4.42346">
        <ele>56.65</ele>
        <time>2022-07-12T13:03:11.519Z</time>
      </trkpt>
      <trkpt lat="48.27083" lon="-4.42362">
        <ele>58.65</ele>
        <time>2022-07-12T13:03:21.477Z</time>
      </trkpt>
      <trkpt lat="48.27084" lon="-4.4237">
        <ele>60.64</ele>
        <time>2022-07-12T13:03:32.000Z</time>
      </trkpt>
      <trkpt lat="48.27085" lon="-4.42371">
        <ele>59.65</ele>
        <time>2022-07-12T13:03:44.000Z</time>
      </trkpt>
      <trkpt lat="48.27084" lon="-4.42379">
        <ele>60.65</ele>
        <time>2022-07-12T13:03:53.299Z</time>
      </trkpt>
      <trkpt lat="48.27083" lon="-4.42395">
        <ele>58.66</ele>
        <time>2022-07-12T13:04:02.342Z</time>
      </trkpt>
      <trkpt lat="48.27081" lon="-4.4241">
        <ele>58.65</ele>
        <time>2022-07-12T13:04:11.582Z</time>
      </trkpt>
      <trkpt lat="48.27081" lon="-4.42422">
        <ele>59.65</ele>
        <time>2022-07-12T13:04:20.958Z</time>
      </trkpt>
      <trkpt lat="48.2708" lon="-4.42436">
        <ele>59.66</ele>
        <time>2022-07-12T13:04:30.396Z</time>
      </trkpt>
      <trkpt lat="48.2708" lon="-4.42444">
        <ele>59.65</ele>
        <time>2022-07-12T13:04:39.453Z</time>
      </trkpt>
      <trkpt lat="48.27079" lon="-4.42446">
        <ele>59.65</ele>
        <time>2022-07-12T13:04:48.743Z</time>
      </trkpt>
      <trkpt lat="48.27077" lon="-4.42461">
        <ele>59.65</ele>
        <time>2022-07-12T13:04:58.000Z</time>
      </trkpt>
      <trkpt lat="48.27075" lon="-4.4247">
        <ele>59.59</ele>
        <time>2022-07-12T13:05:07.558Z</time>
      </trkpt>
      <trkpt lat="48.27075" lon="-4.42486">
        <ele>60.65</ele>
        <time>2022-07-12T13:05:17.037Z</time>
      </trkpt>
      <trkpt lat="48.27076" lon="-4.425">
        <ele>59.65</ele>
        <time>2022-07-12T13:05:26.797Z</time>
      </trkpt>
      <trkpt lat="48.27077" lon="-4.42515">
        <ele>60.65</ele>
        <time>2022-07-12T13:05:36.000Z</time>
      </trkpt>
      <trkpt lat="48.27075" lon="-4.42529">
        <ele>60.65</ele>
        <time>2022-07-12T13:05:45.620Z</time>
      </trkpt>
      <trkpt lat="48.27073" lon="-4.4254">
        <ele>59.66</ele>
        <time>2022-07-12T13:05:54.740Z</time>
      </trkpt>
      <trkpt lat="48.27072" lon="-4.42554">
        <ele>60.65</ele>
        <time>2022-07-12T13:06:04.000Z</time>
      </trkpt>
      <trkpt lat="48.27074" lon="-4.42567">
        <ele>59.9</ele>
        <time>2022-07-12T13:06:13.280Z</time>
      </trkpt>
      <trkpt lat="48.27071" lon="-4.42578">
        <ele>58.65</ele>
        <time>2022-07-12T13:06:22.439Z</time>
      </trkpt>
      <trkpt lat="48.2707" lon="-4.4259">
        <ele>58.65</ele>
        <time>2022-07-12T13:06:31.662Z</time>
      </trkpt>
      <trkpt lat="48.27069" lon="-4.42605">
        <ele>57.71</ele>
        <time>2022-07-12T13:06:40.817Z</time>
      </trkpt>
      <trkpt lat="48.27069" lon="-4.42618">
        <ele>58.65</ele>
        <time>2022-07-12T13:06:50.000Z</time>
      </trkpt>
      <trkpt lat="48.27067" lon="-4.42633">
        <ele>58.71</ele>
        <time>2022-07-12T13:07:00.000Z</time>
      </trkpt>
      <trkpt lat="48.27068" lon="-4.42647">
        <ele>60.65</ele>
        <time>2022-07-12T13:07:10.000Z</time>
      </trkpt>
      <trkpt lat="48.27065" lon="-4.42661">
        <ele>59.65</ele>
        <time>2022-07-12T13:07:19.917Z</time>
      </trkpt>
      <trkpt lat="48.27066" lon="-4.42675">
        <ele>59.65</ele>
        <time>2022-07-12T13:07:29.000Z</time>
      </trkpt>
      <trkpt lat="48.27065" lon="-4.4269">
        <ele>56.71</ele>
        <time>2022-07-12T13:07:38.576Z</time>
      </trkpt>
      <trkpt lat="48.27064" lon="-4.42702">
        <ele>56.67</ele>
        <time>2022-07-12T13:07:47.664Z</time>
      </trkpt>
      <trkpt lat="48.27066" lon="-4.42718">
        <ele>56.65</ele>
        <time>2022-07-12T13:07:57.615Z</time>
      </trkpt>
      <trkpt lat="48.27066" lon="-4.42731">
        <ele>55.65</ele>
        <time>2022-07-12T13:08:07.817Z</time>
      </trkpt>
      <trkpt lat="48.27066" lon="-4.42744">
        <ele>55.4</ele>
        <time>2022-07-12T13:08:16.858Z</time>
      </trkpt>
      <trkpt lat="48.27063" lon="-4.42758">
        <ele>54.65</ele>
        <time>2022-07-12T13:08:26.221Z</time>
      </trkpt>
      <trkpt lat="48.27064" lon="-4.42773">
        <ele>52.65</ele>
        <time>2022-07-12T13:08:35.876Z</time>
      </trkpt>
      <trkpt lat="48.2707" lon="-4.42783">
        <ele>51.71</ele>
        <time>2022-07-12T13:08:45.000Z</time>
      </trkpt>
      <trkpt lat="48.27082" lon="-4.42789">
        <ele>53.65</ele>
        <time>2022-07-12T13:08:55.000Z</time>
      </trkpt>
      <trkpt lat="48.27092" lon="-4.42795">
        <ele>53.65</ele>
        <time>2022-07-12T13:09:04.434Z</time>
      </trkpt>
      <trkpt lat="48.27103" lon="-4.42799">
        <ele>53.65</ele>
        <time>2022-07-12T13:09:14.000Z</time>
      </trkpt>
      <trkpt lat="48.27113" lon="-4.42804">
        <ele>53.65</ele>
        <time>2022-07-12T13:09:23.454Z</time>
      </trkpt>
      <trkpt lat="48.27122" lon="-4.42805">
        <ele>51.71</ele>
        <time>2022-07-12T13:09:33.000Z</time>
      </trkpt>
      <trkpt lat="48.27133" lon="-4.42807">
        <ele>51.88</ele>
        <time>2022-07-12T13:09:42.338Z</time>
      </trkpt>
      <trkpt lat="48.2714" lon="-4.42809">
        <ele>50.88</ele>
        <time>2022-07-12T13:09:52.000Z</time>
      </trkpt>
      <trkpt lat="48.27145" lon="-4.42816">
        <ele>49.65</ele>
        <time>2022-07-12T13:10:01.260Z</time>
      </trkpt>
      <trkpt lat="48.27152" lon="-4.42819">
        <ele>48.71</ele>
        <time>2022-07-12T13:10:10.738Z</time>
      </trkpt>
      <trkpt lat="48.27158" lon="-4.42821">
        <ele>47.65</ele>
        <time>2022-07-12T13:10:20.000Z</time>
      </trkpt>
      <trkpt lat="48.27165" lon="-4.42821">
        <ele>47.42</ele>
        <time>2022-07-12T13:10:29.482Z</time>
      </trkpt>
      <trkpt lat="48.27171" lon="-4.42823">
        <ele>46.65</ele>
        <time>2022-07-12T13:10:39.000Z</time>
      </trkpt>
      <trkpt lat="48.27175" lon="-4.42826">
        <ele>44.65</ele>
        <time>2022-07-12T13:10:48.456Z</time>
      </trkpt>
      <trkpt lat="48.27179" lon="-4.42825">
        <ele>41.9</ele>
        <time>2022-07-12T13:10:58.000Z</time>
      </trkpt>
      <trkpt lat="48.27186" lon="-4.42827">
        <ele>41.65</ele>
        <time>2022-07-12T13:11:08.000Z</time>
      </trkpt>
      <trkpt lat="48.27197" lon="-4.42826">
        <ele>39.9</ele>
        <time>2022-07-12T13:11:17.419Z</time>
      </trkpt>
      <trkpt lat="48.27204" lon="-4.42828">
        <ele>37.65</ele>
        <time>2022-07-12T13:11:26.699Z</time>
      </trkpt>
      <trkpt lat="48.27216" lon="-4.42833">
        <ele>34.9</ele>
        <time>2022-07-12T13:11:36.481Z</time>
      </trkpt>
      <trkpt lat="48.27226" lon="-4.42839">
        <ele>34.65</ele>
        <time>2022-07-12T13:11:46.039Z</time>
      </trkpt>
      <trkpt lat="48.27236" lon="-4.42841">
        <ele>33.59</ele>
        <time>2022-07-12T13:11:55.740Z</time>
      </trkpt>
      <trkpt lat="48.27245" lon="-4.42843">
        <ele>33.65</ele>
        <time>2022-07-12T13:12:06.000Z</time>
      </trkpt>
      <trkpt lat="48.27252" lon="-4.42845">
        <ele>31.65</ele>
        <time>2022-07-12T13:12:15.001Z</time>
      </trkpt>
      <trkpt lat="48.27261" lon="-4.42849">
        <ele>29.67</ele>
        <time>2022-07-12T13:12:24.379Z</time>
      </trkpt>
      <trkpt lat="48.27269" lon="-4.42853">
        <ele>28.88</ele>
        <time>2022-07-12T13:12:33.417Z</time>
      </trkpt>
      <trkpt lat="48.2728" lon="-4.42858">
        <ele>28.65</ele>
        <time>2022-07-12T13:12:42.699Z</time>
      </trkpt>
      <trkpt lat="48.2729" lon="-4.42866">
        <ele>27.65</ele>
        <time>2022-07-12T13:12:52.000Z</time>
      </trkpt>
      <trkpt lat="48.273" lon="-4.42869">
        <ele>26.65</ele>
        <time>2022-07-12T13:13:01.521Z</time>
      </trkpt>
      <trkpt lat="48.2731" lon="-4.4287">
        <ele>25.71</ele>
        <time>2022-07-12T13:13:11.000Z</time>
      </trkpt>
      <trkpt lat="48.27321" lon="-4.42875">
        <ele>25.59</ele>
        <time>2022-07-12T13:13:20.375Z</time>
      </trkpt>
      <trkpt lat="48.2733" lon="-4.42877">
        <ele>24.65</ele>
        <time>2022-07-12T13:13:29.823Z</time>
      </trkpt>
      <trkpt lat="48.27339" lon="-4.42881">
        <ele>22.65</ele>
        <time>2022-07-12T13:13:39.859Z</time>
      </trkpt>
      <trkpt lat="48.27348" lon="-4.42887">
        <ele>21.9</ele>
        <time>2022-07-12T13:13:49.000Z</time>
      </trkpt>
      <trkpt lat="48.27357" lon="-4.42892">
        <ele>21.65</ele>
        <time>2022-07-12T13:13:58.667Z</time>
      </trkpt>
      <trkpt lat="48.27365" lon="-4.42895">
        <ele>20.65</ele>
        <time>2022-07-12T13:14:08.000Z</time>
      </trkpt>
      <trkpt lat="48.27373" lon="-4.42902">
        <ele>19.65</ele>
        <time>2022-07-12T13:14:17.294Z</time>
      </trkpt>
      <trkpt lat="48.27381" lon="-4.42907">
        <ele>18.65</ele>
        <time>2022-07-12T13:14:26.679Z</time>
      </trkpt>
      <trkpt lat="48.2739" lon="-4.42908">
        <ele>17.9</ele>
        <time>2022-07-12T13:14:36.558Z</time>
      </trkpt>
      <trkpt lat="48.27398" lon="-4.42911">
        <ele>15.71</ele>
        <time>2022-07-12T13:14:46.000Z</time>
      </trkpt>
      <trkpt lat="48.27406" lon="-4.42921">
        <ele>14.66</ele>
        <time>2022-07-12T13:14:56.000Z</time>
      </trkpt>
      <trkpt lat="48.27411" lon="-4.42926">
        <ele>13.65</ele>
        <time>2022-07-12T13:15:05.418Z</time>
      </trkpt>
      <trkpt lat="48.27414" lon="-4.42928">
        <ele>12.88</ele>
        <time>2022-07-12T13:15:14.859Z</time>
      </trkpt>
      <trkpt lat="48.27419" lon="-4.42932">
        <ele>12.65</ele>
        <time>2022-07-12T13:15:24.000Z</time>
      </trkpt>
      <trkpt lat="48.27427" lon="-4.42941">
        <ele>12.65</ele>
        <time>2022-07-12T13:15:33.697Z</time>
      </trkpt>
      <trkpt lat="48.27436" lon="-4.4295">
        <ele>11.66</ele>
        <time>2022-07-12T13:15:43.122Z</time>
      </trkpt>
      <trkpt lat="48.27443" lon="-4.42958">
        <ele>11.65</ele>
        <time>2022-07-12T13:15:53.000Z</time>
      </trkpt>
      <trkpt lat="48.27448" lon="-4.4296">
        <ele>12.65</ele>
        <time>2022-07-12T13:16:03.000Z</time>
      </trkpt>
      <trkpt lat="48.2745" lon="-4.42961">
        <ele>13.65</ele>
        <time>2022-07-12T13:16:12.562Z</time>
      </trkpt>
      <trkpt lat="48.27455" lon="-4.42959">
        <ele>13.65</ele>
        <time>2022-07-12T13:16:21.804Z</time>
      </trkpt>
      <trkpt lat="48.27466" lon="-4.42965">
        <ele>12.65</ele>
        <time>2022-07-12T13:16:31.000Z</time>
      </trkpt>
      <trkpt lat="48.27474" lon="-4.42972">
        <ele>12.65</ele>
        <time>2022-07-12T13:16:41.000Z</time>
      </trkpt>
      <trkpt lat="48.27475" lon="-4.42974">
        <ele>11.84</ele>
        <time>2022-07-12T13:16:50.699Z</time>
      </trkpt>
      <trkpt lat="48.27484" lon="-4.42975">
        <ele>12.65</ele>
        <time>2022-07-12T13:17:00.843Z</time>
      </trkpt>
      <trkpt lat="48.27491" lon="-4.42981">
        <ele>13.4</ele>
        <time>2022-07-12T13:17:10.000Z</time>
      </trkpt>
      <trkpt lat="48.27498" lon="-4.42992">
        <ele>13.6</ele>
        <time>2022-07-12T13:17:19.723Z</time>
      </trkpt>
      <trkpt lat="48.27501" lon="-4.42997">
        <ele>12.65</ele>
        <time>2022-07-12T13:17:29.000Z</time>
      </trkpt>
      <trkpt lat="48.27505" lon="-4.43002">
        <ele>13.65</ele>
        <time>2022-07-12T13:17:39.000Z</time>
      </trkpt>
      <trkpt lat="48.27511" lon="-4.43011">
        <ele>14.65</ele>
        <time>2022-07-12T13:17:48.474Z</time>
      </trkpt>
      <trkpt lat="48.27516" lon="-4.4302">
        <ele>15.65</ele>
        <time>2022-07-12T13:17:58.000Z</time>
      </trkpt>
      <trkpt lat="48.27522" lon="-4.43029">
        <ele>15.71</ele>
        <time>2022-07-12T13:18:07.678Z</time>
      </trkpt>
      <trkpt lat="48.27522" lon="-4.43033">
        <ele>16.65</ele>
        <time>2022-07-12T13:18:17.000Z</time>
      </trkpt>
      <trkpt lat="48.27522" lon="-4.43035">
        <ele>16.65</ele>
        <time>2022-07-12T13:18:27.914Z</time>
      </trkpt>
      <trkpt lat="48.27523" lon="-4.43044">
        <ele>16.65</ele>
        <time>2022-07-12T13:18:37.440Z</time>
      </trkpt>
      <trkpt lat="48.27522" lon="-4.43049">
        <ele>16.65</ele>
        <time>2022-07-12T13:18:46.580Z</time>
      </trkpt>
      <trkpt lat="48.27524" lon="-4.4306">
        <ele>15.65</ele>
        <time>2022-07-12T13:18:55.882Z</time>
      </trkpt>
      <trkpt lat="48.27525" lon="-4.43074">
        <ele>16.65</ele>
        <time>2022-07-12T13:19:06.000Z</time>
      </trkpt>
      <trkpt lat="48.27527" lon="-4.43085">
        <ele>16.65</ele>
        <time>2022-07-12T13:19:16.000Z</time>
      </trkpt>
      <trkpt lat="48.27527" lon="-4.43093">
        <ele>17.59</ele>
        <time>2022-07-12T13:19:26.000Z</time>
      </trkpt>
      <trkpt lat="48.27529" lon="-4.43102">
        <ele>17.65</ele>
        <time>2022-07-12T13:19:35.957Z</time>
      </trkpt>
      <trkpt lat="48.2753" lon="-4.43111">
        <ele>18.65</ele>
        <time>2022-07-12T13:19:45.376Z</time>
      </trkpt>
      <trkpt lat="48.27531" lon="-4.43128">
        <ele>18.65</ele>
        <time>2022-07-12T13:19:54.880Z</time>
      </trkpt>
      <trkpt lat="48.27533" lon="-4.4314">
        <ele>18.84</ele>
        <time>2022-07-12T13:20:04.897Z</time>
      </trkpt>
      <trkpt lat="48.2753" lon="-4.43153">
        <ele>20.65</ele>
        <time>2022-07-12T13:20:14.860Z</time>
      </trkpt>
      <trkpt lat="48.2753" lon="-4.43162">
        <ele>21.65</ele>
        <time>2022-07-12T13:20:24.000Z</time>
      </trkpt>
      <trkpt lat="48.27526" lon="-4.43171">
        <ele>23.63</ele>
        <time>2022-07-12T13:20:33.561Z</time>
      </trkpt>
      <trkpt lat="48.27525" lon="-4.4318">
        <ele>25.64</ele>
        <time>2022-07-12T13:20:42.699Z</time>
      </trkpt>
      <trkpt lat="48.27524" lon="-4.43189">
        <ele>25.65</ele>
        <time>2022-07-12T13:20:52.000Z</time>
      </trkpt>
      <trkpt lat="48.27526" lon="-4.43201">
        <ele>26.65</ele>
        <time>2022-07-12T13:21:02.359Z</time>
      </trkpt>
      <trkpt lat="48.27526" lon="-4.43212">
        <ele>26.9</ele>
        <time>2022-07-12T13:21:12.159Z</time>
      </trkpt>
      <trkpt lat="48.27528" lon="-4.43224">
        <ele>27.65</ele>
        <time>2022-07-12T13:21:21.420Z</time>
      </trkpt>
      <trkpt lat="48.27529" lon="-4.43233">
        <ele>29.58</ele>
        <time>2022-07-12T13:21:30.762Z</time>
      </trkpt>
      <trkpt lat="48.2753" lon="-4.43242">
        <ele>29.65</ele>
        <time>2022-07-12T13:21:40.896Z</time>
      </trkpt>
      <trkpt lat="48.27533" lon="-4.43252">
        <ele>30.65</ele>
        <time>2022-07-12T13:21:50.000Z</time>
      </trkpt>
      <trkpt lat="48.27536" lon="-4.43259">
        <ele>30.65</ele>
        <time>2022-07-12T13:21:59.760Z</time>
      </trkpt>
      <trkpt lat="48.27542" lon="-4.43272">
        <ele>30.65</ele>
        <time>2022-07-12T13:22:09.443Z</time>
      </trkpt>
      <trkpt lat="48.27545" lon="-4.43282">
        <ele>31.58</ele>
        <time>2022-07-12T13:22:19.000Z</time>
      </trkpt>
      <trkpt lat="48.27546" lon="-4.43291">
        <ele>32.64</ele>
        <time>2022-07-12T13:22:28.714Z</time>
      </trkpt>
      <trkpt lat="48.27547" lon="-4.43304">
        <ele>33.4</ele>
        <time>2022-07-12T13:22:38.280Z</time>
      </trkpt>
      <trkpt lat="48.27546" lon="-4.4332">
        <ele>34.63</ele>
        <time>2022-07-12T13:22:48.381Z</time>
      </trkpt>
      <trkpt lat="48.27545" lon="-4.43328">
        <ele>33.71</ele>
        <time>2022-07-12T13:22:58.560Z</time>
      </trkpt>
      <trkpt lat="48.27542" lon="-4.43341">
        <ele>34.65</ele>
        <time>2022-07-12T13:23:08.216Z</time>
      </trkpt>
      <trkpt lat="48.27539" lon="-4.43353">
        <ele>33.9</ele>
        <time>2022-07-12T13:23:18.496Z</time>
      </trkpt>
      <trkpt lat="48.27539" lon="-4.43367">
        <ele>32.88</ele>
        <time>2022-07-12T13:23:27.775Z</time>
      </trkpt>
      <trkpt lat="48.27539" lon="-4.43382">
        <ele>32.65</ele>
        <time>2022-07-12T13:23:36.883Z</time>
      </trkpt>
      <trkpt lat="48.27537" lon="-4.43393">
        <ele>32.63</ele>
        <time>2022-07-12T13:23:46.000Z</time>
      </trkpt>
      <trkpt lat="48.27535" lon="-4.43407">
        <ele>31.65</ele>
        <time>2022-07-12T13:23:55.355Z</time>
      </trkpt>
      <trkpt lat="48.27531" lon="-4.43422">
        <ele>31.65</ele>
        <time>2022-07-12T13:24:04.581Z</time>
      </trkpt>
      <trkpt lat="48.27527" lon="-4.4344">
        <ele>32.58</ele>
        <time>2022-07-12T13:24:13.773Z</time>
      </trkpt>
      <trkpt lat="48.27524" lon="-4.43451">
        <ele>33.88</ele>
        <time>2022-07-12T13:24:23.137Z</time>
      </trkpt>
      <trkpt lat="48.27521" lon="-4.43466">
        <ele>33.65</ele>
        <time>2022-07-12T13:24:32.417Z</time>
      </trkpt>
      <trkpt lat="48.27519" lon="-4.43479">
        <ele>33.65</ele>
        <time>2022-07-12T13:24:41.520Z</time>
      </trkpt>
      <trkpt lat="48.27514" lon="-4.43492">
        <ele>33.69</ele>
        <time>2022-07-12T13:24:50.696Z</time>
      </trkpt>
      <trkpt lat="48.27512" lon="-4.43501">
        <ele>33.65</ele>
        <time>2022-07-12T13:24:59.937Z</time>
      </trkpt>
      <trkpt lat="48.27508" lon="-4.43514">
        <ele>34.58</ele>
        <time>2022-07-12T13:25:09.642Z</time>
      </trkpt>
      <trkpt lat="48.27502" lon="-4.43527">
        <ele>34.64</ele>
        <time>2022-07-12T13:25:18.739Z</time>
      </trkpt>
      <trkpt lat="48.27501" lon="-4.43538">
        <ele>33.64</ele>
        <time>2022-07-12T13:25:28.000Z</time>
      </trkpt>
      <trkpt lat="48.275" lon="-4.43551">
        <ele>33.64</ele>
        <time>2022-07-12T13:25:37.756Z</time>
      </trkpt>
      <trkpt lat="48.27499" lon="-4.43562">
        <ele>33.64</ele>
        <time>2022-07-12T13:25:46.916Z</time>
      </trkpt>
      <trkpt lat="48.27494" lon="-4.43578">
        <ele>34.64</ele>
        <time>2022-07-12T13:25:56.676Z</time>
      </trkpt>
      <trkpt lat="48.2749" lon="-4.43595">
        <ele>33.64</ele>
        <time>2022-07-12T13:26:05.757Z</time>
      </trkpt>
      <trkpt lat="48.27487" lon="-4.43609">
        <ele>33.64</ele>
        <time>2022-07-12T13:26:14.943Z</time>
      </trkpt>
      <trkpt lat="48.27484" lon="-4.43622">
        <ele>35.39</ele>
        <time>2022-07-12T13:26:24.760Z</time>
      </trkpt>
      <trkpt lat="48.27482" lon="-4.43635">
        <ele>34.64</ele>
        <time>2022-07-12T13:26:33.777Z</time>
      </trkpt>
      <trkpt lat="48.2748" lon="-4.43643">
        <ele>33.66</ele>
        <time>2022-07-12T13:26:42.782Z</time>
      </trkpt>
      <trkpt lat="48.27478" lon="-4.43652">
        <ele>33.39</ele>
        <time>2022-07-12T13:26:52.937Z</time>
      </trkpt>
      <trkpt lat="48.27477" lon="-4.43671">
        <ele>32.64</ele>
        <time>2022-07-12T13:27:02.858Z</time>
      </trkpt>
      <trkpt lat="48.27478" lon="-4.43685">
        <ele>32.64</ele>
        <time>2022-07-12T13:27:12.000Z</time>
      </trkpt>
      <trkpt lat="48.27483" lon="-4.43698">
        <ele>33.39</ele>
        <time>2022-07-12T13:27:21.376Z</time>
      </trkpt>
      <trkpt lat="48.27484" lon="-4.43716">
        <ele>32.64</ele>
        <time>2022-07-12T13:27:30.881Z</time>
      </trkpt>
      <trkpt lat="48.27483" lon="-4.4373">
        <ele>33.64</ele>
        <time>2022-07-12T13:27:40.276Z</time>
      </trkpt>
      <trkpt lat="48.27485" lon="-4.43743">
        <ele>33.64</ele>
        <time>2022-07-12T13:27:49.797Z</time>
      </trkpt>
      <trkpt lat="48.27487" lon="-4.43756">
        <ele>33.64</ele>
        <time>2022-07-12T13:27:59.079Z</time>
      </trkpt>
      <trkpt lat="48.27485" lon="-4.43772">
        <ele>34.64</ele>
        <time>2022-07-12T13:28:08.399Z</time>
      </trkpt>
      <trkpt lat="48.27484" lon="-4.43779">
        <ele>33.64</ele>
        <time>2022-07-12T13:28:17.740Z</time>
      </trkpt>
      <trkpt lat="48.27482" lon="-4.43793">
        <ele>32.71</ele>
        <time>2022-07-12T13:28:27.000Z</time>
      </trkpt>
      <trkpt lat="48.27485" lon="-4.43807">
        <ele>33.39</ele>
        <time>2022-07-12T13:28:36.695Z</time>
      </trkpt>
      <trkpt lat="48.27486" lon="-4.43819">
        <ele>34.64</ele>
        <time>2022-07-12T13:28:45.802Z</time>
      </trkpt>
      <trkpt lat="48.27486" lon="-4.43831">
        <ele>34.66</ele>
        <time>2022-07-12T13:28:54.877Z</time>
      </trkpt>
      <trkpt lat="48.27486" lon="-4.43841">
        <ele>35.64</ele>
        <time>2022-07-12T13:29:04.015Z</time>
      </trkpt>
      <trkpt lat="48.27486" lon="-4.43854">
        <ele>36.58</ele>
        <time>2022-07-12T13:29:14.000Z</time>
      </trkpt>
      <trkpt lat="48.27486" lon="-4.43858">
        <ele>36.64</ele>
        <time>2022-07-12T13:29:23.383Z</time>
      </trkpt>
      <trkpt lat="48.27487" lon="-4.4387">
        <ele>35.64</ele>
        <time>2022-07-12T13:29:32.460Z</time>
      </trkpt>
      <trkpt lat="48.2749" lon="-4.43888">
        <ele>36.39</ele>
        <time>2022-07-12T13:29:42.000Z</time>
      </trkpt>
      <trkpt lat="48.27494" lon="-4.43904">
        <ele>37.64</ele>
        <time>2022-07-12T13:29:51.497Z</time>
      </trkpt>
      <trkpt lat="48.27497" lon="-4.43913">
        <ele>36.64</ele>
        <time>2022-07-12T13:30:01.000Z</time>
      </trkpt>
      <trkpt lat="48.27498" lon="-4.43928">
        <ele>37.39</ele>
        <time>2022-07-12T13:30:10.481Z</time>
      </trkpt>
      <trkpt lat="48.27498" lon="-4.43938">
        <ele>37.64</ele>
        <time>2022-07-12T13:30:19.839Z</time>
      </trkpt>
      <trkpt lat="48.27499" lon="-4.43944">
        <ele>36.66</ele>
        <time>2022-07-12T13:30:29.376Z</time>
      </trkpt>
      <trkpt lat="48.275" lon="-4.43957">
        <ele>36.64</ele>
        <time>2022-07-12T13:30:38.497Z</time>
      </trkpt>
      <trkpt lat="48.275" lon="-4.43967">
        <ele>36.64</ele>
        <time>2022-07-12T13:30:47.516Z</time>
      </trkpt>
      <trkpt lat="48.275" lon="-4.4398">
        <ele>36.64</ele>
        <time>2022-07-12T13:30:56.814Z</time>
      </trkpt>
      <trkpt lat="48.27499" lon="-4.43998">
        <ele>39.64</ele>
        <time>2022-07-12T13:31:06.337Z</time>
      </trkpt>
      <trkpt lat="48.27496" lon="-4.44014">
        <ele>39.89</ele>
        <time>2022-07-12T13:31:15.523Z</time>
      </trkpt>
      <trkpt lat="48.27495" lon="-4.44025">
        <ele>39.64</ele>
        <time>2022-07-12T13:31:24.640Z</time>
      </trkpt>
      <trkpt lat="48.27492" lon="-4.44038">
        <ele>41.39</ele>
        <time>2022-07-12T13:31:34.279Z</time>
      </trkpt>
      <trkpt lat="48.27491" lon="-4.44046">
        <ele>40.64</ele>
        <time>2022-07-12T13:31:43.599Z</time>
      </trkpt>
      <trkpt lat="48.27491" lon="-4.44054">
        <ele>39.89</ele>
        <time>2022-07-12T13:31:52.775Z</time>
      </trkpt>
      <trkpt lat="48.27487" lon="-4.4407">
        <ele>37.64</ele>
        <time>2022-07-12T13:32:01.880Z</time>
      </trkpt>
      <trkpt lat="48.2748" lon="-4.44085">
        <ele>36.39</ele>
        <time>2022-07-12T13:32:11.438Z</time>
      </trkpt>
      <trkpt lat="48.27477" lon="-4.44093">
        <ele>36.64</ele>
        <time>2022-07-12T13:32:20.877Z</time>
      </trkpt>
      <trkpt lat="48.2747" lon="-4.44109">
        <ele>37.58</ele>
        <time>2022-07-12T13:32:29.896Z</time>
      </trkpt>
      <trkpt lat="48.27464" lon="-4.4412">
        <ele>38.64</ele>
        <time>2022-07-12T13:32:39.000Z</time>
      </trkpt>
      <trkpt lat="48.27458" lon="-4.4413">
        <ele>38.41</ele>
        <time>2022-07-12T13:32:49.000Z</time>
      </trkpt>
      <trkpt lat="48.27454" lon="-4.44146">
        <ele>39.62</ele>
        <time>2022-07-12T13:32:58.597Z</time>
      </trkpt>
      <trkpt lat="48.27453" lon="-4.44157">
        <ele>40.64</ele>
        <time>2022-07-12T13:33:07.599Z</time>
      </trkpt>
      <trkpt lat="48.27453" lon="-4.44168">
        <ele>40.64</ele>
        <time>2022-07-12T13:33:17.000Z</time>
      </trkpt>
      <trkpt lat="48.27452" lon="-4.44181">
        <ele>39.7</ele>
        <time>2022-07-12T13:33:26.557Z</time>
      </trkpt>
      <trkpt lat="48.2745" lon="-4.44194">
        <ele>38.84</ele>
        <time>2022-07-12T13:33:36.000Z</time>
      </trkpt>
      <trkpt lat="48.2745" lon="-4.4421">
        <ele>39.64</ele>
        <time>2022-07-12T13:33:45.457Z</time>
      </trkpt>
      <trkpt lat="48.2745" lon="-4.44228">
        <ele>40.64</ele>
        <time>2022-07-12T13:33:54.857Z</time>
      </trkpt>
      <trkpt lat="48.27449" lon="-4.44244">
        <ele>41.64</ele>
        <time>2022-07-12T13:34:04.316Z</time>
      </trkpt>
      <trkpt lat="48.27448" lon="-4.44261">
        <ele>41.7</ele>
        <time>2022-07-12T13:34:13.815Z</time>
      </trkpt>
      <trkpt lat="48.27445" lon="-4.44273">
        <ele>43.62</ele>
        <time>2022-07-12T13:34:23.122Z</time>
      </trkpt>
      <trkpt lat="48.2744" lon="-4.4429">
        <ele>44.58</ele>
        <time>2022-07-12T13:34:32.599Z</time>
      </trkpt>
      <trkpt lat="48.27435" lon="-4.44307">
        <ele>44.64</ele>
        <time>2022-07-12T13:34:41.923Z</time>
      </trkpt>
      <trkpt lat="48.27431" lon="-4.4432">
        <ele>44.62</ele>
        <time>2022-07-12T13:34:51.000Z</time>
      </trkpt>
      <trkpt lat="48.27429" lon="-4.44332">
        <ele>43.64</ele>
        <time>2022-07-12T13:35:00.159Z</time>
      </trkpt>
      <trkpt lat="48.27425" lon="-4.44344">
        <ele>43.64</ele>
        <time>2022-07-12T13:35:09.898Z</time>
      </trkpt>
      <trkpt lat="48.27422" lon="-4.44356">
        <ele>43.64</ele>
        <time>2022-07-12T13:35:19.159Z</time>
      </trkpt>
      <trkpt lat="48.2742" lon="-4.44366">
        <ele>42.64</ele>
        <time>2022-07-12T13:35:28.837Z</time>
      </trkpt>
      <trkpt lat="48.27415" lon="-4.44379">
        <ele>43.64</ele>
        <time>2022-07-12T13:35:37.973Z</time>
      </trkpt>
      <trkpt lat="48.2741" lon="-4.44392">
        <ele>42.64</ele>
        <time>2022-07-12T13:35:47.720Z</time>
      </trkpt>
      <trkpt lat="48.27405" lon="-4.44404">
        <ele>41.64</ele>
        <time>2022-07-12T13:35:56.858Z</time>
      </trkpt>
      <trkpt lat="48.27401" lon="-4.44421">
        <ele>40.64</ele>
        <time>2022-07-12T13:36:06.140Z</time>
      </trkpt>
      <trkpt lat="48.27397" lon="-4.44435">
        <ele>41.63</ele>
        <time>2022-07-12T13:36:15.277Z</time>
      </trkpt>
      <trkpt lat="48.27391" lon="-4.44451">
        <ele>42.64</ele>
        <time>2022-07-12T13:36:25.473Z</time>
      </trkpt>
      <trkpt lat="48.27387" lon="-4.44464">
        <ele>42.64</ele>
        <time>2022-07-12T13:36:34.678Z</time>
      </trkpt>
      <trkpt lat="48.27384" lon="-4.44475">
        <ele>41.7</ele>
        <time>2022-07-12T13:36:43.736Z</time>
      </trkpt>
      <trkpt lat="48.27378" lon="-4.44486">
        <ele>42.64</ele>
        <time>2022-07-12T13:36:53.000Z</time>
      </trkpt>
      <trkpt lat="48.27371" lon="-4.44499">
        <ele>42.64</ele>
        <time>2022-07-12T13:37:02.501Z</time>
      </trkpt>
      <trkpt lat="48.27365" lon="-4.44514">
        <ele>42.64</ele>
        <time>2022-07-12T13:37:11.541Z</time>
      </trkpt>
      <trkpt lat="48.27358" lon="-4.44531">
        <ele>42.39</ele>
        <time>2022-07-12T13:37:21.000Z</time>
      </trkpt>
      <trkpt lat="48.27349" lon="-4.44542">
        <ele>42.64</ele>
        <time>2022-07-12T13:37:31.000Z</time>
      </trkpt>
      <trkpt lat="48.27342" lon="-4.44546">
        <ele>41.64</ele>
        <time>2022-07-12T13:37:40.762Z</time>
      </trkpt>
      <trkpt lat="48.27332" lon="-4.44554">
        <ele>40.64</ele>
        <time>2022-07-12T13:37:50.340Z</time>
      </trkpt>
      <trkpt lat="48.2732" lon="-4.44562">
        <ele>39.64</ele>
        <time>2022-07-12T13:38:00.000Z</time>
      </trkpt>
      <trkpt lat="48.27307" lon="-4.44567">
        <ele>41.64</ele>
        <time>2022-07-12T13:38:09.275Z</time>
      </trkpt>
      <trkpt lat="48.27297" lon="-4.4457">
        <ele>39.64</ele>
        <time>2022-07-12T13:38:19.000Z</time>
      </trkpt>
      <trkpt lat="48.27284" lon="-4.44572">
        <ele>35.65</ele>
        <time>2022-07-12T13:38:28.177Z</time>
      </trkpt>
      <trkpt lat="48.27274" lon="-4.44578">
        <ele>35.64</ele>
        <time>2022-07-12T13:38:37.537Z</time>
      </trkpt>
      <trkpt lat="48.27267" lon="-4.44573">
        <ele>34.64</ele>
        <time>2022-07-12T13:38:47.000Z</time>
      </trkpt>
      <trkpt lat="48.27257" lon="-4.44574">
        <ele>34.64</ele>
        <time>2022-07-12T13:38:56.334Z</time>
      </trkpt>
      <trkpt lat="48.27247" lon="-4.44579">
        <ele>35.64</ele>
        <time>2022-07-12T13:39:05.697Z</time>
      </trkpt>
      <trkpt lat="48.27238" lon="-4.44586">
        <ele>37.64</ele>
        <time>2022-07-12T13:39:15.157Z</time>
      </trkpt>
      <trkpt lat="48.2723" lon="-4.44596">
        <ele>38.63</ele>
        <time>2022-07-12T13:39:24.556Z</time>
      </trkpt>
      <trkpt lat="48.27222" lon="-4.44608">
        <ele>39.64</ele>
        <time>2022-07-12T13:39:33.893Z</time>
      </trkpt>
      <trkpt lat="48.27213" lon="-4.44619">
        <ele>40.39</ele>
        <time>2022-07-12T13:39:43.782Z</time>
      </trkpt>
      <trkpt lat="48.27202" lon="-4.4463">
        <ele>39.64</ele>
        <time>2022-07-12T13:39:53.667Z</time>
      </trkpt>
      <trkpt lat="48.27194" lon="-4.44638">
        <ele>39.64</ele>
        <time>2022-07-12T13:40:02.942Z</time>
      </trkpt>
      <trkpt lat="48.27186" lon="-4.44642">
        <ele>40.64</ele>
        <time>2022-07-12T13:40:12.382Z</time>
      </trkpt>
      <trkpt lat="48.27176" lon="-4.44646">
        <ele>40.57</ele>
        <time>2022-07-12T13:40:22.000Z</time>
      </trkpt>
      <trkpt lat="48.27172" lon="-4.44647">
        <ele>41.64</ele>
        <time>2022-07-12T13:40:31.920Z</time>
      </trkpt>
      <trkpt lat="48.27162" lon="-4.44654">
        <ele>40.64</ele>
        <time>2022-07-12T13:40:41.300Z</time>
      </trkpt>
      <trkpt lat="48.27154" lon="-4.4466">
        <ele>38.64</ele>
        <time>2022-07-12T13:40:50.900Z</time>
      </trkpt>
      <trkpt lat="48.27148" lon="-4.44667">
        <ele>40.62</ele>
        <time>2022-07-12T13:41:00.437Z</time>
      </trkpt>
      <trkpt lat="48.27139" lon="-4.44676">
        <ele>39.64</ele>
        <time>2022-07-12T13:41:09.583Z</time>
      </trkpt>
      <trkpt lat="48.27138" lon="-4.44678">
        <ele>39.64</ele>
        <time>2022-07-12T13:41:19.000Z</time>
      </trkpt>
      <trkpt lat="48.27138" lon="-4.4468">
        <ele>40.39</ele>
        <time>2022-07-12T13:41:51.000Z</time>
      </trkpt>
      <trkpt lat="48.27131" lon="-4.44682">
        <ele>40.63</ele>
        <time>2022-07-12T13:42:00.678Z</time>
      </trkpt>
      <trkpt lat="48.27122" lon="-4.44688">
        <ele>41.64</ele>
        <time>2022-07-12T13:42:10.000Z</time>
      </trkpt>
      <trkpt lat="48.27113" lon="-4.44698">
        <ele>42.64</ele>
        <time>2022-07-12T13:42:19.320Z</time>
      </trkpt>
      <trkpt lat="48.27108" lon="-4.44708">
        <ele>42.64</ele>
        <time>2022-07-12T13:42:28.761Z</time>
      </trkpt>
      <trkpt lat="48.27104" lon="-4.44715">
        <ele>41.39</ele>
        <time>2022-07-12T13:42:38.033Z</time>
      </trkpt>
      <trkpt lat="48.27095" lon="-4.44714">
        <ele>40.64</ele>
        <time>2022-07-12T13:42:47.878Z</time>
      </trkpt>
      <trkpt lat="48.27085" lon="-4.44714">
        <ele>38.64</ele>
        <time>2022-07-12T13:42:57.141Z</time>
      </trkpt>
      <trkpt lat="48.27076" lon="-4.44714">
        <ele>38.39</ele>
        <time>2022-07-12T13:43:06.461Z</time>
      </trkpt>
      <trkpt lat="48.27068" lon="-4.44716">
        <ele>38.64</ele>
        <time>2022-07-12T13:43:15.677Z</time>
      </trkpt>
      <trkpt lat="48.27063" lon="-4.4472">
        <ele>37.64</ele>
        <time>2022-07-12T13:43:25.000Z</time>
      </trkpt>
      <trkpt lat="48.27057" lon="-4.44729">
        <ele>38.64</ele>
        <time>2022-07-12T13:43:34.136Z</time>
      </trkpt>
      <trkpt lat="48.2705" lon="-4.44738">
        <ele>38.64</ele>
        <time>2022-07-12T13:43:44.636Z</time>
      </trkpt>
      <trkpt lat="48.27047" lon="-4.44749">
        <ele>37.89</ele>
        <time>2022-07-12T13:43:53.937Z</time>
      </trkpt>
      <trkpt lat="48.27045" lon="-4.44762">
        <ele>38.39</ele>
        <time>2022-07-12T13:44:03.799Z</time>
      </trkpt>
      <trkpt lat="48.27042" lon="-4.44776">
        <ele>37.64</ele>
        <time>2022-07-12T13:44:13.000Z</time>
      </trkpt>
      <trkpt lat="48.27037" lon="-4.44787">
        <ele>38.4</ele>
        <time>2022-07-12T13:44:22.223Z</time>
      </trkpt>
      <trkpt lat="48.27037" lon="-4.44799">
        <ele>38.64</ele>
        <time>2022-07-12T13:44:31.623Z</time>
      </trkpt>
      <trkpt lat="48.27036" lon="-4.44812">
        <ele>38.64</ele>
        <time>2022-07-12T13:44:40.920Z</time>
      </trkpt>
      <trkpt lat="48.27037" lon="-4.4483">
        <ele>36.64</ele>
        <time>2022-07-12T13:44:50.701Z</time>
      </trkpt>
      <trkpt lat="48.27035" lon="-4.44845">
        <ele>35.64</ele>
        <time>2022-07-12T13:44:59.718Z</time>
      </trkpt>
      <trkpt lat="48.27033" lon="-4.44854">
        <ele>35.64</ele>
        <time>2022-07-12T13:45:09.118Z</time>
      </trkpt>
      <trkpt lat="48.27031" lon="-4.44866">
        <ele>35.64</ele>
        <time>2022-07-12T13:45:18.916Z</time>
      </trkpt>
      <trkpt lat="48.27027" lon="-4.44882">
        <ele>35.64</ele>
        <time>2022-07-12T13:45:28.762Z</time>
      </trkpt>
      <trkpt lat="48.27029" lon="-4.449">
        <ele>36.63</ele>
        <time>2022-07-12T13:45:38.671Z</time>
      </trkpt>
      <trkpt lat="48.27027" lon="-4.44914">
        <ele>38.39</ele>
        <time>2022-07-12T13:45:48.020Z</time>
      </trkpt>
      <trkpt lat="48.27025" lon="-4.44927">
        <ele>38.63</ele>
        <time>2022-07-12T13:45:57.436Z</time>
      </trkpt>
      <trkpt lat="48.27024" lon="-4.44941">
        <ele>40.32</ele>
        <time>2022-07-12T13:46:07.000Z</time>
      </trkpt>
      <trkpt lat="48.27024" lon="-4.44957">
        <ele>40.59</ele>
        <time>2022-07-12T13:46:16.479Z</time>
      </trkpt>
      <trkpt lat="48.27024" lon="-4.44967">
        <ele>40.38</ele>
        <time>2022-07-12T13:46:26.278Z</time>
      </trkpt>
      <trkpt lat="48.27024" lon="-4.44978">
        <ele>39.64</ele>
        <time>2022-07-12T13:46:36.036Z</time>
      </trkpt>
      <trkpt lat="48.27023" lon="-4.44991">
        <ele>39.65</ele>
        <time>2022-07-12T13:46:46.415Z</time>
      </trkpt>
      <trkpt lat="48.27022" lon="-4.45007">
        <ele>39.63</ele>
        <time>2022-07-12T13:46:55.679Z</time>
      </trkpt>
      <trkpt lat="48.27024" lon="-4.45023">
        <ele>40.7</ele>
        <time>2022-07-12T13:47:05.000Z</time>
      </trkpt>
      <trkpt lat="48.27023" lon="-4.4504">
        <ele>39.63</ele>
        <time>2022-07-12T13:47:14.198Z</time>
      </trkpt>
      <trkpt lat="48.27023" lon="-4.45055">
        <ele>40.62</ele>
        <time>2022-07-12T13:47:23.439Z</time>
      </trkpt>
      <trkpt lat="48.27024" lon="-4.45063">
        <ele>40.63</ele>
        <time>2022-07-12T13:47:32.556Z</time>
      </trkpt>
      <trkpt lat="48.27022" lon="-4.4508">
        <ele>41.59</ele>
        <time>2022-07-12T13:47:41.942Z</time>
      </trkpt>
      <trkpt lat="48.27022" lon="-4.45095">
        <ele>41.63</ele>
        <time>2022-07-12T13:47:51.761Z</time>
      </trkpt>
      <trkpt lat="48.27021" lon="-4.45111">
        <ele>40.88</ele>
        <time>2022-07-12T13:48:01.601Z</time>
      </trkpt>
      <trkpt lat="48.27021" lon="-4.45125">
        <ele>41.63</ele>
        <time>2022-07-12T13:48:10.802Z</time>
      </trkpt>
      <trkpt lat="48.27022" lon="-4.4514">
        <ele>41.63</ele>
        <time>2022-07-12T13:48:19.820Z</time>
      </trkpt>
      <trkpt lat="48.27024" lon="-4.45155">
        <ele>41.63</ele>
        <time>2022-07-12T13:48:29.276Z</time>
      </trkpt>
      <trkpt lat="48.27025" lon="-4.45168">
        <ele>42.57</ele>
        <time>2022-07-12T13:48:38.517Z</time>
      </trkpt>
      <trkpt lat="48.27024" lon="-4.45179">
        <ele>43.57</ele>
        <time>2022-07-12T13:48:47.640Z</time>
      </trkpt>
      <trkpt lat="48.27028" lon="-4.45195">
        <ele>43.57</ele>
        <time>2022-07-12T13:48:56.842Z</time>
      </trkpt>
      <trkpt lat="48.27031" lon="-4.45212">
        <ele>46.38</ele>
        <time>2022-07-12T13:49:06.000Z</time>
      </trkpt>
      <trkpt lat="48.27034" lon="-4.45228">
        <ele>46.63</ele>
        <time>2022-07-12T13:49:15.155Z</time>
      </trkpt>
      <trkpt lat="48.2704" lon="-4.4524">
        <ele>47.63</ele>
        <time>2022-07-12T13:49:24.233Z</time>
      </trkpt>
      <trkpt lat="48.27043" lon="-4.45254">
        <ele>47.88</ele>
        <time>2022-07-12T13:49:33.382Z</time>
      </trkpt>
      <trkpt lat="48.27048" lon="-4.45268">
        <ele>47.63</ele>
        <time>2022-07-12T13:49:42.600Z</time>
      </trkpt>
      <trkpt lat="48.27049" lon="-4.45276">
        <ele>47.63</ele>
        <time>2022-07-12T13:49:52.000Z</time>
      </trkpt>
      <trkpt lat="48.27049" lon="-4.45278">
        <ele>47.63</ele>
        <time>2022-07-12T13:50:07.857Z</time>
      </trkpt>
      <trkpt lat="48.27053" lon="-4.45289">
        <ele>47.63</ele>
        <time>2022-07-12T13:50:17.199Z</time>
      </trkpt>
      <trkpt lat="48.27058" lon="-4.45297">
        <ele>47.63</ele>
        <time>2022-07-12T13:50:26.360Z</time>
      </trkpt>
      <trkpt lat="48.27062" lon="-4.45309">
        <ele>45.64</ele>
        <time>2022-07-12T13:50:35.670Z</time>
      </trkpt>
      <trkpt lat="48.27065" lon="-4.45317">
        <ele>44.63</ele>
        <time>2022-07-12T13:50:44.838Z</time>
      </trkpt>
      <trkpt lat="48.27073" lon="-4.45334">
        <ele>45.63</ele>
        <time>2022-07-12T13:50:54.115Z</time>
      </trkpt>
      <trkpt lat="48.27079" lon="-4.45342">
        <ele>46.38</ele>
        <time>2022-07-12T13:51:04.275Z</time>
      </trkpt>
      <trkpt lat="48.27083" lon="-4.45343">
        <ele>45.63</ele>
        <time>2022-07-12T13:51:13.937Z</time>
      </trkpt>
      <trkpt lat="48.27088" lon="-4.45343">
        <ele>45.57</ele>
        <time>2022-07-12T13:51:23.000Z</time>
      </trkpt>
      <trkpt lat="48.27096" lon="-4.45344">
        <ele>44.65</ele>
        <time>2022-07-12T13:51:32.198Z</time>
      </trkpt>
      <trkpt lat="48.27105" lon="-4.45352">
        <ele>44.63</ele>
        <time>2022-07-12T13:51:41.400Z</time>
      </trkpt>
      <trkpt lat="48.27113" lon="-4.45354">
        <ele>42.63</ele>
        <time>2022-07-12T13:51:50.665Z</time>
      </trkpt>
      <trkpt lat="48.27121" lon="-4.45356">
        <ele>42.63</ele>
        <time>2022-07-12T13:51:59.894Z</time>
      </trkpt>
      <trkpt lat="48.27129" lon="-4.45359">
        <ele>41.63</ele>
        <time>2022-07-12T13:52:09.000Z</time>
      </trkpt>
      <trkpt lat="48.27139" lon="-4.45363">
        <ele>40.62</ele>
        <time>2022-07-12T13:52:18.037Z</time>
      </trkpt>
      <trkpt lat="48.27151" lon="-4.45368">
        <ele>41.63</ele>
        <time>2022-07-12T13:52:27.664Z</time>
      </trkpt>
      <trkpt lat="48.27157" lon="-4.45369">
        <ele>41.63</ele>
        <time>2022-07-12T13:52:37.000Z</time>
      </trkpt>
      <trkpt lat="48.27166" lon="-4.45374">
        <ele>39.63</ele>
        <time>2022-07-12T13:52:46.956Z</time>
      </trkpt>
      <trkpt lat="48.27175" lon="-4.45376">
        <ele>40.44</ele>
        <time>2022-07-12T13:52:56.000Z</time>
      </trkpt>
      <trkpt lat="48.27189" lon="-4.45379">
        <ele>41.62</ele>
        <time>2022-07-12T13:53:05.502Z</time>
      </trkpt>
      <trkpt lat="48.272" lon="-4.4538">
        <ele>43.57</ele>
        <time>2022-07-12T13:53:14.740Z</time>
      </trkpt>
      <trkpt lat="48.27212" lon="-4.45379">
        <ele>45.57</ele>
        <time>2022-07-12T13:53:23.797Z</time>
      </trkpt>
      <trkpt lat="48.27224" lon="-4.45378">
        <ele>45.63</ele>
        <time>2022-07-12T13:53:32.879Z</time>
      </trkpt>
      <trkpt lat="48.27233" lon="-4.45377">
        <ele>44.63</ele>
        <time>2022-07-12T13:53:42.415Z</time>
      </trkpt>
      <trkpt lat="48.2724" lon="-4.45378">
        <ele>44.63</ele>
        <time>2022-07-12T13:53:52.780Z</time>
      </trkpt>
      <trkpt lat="48.27248" lon="-4.45378">
        <ele>42.63</ele>
        <time>2022-07-12T13:54:02.000Z</time>
      </trkpt>
      <trkpt lat="48.27254" lon="-4.45379">
        <ele>41.63</ele>
        <time>2022-07-12T13:54:11.418Z</time>
      </trkpt>
      <trkpt lat="48.27263" lon="-4.4538">
        <ele>42.63</ele>
        <time>2022-07-12T13:54:20.819Z</time>
      </trkpt>
      <trkpt lat="48.2728" lon="-4.4538">
        <ele>39.64</ele>
        <time>2022-07-12T13:54:30.679Z</time>
      </trkpt>
      <trkpt lat="48.27288" lon="-4.45381">
        <ele>38.88</ele>
        <time>2022-07-12T13:54:39.701Z</time>
      </trkpt>
      <trkpt lat="48.27298" lon="-4.45384">
        <ele>39.63</ele>
        <time>2022-07-12T13:54:49.100Z</time>
      </trkpt>
      <trkpt lat="48.27304" lon="-4.45386">
        <ele>40.63</ele>
        <time>2022-07-12T13:54:58.556Z</time>
      </trkpt>
      <trkpt lat="48.27315" lon="-4.45388">
        <ele>41.63</ele>
        <time>2022-07-12T13:55:07.563Z</time>
      </trkpt>
      <trkpt lat="48.27326" lon="-4.45387">
        <ele>42.63</ele>
        <time>2022-07-12T13:55:17.000Z</time>
      </trkpt>
      <trkpt lat="48.27339" lon="-4.45388">
        <ele>41.63</ele>
        <time>2022-07-12T13:55:26.477Z</time>
      </trkpt>
      <trkpt lat="48.27344" lon="-4.45388">
        <ele>41.63</ele>
        <time>2022-07-12T13:55:36.000Z</time>
      </trkpt>
      <trkpt lat="48.27349" lon="-4.45388">
        <ele>41.63</ele>
        <time>2022-07-12T13:55:45.581Z</time>
      </trkpt>
      <trkpt lat="48.27361" lon="-4.45383">
        <ele>43.57</ele>
        <time>2022-07-12T13:55:54.757Z</time>
      </trkpt>
      <trkpt lat="48.27368" lon="-4.45382">
        <ele>42.38</ele>
        <time>2022-07-12T13:56:04.000Z</time>
      </trkpt>
      <trkpt lat="48.27381" lon="-4.4538">
        <ele>42.63</ele>
        <time>2022-07-12T13:56:13.664Z</time>
      </trkpt>
      <trkpt lat="48.2739" lon="-4.45379">
        <ele>42.86</ele>
        <time>2022-07-12T13:56:22.666Z</time>
      </trkpt>
      <trkpt lat="48.27398" lon="-4.45378">
        <ele>42.63</ele>
        <time>2022-07-12T13:56:32.561Z</time>
      </trkpt>
      <trkpt lat="48.27409" lon="-4.45376">
        <ele>43.63</ele>
        <time>2022-07-12T13:56:42.000Z</time>
      </trkpt>
      <trkpt lat="48.27417" lon="-4.45376">
        <ele>43.65</ele>
        <time>2022-07-12T13:56:51.338Z</time>
      </trkpt>
      <trkpt lat="48.2743" lon="-4.45375">
        <ele>44.63</ele>
        <time>2022-07-12T13:57:00.420Z</time>
      </trkpt>
      <trkpt lat="48.27439" lon="-4.4537">
        <ele>46.57</ele>
        <time>2022-07-12T13:57:09.595Z</time>
      </trkpt>
      <trkpt lat="48.2745" lon="-4.45366">
        <ele>47.63</ele>
        <time>2022-07-12T13:57:18.736Z</time>
      </trkpt>
      <trkpt lat="48.27457" lon="-4.45367">
        <ele>49.57</ele>
        <time>2022-07-12T13:57:28.000Z</time>
      </trkpt>
      <trkpt lat="48.27467" lon="-4.45366">
        <ele>50.63</ele>
        <time>2022-07-12T13:57:37.903Z</time>
      </trkpt>
      <trkpt lat="48.27477" lon="-4.45365">
        <ele>51.57</ele>
        <time>2022-07-12T13:57:47.758Z</time>
      </trkpt>
      <trkpt lat="48.27487" lon="-4.45368">
        <ele>53.63</ele>
        <time>2022-07-12T13:57:56.955Z</time>
      </trkpt>
      <trkpt lat="48.27495" lon="-4.45369">
        <ele>54.82</ele>
        <time>2022-07-12T13:58:06.000Z</time>
      </trkpt>
      <trkpt lat="48.27504" lon="-4.45369">
        <ele>53.63</ele>
        <time>2022-07-12T13:58:15.457Z</time>
      </trkpt>
      <trkpt lat="48.27514" lon="-4.4537">
        <ele>53.63</ele>
        <time>2022-07-12T13:58:24.742Z</time>
      </trkpt>
      <trkpt lat="48.2752" lon="-4.4537">
        <ele>52.63</ele>
        <time>2022-07-12T13:58:33.920Z</time>
      </trkpt>
      <trkpt lat="48.27528" lon="-4.45363">
        <ele>52.65</ele>
        <time>2022-07-12T13:58:43.138Z</time>
      </trkpt>
      <trkpt lat="48.27537" lon="-4.45357">
        <ele>53.63</ele>
        <time>2022-07-12T13:58:52.375Z</time>
      </trkpt>
      <trkpt lat="48.27546" lon="-4.45348">
        <ele>55.63</ele>
        <time>2022-07-12T13:59:01.760Z</time>
      </trkpt>
      <trkpt lat="48.2755" lon="-4.45334">
        <ele>55.63</ele>
        <time>2022-07-12T13:59:11.000Z</time>
      </trkpt>
      <trkpt lat="48.27554" lon="-4.45322">
        <ele>55.63</ele>
        <time>2022-07-12T13:59:20.676Z</time>
      </trkpt>
      <trkpt lat="48.2756" lon="-4.45316">
        <ele>55.63</ele>
        <time>2022-07-12T13:59:29.737Z</time>
      </trkpt>
      <trkpt lat="48.27566" lon="-4.45304">
        <ele>56.4</ele>
        <time>2022-07-12T13:59:39.062Z</time>
      </trkpt>
      <trkpt lat="48.27572" lon="-4.45291">
        <ele>55.64</ele>
        <time>2022-07-12T13:59:49.000Z</time>
      </trkpt>
      <trkpt lat="48.27578" lon="-4.45283">
        <ele>55.63</ele>
        <time>2022-07-12T13:59:58.315Z</time>
      </trkpt>
      <trkpt lat="48.27584" lon="-4.45291">
        <ele>55.88</ele>
        <time>2022-07-12T14:00:07.537Z</time>
      </trkpt>
      <trkpt lat="48.27587" lon="-4.453">
        <ele>56.63</ele>
        <time>2022-07-12T14:00:16.595Z</time>
      </trkpt>
      <trkpt lat="48.27589" lon="-4.45311">
        <ele>56.63</ele>
        <time>2022-07-12T14:00:25.800Z</time>
      </trkpt>
      <trkpt lat="48.27594" lon="-4.45321">
        <ele>57.57</ele>
        <time>2022-07-12T14:00:34.919Z</time>
      </trkpt>
      <trkpt lat="48.27599" lon="-4.45334">
        <ele>58.63</ele>
        <time>2022-07-12T14:00:44.000Z</time>
      </trkpt>
      <trkpt lat="48.27602" lon="-4.45349">
        <ele>60.63</ele>
        <time>2022-07-12T14:00:53.058Z</time>
      </trkpt>
      <trkpt lat="48.27609" lon="-4.45361">
        <ele>61.38</ele>
        <time>2022-07-12T14:01:02.535Z</time>
      </trkpt>
      <trkpt lat="48.27618" lon="-4.45363">
        <ele>59.88</ele>
        <time>2022-07-12T14:01:12.000Z</time>
      </trkpt>
      <trkpt lat="48.27619" lon="-4.45362">
        <ele>58.63</ele>
        <time>2022-07-12T14:01:23.000Z</time>
      </trkpt>
      <trkpt lat="48.2762" lon="-4.45362">
        <ele>58.63</ele>
        <time>2022-07-12T14:01:35.495Z</time>
      </trkpt>
      <trkpt lat="48.27627" lon="-4.45365">
        <ele>57.63</ele>
        <time>2022-07-12T14:01:44.916Z</time>
      </trkpt>
      <trkpt lat="48.27632" lon="-4.45369">
        <ele>57.63</ele>
        <time>2022-07-12T14:01:54.338Z</time>
      </trkpt>
      <trkpt lat="48.27639" lon="-4.45372">
        <ele>55.65</ele>
        <time>2022-07-12T14:02:03.623Z</time>
      </trkpt>
      <trkpt lat="48.27647" lon="-4.45375">
        <ele>54.64</ele>
        <time>2022-07-12T14:02:12.816Z</time>
      </trkpt>
      <trkpt lat="48.27654" lon="-4.45379">
        <ele>54.63</ele>
        <time>2022-07-12T14:02:22.000Z</time>
      </trkpt>
      <trkpt lat="48.27661" lon="-4.45382">
        <ele>53.63</ele>
        <time>2022-07-12T14:02:31.239Z</time>
      </trkpt>
      <trkpt lat="48.27673" lon="-4.45387">
        <ele>53.88</ele>
        <time>2022-07-12T14:02:40.962Z</time>
      </trkpt>
      <trkpt lat="48.27682" lon="-4.45394">
        <ele>54.62</ele>
        <time>2022-07-12T14:02:50.059Z</time>
      </trkpt>
      <trkpt lat="48.27692" lon="-4.45405">
        <ele>54.63</ele>
        <time>2022-07-12T14:02:59.203Z</time>
      </trkpt>
      <trkpt lat="48.27699" lon="-4.45411">
        <ele>55.63</ele>
        <time>2022-07-12T14:03:08.300Z</time>
      </trkpt>
      <trkpt lat="48.27707" lon="-4.45417">
        <ele>55.63</ele>
        <time>2022-07-12T14:03:18.000Z</time>
      </trkpt>
      <trkpt lat="48.27715" lon="-4.45431">
        <ele>54.63</ele>
        <time>2022-07-12T14:03:27.095Z</time>
      </trkpt>
      <trkpt lat="48.27721" lon="-4.45445">
        <ele>53.63</ele>
        <time>2022-07-12T14:03:36.680Z</time>
      </trkpt>
      <trkpt lat="48.27724" lon="-4.45455">
        <ele>53.63</ele>
        <time>2022-07-12T14:03:45.860Z</time>
      </trkpt>
      <trkpt lat="48.27729" lon="-4.45468">
        <ele>51.65</ele>
        <time>2022-07-12T14:03:54.935Z</time>
      </trkpt>
      <trkpt lat="48.27734" lon="-4.45478">
        <ele>50.63</ele>
        <time>2022-07-12T14:04:04.000Z</time>
      </trkpt>
      <trkpt lat="48.27742" lon="-4.45493">
        <ele>50.63</ele>
        <time>2022-07-12T14:04:13.099Z</time>
      </trkpt>
      <trkpt lat="48.27747" lon="-4.45506">
        <ele>51.63</ele>
        <time>2022-07-12T14:04:22.667Z</time>
      </trkpt>
      <trkpt lat="48.27752" lon="-4.45523">
        <ele>52.63</ele>
        <time>2022-07-12T14:04:32.000Z</time>
      </trkpt>
      <trkpt lat="48.27755" lon="-4.45537">
        <ele>53.57</ele>
        <time>2022-07-12T14:04:41.402Z</time>
      </trkpt>
      <trkpt lat="48.27759" lon="-4.45552">
        <ele>53.63</ele>
        <time>2022-07-12T14:04:50.579Z</time>
      </trkpt>
      <trkpt lat="48.27769" lon="-4.45559">
        <ele>53.57</ele>
        <time>2022-07-12T14:05:00.000Z</time>
      </trkpt>
      <trkpt lat="48.27778" lon="-4.45562">
        <ele>50.65</ele>
        <time>2022-07-12T14:05:09.341Z</time>
      </trkpt>
      <trkpt lat="48.27786" lon="-4.45565">
        <ele>49.57</ele>
        <time>2022-07-12T14:05:18.560Z</time>
      </trkpt>
      <trkpt lat="48.27793" lon="-4.4557">
        <ele>49.63</ele>
        <time>2022-07-12T14:05:28.000Z</time>
      </trkpt>
      <trkpt lat="48.27799" lon="-4.45574">
        <ele>48.63</ele>
        <time>2022-07-12T14:05:37.194Z</time>
      </trkpt>
      <trkpt lat="48.2781" lon="-4.4558">
        <ele>48.61</ele>
        <time>2022-07-12T14:05:46.597Z</time>
      </trkpt>
      <trkpt lat="48.27822" lon="-4.4559">
        <ele>48.63</ele>
        <time>2022-07-12T14:05:55.738Z</time>
      </trkpt>
      <trkpt lat="48.27832" lon="-4.45601">
        <ele>49.63</ele>
        <time>2022-07-12T14:06:04.741Z</time>
      </trkpt>
      <trkpt lat="48.27834" lon="-4.45604">
        <ele>51.61</ele>
        <time>2022-07-12T14:06:14.000Z</time>
      </trkpt>
      <trkpt lat="48.27833" lon="-4.45603">
        <ele>51.63</ele>
        <time>2022-07-12T14:06:24.000Z</time>
      </trkpt>
      <trkpt lat="48.27836" lon="-4.45607">
        <ele>51.38</ele>
        <time>2022-07-12T14:06:34.000Z</time>
      </trkpt>
      <trkpt lat="48.27844" lon="-4.45615">
        <ele>30.45</ele>
        <time>2022-07-12T14:06:44.000Z</time>
      </trkpt>
      <trkpt lat="48.27854" lon="-4.45624">
        <ele>30.43</ele>
        <time>2022-07-12T14:06:54.000Z</time>
      </trkpt>
      <trkpt lat="48.27861" lon="-4.45634">
        <ele>42.73</ele>
        <time>2022-07-12T14:07:03.637Z</time>
      </trkpt>
      <trkpt lat="48.27869" lon="-4.45645">
        <ele>52.63</ele>
        <time>2022-07-12T14:07:13.000Z</time>
      </trkpt>
      <trkpt lat="48.27868" lon="-4.45642">
        <ele>51.63</ele>
        <time>2022-07-12T14:07:23.000Z</time>
      </trkpt>
      <trkpt lat="48.27868" lon="-4.45642">
        <ele>51.63</ele>
        <time>2022-07-12T14:07:39.000Z</time>
      </trkpt>
      <trkpt lat="48.27869" lon="-4.45641">
        <ele>52.38</ele>
        <time>2022-07-12T14:08:51.000Z</time>
      </trkpt>
      <trkpt lat="48.27871" lon="-4.45641">
        <ele>52.69</ele>
        <time>2022-07-12T14:09:00.638Z</time>
      </trkpt>
      <trkpt lat="48.2788" lon="-4.45654">
        <ele>53.63</ele>
        <time>2022-07-12T14:09:10.000Z</time>
      </trkpt>
      <trkpt lat="48.2789" lon="-4.45663">
        <ele>55.38</ele>
        <time>2022-07-12T14:09:20.000Z</time>
      </trkpt>
      <trkpt lat="48.27897" lon="-4.45671">
        <ele>56.38</ele>
        <time>2022-07-12T14:09:29.696Z</time>
      </trkpt>
      <trkpt lat="48.27906" lon="-4.45679">
        <ele>56.88</ele>
        <time>2022-07-12T14:09:38.816Z</time>
      </trkpt>
      <trkpt lat="48.27914" lon="-4.45688">
        <ele>58.38</ele>
        <time>2022-07-12T14:09:48.000Z</time>
      </trkpt>
      <trkpt lat="48.27923" lon="-4.45696">
        <ele>57.62</ele>
        <time>2022-07-12T14:09:58.000Z</time>
      </trkpt>
      <trkpt lat="48.27931" lon="-4.45704">
        <ele>41.23</ele>
        <time>2022-07-12T14:10:07.640Z</time>
      </trkpt>
      <trkpt lat="48.27939" lon="-4.4571">
        <ele>41.23</ele>
        <time>2022-07-12T14:10:16.896Z</time>
      </trkpt>
      <trkpt lat="48.27947" lon="-4.45714">
        <ele>41.23</ele>
        <time>2022-07-12T14:10:26.422Z</time>
      </trkpt>
      <trkpt lat="48.27954" lon="-4.45717">
        <ele>41.23</ele>
        <time>2022-07-12T14:10:35.778Z</time>
      </trkpt>
      <trkpt lat="48.27959" lon="-4.45718">
        <ele>41.23</ele>
        <time>2022-07-12T14:10:45.666Z</time>
      </trkpt>
      <trkpt lat="48.27967" lon="-4.45722">
        <ele>41.23</ele>
        <time>2022-07-12T14:10:55.000Z</time>
      </trkpt>
      <trkpt lat="48.27977" lon="-4.45721">
        <ele>41.23</ele>
        <time>2022-07-12T14:11:04.499Z</time>
      </trkpt>
      <trkpt lat="48.27987" lon="-4.45719">
        <ele>41.23</ele>
        <time>2022-07-12T14:11:13.919Z</time>
      </trkpt>
      <trkpt lat="48.27996" lon="-4.45718">
        <ele>41.23</ele>
        <time>2022-07-12T14:11:23.000Z</time>
      </trkpt>
      <trkpt lat="48.28005" lon="-4.45717">
        <ele>57.88</ele>
        <time>2022-07-12T14:11:32.439Z</time>
      </trkpt>
      <trkpt lat="48.28014" lon="-4.45714">
        <ele>58.63</ele>
        <time>2022-07-12T14:11:41.817Z</time>
      </trkpt>
      <trkpt lat="48.28023" lon="-4.45715">
        <ele>57.63</ele>
        <time>2022-07-12T14:11:51.819Z</time>
      </trkpt>
      <trkpt lat="48.28032" lon="-4.45722">
        <ele>57.64</ele>
        <time>2022-07-12T14:12:01.635Z</time>
      </trkpt>
      <trkpt lat="48.2804" lon="-4.45727">
        <ele>58.63</ele>
        <time>2022-07-12T14:12:10.844Z</time>
      </trkpt>
      <trkpt lat="48.28049" lon="-4.45733">
        <ele>59.63</ele>
        <time>2022-07-12T14:12:20.065Z</time>
      </trkpt>
      <trkpt lat="48.28057" lon="-4.45742">
        <ele>57.69</ele>
        <time>2022-07-12T14:12:29.722Z</time>
      </trkpt>
      <trkpt lat="48.28066" lon="-4.45748">
        <ele>56.63</ele>
        <time>2022-07-12T14:12:39.000Z</time>
      </trkpt>
      <trkpt lat="48.28076" lon="-4.45752">
        <ele>55.63</ele>
        <time>2022-07-12T14:12:48.556Z</time>
      </trkpt>
      <trkpt lat="48.28084" lon="-4.45758">
        <ele>55.63</ele>
        <time>2022-07-12T14:12:57.678Z</time>
      </trkpt>
      <trkpt lat="48.28094" lon="-4.45761">
        <ele>55.63</ele>
        <time>2022-07-12T14:13:06.857Z</time>
      </trkpt>
      <trkpt lat="48.28103" lon="-4.45768">
        <ele>56.63</ele>
        <time>2022-07-12T14:13:16.038Z</time>
      </trkpt>
      <trkpt lat="48.2811" lon="-4.45776">
        <ele>55.64</ele>
        <time>2022-07-12T14:13:25.781Z</time>
      </trkpt>
      <trkpt lat="48.28118" lon="-4.45781">
        <ele>55.63</ele>
        <time>2022-07-12T14:13:35.000Z</time>
      </trkpt>
      <trkpt lat="48.28127" lon="-4.45784">
        <ele>54.69</ele>
        <time>2022-07-12T14:13:44.839Z</time>
      </trkpt>
      <trkpt lat="48.28134" lon="-4.4579">
        <ele>53.69</ele>
        <time>2022-07-12T14:13:54.714Z</time>
      </trkpt>
      <trkpt lat="48.28143" lon="-4.45797">
        <ele>54.63</ele>
        <time>2022-07-12T14:14:05.000Z</time>
      </trkpt>
      <trkpt lat="48.28151" lon="-4.45802">
        <ele>55.38</ele>
        <time>2022-07-12T14:14:15.000Z</time>
      </trkpt>
      <trkpt lat="48.28159" lon="-4.45809">
        <ele>56.62</ele>
        <time>2022-07-12T14:14:24.718Z</time>
      </trkpt>
      <trkpt lat="48.28167" lon="-4.45812">
        <ele>56.64</ele>
        <time>2022-07-12T14:14:34.215Z</time>
      </trkpt>
      <trkpt lat="48.28175" lon="-4.45818">
        <ele>92.43</ele>
        <time>2022-07-12T14:14:44.000Z</time>
      </trkpt>
      <trkpt lat="48.28183" lon="-4.45824">
        <ele>92.43</ele>
        <time>2022-07-12T14:14:53.179Z</time>
      </trkpt>
      <trkpt lat="48.28193" lon="-4.45826">
        <ele>92.43</ele>
        <time>2022-07-12T14:15:02.665Z</time>
      </trkpt>
      <trkpt lat="48.28202" lon="-4.4583">
        <ele>57.88</ele>
        <time>2022-07-12T14:15:12.000Z</time>
      </trkpt>
      <trkpt lat="48.28211" lon="-4.45833">
        <ele>89.8</ele>
        <time>2022-07-12T14:15:21.864Z</time>
      </trkpt>
      <trkpt lat="48.28219" lon="-4.45837">
        <ele>92.43</ele>
        <time>2022-07-12T14:15:30.979Z</time>
      </trkpt>
      <trkpt lat="48.28227" lon="-4.45843">
        <ele>92.43</ele>
        <time>2022-07-12T14:15:40.283Z</time>
      </trkpt>
      <trkpt lat="48.28234" lon="-4.45852">
        <ele>92.43</ele>
        <time>2022-07-12T14:15:49.596Z</time>
      </trkpt>
      <trkpt lat="48.28244" lon="-4.4585">
        <ele>92.43</ele>
        <time>2022-07-12T14:15:59.000Z</time>
      </trkpt>
      <trkpt lat="48.28252" lon="-4.45852">
        <ele>92.43</ele>
        <time>2022-07-12T14:16:08.894Z</time>
      </trkpt>
      <trkpt lat="48.28261" lon="-4.45856">
        <ele>92.43</ele>
        <time>2022-07-12T14:16:18.000Z</time>
      </trkpt>
      <trkpt lat="48.28268" lon="-4.45861">
        <ele>92.43</ele>
        <time>2022-07-12T14:16:27.578Z</time>
      </trkpt>
      <trkpt lat="48.28274" lon="-4.45862">
        <ele>91.15</ele>
        <time>2022-07-12T14:16:37.000Z</time>
      </trkpt>
      <trkpt lat="48.28283" lon="-4.45867">
        <ele>91.13</ele>
        <time>2022-07-12T14:16:46.278Z</time>
      </trkpt>
      <trkpt lat="48.28293" lon="-4.45871">
        <ele>91.13</ele>
        <time>2022-07-12T14:16:56.000Z</time>
      </trkpt>
      <trkpt lat="48.28301" lon="-4.45877">
        <ele>91.13</ele>
        <time>2022-07-12T14:17:05.574Z</time>
      </trkpt>
      <trkpt lat="48.28309" lon="-4.45882">
        <ele>89.93</ele>
        <time>2022-07-12T14:17:15.000Z</time>
      </trkpt>
      <trkpt lat="48.28316" lon="-4.45893">
        <ele>91.13</ele>
        <time>2022-07-12T14:17:24.137Z</time>
      </trkpt>
      <trkpt lat="48.2832" lon="-4.459">
        <ele>91.13</ele>
        <time>2022-07-12T14:17:34.000Z</time>
      </trkpt>
      <trkpt lat="48.28322" lon="-4.45901">
        <ele>89.55</ele>
        <time>2022-07-12T14:17:43.317Z</time>
      </trkpt>
      <trkpt lat="48.28329" lon="-4.45913">
        <ele>64.94</ele>
        <time>2022-07-12T14:17:52.700Z</time>
      </trkpt>
      <trkpt lat="48.28335" lon="-4.45921">
        <ele>84.48</ele>
        <time>2022-07-12T14:18:01.721Z</time>
      </trkpt>
      <trkpt lat="48.28344" lon="-4.45924">
        <ele>67.35</ele>
        <time>2022-07-12T14:18:11.782Z</time>
      </trkpt>
      <trkpt lat="48.28353" lon="-4.45928">
        <ele>84.53</ele>
        <time>2022-07-12T14:18:21.577Z</time>
      </trkpt>
      <trkpt lat="48.28363" lon="-4.45932">
        <ele>84.53</ele>
        <time>2022-07-12T14:18:30.640Z</time>
      </trkpt>
      <trkpt lat="48.2837" lon="-4.45937">
        <ele>84.43</ele>
        <time>2022-07-12T14:18:39.782Z</time>
      </trkpt>
      <trkpt lat="48.28375" lon="-4.4595">
        <ele>84.43</ele>
        <time>2022-07-12T14:18:48.841Z</time>
      </trkpt>
      <trkpt lat="48.2838" lon="-4.45963">
        <ele>84.53</ele>
        <time>2022-07-12T14:18:58.177Z</time>
      </trkpt>
      <trkpt lat="48.28385" lon="-4.45977">
        <ele>84.45</ele>
        <time>2022-07-12T14:19:08.000Z</time>
      </trkpt>
      <trkpt lat="48.28392" lon="-4.45987">
        <ele>84.43</ele>
        <time>2022-07-12T14:19:17.795Z</time>
      </trkpt>
      <trkpt lat="48.28395" lon="-4.45996">
        <ele>84.43</ele>
        <time>2022-07-12T14:19:27.000Z</time>
      </trkpt>
      <trkpt lat="48.28407" lon="-4.46004">
        <ele>84.33</ele>
        <time>2022-07-12T14:19:37.000Z</time>
      </trkpt>
      <trkpt lat="48.28415" lon="-4.46014">
        <ele>84.23</ele>
        <time>2022-07-12T14:19:47.000Z</time>
      </trkpt>
      <trkpt lat="48.28426" lon="-4.46018">
        <ele>84.23</ele>
        <time>2022-07-12T14:19:56.693Z</time>
      </trkpt>
      <trkpt lat="48.28437" lon="-4.46022">
        <ele>84.13</ele>
        <time>2022-07-12T14:20:06.283Z</time>
      </trkpt>
      <trkpt lat="48.28446" lon="-4.46032">
        <ele>84.13</ele>
        <time>2022-07-12T14:20:15.718Z</time>
      </trkpt>
      <trkpt lat="48.28455" lon="-4.46037">
        <ele>84.13</ele>
        <time>2022-07-12T14:20:25.561Z</time>
      </trkpt>
      <trkpt lat="48.28463" lon="-4.46042">
        <ele>84.13</ele>
        <time>2022-07-12T14:20:34.597Z</time>
      </trkpt>
      <trkpt lat="48.28473" lon="-4.46047">
        <ele>83.96</ele>
        <time>2022-07-12T14:20:45.000Z</time>
      </trkpt>
      <trkpt lat="48.28482" lon="-4.46054">
        <ele>81.59</ele>
        <time>2022-07-12T14:20:55.000Z</time>
      </trkpt>
      <trkpt lat="48.28491" lon="-4.46057">
        <ele>80.49</ele>
        <time>2022-07-12T14:21:04.755Z</time>
      </trkpt>
      <trkpt lat="48.28501" lon="-4.46065">
        <ele>65.63</ele>
        <time>2022-07-12T14:21:14.000Z</time>
      </trkpt>
      <trkpt lat="48.28509" lon="-4.4607">
        <ele>62.63</ele>
        <time>2022-07-12T14:21:23.638Z</time>
      </trkpt>
      <trkpt lat="48.28519" lon="-4.46074">
        <ele>69.13</ele>
        <time>2022-07-12T14:21:33.000Z</time>
      </trkpt>
      <trkpt lat="48.28531" lon="-4.46076">
        <ele>72.12</ele>
        <time>2022-07-12T14:21:43.000Z</time>
      </trkpt>
      <trkpt lat="48.28543" lon="-4.46081">
        <ele>67.93</ele>
        <time>2022-07-12T14:21:52.560Z</time>
      </trkpt>
      <trkpt lat="48.28552" lon="-4.46084">
        <ele>67.93</ele>
        <time>2022-07-12T14:22:02.000Z</time>
      </trkpt>
      <trkpt lat="48.2856" lon="-4.46089">
        <ele>70.93</ele>
        <time>2022-07-12T14:22:11.674Z</time>
      </trkpt>
      <trkpt lat="48.28569" lon="-4.46095">
        <ele>69.13</ele>
        <time>2022-07-12T14:22:21.517Z</time>
      </trkpt>
      <trkpt lat="48.28579" lon="-4.46097">
        <ele>69.04</ele>
        <time>2022-07-12T14:22:31.000Z</time>
      </trkpt>
      <trkpt lat="48.28585" lon="-4.46099">
        <ele>67.91</ele>
        <time>2022-07-12T14:22:40.879Z</time>
      </trkpt>
      <trkpt lat="48.28593" lon="-4.46103">
        <ele>69.13</ele>
        <time>2022-07-12T14:22:50.058Z</time>
      </trkpt>
      <trkpt lat="48.28601" lon="-4.46114">
        <ele>68.45</ele>
        <time>2022-07-12T14:22:59.673Z</time>
      </trkpt>
      <trkpt lat="48.28608" lon="-4.4612">
        <ele>68.03</ele>
        <time>2022-07-12T14:23:08.762Z</time>
      </trkpt>
      <trkpt lat="48.28616" lon="-4.46124">
        <ele>67.83</ele>
        <time>2022-07-12T14:23:18.176Z</time>
      </trkpt>
      <trkpt lat="48.28626" lon="-4.46126">
        <ele>67.83</ele>
        <time>2022-07-12T14:23:27.317Z</time>
      </trkpt>
      <trkpt lat="48.28636" lon="-4.46132">
        <ele>67.73</ele>
        <time>2022-07-12T14:23:37.000Z</time>
      </trkpt>
      <trkpt lat="48.28647" lon="-4.46137">
        <ele>67.73</ele>
        <time>2022-07-12T14:23:46.818Z</time>
      </trkpt>
      <trkpt lat="48.28657" lon="-4.46143">
        <ele>65.38</ele>
        <time>2022-07-12T14:23:56.000Z</time>
      </trkpt>
      <trkpt lat="48.28666" lon="-4.46148">
        <ele>65.15</ele>
        <time>2022-07-12T14:24:05.479Z</time>
      </trkpt>
      <trkpt lat="48.28674" lon="-4.46153">
        <ele>65.15</ele>
        <time>2022-07-12T14:24:14.849Z</time>
      </trkpt>
      <trkpt lat="48.28675" lon="-4.46155">
        <ele>65.22</ele>
        <time>2022-07-12T14:24:24.496Z</time>
      </trkpt>
      <trkpt lat="48.28679" lon="-4.46166">
        <ele>65.12</ele>
        <time>2022-07-12T14:24:34.000Z</time>
      </trkpt>
      <trkpt lat="48.28685" lon="-4.46176">
        <ele>64.93</ele>
        <time>2022-07-12T14:24:43.418Z</time>
      </trkpt>
      <trkpt lat="48.28687" lon="-4.46189">
        <ele>64.42</ele>
        <time>2022-07-12T14:24:52.821Z</time>
      </trkpt>
      <trkpt lat="48.28686" lon="-4.46185">
        <ele>64.42</ele>
        <time>2022-07-12T14:25:02.399Z</time>
      </trkpt>
      <trkpt lat="48.28684" lon="-4.46176">
        <ele>65.11</ele>
        <time>2022-07-12T14:25:11.843Z</time>
      </trkpt>
      <trkpt lat="48.28681" lon="-4.46165">
        <ele>65.12</ele>
        <time>2022-07-12T14:25:21.779Z</time>
      </trkpt>
      <trkpt lat="48.28683" lon="-4.46162">
        <ele>65.12</ele>
        <time>2022-07-12T14:25:31.000Z</time>
      </trkpt>
      <trkpt lat="48.28682" lon="-4.46161">
        <ele>65.2</ele>
        <time>2022-07-12T14:25:52.000Z</time>
      </trkpt>
      <trkpt lat="48.28679" lon="-4.4616">
        <ele>65.12</ele>
        <time>2022-07-12T14:26:01.276Z</time>
      </trkpt>
      <trkpt lat="48.28672" lon="-4.46148">
        <ele>65.13</ele>
        <time>2022-07-12T14:26:10.600Z</time>
      </trkpt>
      <trkpt lat="48.28663" lon="-4.46139">
        <ele>67.82</ele>
        <time>2022-07-12T14:26:20.000Z</time>
      </trkpt>
      <trkpt lat="48.28654" lon="-4.46135">
        <ele>67.82</ele>
        <time>2022-07-12T14:26:29.636Z</time>
      </trkpt>
      <trkpt lat="48.28644" lon="-4.46133">
        <ele>67.83</ele>
        <time>2022-07-12T14:26:39.000Z</time>
      </trkpt>
      <trkpt lat="48.28635" lon="-4.4613">
        <ele>67.73</ele>
        <time>2022-07-12T14:26:48.702Z</time>
      </trkpt>
      <trkpt lat="48.28631" lon="-4.46122">
        <ele>67.83</ele>
        <time>2022-07-12T14:26:58.000Z</time>
      </trkpt>
      <trkpt lat="48.28634" lon="-4.46112">
        <ele>67.73</ele>
        <time>2022-07-12T14:27:08.000Z</time>
      </trkpt>
      <trkpt lat="48.28632" lon="-4.46115">
        <ele>67.73</ele>
        <time>2022-07-12T14:27:18.000Z</time>
      </trkpt>
      <trkpt lat="48.28634" lon="-4.46111">
        <ele>67.73</ele>
        <time>2022-07-12T14:27:28.000Z</time>
      </trkpt>
      <trkpt lat="48.28635" lon="-4.46112">
        <ele>67.73</ele>
        <time>2022-07-12T14:27:38.000Z</time>
      </trkpt>
      <trkpt lat="48.28634" lon="-4.46113">
        <ele>67.83</ele>
        <time>2022-07-12T14:27:48.000Z</time>
      </trkpt>
      <trkpt lat="48.28636" lon="-4.46114">
        <ele>67.75</ele>
        <time>2022-07-12T14:27:58.000Z</time>
      </trkpt>
      <trkpt lat="48.28631" lon="-4.46119">
        <ele>67.73</ele>
        <time>2022-07-12T14:28:08.000Z</time>
      </trkpt>
      <trkpt lat="48.2863" lon="-4.46119">
        <ele>67.73</ele>
        <time>2022-07-12T14:28:37.582Z</time>
      </trkpt>
      <trkpt lat="48.2863" lon="-4.46121">
        <ele>67.73</ele>
        <time>2022-07-12T14:32:06.000Z</time>
      </trkpt>
      <trkpt lat="48.28631" lon="-4.4612">
        <ele>67.73</ele>
        <time>2022-07-12T14:32:26.000Z</time>
      </trkpt>
      <trkpt lat="48.2863" lon="-4.46121">
        <ele>67.73</ele>
        <time>2022-07-12T14:32:46.000Z</time>
      </trkpt>
      <trkpt lat="48.28631" lon="-4.46121">
        <ele>67.73</ele>
        <time>2022-07-12T14:32:56.000Z</time>
      </trkpt>
      <trkpt lat="48.2863" lon="-4.46121">
        <ele>67.73</ele>
        <time>2022-07-12T14:33:06.000Z</time>
      </trkpt>
      <trkpt lat="48.28631" lon="-4.46121">
        <ele>67.73</ele>
        <time>2022-07-12T14:33:19.962Z</time>
      </trkpt>
      <trkpt lat="48.28629" lon="-4.46122">
        <ele>67.73</ele>
        <time>2022-07-12T14:33:34.000Z</time>
      </trkpt>
      <trkpt lat="48.2863" lon="-4.46122">
        <ele>67.73</ele>
        <time>2022-07-12T14:33:44.000Z</time>
      </trkpt>
      <trkpt lat="48.28637" lon="-4.4612">
        <ele>67.73</ele>
        <time>2022-07-12T14:33:54.000Z</time>
      </trkpt>
      <trkpt lat="48.28636" lon="-4.4612">
        <ele>67.73</ele>
        <time>2022-07-12T14:34:05.620Z</time>
      </trkpt>
      <trkpt lat="48.28637" lon="-4.46119">
        <ele>67.73</ele>
        <time>2022-07-12T14:34:15.000Z</time>
      </trkpt>
      <trkpt lat="48.28633" lon="-4.4612">
        <ele>67.73</ele>
        <time>2022-07-12T14:34:25.734Z</time>
      </trkpt>
      <trkpt lat="48.28631" lon="-4.46121">
        <ele>67.73</ele>
        <time>2022-07-12T14:34:35.000Z</time>
      </trkpt>
      <trkpt lat="48.28635" lon="-4.4612">
        <ele>67.73</ele>
        <time>2022-07-12T14:34:46.000Z</time>
      </trkpt>
      <trkpt lat="48.28631" lon="-4.46121">
        <ele>67.73</ele>
        <time>2022-07-12T14:34:56.000Z</time>
      </trkpt>
      <trkpt lat="48.28635" lon="-4.4612">
        <ele>67.73</ele>
        <time>2022-07-12T14:35:07.000Z</time>
      </trkpt>
      <trkpt lat="48.28631" lon="-4.46121">
        <ele>67.73</ele>
        <time>2022-07-12T14:35:17.000Z</time>
      </trkpt>
      <trkpt lat="48.28634" lon="-4.4612">
        <ele>67.73</ele>
        <time>2022-07-12T14:36:02.000Z</time>
      </trkpt>
      <trkpt lat="48.2863" lon="-4.46122">
        <ele>67.73</ele>
        <time>2022-07-12T14:36:12.000Z</time>
      </trkpt>
      <trkpt lat="48.28631" lon="-4.46121">
        <ele>67.73</ele>
        <time>2022-07-12T14:36:29.000Z</time>
      </trkpt>
      <trkpt lat="48.28629" lon="-4.46122">
        <ele>67.73</ele>
        <time>2022-07-12T14:36:39.924Z</time>
      </trkpt>
      <trkpt lat="48.28634" lon="-4.46121">
        <ele>67.73</ele>
        <time>2022-07-12T14:36:49.000Z</time>
      </trkpt>
      <trkpt lat="48.28626" lon="-4.46096">
        <ele>67.73</ele>
        <time>2022-07-12T14:36:59.000Z</time>
      </trkpt>
      <trkpt lat="48.2863" lon="-4.46116">
        <ele>67.73</ele>
        <time>2022-07-12T14:37:09.000Z</time>
      </trkpt>
      <trkpt lat="48.28628" lon="-4.46117">
        <ele>67.73</ele>
        <time>2022-07-12T14:37:19.000Z</time>
      </trkpt>
      <trkpt lat="48.28625" lon="-4.46098">
        <ele>67.73</ele>
        <time>2022-07-12T14:37:29.000Z</time>
      </trkpt>
      <trkpt lat="48.28626" lon="-4.46115">
        <ele>67.73</ele>
        <time>2022-07-12T14:37:39.000Z</time>
      </trkpt>
      <trkpt lat="48.28628" lon="-4.46116">
        <ele>67.73</ele>
        <time>2022-07-12T14:37:49.000Z</time>
      </trkpt>
      <trkpt lat="48.28628" lon="-4.46114">
        <ele>67.73</ele>
        <time>2022-07-12T14:37:59.000Z</time>
      </trkpt>
      <trkpt lat="48.28628" lon="-4.46117">
        <ele>67.73</ele>
        <time>2022-07-12T14:38:09.000Z</time>
      </trkpt>
      <trkpt lat="48.28628" lon="-4.46105">
        <ele>67.73</ele>
        <time>2022-07-12T14:38:27.000Z</time>
      </trkpt>
      <trkpt lat="48.28629" lon="-4.46117">
        <ele>67.73</ele>
        <time>2022-07-12T14:38:37.000Z</time>
      </trkpt>
      <trkpt lat="48.28629" lon="-4.46114">
        <ele>67.73</ele>
        <time>2022-07-12T14:38:47.000Z</time>
      </trkpt>
      <trkpt lat="48.28629" lon="-4.46116">
        <ele>67.73</ele>
        <time>2022-07-12T14:38:58.000Z</time>
      </trkpt>
      <trkpt lat="48.28629" lon="-4.46115">
        <ele>67.73</ele>
        <time>2022-07-12T14:39:36.622Z</time>
      </trkpt>
      <trkpt lat="48.28628" lon="-4.46102">
        <ele>67.73</ele>
        <time>2022-07-12T14:39:46.000Z</time>
      </trkpt>
      <trkpt lat="48.28629" lon="-4.46116">
        <ele>67.73</ele>
        <time>2022-07-12T14:39:56.000Z</time>
      </trkpt>
      <trkpt lat="48.28628" lon="-4.46101">
        <ele>67.73</ele>
        <time>2022-07-12T14:40:06.000Z</time>
      </trkpt>
      <trkpt lat="48.28629" lon="-4.46116">
        <ele>67.73</ele>
        <time>2022-07-12T14:40:16.000Z</time>
      </trkpt>
      <trkpt lat="48.28629" lon="-4.46113">
        <ele>67.73</ele>
        <time>2022-07-12T14:40:26.000Z</time>
      </trkpt>
      <trkpt lat="48.28629" lon="-4.46112">
        <ele>67.73</ele>
        <time>2022-07-12T14:40:48.000Z</time>
      </trkpt>
      <trkpt lat="48.28629" lon="-4.46114">
        <ele>67.73</ele>
        <time>2022-07-12T14:40:59.483Z</time>
      </trkpt>
      <trkpt lat="48.28629" lon="-4.46122">
        <ele>67.73</ele>
        <time>2022-07-12T14:41:19.729Z</time>
      </trkpt>
      <trkpt lat="48.2863" lon="-4.4612">
        <ele>67.73</ele>
        <time>2022-07-12T14:41:55.000Z</time>
      </trkpt>
      <trkpt lat="48.28631" lon="-4.46125">
        <ele>67.73</ele>
        <time>2022-07-12T14:42:05.000Z</time>
      </trkpt>
      <trkpt lat="48.28629" lon="-4.46125">
        <ele>67.73</ele>
        <time>2022-07-12T14:42:15.000Z</time>
      </trkpt>
      <trkpt lat="48.28627" lon="-4.46125">
        <ele>67.73</ele>
        <time>2022-07-12T14:42:25.000Z</time>
      </trkpt>
      <trkpt lat="48.28622" lon="-4.46128">
        <ele>67.73</ele>
        <time>2022-07-12T14:42:35.000Z</time>
      </trkpt>
      <trkpt lat="48.28627" lon="-4.46123">
        <ele>67.73</ele>
        <time>2022-07-12T14:42:45.000Z</time>
      </trkpt>
      <trkpt lat="48.28628" lon="-4.46123">
        <ele>67.73</ele>
        <time>2022-07-12T14:43:00.000Z</time>
      </trkpt>
      <trkpt lat="48.28627" lon="-4.46122">
        <ele>67.73</ele>
        <time>2022-07-12T14:43:14.000Z</time>
      </trkpt>
      <trkpt lat="48.28628" lon="-4.46123">
        <ele>67.73</ele>
        <time>2022-07-12T14:43:24.000Z</time>
      </trkpt>
      <trkpt lat="48.28629" lon="-4.46122">
        <ele>67.73</ele>
        <time>2022-07-12T14:43:33.782Z</time>
      </trkpt>
      <trkpt lat="48.28628" lon="-4.4612">
        <ele>67.73</ele>
        <time>2022-07-12T14:43:48.000Z</time>
      </trkpt>
      <trkpt lat="48.28627" lon="-4.46119">
        <ele>67.73</ele>
        <time>2022-07-12T14:44:04.000Z</time>
      </trkpt>
      <trkpt lat="48.28627" lon="-4.46121">
        <ele>67.73</ele>
        <time>2022-07-12T14:44:14.000Z</time>
      </trkpt>
      <trkpt lat="48.28628" lon="-4.46121">
        <ele>67.73</ele>
        <time>2022-07-12T14:44:27.771Z</time>
      </trkpt>
      <trkpt lat="48.28621" lon="-4.46119">
        <ele>67.73</ele>
        <time>2022-07-12T14:44:38.000Z</time>
      </trkpt>
      <trkpt lat="48.28617" lon="-4.46117">
        <ele>67.73</ele>
        <time>2022-07-12T14:44:48.000Z</time>
      </trkpt>
      <trkpt lat="48.28629" lon="-4.46121">
        <ele>67.73</ele>
        <time>2022-07-12T14:44:58.000Z</time>
      </trkpt>
      <trkpt lat="48.28622" lon="-4.46119">
        <ele>67.73</ele>
        <time>2022-07-12T14:45:12.000Z</time>
      </trkpt>
      <trkpt lat="48.28629" lon="-4.46121">
        <ele>67.73</ele>
        <time>2022-07-12T14:45:22.000Z</time>
      </trkpt>
      <trkpt lat="48.28628" lon="-4.46121">
        <ele>67.73</ele>
        <time>2022-07-12T14:45:37.000Z</time>
      </trkpt>
      <trkpt lat="48.28629" lon="-4.46121">
        <ele>67.73</ele>
        <time>2022-07-12T14:46:10.000Z</time>
      </trkpt>
      <trkpt lat="48.28628" lon="-4.46121">
        <ele>67.73</ele>
        <time>2022-07-12T14:46:35.000Z</time>
      </trkpt>
      <trkpt lat="48.28629" lon="-4.46121">
        <ele>67.73</ele>
        <time>2022-07-12T14:47:01.000Z</time>
      </trkpt>
      <trkpt lat="48.28628" lon="-4.46121">
        <ele>67.73</ele>
        <time>2022-07-12T14:47:15.000Z</time>
      </trkpt>
      <trkpt lat="48.28629" lon="-4.46122">
        <ele>67.73</ele>
        <time>2022-07-12T14:47:26.032Z</time>
      </trkpt>
      <trkpt lat="48.28628" lon="-4.46121">
        <ele>67.73</ele>
        <time>2022-07-12T14:47:39.000Z</time>
      </trkpt>
      <trkpt lat="48.28629" lon="-4.46121">
        <ele>67.73</ele>
        <time>2022-07-12T14:48:17.000Z</time>
      </trkpt>
      <trkpt lat="48.28628" lon="-4.46121">
        <ele>67.73</ele>
        <time>2022-07-12T14:48:31.764Z</time>
      </trkpt>
      <trkpt lat="48.28627" lon="-4.46121">
        <ele>67.73</ele>
        <time>2022-07-12T14:49:05.000Z</time>
      </trkpt>
      <trkpt lat="48.28626" lon="-4.4612">
        <ele>67.73</ele>
        <time>2022-07-12T14:49:53.000Z</time>
      </trkpt>
      <trkpt lat="48.28627" lon="-4.46122">
        <ele>67.73</ele>
        <time>2022-07-12T14:50:06.000Z</time>
      </trkpt>
      <trkpt lat="48.28628" lon="-4.46121">
        <ele>67.73</ele>
        <time>2022-07-12T14:50:16.000Z</time>
      </trkpt>
      <trkpt lat="48.28627" lon="-4.46122">
        <ele>67.73</ele>
        <time>2022-07-12T14:50:33.000Z</time>
      </trkpt>
      <trkpt lat="48.28626" lon="-4.4612">
        <ele>67.73</ele>
        <time>2022-07-12T14:50:43.000Z</time>
      </trkpt>
      <trkpt lat="48.28626" lon="-4.46118">
        <ele>67.73</ele>
        <time>2022-07-12T14:50:53.000Z</time>
      </trkpt>
      <trkpt lat="48.28629" lon="-4.46119">
        <ele>67.73</ele>
        <time>2022-07-12T14:51:03.000Z</time>
      </trkpt>
      <trkpt lat="48.28628" lon="-4.46118">
        <ele>67.73</ele>
        <time>2022-07-12T14:51:13.000Z</time>
      </trkpt>
      <trkpt lat="48.28631" lon="-4.46118">
        <ele>67.73</ele>
        <time>2022-07-12T14:51:23.000Z</time>
      </trkpt>
      <trkpt lat="48.28679" lon="-4.4611">
        <ele>67.73</ele>
        <time>2022-07-12T14:51:33.000Z</time>
      </trkpt>
      <trkpt lat="48.287" lon="-4.46123">
        <ele>67.73</ele>
        <time>2022-07-12T14:51:43.000Z</time>
      </trkpt>
      <trkpt lat="48.28738" lon="-4.4613">
        <ele>67.73</ele>
        <time>2022-07-12T14:51:53.000Z</time>
      </trkpt>
      <trkpt lat="48.28713" lon="-4.46128">
        <ele>67.73</ele>
        <time>2022-07-12T14:52:03.000Z</time>
      </trkpt>
      <trkpt lat="48.28639" lon="-4.46137">
        <ele>67.73</ele>
        <time>2022-07-12T14:52:13.000Z</time>
      </trkpt>
      <trkpt lat="48.28624" lon="-4.46158">
        <ele>67.72</ele>
        <time>2022-07-12T14:52:23.000Z</time>
      </trkpt>
      <trkpt lat="48.28628" lon="-4.46144">
        <ele>67.73</ele>
        <time>2022-07-12T14:52:33.000Z</time>
      </trkpt>
      <trkpt lat="48.28626" lon="-4.4614">
        <ele>67.73</ele>
        <time>2022-07-12T14:52:43.000Z</time>
      </trkpt>
      <trkpt lat="48.28628" lon="-4.46134">
        <ele>67.73</ele>
        <time>2022-07-12T14:52:53.000Z</time>
      </trkpt>
      <trkpt lat="48.28627" lon="-4.46134">
        <ele>67.73</ele>
        <time>2022-07-12T14:53:04.000Z</time>
      </trkpt>
      <trkpt lat="48.28621" lon="-4.46132">
        <ele>67.73</ele>
        <time>2022-07-12T14:53:14.000Z</time>
      </trkpt>
      <trkpt lat="48.28604" lon="-4.46121">
        <ele>67.73</ele>
        <time>2022-07-12T14:53:24.000Z</time>
      </trkpt>
      <trkpt lat="48.28593" lon="-4.4611">
        <ele>67.73</ele>
        <time>2022-07-12T14:53:34.000Z</time>
      </trkpt>
      <trkpt lat="48.28595" lon="-4.46105">
        <ele>67.73</ele>
        <time>2022-07-12T14:53:44.000Z</time>
      </trkpt>
      <trkpt lat="48.28597" lon="-4.46111">
        <ele>67.73</ele>
        <time>2022-07-12T14:53:54.000Z</time>
      </trkpt>
      <trkpt lat="48.28601" lon="-4.46107">
        <ele>67.73</ele>
        <time>2022-07-12T14:54:04.000Z</time>
      </trkpt>
      <trkpt lat="48.28621" lon="-4.46117">
        <ele>67.73</ele>
        <time>2022-07-12T14:54:14.000Z</time>
      </trkpt>
      <trkpt lat="48.28627" lon="-4.46121">
        <ele>67.73</ele>
        <time>2022-07-12T14:54:24.000Z</time>
      </trkpt>
      <trkpt lat="48.28627" lon="-4.46117">
        <ele>67.73</ele>
        <time>2022-07-12T14:54:34.000Z</time>
      </trkpt>
      <trkpt lat="48.28628" lon="-4.46116">
        <ele>67.73</ele>
        <time>2022-07-12T14:54:45.809Z</time>
      </trkpt>
      <trkpt lat="48.2863" lon="-4.46118">
        <ele>67.73</ele>
        <time>2022-07-12T14:54:55.000Z</time>
      </trkpt>
      <trkpt lat="48.28629" lon="-4.46118">
        <ele>67.73</ele>
        <time>2022-07-12T14:55:05.000Z</time>
      </trkpt>
      <trkpt lat="48.28628" lon="-4.46119">
        <ele>67.73</ele>
        <time>2022-07-12T14:55:15.000Z</time>
      </trkpt>
      <trkpt lat="48.2863" lon="-4.46117">
        <ele>67.73</ele>
        <time>2022-07-12T14:55:29.000Z</time>
      </trkpt>
      <trkpt lat="48.28628" lon="-4.46119">
        <ele>67.73</ele>
        <time>2022-07-12T14:55:39.000Z</time>
      </trkpt>
      <trkpt lat="48.28628" lon="-4.46122">
        <ele>67.73</ele>
        <time>2022-07-12T14:55:49.000Z</time>
      </trkpt>
      <trkpt lat="48.28623" lon="-4.46118">
        <ele>67.73</ele>
        <time>2022-07-12T14:55:59.000Z</time>
      </trkpt>
      <trkpt lat="48.28621" lon="-4.46114">
        <ele>67.73</ele>
        <time>2022-07-12T14:56:11.221Z</time>
      </trkpt>
      <trkpt lat="48.28629" lon="-4.46122">
        <ele>67.73</ele>
        <time>2022-07-12T14:56:31.249Z</time>
      </trkpt>
      <trkpt lat="48.28629" lon="-4.46121">
        <ele>67.73</ele>
        <time>2022-07-12T14:57:51.000Z</time>
      </trkpt>
      <trkpt lat="48.28627" lon="-4.46121">
        <ele>67.73</ele>
        <time>2022-07-12T14:58:04.000Z</time>
      </trkpt>
      <trkpt lat="48.28626" lon="-4.4612">
        <ele>67.73</ele>
        <time>2022-07-12T14:58:17.000Z</time>
      </trkpt>
      <trkpt lat="48.28625" lon="-4.4612">
        <ele>67.73</ele>
        <time>2022-07-12T14:58:29.000Z</time>
      </trkpt>
      <trkpt lat="48.28623" lon="-4.4612">
        <ele>67.73</ele>
        <time>2022-07-12T14:58:46.000Z</time>
      </trkpt>
      <trkpt lat="48.28601" lon="-4.46111">
        <ele>67.73</ele>
        <time>2022-07-12T14:58:56.000Z</time>
      </trkpt>
      <trkpt lat="48.28597" lon="-4.4611">
        <ele>67.73</ele>
        <time>2022-07-12T14:59:06.000Z</time>
      </trkpt>
      <trkpt lat="48.28593" lon="-4.4611">
        <ele>67.73</ele>
        <time>2022-07-12T14:59:16.000Z</time>
      </trkpt>
      <trkpt lat="48.28595" lon="-4.46109">
        <ele>67.73</ele>
        <time>2022-07-12T14:59:26.000Z</time>
      </trkpt>
      <trkpt lat="48.28598" lon="-4.46107">
        <ele>67.73</ele>
        <time>2022-07-12T14:59:36.000Z</time>
      </trkpt>
      <trkpt lat="48.28594" lon="-4.46107">
        <ele>67.73</ele>
        <time>2022-07-12T14:59:46.000Z</time>
      </trkpt>
      <trkpt lat="48.28594" lon="-4.46102">
        <ele>67.73</ele>
        <time>2022-07-12T14:59:56.000Z</time>
      </trkpt>
      <trkpt lat="48.28594" lon="-4.46091">
        <ele>67.73</ele>
        <time>2022-07-12T15:00:06.000Z</time>
      </trkpt>
      <trkpt lat="48.28607" lon="-4.46087">
        <ele>67.73</ele>
        <time>2022-07-12T15:00:16.000Z</time>
      </trkpt>
      <trkpt lat="48.28618" lon="-4.46095">
        <ele>67.73</ele>
        <time>2022-07-12T15:00:26.000Z</time>
      </trkpt>
      <trkpt lat="48.28622" lon="-4.46098">
        <ele>67.73</ele>
        <time>2022-07-12T15:00:36.000Z</time>
      </trkpt>
      <trkpt lat="48.28623" lon="-4.46099">
        <ele>67.73</ele>
        <time>2022-07-12T15:00:58.000Z</time>
      </trkpt>
      <trkpt lat="48.28628" lon="-4.46099">
        <ele>67.73</ele>
        <time>2022-07-12T15:01:08.000Z</time>
      </trkpt>
      <trkpt lat="48.28627" lon="-4.46105">
        <ele>67.73</ele>
        <time>2022-07-12T15:01:18.000Z</time>
      </trkpt>
      <trkpt lat="48.28632" lon="-4.46109">
        <ele>67.73</ele>
        <time>2022-07-12T15:01:28.000Z</time>
      </trkpt>
      <trkpt lat="48.28637" lon="-4.46115">
        <ele>67.73</ele>
        <time>2022-07-12T15:01:38.000Z</time>
      </trkpt>
      <trkpt lat="48.2864" lon="-4.46117">
        <ele>67.73</ele>
        <time>2022-07-12T15:01:48.000Z</time>
      </trkpt>
      <trkpt lat="48.2864" lon="-4.46118">
        <ele>67.73</ele>
        <time>2022-07-12T15:01:59.000Z</time>
      </trkpt>
      <trkpt lat="48.28638" lon="-4.46112">
        <ele>67.73</ele>
        <time>2022-07-12T15:02:09.000Z</time>
      </trkpt>
      <trkpt lat="48.28633" lon="-4.4611">
        <ele>67.73</ele>
        <time>2022-07-12T15:02:19.000Z</time>
      </trkpt>
      <trkpt lat="48.28632" lon="-4.46109">
        <ele>67.73</ele>
        <time>2022-07-12T15:02:29.000Z</time>
      </trkpt>
      <trkpt lat="48.28632" lon="-4.46109">
        <ele>67.73</ele>
        <time>2022-07-12T15:02:52.000Z</time>
      </trkpt>
      <trkpt lat="48.28634" lon="-4.46111">
        <ele>67.73</ele>
        <time>2022-07-12T15:03:02.000Z</time>
      </trkpt>
      <trkpt lat="48.28635" lon="-4.46111">
        <ele>67.73</ele>
        <time>2022-07-12T15:03:12.000Z</time>
      </trkpt>
      <trkpt lat="48.28637" lon="-4.46113">
        <ele>67.73</ele>
        <time>2022-07-12T15:03:22.000Z</time>
      </trkpt>
      <trkpt lat="48.28638" lon="-4.46107">
        <ele>67.73</ele>
        <time>2022-07-12T15:03:32.000Z</time>
      </trkpt>
      <trkpt lat="48.28639" lon="-4.46104">
        <ele>67.73</ele>
        <time>2022-07-12T15:03:42.000Z</time>
      </trkpt>
      <trkpt lat="48.28642" lon="-4.46104">
        <ele>67.73</ele>
        <time>2022-07-12T15:03:52.000Z</time>
      </trkpt>
      <trkpt lat="48.28643" lon="-4.46104">
        <ele>67.73</ele>
        <time>2022-07-12T15:04:05.000Z</time>
      </trkpt>
      <trkpt lat="48.28646" lon="-4.46113">
        <ele>67.73</ele>
        <time>2022-07-12T15:04:15.000Z</time>
      </trkpt>
      <trkpt lat="48.28649" lon="-4.46114">
        <ele>67.73</ele>
        <time>2022-07-12T15:04:25.000Z</time>
      </trkpt>
      <trkpt lat="48.28655" lon="-4.46117">
        <ele>67.73</ele>
        <time>2022-07-12T15:04:35.000Z</time>
      </trkpt>
      <trkpt lat="48.28652" lon="-4.46118">
        <ele>67.73</ele>
        <time>2022-07-12T15:05:09.000Z</time>
      </trkpt>
      <trkpt lat="48.28641" lon="-4.46117">
        <ele>67.73</ele>
        <time>2022-07-12T15:05:19.000Z</time>
      </trkpt>
      <trkpt lat="48.28639" lon="-4.46111">
        <ele>67.73</ele>
        <time>2022-07-12T15:05:29.000Z</time>
      </trkpt>
      <trkpt lat="48.28635" lon="-4.46111">
        <ele>67.73</ele>
        <time>2022-07-12T15:05:39.000Z</time>
      </trkpt>
      <trkpt lat="48.28629" lon="-4.4611">
        <ele>67.73</ele>
        <time>2022-07-12T15:05:49.000Z</time>
      </trkpt>
      <trkpt lat="48.28629" lon="-4.46117">
        <ele>67.73</ele>
        <time>2022-07-12T15:05:58.909Z</time>
      </trkpt>
      <trkpt lat="48.28629" lon="-4.46122">
        <ele>67.73</ele>
        <time>2022-07-12T15:06:08.149Z</time>
      </trkpt>
      <trkpt lat="48.28629" lon="-4.46121">
        <ele>67.73</ele>
        <time>2022-07-12T15:06:29.000Z</time>
      </trkpt>
      <trkpt lat="48.28624" lon="-4.46115">
        <ele>67.83</ele>
        <time>2022-07-12T15:06:39.000Z</time>
      </trkpt>
      <trkpt lat="48.2862" lon="-4.46111">
        <ele>67.73</ele>
        <time>2022-07-12T15:06:48.449Z</time>
      </trkpt>
      <trkpt lat="48.28623" lon="-4.46115">
        <ele>67.73</ele>
        <time>2022-07-12T15:06:59.000Z</time>
      </trkpt>
      <trkpt lat="48.28627" lon="-4.46116">
        <ele>67.83</ele>
        <time>2022-07-12T15:07:08.687Z</time>
      </trkpt>
      <trkpt lat="48.28636" lon="-4.46113">
        <ele>67.73</ele>
        <time>2022-07-12T15:07:18.369Z</time>
      </trkpt>
      <trkpt lat="48.28649" lon="-4.46117">
        <ele>67.73</ele>
        <time>2022-07-12T15:07:27.784Z</time>
      </trkpt>
      <trkpt lat="48.28655" lon="-4.46122">
        <ele>67.82</ele>
        <time>2022-07-12T15:07:37.000Z</time>
      </trkpt>
      <trkpt lat="48.28663" lon="-4.4613">
        <ele>67.83</ele>
        <time>2022-07-12T15:07:46.340Z</time>
      </trkpt>
      <trkpt lat="48.28673" lon="-4.46136">
        <ele>65.13</ele>
        <time>2022-07-12T15:07:55.506Z</time>
      </trkpt>
      <trkpt lat="48.28681" lon="-4.4614">
        <ele>65.22</ele>
        <time>2022-07-12T15:08:05.000Z</time>
      </trkpt>
      <trkpt lat="48.28686" lon="-4.46148">
        <ele>65.13</ele>
        <time>2022-07-12T15:08:14.448Z</time>
      </trkpt>
      <trkpt lat="48.28687" lon="-4.46148">
        <ele>65.08</ele>
        <time>2022-07-12T15:08:23.700Z</time>
      </trkpt>
      <trkpt lat="48.28685" lon="-4.46148">
        <ele>65.13</ele>
        <time>2022-07-12T15:08:38.000Z</time>
      </trkpt>
      <trkpt lat="48.28684" lon="-4.46149">
        <ele>65.13</ele>
        <time>2022-07-12T15:09:37.529Z</time>
      </trkpt>
      <trkpt lat="48.28686" lon="-4.46153">
        <ele>65.12</ele>
        <time>2022-07-12T15:09:46.868Z</time>
      </trkpt>
      <trkpt lat="48.28691" lon="-4.46162">
        <ele>65.22</ele>
        <time>2022-07-12T15:09:56.422Z</time>
      </trkpt>
      <trkpt lat="48.28694" lon="-4.46178">
        <ele>64.55</ele>
        <time>2022-07-12T15:10:05.609Z</time>
      </trkpt>
      <trkpt lat="48.28697" lon="-4.46192">
        <ele>64.17</ele>
        <time>2022-07-12T15:10:14.650Z</time>
      </trkpt>
      <trkpt lat="48.28705" lon="-4.46201">
        <ele>64.12</ele>
        <time>2022-07-12T15:10:24.083Z</time>
      </trkpt>
      <trkpt lat="48.28715" lon="-4.46202">
        <ele>64.12</ele>
        <time>2022-07-12T15:10:33.369Z</time>
      </trkpt>
      <trkpt lat="48.28725" lon="-4.46208">
        <ele>63.32</ele>
        <time>2022-07-12T15:10:42.405Z</time>
      </trkpt>
      <trkpt lat="48.28732" lon="-4.46222">
        <ele>63.29</ele>
        <time>2022-07-12T15:10:51.484Z</time>
      </trkpt>
      <trkpt lat="48.2874" lon="-4.46225">
        <ele>62.8</ele>
        <time>2022-07-12T15:11:00.982Z</time>
      </trkpt>
      <trkpt lat="48.28729" lon="-4.46212">
        <ele>61.95</ele>
        <time>2022-07-12T15:11:10.002Z</time>
      </trkpt>
      <trkpt lat="48.28743" lon="-4.46266">
        <ele>61.46</ele>
        <time>2022-07-12T15:11:50.953Z</time>
      </trkpt>
      <trkpt lat="48.2877" lon="-4.46226">
        <ele>59.62</ele>
        <time>2022-07-12T15:12:00.000Z</time>
      </trkpt>
      <trkpt lat="48.28771" lon="-4.46225">
        <ele>61.22</ele>
        <time>2022-07-12T15:12:11.000Z</time>
      </trkpt>
      <trkpt lat="48.28773" lon="-4.46236">
        <ele>59.62</ele>
        <time>2022-07-12T15:12:20.514Z</time>
      </trkpt>
      <trkpt lat="48.2878" lon="-4.46241">
        <ele>59.62</ele>
        <time>2022-07-12T15:12:29.594Z</time>
      </trkpt>
      <trkpt lat="48.28787" lon="-4.46246">
        <ele>59.32</ele>
        <time>2022-07-12T15:12:39.190Z</time>
      </trkpt>
      <trkpt lat="48.28795" lon="-4.46252">
        <ele>58.72</ele>
        <time>2022-07-12T15:12:48.709Z</time>
      </trkpt>
      <trkpt lat="48.28796" lon="-4.46254">
        <ele>58.62</ele>
        <time>2022-07-12T15:12:58.135Z</time>
      </trkpt>
      <trkpt lat="48.28803" lon="-4.46263">
        <ele>58.63</ele>
        <time>2022-07-12T15:13:08.331Z</time>
      </trkpt>
      <trkpt lat="48.2881" lon="-4.46272">
        <ele>58.62</ele>
        <time>2022-07-12T15:13:17.533Z</time>
      </trkpt>
      <trkpt lat="48.28816" lon="-4.4628">
        <ele>58.63</ele>
        <time>2022-07-12T15:13:26.631Z</time>
      </trkpt>
      <trkpt lat="48.28825" lon="-4.4628">
        <ele>56.3</ele>
        <time>2022-07-12T15:13:35.632Z</time>
      </trkpt>
      <trkpt lat="48.28834" lon="-4.4628">
        <ele>55.52</ele>
        <time>2022-07-12T15:13:45.809Z</time>
      </trkpt>
      <trkpt lat="48.28843" lon="-4.46279">
        <ele>55.52</ele>
        <time>2022-07-12T15:13:54.890Z</time>
      </trkpt>
      <trkpt lat="48.2885" lon="-4.46284">
        <ele>55.52</ele>
        <time>2022-07-12T15:14:04.635Z</time>
      </trkpt>
      <trkpt lat="48.28858" lon="-4.46287">
        <ele>55.52</ele>
        <time>2022-07-12T15:14:13.794Z</time>
      </trkpt>
      <trkpt lat="48.28864" lon="-4.46288">
        <ele>55.52</ele>
        <time>2022-07-12T15:14:23.287Z</time>
      </trkpt>
      <trkpt lat="48.28872" lon="-4.46292">
        <ele>55.52</ele>
        <time>2022-07-12T15:14:32.689Z</time>
      </trkpt>
      <trkpt lat="48.28878" lon="-4.46295">
        <ele>55.52</ele>
        <time>2022-07-12T15:14:42.000Z</time>
      </trkpt>
      <trkpt lat="48.28886" lon="-4.46298">
        <ele>55.52</ele>
        <time>2022-07-12T15:14:51.415Z</time>
      </trkpt>
      <trkpt lat="48.2889" lon="-4.46299">
        <ele>55.52</ele>
        <time>2022-07-12T15:15:00.874Z</time>
      </trkpt>
      <trkpt lat="48.28898" lon="-4.46302">
        <ele>55.52</ele>
        <time>2022-07-12T15:15:10.000Z</time>
      </trkpt>
      <trkpt lat="48.28906" lon="-4.46308">
        <ele>55.52</ele>
        <time>2022-07-12T15:15:19.233Z</time>
      </trkpt>
      <trkpt lat="48.28911" lon="-4.46315">
        <ele>55.52</ele>
        <time>2022-07-12T15:15:28.452Z</time>
      </trkpt>
      <trkpt lat="48.28913" lon="-4.4633">
        <ele>55.52</ele>
        <time>2022-07-12T15:15:37.569Z</time>
      </trkpt>
      <trkpt lat="48.28924" lon="-4.46332">
        <ele>41.62</ele>
        <time>2022-07-12T15:15:46.968Z</time>
      </trkpt>
      <trkpt lat="48.28929" lon="-4.46332">
        <ele>40.87</ele>
        <time>2022-07-12T15:15:56.000Z</time>
      </trkpt>
      <trkpt lat="48.28935" lon="-4.46329">
        <ele>41.62</ele>
        <time>2022-07-12T15:16:05.853Z</time>
      </trkpt>
      <trkpt lat="48.28948" lon="-4.46319">
        <ele>39.69</ele>
        <time>2022-07-12T15:16:15.094Z</time>
      </trkpt>
      <trkpt lat="48.28953" lon="-4.46318">
        <ele>39.62</ele>
        <time>2022-07-12T15:16:25.000Z</time>
      </trkpt>
      <trkpt lat="48.28955" lon="-4.46322">
        <ele>37.69</ele>
        <time>2022-07-12T15:16:34.173Z</time>
      </trkpt>
      <trkpt lat="48.28961" lon="-4.46329">
        <ele>36.62</ele>
        <time>2022-07-12T15:16:43.869Z</time>
      </trkpt>
      <trkpt lat="48.2897" lon="-4.46328">
        <ele>36.62</ele>
        <time>2022-07-12T15:16:53.052Z</time>
      </trkpt>
      <trkpt lat="48.28972" lon="-4.46315">
        <ele>34.62</ele>
        <time>2022-07-12T15:17:02.848Z</time>
      </trkpt>
      <trkpt lat="48.28979" lon="-4.46305">
        <ele>33.62</ele>
        <time>2022-07-12T15:17:12.832Z</time>
      </trkpt>
      <trkpt lat="48.28986" lon="-4.46299">
        <ele>33.62</ele>
        <time>2022-07-12T15:17:22.832Z</time>
      </trkpt>
      <trkpt lat="48.28991" lon="-4.46291">
        <ele>32.62</ele>
        <time>2022-07-12T15:17:32.809Z</time>
      </trkpt>
      <trkpt lat="48.28995" lon="-4.46285">
        <ele>31.64</ele>
        <time>2022-07-12T15:17:42.913Z</time>
      </trkpt>
      <trkpt lat="48.28997" lon="-4.46275">
        <ele>30.62</ele>
        <time>2022-07-12T15:17:51.929Z</time>
      </trkpt>
      <trkpt lat="48.29002" lon="-4.46261">
        <ele>30.62</ele>
        <time>2022-07-12T15:18:01.848Z</time>
      </trkpt>
      <trkpt lat="48.29009" lon="-4.46251">
        <ele>28.69</ele>
        <time>2022-07-12T15:18:11.250Z</time>
      </trkpt>
      <trkpt lat="48.29014" lon="-4.46242">
        <ele>28.61</ele>
        <time>2022-07-12T15:18:21.000Z</time>
      </trkpt>
      <trkpt lat="48.29013" lon="-4.4624">
        <ele>27.62</ele>
        <time>2022-07-12T15:18:31.000Z</time>
      </trkpt>
      <trkpt lat="48.29011" lon="-4.46241">
        <ele>25.94</ele>
        <time>2022-07-12T15:18:42.000Z</time>
      </trkpt>
      <trkpt lat="48.29014" lon="-4.46237">
        <ele>24.62</ele>
        <time>2022-07-12T15:18:51.649Z</time>
      </trkpt>
      <trkpt lat="48.29023" lon="-4.4623">
        <ele>24.69</ele>
        <time>2022-07-12T15:19:00.795Z</time>
      </trkpt>
      <trkpt lat="48.2903" lon="-4.46223">
        <ele>23.62</ele>
        <time>2022-07-12T15:19:10.000Z</time>
      </trkpt>
      <trkpt lat="48.29037" lon="-4.46216">
        <ele>24.62</ele>
        <time>2022-07-12T15:19:19.771Z</time>
      </trkpt>
      <trkpt lat="48.29045" lon="-4.46214">
        <ele>22.63</ele>
        <time>2022-07-12T15:19:29.691Z</time>
      </trkpt>
      <trkpt lat="48.29053" lon="-4.46211">
        <ele>22.38</ele>
        <time>2022-07-12T15:19:39.669Z</time>
      </trkpt>
      <trkpt lat="48.29059" lon="-4.46203">
        <ele>21.62</ele>
        <time>2022-07-12T15:19:49.000Z</time>
      </trkpt>
      <trkpt lat="48.29066" lon="-4.46194">
        <ele>21.62</ele>
        <time>2022-07-12T15:19:58.551Z</time>
      </trkpt>
      <trkpt lat="48.29073" lon="-4.46187">
        <ele>21.62</ele>
        <time>2022-07-12T15:20:07.952Z</time>
      </trkpt>
      <trkpt lat="48.29081" lon="-4.46182">
        <ele>22.62</ele>
        <time>2022-07-12T15:20:17.552Z</time>
      </trkpt>
      <trkpt lat="48.29088" lon="-4.46177">
        <ele>21.62</ele>
        <time>2022-07-12T15:20:26.571Z</time>
      </trkpt>
      <trkpt lat="48.29096" lon="-4.46172">
        <ele>22.62</ele>
        <time>2022-07-12T15:20:36.000Z</time>
      </trkpt>
      <trkpt lat="48.29103" lon="-4.46167">
        <ele>22.62</ele>
        <time>2022-07-12T15:20:45.055Z</time>
      </trkpt>
      <trkpt lat="48.2911" lon="-4.46161">
        <ele>21.62</ele>
        <time>2022-07-12T15:20:54.573Z</time>
      </trkpt>
      <trkpt lat="48.29116" lon="-4.46156">
        <ele>23.62</ele>
        <time>2022-07-12T15:21:03.574Z</time>
      </trkpt>
      <trkpt lat="48.29124" lon="-4.46148">
        <ele>24.62</ele>
        <time>2022-07-12T15:21:13.000Z</time>
      </trkpt>
      <trkpt lat="48.29132" lon="-4.46141">
        <ele>26.56</ele>
        <time>2022-07-12T15:21:22.791Z</time>
      </trkpt>
      <trkpt lat="48.29141" lon="-4.46138">
        <ele>25.86</ele>
        <time>2022-07-12T15:21:32.232Z</time>
      </trkpt>
      <trkpt lat="48.29147" lon="-4.46132">
        <ele>25.62</ele>
        <time>2022-07-12T15:21:41.290Z</time>
      </trkpt>
      <trkpt lat="48.29151" lon="-4.46122">
        <ele>25.37</ele>
        <time>2022-07-12T15:21:50.876Z</time>
      </trkpt>
      <trkpt lat="48.29156" lon="-4.46112">
        <ele>26.62</ele>
        <time>2022-07-12T15:22:01.000Z</time>
      </trkpt>
      <trkpt lat="48.2916" lon="-4.46103">
        <ele>24.88</ele>
        <time>2022-07-12T15:22:10.430Z</time>
      </trkpt>
      <trkpt lat="48.29164" lon="-4.46092">
        <ele>23.63</ele>
        <time>2022-07-12T15:22:19.714Z</time>
      </trkpt>
      <trkpt lat="48.29168" lon="-4.4608">
        <ele>24.57</ele>
        <time>2022-07-12T15:22:29.000Z</time>
      </trkpt>
      <trkpt lat="48.29172" lon="-4.4607">
        <ele>25.63</ele>
        <time>2022-07-12T15:22:38.475Z</time>
      </trkpt>
      <trkpt lat="48.29176" lon="-4.4606">
        <ele>25.64</ele>
        <time>2022-07-12T15:22:47.752Z</time>
      </trkpt>
      <trkpt lat="48.29179" lon="-4.46049">
        <ele>25.63</ele>
        <time>2022-07-12T15:22:57.000Z</time>
      </trkpt>
      <trkpt lat="48.29182" lon="-4.46037">
        <ele>8.34</ele>
        <time>2022-07-12T15:23:06.731Z</time>
      </trkpt>
      <trkpt lat="48.29185" lon="-4.46031">
        <ele>4.34</ele>
        <time>2022-07-12T15:23:15.968Z</time>
      </trkpt>
      <trkpt lat="48.29189" lon="-4.46022">
        <ele>4.33</ele>
        <time>2022-07-12T15:23:25.296Z</time>
      </trkpt>
      <trkpt lat="48.29191" lon="-4.46015">
        <ele>7.33</ele>
        <time>2022-07-12T15:23:34.555Z</time>
      </trkpt>
      <trkpt lat="48.29194" lon="-4.46007">
        <ele>8.33</ele>
        <time>2022-07-12T15:23:43.928Z</time>
      </trkpt>
      <trkpt lat="48.292" lon="-4.45994">
        <ele>8.33</ele>
        <time>2022-07-12T15:23:53.931Z</time>
      </trkpt>
      <trkpt lat="48.29203" lon="-4.45988">
        <ele>8.33</ele>
        <time>2022-07-12T15:24:03.512Z</time>
      </trkpt>
      <trkpt lat="48.29209" lon="-4.45979">
        <ele>8.33</ele>
        <time>2022-07-12T15:24:13.000Z</time>
      </trkpt>
      <trkpt lat="48.2921" lon="-4.45977">
        <ele>8.33</ele>
        <time>2022-07-12T15:24:23.709Z</time>
      </trkpt>
      <trkpt lat="48.29212" lon="-4.45971">
        <ele>8.33</ele>
        <time>2022-07-12T15:24:33.000Z</time>
      </trkpt>
      <trkpt lat="48.29216" lon="-4.45959">
        <ele>8.33</ele>
        <time>2022-07-12T15:24:42.410Z</time>
      </trkpt>
      <trkpt lat="48.29218" lon="-4.45945">
        <ele>8.33</ele>
        <time>2022-07-12T15:24:51.934Z</time>
      </trkpt>
      <trkpt lat="48.29218" lon="-4.45932">
        <ele>8.33</ele>
        <time>2022-07-12T15:25:01.488Z</time>
      </trkpt>
      <trkpt lat="48.29215" lon="-4.45925">
        <ele>8.33</ele>
        <time>2022-07-12T15:25:11.000Z</time>
      </trkpt>
      <trkpt lat="48.29214" lon="-4.45922">
        <ele>8.33</ele>
        <time>2022-07-12T15:25:21.000Z</time>
      </trkpt>
      <trkpt lat="48.29213" lon="-4.45921">
        <ele>8.33</ele>
        <time>2022-07-12T15:25:44.000Z</time>
      </trkpt>
      <trkpt lat="48.29213" lon="-4.45919">
        <ele>8.33</ele>
        <time>2022-07-12T15:26:10.000Z</time>
      </trkpt>
      <trkpt lat="48.29213" lon="-4.45917">
        <ele>8.33</ele>
        <time>2022-07-12T15:26:20.000Z</time>
      </trkpt>
      <trkpt lat="48.29214" lon="-4.45916">
        <ele>8.33</ele>
        <time>2022-07-12T15:26:30.000Z</time>
      </trkpt>
      <trkpt lat="48.29214" lon="-4.45914">
        <ele>8.33</ele>
        <time>2022-07-12T15:27:16.000Z</time>
      </trkpt>
      <trkpt lat="48.29214" lon="-4.45916">
        <ele>8.33</ele>
        <time>2022-07-12T15:28:03.828Z</time>
      </trkpt>
      <trkpt lat="48.29219" lon="-4.45921">
        <ele>8.33</ele>
        <time>2022-07-12T15:28:13.000Z</time>
      </trkpt>
      <trkpt lat="48.29226" lon="-4.45927">
        <ele>8.33</ele>
        <time>2022-07-12T15:28:22.448Z</time>
      </trkpt>
      <trkpt lat="48.29233" lon="-4.45933">
        <ele>8.33</ele>
        <time>2022-07-12T15:28:31.871Z</time>
      </trkpt>
      <trkpt lat="48.29243" lon="-4.45945">
        <ele>8.33</ele>
        <time>2022-07-12T15:28:41.408Z</time>
      </trkpt>
      <trkpt lat="48.29249" lon="-4.45954">
        <ele>5.4</ele>
        <time>2022-07-12T15:28:50.511Z</time>
      </trkpt>
      <trkpt lat="48.29257" lon="-4.45964">
        <ele>8.26</ele>
        <time>2022-07-12T15:28:59.852Z</time>
      </trkpt>
      <trkpt lat="48.29263" lon="-4.45974">
        <ele>4.58</ele>
        <time>2022-07-12T15:29:08.929Z</time>
      </trkpt>
      <trkpt lat="48.29264" lon="-4.45978">
        <ele>4.33</ele>
        <time>2022-07-12T15:29:18.000Z</time>
      </trkpt>
      <trkpt lat="48.29265" lon="-4.45977">
        <ele>4.33</ele>
        <time>2022-07-12T15:29:34.000Z</time>
      </trkpt>
      <trkpt lat="48.29264" lon="-4.45975">
        <ele>4.33</ele>
        <time>2022-07-12T15:30:42.000Z</time>
      </trkpt>
      <trkpt lat="48.29263" lon="-4.45975">
        <ele>4.33</ele>
        <time>2022-07-12T15:30:53.000Z</time>
      </trkpt>
      <trkpt lat="48.29257" lon="-4.4598">
        <ele>4.33</ele>
        <time>2022-07-12T15:31:03.000Z</time>
      </trkpt>
      <trkpt lat="48.29256" lon="-4.4598">
        <ele>4.33</ele>
        <time>2022-07-12T15:31:13.000Z</time>
      </trkpt>
      <trkpt lat="48.29257" lon="-4.45982">
        <ele>4.33</ele>
        <time>2022-07-12T15:31:23.000Z</time>
      </trkpt>
      <trkpt lat="48.29256" lon="-4.45982">
        <ele>4.33</ele>
        <time>2022-07-12T15:31:33.000Z</time>
      </trkpt>
      <trkpt lat="48.29257" lon="-4.45983">
        <ele>4.33</ele>
        <time>2022-07-12T15:32:09.000Z</time>
      </trkpt>
      <trkpt lat="48.29258" lon="-4.45984">
        <ele>4.33</ele>
        <time>2022-07-12T15:32:19.000Z</time>
      </trkpt>
      <trkpt lat="48.29258" lon="-4.45986">
        <ele>4.33</ele>
        <time>2022-07-12T15:32:29.000Z</time>
      </trkpt>
      <trkpt lat="48.29259" lon="-4.45986">
        <ele>4.33</ele>
        <time>2022-07-12T15:33:01.000Z</time>
      </trkpt>
      <trkpt lat="48.29261" lon="-4.45987">
        <ele>4.33</ele>
        <time>2022-07-12T15:38:45.000Z</time>
      </trkpt>
      <trkpt lat="48.29262" lon="-4.45989">
        <ele>4.33</ele>
        <time>2022-07-12T15:38:55.000Z</time>
      </trkpt>
      <trkpt lat="48.29262" lon="-4.45987">
        <ele>4.33</ele>
        <time>2022-07-12T15:41:45.000Z</time>
      </trkpt>
      <trkpt lat="48.29263" lon="-4.45987">
        <ele>4.33</ele>
        <time>2022-07-12T15:42:24.000Z</time>
      </trkpt>
      <trkpt lat="48.29263" lon="-4.45989">
        <ele>4.33</ele>
        <time>2022-07-12T15:42:35.000Z</time>
      </trkpt>
      <trkpt lat="48.29264" lon="-4.4599">
        <ele>4.33</ele>
        <time>2022-07-12T15:43:31.000Z</time>
      </trkpt>
      <trkpt lat="48.29265" lon="-4.45991">
        <ele>4.33</ele>
        <time>2022-07-12T15:46:31.000Z</time>
      </trkpt>
      <trkpt lat="48.29264" lon="-4.4599">
        <ele>4.33</ele>
        <time>2022-07-12T15:52:50.000Z</time>
      </trkpt>
      <trkpt lat="48.29262" lon="-4.45989">
        <ele>4.33</ele>
        <time>2022-07-12T15:53:00.000Z</time>
      </trkpt>
      <trkpt lat="48.29263" lon="-4.45988">
        <ele>4.33</ele>
        <time>2022-07-12T15:53:16.000Z</time>
      </trkpt>
      <trkpt lat="48.29264" lon="-4.45986">
        <ele>4.33</ele>
        <time>2022-07-12T15:53:26.000Z</time>
      </trkpt>
      <trkpt lat="48.29262" lon="-4.45979">
        <ele>4.33</ele>
        <time>2022-07-12T15:53:36.000Z</time>
      </trkpt>
      <trkpt lat="48.29263" lon="-4.4598">
        <ele>4.33</ele>
        <time>2022-07-12T15:54:01.000Z</time>
      </trkpt>
      <trkpt lat="48.29269" lon="-4.45987">
        <ele>4.33</ele>
        <time>2022-07-12T15:54:11.000Z</time>
      </trkpt>
      <trkpt lat="48.29268" lon="-4.45992">
        <ele>4.33</ele>
        <time>2022-07-12T15:54:21.000Z</time>
      </trkpt>
      <trkpt lat="48.29266" lon="-4.45992">
        <ele>4.33</ele>
        <time>2022-07-12T15:54:42.000Z</time>
      </trkpt>
      <trkpt lat="48.29263" lon="-4.45992">
        <ele>4.33</ele>
        <time>2022-07-12T15:54:52.000Z</time>
      </trkpt>
      <trkpt lat="48.29262" lon="-4.45991">
        <ele>4.33</ele>
        <time>2022-07-12T15:55:09.000Z</time>
      </trkpt>
      <trkpt lat="48.29262" lon="-4.4599">
        <ele>4.33</ele>
        <time>2022-07-12T15:55:19.000Z</time>
      </trkpt>
      <trkpt lat="48.2926" lon="-4.45991">
        <ele>4.33</ele>
        <time>2022-07-12T15:56:21.000Z</time>
      </trkpt>
      <trkpt lat="48.29262" lon="-4.45991">
        <ele>4.33</ele>
        <time>2022-07-12T15:57:20.000Z</time>
      </trkpt>
      <trkpt lat="48.29261" lon="-4.45989">
        <ele>4.33</ele>
        <time>2022-07-12T15:58:01.000Z</time>
      </trkpt>
      <trkpt lat="48.29262" lon="-4.45987">
        <ele>4.33</ele>
        <time>2022-07-12T15:58:12.000Z</time>
      </trkpt>
      <trkpt lat="48.29264" lon="-4.45986">
        <ele>4.33</ele>
        <time>2022-07-12T15:58:15.000Z</time>
      </trkpt>
    </trkseg>
  </trk>
</gpx>